<?xml version="1.0" encoding="UTF-8" standalone="no" ?>
<gpx xmlns="http://www.topografix.com/GPX/1/1" xmlns:xsi="http://www.w3.org/2001/XMLSchema-instance" xsi:schemaLocation="http://www.topografix.com/GPX/1/1 http://www.topografix.com/GPX/1/1/gpx.xsd" version="1.1" creator="VisuGPX - https://www.visugpx.com">
  <metadata>
    <name>Route 111 km Guidon Aubersois 2025</name>
    <desc><![CDATA[Brevet Guidons Aubersois dimanche 14 septembre 2025]]></desc>
  </metadata>
  <wpt lat="0" lon="0">
    <name><![CDATA[RAVITO]]></name>
  </wpt>
  <wpt lat="0" lon="0">
  </wpt>
  <wpt lat="50.44493" lon="2.67692">
    <ele>70.899044534472</ele>
    <name><![CDATA[RAVITO]]></name>
  </wpt>
  <wpt lat="50.39652" lon="2.69743">
    <ele>102.46972345227</ele>
    <name><![CDATA[RAVITO]]></name>
  </wpt>
  <wpt lat="0" lon="0">
    <name><![CDATA[pt.raccrochage 89K]]></name>
  </wpt>
  <wpt lat="50.37741" lon="2.69663">
    <ele>119.22959799729</ele>
    <name><![CDATA[pt.raccrochage 89K]]></name>
  </wpt>
  <wpt lat="0" lon="0">
    <name><![CDATA[pt.séparation 89K]]></name>
  </wpt>
  <wpt lat="50.39071" lon="2.71802">
    <ele>86.86886173973</ele>
    <name><![CDATA[pt.séparation 89K]]></name>
  </wpt>
  <wpt lat="50.4631" lon="2.60825">
    <ele>65.870827946674</ele>
    <name><![CDATA[pt.séparation 65K]]></name>
  </wpt>
  <wpt lat="50.44276" lon="2.67232">
    <ele>71.897425414715</ele>
    <name><![CDATA[pt.raccrochage]]></name>
  </wpt>
  <wpt lat="50.40998" lon="2.64235">
    <ele>162.8</ele>
    <name><![CDATA[pt.raccrochage]]></name>
  </wpt>
  <wpt lat="50.52181" lon="2.74779">
    <ele>21.887954062225</ele>
    <name><![CDATA[pt.séparation]]></name>
  </wpt>
  <wpt lat="50.49581" lon="2.75007">
    <ele>28.134259105055</ele>
    <name><![CDATA[pt.raccrochage]]></name>
  </wpt>
  <trk>
    <name><![CDATA[Aubers 111 km]]></name>
    <trkseg>
      <trkpt lat="50.59512" lon="2.82939">
        <ele>30.54</ele>
        <time>2024-09-04T11:45:37.000Z</time>
      </trkpt>
      <trkpt lat="50.59505" lon="2.8293">
        <ele>30.65</ele>
        <time>2024-09-04T11:45:37.001Z</time>
      </trkpt>
      <trkpt lat="50.59502" lon="2.82925">
        <ele>30.76</ele>
        <time>2024-09-04T11:45:37.003Z</time>
      </trkpt>
      <trkpt lat="50.59485" lon="2.82895">
        <ele>30.93</ele>
        <time>2024-09-04T11:45:37.009Z</time>
      </trkpt>
      <trkpt lat="50.59477" lon="2.82881">
        <ele>31.11</ele>
        <time>2024-09-04T11:45:37.017Z</time>
      </trkpt>
      <trkpt lat="50.5947" lon="2.82873">
        <ele>31.3</ele>
        <time>2024-09-04T11:45:37.026Z</time>
      </trkpt>
      <trkpt lat="50.59454" lon="2.8285">
        <ele>31.52</ele>
        <time>2024-09-04T11:45:37.039Z</time>
      </trkpt>
      <trkpt lat="50.59437" lon="2.82827">
        <ele>31.79</ele>
        <time>2024-09-04T11:45:37.056Z</time>
      </trkpt>
      <trkpt lat="50.59433" lon="2.82822">
        <ele>32.03</ele>
        <time>2024-09-04T11:45:37.073Z</time>
      </trkpt>
      <trkpt lat="50.59442" lon="2.82803">
        <ele>32.25</ele>
        <time>2024-09-04T11:45:37.093Z</time>
      </trkpt>
      <trkpt lat="50.59458" lon="2.82768">
        <ele>32.37</ele>
        <time>2024-09-04T11:45:37.117Z</time>
      </trkpt>
      <trkpt lat="50.59475" lon="2.82734">
        <ele>32.43</ele>
        <time>2024-09-04T11:45:37.146Z</time>
      </trkpt>
      <trkpt lat="50.59487" lon="2.82712">
        <ele>32.51</ele>
        <time>2024-09-04T11:45:37.178Z</time>
      </trkpt>
      <trkpt lat="50.59498" lon="2.8269">
        <ele>32.58</ele>
        <time>2024-09-04T11:45:37.212Z</time>
      </trkpt>
      <trkpt lat="50.59511" lon="2.82669">
        <ele>32.66</ele>
        <time>2024-09-04T11:45:37.249Z</time>
      </trkpt>
      <trkpt lat="50.59527" lon="2.82646">
        <ele>32.73</ele>
        <time>2024-09-04T11:45:37.290Z</time>
      </trkpt>
      <trkpt lat="50.59549" lon="2.82621">
        <ele>32.88</ele>
        <time>2024-09-04T11:45:37.335Z</time>
      </trkpt>
      <trkpt lat="50.5957" lon="2.82596">
        <ele>32.86</ele>
        <time>2024-09-04T11:45:37.385Z</time>
      </trkpt>
      <trkpt lat="50.5958" lon="2.82583">
        <ele>32.88</ele>
        <time>2024-09-04T11:45:37.437Z</time>
      </trkpt>
      <trkpt lat="50.59576" lon="2.82579">
        <ele>32.93</ele>
        <time>2024-09-04T11:45:37.489Z</time>
      </trkpt>
      <trkpt lat="50.59574" lon="2.82576">
        <ele>32.99</ele>
        <time>2024-09-04T11:45:37.542Z</time>
      </trkpt>
      <trkpt lat="50.59562" lon="2.82553">
        <ele>33.07</ele>
        <time>2024-09-04T11:45:37.598Z</time>
      </trkpt>
      <trkpt lat="50.5956" lon="2.82544">
        <ele>33.15</ele>
        <time>2024-09-04T11:45:37.655Z</time>
      </trkpt>
      <trkpt lat="50.59558" lon="2.82534">
        <ele>33.22</ele>
        <time>2024-09-04T11:45:37.713Z</time>
      </trkpt>
      <trkpt lat="50.59553" lon="2.82505">
        <ele>33.32</ele>
        <time>2024-09-04T11:45:37.774Z</time>
      </trkpt>
      <trkpt lat="50.59549" lon="2.82491">
        <ele>33.43</ele>
        <time>2024-09-04T11:45:37.837Z</time>
      </trkpt>
      <trkpt lat="50.59544" lon="2.8248">
        <ele>33.55</ele>
        <time>2024-09-04T11:45:37.901Z</time>
      </trkpt>
      <trkpt lat="50.59535" lon="2.82463">
        <ele>33.71</ele>
        <time>2024-09-04T11:45:37.967Z</time>
      </trkpt>
      <trkpt lat="50.59532" lon="2.82458">
        <ele>33.82</ele>
        <time>2024-09-04T11:45:38.034Z</time>
      </trkpt>
      <trkpt lat="50.59522" lon="2.82439">
        <ele>33.89</ele>
        <time>2024-09-04T11:45:38.103Z</time>
      </trkpt>
      <trkpt lat="50.59515" lon="2.82421">
        <ele>33.91</ele>
        <time>2024-09-04T11:45:38.175Z</time>
      </trkpt>
      <trkpt lat="50.59513" lon="2.82416">
        <ele>33.91</ele>
        <time>2024-09-04T11:45:38.247Z</time>
      </trkpt>
      <trkpt lat="50.59513" lon="2.82415">
        <ele>33.88</ele>
        <time>2024-09-04T11:45:38.319Z</time>
      </trkpt>
      <trkpt lat="50.59508" lon="2.8241">
        <ele>33.83</ele>
        <time>2024-09-04T11:45:38.392Z</time>
      </trkpt>
      <trkpt lat="50.59506" lon="2.82406">
        <ele>33.74</ele>
        <time>2024-09-04T11:45:38.466Z</time>
      </trkpt>
      <trkpt lat="50.59502" lon="2.82393">
        <ele>33.6</ele>
        <time>2024-09-04T11:45:38.541Z</time>
      </trkpt>
      <trkpt lat="50.59502" lon="2.82388">
        <ele>33.43</ele>
        <time>2024-09-04T11:45:38.617Z</time>
      </trkpt>
      <trkpt lat="50.59502" lon="2.82381">
        <ele>33.22</ele>
        <time>2024-09-04T11:45:38.693Z</time>
      </trkpt>
      <trkpt lat="50.59495" lon="2.82348">
        <ele>32.99</ele>
        <time>2024-09-04T11:45:38.773Z</time>
      </trkpt>
      <trkpt lat="50.59488" lon="2.82316">
        <ele>32.78</ele>
        <time>2024-09-04T11:45:38.856Z</time>
      </trkpt>
      <trkpt lat="50.59487" lon="2.8231">
        <ele>32.53</ele>
        <time>2024-09-04T11:45:38.940Z</time>
      </trkpt>
      <trkpt lat="50.5948" lon="2.82281">
        <ele>32.24</ele>
        <time>2024-09-04T11:45:39.027Z</time>
      </trkpt>
      <trkpt lat="50.59474" lon="2.82252">
        <ele>31.91</ele>
        <time>2024-09-04T11:45:39.117Z</time>
      </trkpt>
      <trkpt lat="50.5947" lon="2.82236">
        <ele>31.53</ele>
        <time>2024-09-04T11:45:39.209Z</time>
      </trkpt>
      <trkpt lat="50.59467" lon="2.82227">
        <ele>31.15</ele>
        <time>2024-09-04T11:45:39.302Z</time>
      </trkpt>
      <trkpt lat="50.59454" lon="2.82195">
        <ele>30.75</ele>
        <time>2024-09-04T11:45:39.399Z</time>
      </trkpt>
      <trkpt lat="50.59441" lon="2.82163">
        <ele>30.3</ele>
        <time>2024-09-04T11:45:39.500Z</time>
      </trkpt>
      <trkpt lat="50.59437" lon="2.82155">
        <ele>29.84</ele>
        <time>2024-09-04T11:45:39.602Z</time>
      </trkpt>
      <trkpt lat="50.59427" lon="2.82131">
        <ele>29.33</ele>
        <time>2024-09-04T11:45:39.707Z</time>
      </trkpt>
      <trkpt lat="50.59417" lon="2.82106">
        <ele>28.82</ele>
        <time>2024-09-04T11:45:39.815Z</time>
      </trkpt>
      <trkpt lat="50.59406" lon="2.82075">
        <ele>28.32</ele>
        <time>2024-09-04T11:45:39.926Z</time>
      </trkpt>
      <trkpt lat="50.59398" lon="2.82031">
        <ele>27.8</ele>
        <time>2024-09-04T11:45:40.042Z</time>
      </trkpt>
      <trkpt lat="50.59397" lon="2.82026">
        <ele>27.28</ele>
        <time>2024-09-04T11:45:40.159Z</time>
      </trkpt>
      <trkpt lat="50.59409" lon="2.82011">
        <ele>26.74</ele>
        <time>2024-09-04T11:45:40.278Z</time>
      </trkpt>
      <trkpt lat="50.59433" lon="2.81984">
        <ele>26.17</ele>
        <time>2024-09-04T11:45:40.402Z</time>
      </trkpt>
      <trkpt lat="50.59458" lon="2.81957">
        <ele>25.57</ele>
        <time>2024-09-04T11:45:40.531Z</time>
      </trkpt>
      <trkpt lat="50.59482" lon="2.8193">
        <ele>24.93</ele>
        <time>2024-09-04T11:45:40.664Z</time>
      </trkpt>
      <trkpt lat="50.59506" lon="2.81902">
        <ele>24.38</ele>
        <time>2024-09-04T11:45:40.802Z</time>
      </trkpt>
      <trkpt lat="50.59531" lon="2.81874">
        <ele>23.82</ele>
        <time>2024-09-04T11:45:40.945Z</time>
      </trkpt>
      <trkpt lat="50.59556" lon="2.81846">
        <ele>23.15</ele>
        <time>2024-09-04T11:45:41.093Z</time>
      </trkpt>
      <trkpt lat="50.59565" lon="2.81831">
        <ele>22.54</ele>
        <time>2024-09-04T11:45:41.243Z</time>
      </trkpt>
      <trkpt lat="50.59574" lon="2.81812">
        <ele>21.95</ele>
        <time>2024-09-04T11:45:41.396Z</time>
      </trkpt>
      <trkpt lat="50.59577" lon="2.81804">
        <ele>21.46</ele>
        <time>2024-09-04T11:45:41.550Z</time>
      </trkpt>
      <trkpt lat="50.59582" lon="2.81783">
        <ele>21.1</ele>
        <time>2024-09-04T11:45:41.706Z</time>
      </trkpt>
      <trkpt lat="50.59585" lon="2.81758">
        <ele>20.78</ele>
        <time>2024-09-04T11:45:41.864Z</time>
      </trkpt>
      <trkpt lat="50.59588" lon="2.81718">
        <ele>20.51</ele>
        <time>2024-09-04T11:45:42.027Z</time>
      </trkpt>
      <trkpt lat="50.59591" lon="2.81678">
        <ele>20.19</ele>
        <time>2024-09-04T11:45:42.194Z</time>
      </trkpt>
      <trkpt lat="50.59596" lon="2.81643">
        <ele>19.94</ele>
        <time>2024-09-04T11:45:42.364Z</time>
      </trkpt>
      <trkpt lat="50.59599" lon="2.81621">
        <ele>19.73</ele>
        <time>2024-09-04T11:45:42.537Z</time>
      </trkpt>
      <trkpt lat="50.59607" lon="2.81583">
        <ele>19.54</ele>
        <time>2024-09-04T11:45:42.714Z</time>
      </trkpt>
      <trkpt lat="50.59614" lon="2.81545">
        <ele>19.35</ele>
        <time>2024-09-04T11:45:42.895Z</time>
      </trkpt>
      <trkpt lat="50.59621" lon="2.81507">
        <ele>19.21</ele>
        <time>2024-09-04T11:45:43.080Z</time>
      </trkpt>
      <trkpt lat="50.59629" lon="2.81467">
        <ele>19.12</ele>
        <time>2024-09-04T11:45:43.269Z</time>
      </trkpt>
      <trkpt lat="50.59636" lon="2.81428">
        <ele>19.03</ele>
        <time>2024-09-04T11:45:43.462Z</time>
      </trkpt>
      <trkpt lat="50.59642" lon="2.81398">
        <ele>19.01</ele>
        <time>2024-09-04T11:45:43.658Z</time>
      </trkpt>
      <trkpt lat="50.59648" lon="2.81364">
        <ele>18.98</ele>
        <time>2024-09-04T11:45:43.858Z</time>
      </trkpt>
      <trkpt lat="50.59655" lon="2.8133">
        <ele>18.97</ele>
        <time>2024-09-04T11:45:44.062Z</time>
      </trkpt>
      <trkpt lat="50.59661" lon="2.81296">
        <ele>18.98</ele>
        <time>2024-09-04T11:45:44.269Z</time>
      </trkpt>
      <trkpt lat="50.59669" lon="2.81262">
        <ele>19.04</ele>
        <time>2024-09-04T11:45:44.480Z</time>
      </trkpt>
      <trkpt lat="50.59674" lon="2.81247">
        <ele>19.12</ele>
        <time>2024-09-04T11:45:44.693Z</time>
      </trkpt>
      <trkpt lat="50.59684" lon="2.81222">
        <ele>19.24</ele>
        <time>2024-09-04T11:45:44.909Z</time>
      </trkpt>
      <trkpt lat="50.59701" lon="2.81186">
        <ele>19.37</ele>
        <time>2024-09-04T11:45:45.129Z</time>
      </trkpt>
      <trkpt lat="50.59718" lon="2.81151">
        <ele>19.43</ele>
        <time>2024-09-04T11:45:45.354Z</time>
      </trkpt>
      <trkpt lat="50.59735" lon="2.81115">
        <ele>19.53</ele>
        <time>2024-09-04T11:45:45.583Z</time>
      </trkpt>
      <trkpt lat="50.59747" lon="2.81088">
        <ele>19.63</ele>
        <time>2024-09-04T11:45:45.816Z</time>
      </trkpt>
      <trkpt lat="50.59754" lon="2.81076">
        <ele>19.74</ele>
        <time>2024-09-04T11:45:46.050Z</time>
      </trkpt>
      <trkpt lat="50.5976" lon="2.81066">
        <ele>19.85</ele>
        <time>2024-09-04T11:45:46.286Z</time>
      </trkpt>
      <trkpt lat="50.59769" lon="2.81056">
        <ele>19.96</ele>
        <time>2024-09-04T11:45:46.523Z</time>
      </trkpt>
      <trkpt lat="50.59774" lon="2.81051">
        <ele>20.06</ele>
        <time>2024-09-04T11:45:46.761Z</time>
      </trkpt>
      <trkpt lat="50.59783" lon="2.81048">
        <ele>20.16</ele>
        <time>2024-09-04T11:45:47.001Z</time>
      </trkpt>
      <trkpt lat="50.59789" lon="2.81046">
        <ele>20.25</ele>
        <time>2024-09-04T11:45:47.242Z</time>
      </trkpt>
      <trkpt lat="50.59792" lon="2.81041">
        <ele>20.33</ele>
        <time>2024-09-04T11:45:47.483Z</time>
      </trkpt>
      <trkpt lat="50.59794" lon="2.81035">
        <ele>20.4</ele>
        <time>2024-09-04T11:45:47.725Z</time>
      </trkpt>
      <trkpt lat="50.59794" lon="2.81027">
        <ele>20.48</ele>
        <time>2024-09-04T11:45:47.968Z</time>
      </trkpt>
      <trkpt lat="50.59793" lon="2.81023">
        <ele>20.57</ele>
        <time>2024-09-04T11:45:48.211Z</time>
      </trkpt>
      <trkpt lat="50.5979" lon="2.81018">
        <ele>20.65</ele>
        <time>2024-09-04T11:45:48.455Z</time>
      </trkpt>
      <trkpt lat="50.59788" lon="2.81015">
        <ele>20.73</ele>
        <time>2024-09-04T11:45:48.700Z</time>
      </trkpt>
      <trkpt lat="50.59784" lon="2.81013">
        <ele>20.81</ele>
        <time>2024-09-04T11:45:48.945Z</time>
      </trkpt>
      <trkpt lat="50.5978" lon="2.81014">
        <ele>20.9</ele>
        <time>2024-09-04T11:45:49.191Z</time>
      </trkpt>
      <trkpt lat="50.59778" lon="2.81015">
        <ele>20.96</ele>
        <time>2024-09-04T11:45:49.437Z</time>
      </trkpt>
      <trkpt lat="50.5977" lon="2.81011">
        <ele>21.04</ele>
        <time>2024-09-04T11:45:49.685Z</time>
      </trkpt>
      <trkpt lat="50.59757" lon="2.81">
        <ele>21.12</ele>
        <time>2024-09-04T11:45:49.935Z</time>
      </trkpt>
      <trkpt lat="50.59739" lon="2.80976">
        <ele>21.17</ele>
        <time>2024-09-04T11:45:50.189Z</time>
      </trkpt>
      <trkpt lat="50.5972" lon="2.80952">
        <ele>21.18</ele>
        <time>2024-09-04T11:45:50.447Z</time>
      </trkpt>
      <trkpt lat="50.59701" lon="2.80929">
        <ele>21.21</ele>
        <time>2024-09-04T11:45:50.708Z</time>
      </trkpt>
      <trkpt lat="50.59683" lon="2.80906">
        <ele>21.29</ele>
        <time>2024-09-04T11:45:50.973Z</time>
      </trkpt>
      <trkpt lat="50.59666" lon="2.80889">
        <ele>21.38</ele>
        <time>2024-09-04T11:45:51.241Z</time>
      </trkpt>
      <trkpt lat="50.59645" lon="2.80869">
        <ele>21.41</ele>
        <time>2024-09-04T11:45:51.513Z</time>
      </trkpt>
      <trkpt lat="50.59623" lon="2.80849">
        <ele>21.37</ele>
        <time>2024-09-04T11:45:51.789Z</time>
      </trkpt>
      <trkpt lat="50.59602" lon="2.8083">
        <ele>21.32</ele>
        <time>2024-09-04T11:45:52.069Z</time>
      </trkpt>
      <trkpt lat="50.59577" lon="2.80807">
        <ele>21.3</ele>
        <time>2024-09-04T11:45:52.354Z</time>
      </trkpt>
      <trkpt lat="50.59553" lon="2.80784">
        <ele>21.28</ele>
        <time>2024-09-04T11:45:52.643Z</time>
      </trkpt>
      <trkpt lat="50.59528" lon="2.80761">
        <ele>21.23</ele>
        <time>2024-09-04T11:45:52.937Z</time>
      </trkpt>
      <trkpt lat="50.59503" lon="2.80734">
        <ele>21.21</ele>
        <time>2024-09-04T11:45:53.236Z</time>
      </trkpt>
      <trkpt lat="50.59478" lon="2.80708">
        <ele>21.24</ele>
        <time>2024-09-04T11:45:53.540Z</time>
      </trkpt>
      <trkpt lat="50.59453" lon="2.80682">
        <ele>21.31</ele>
        <time>2024-09-04T11:45:53.849Z</time>
      </trkpt>
      <trkpt lat="50.59427" lon="2.80656">
        <ele>21.3</ele>
        <time>2024-09-04T11:45:54.162Z</time>
      </trkpt>
      <trkpt lat="50.59407" lon="2.80638">
        <ele>21.28</ele>
        <time>2024-09-04T11:45:54.479Z</time>
      </trkpt>
      <trkpt lat="50.59383" lon="2.8062">
        <ele>21.28</ele>
        <time>2024-09-04T11:45:54.800Z</time>
      </trkpt>
      <trkpt lat="50.59359" lon="2.80602">
        <ele>21.27</ele>
        <time>2024-09-04T11:45:55.126Z</time>
      </trkpt>
      <trkpt lat="50.59334" lon="2.80584">
        <ele>21.22</ele>
        <time>2024-09-04T11:45:55.456Z</time>
      </trkpt>
      <trkpt lat="50.59316" lon="2.80572">
        <ele>21.21</ele>
        <time>2024-09-04T11:45:55.789Z</time>
      </trkpt>
      <trkpt lat="50.59298" lon="2.80559">
        <ele>21.2</ele>
        <time>2024-09-04T11:45:56.125Z</time>
      </trkpt>
      <trkpt lat="50.5928" lon="2.80545">
        <ele>21.18</ele>
        <time>2024-09-04T11:45:56.465Z</time>
      </trkpt>
      <trkpt lat="50.59258" lon="2.80529">
        <ele>21.21</ele>
        <time>2024-09-04T11:45:56.808Z</time>
      </trkpt>
      <trkpt lat="50.59236" lon="2.80514">
        <ele>21.24</ele>
        <time>2024-09-04T11:45:57.155Z</time>
      </trkpt>
      <trkpt lat="50.59214" lon="2.80498">
        <ele>21.26</ele>
        <time>2024-09-04T11:45:57.506Z</time>
      </trkpt>
      <trkpt lat="50.59195" lon="2.80484">
        <ele>21.29</ele>
        <time>2024-09-04T11:45:57.861Z</time>
      </trkpt>
      <trkpt lat="50.59188" lon="2.80478">
        <ele>21.27</ele>
        <time>2024-09-04T11:45:58.217Z</time>
      </trkpt>
      <trkpt lat="50.5918" lon="2.80469">
        <ele>21.24</ele>
        <time>2024-09-04T11:45:58.574Z</time>
      </trkpt>
      <trkpt lat="50.59171" lon="2.80458">
        <ele>21.21</ele>
        <time>2024-09-04T11:45:58.933Z</time>
      </trkpt>
      <trkpt lat="50.59154" lon="2.80432">
        <ele>21.16</ele>
        <time>2024-09-04T11:45:59.296Z</time>
      </trkpt>
      <trkpt lat="50.59136" lon="2.80406">
        <ele>21.08</ele>
        <time>2024-09-04T11:45:59.663Z</time>
      </trkpt>
      <trkpt lat="50.59114" lon="2.80372">
        <ele>21.03</ele>
        <time>2024-09-04T11:46:00.035Z</time>
      </trkpt>
      <trkpt lat="50.59091" lon="2.80337">
        <ele>21.09</ele>
        <time>2024-09-04T11:46:00.412Z</time>
      </trkpt>
      <trkpt lat="50.5908" lon="2.80321">
        <ele>21.13</ele>
        <time>2024-09-04T11:46:00.791Z</time>
      </trkpt>
      <trkpt lat="50.59066" lon="2.80303">
        <ele>21.16</ele>
        <time>2024-09-04T11:46:01.173Z</time>
      </trkpt>
      <trkpt lat="50.59046" lon="2.80283">
        <ele>21.11</ele>
        <time>2024-09-04T11:46:01.559Z</time>
      </trkpt>
      <trkpt lat="50.59023" lon="2.80263">
        <ele>20.93</ele>
        <time>2024-09-04T11:46:01.949Z</time>
      </trkpt>
      <trkpt lat="50.59" lon="2.80243">
        <ele>20.76</ele>
        <time>2024-09-04T11:46:02.344Z</time>
      </trkpt>
      <trkpt lat="50.58977" lon="2.80223">
        <ele>20.68</ele>
        <time>2024-09-04T11:46:02.743Z</time>
      </trkpt>
      <trkpt lat="50.58954" lon="2.80203">
        <ele>20.62</ele>
        <time>2024-09-04T11:46:03.146Z</time>
      </trkpt>
      <trkpt lat="50.58929" lon="2.80177">
        <ele>20.64</ele>
        <time>2024-09-04T11:46:03.554Z</time>
      </trkpt>
      <trkpt lat="50.58903" lon="2.80151">
        <ele>20.61</ele>
        <time>2024-09-04T11:46:03.967Z</time>
      </trkpt>
      <trkpt lat="50.58885" lon="2.8013">
        <ele>20.6</ele>
        <time>2024-09-04T11:46:04.383Z</time>
      </trkpt>
      <trkpt lat="50.58867" lon="2.80107">
        <ele>20.6</ele>
        <time>2024-09-04T11:46:04.803Z</time>
      </trkpt>
      <trkpt lat="50.58855" lon="2.80092">
        <ele>20.58</ele>
        <time>2024-09-04T11:46:05.225Z</time>
      </trkpt>
      <trkpt lat="50.58837" lon="2.80065">
        <ele>20.54</ele>
        <time>2024-09-04T11:46:05.652Z</time>
      </trkpt>
      <trkpt lat="50.58818" lon="2.80038">
        <ele>20.45</ele>
        <time>2024-09-04T11:46:06.083Z</time>
      </trkpt>
      <trkpt lat="50.588" lon="2.80011">
        <ele>20.41</ele>
        <time>2024-09-04T11:46:06.518Z</time>
      </trkpt>
      <trkpt lat="50.58778" lon="2.7998">
        <ele>20.44</ele>
        <time>2024-09-04T11:46:06.957Z</time>
      </trkpt>
      <trkpt lat="50.58756" lon="2.7995">
        <ele>20.43</ele>
        <time>2024-09-04T11:46:07.401Z</time>
      </trkpt>
      <trkpt lat="50.58734" lon="2.79919">
        <ele>20.4</ele>
        <time>2024-09-04T11:46:07.850Z</time>
      </trkpt>
      <trkpt lat="50.58712" lon="2.79889">
        <ele>20.42</ele>
        <time>2024-09-04T11:46:08.303Z</time>
      </trkpt>
      <trkpt lat="50.58695" lon="2.79866">
        <ele>20.49</ele>
        <time>2024-09-04T11:46:08.760Z</time>
      </trkpt>
      <trkpt lat="50.58678" lon="2.79844">
        <ele>20.51</ele>
        <time>2024-09-04T11:46:09.220Z</time>
      </trkpt>
      <trkpt lat="50.58661" lon="2.79822">
        <ele>20.51</ele>
        <time>2024-09-04T11:46:09.684Z</time>
      </trkpt>
      <trkpt lat="50.58638" lon="2.79792">
        <ele>20.49</ele>
        <time>2024-09-04T11:46:10.153Z</time>
      </trkpt>
      <trkpt lat="50.58615" lon="2.79763">
        <ele>20.48</ele>
        <time>2024-09-04T11:46:10.627Z</time>
      </trkpt>
      <trkpt lat="50.58592" lon="2.79733">
        <ele>20.51</ele>
        <time>2024-09-04T11:46:11.105Z</time>
      </trkpt>
      <trkpt lat="50.58569" lon="2.79704">
        <ele>20.54</ele>
        <time>2024-09-04T11:46:11.588Z</time>
      </trkpt>
      <trkpt lat="50.58545" lon="2.79674">
        <ele>20.58</ele>
        <time>2024-09-04T11:46:12.076Z</time>
      </trkpt>
      <trkpt lat="50.58522" lon="2.79645">
        <ele>20.64</ele>
        <time>2024-09-04T11:46:12.569Z</time>
      </trkpt>
      <trkpt lat="50.58499" lon="2.79615">
        <ele>20.69</ele>
        <time>2024-09-04T11:46:13.066Z</time>
      </trkpt>
      <trkpt lat="50.58476" lon="2.79586">
        <ele>20.85</ele>
        <time>2024-09-04T11:46:13.568Z</time>
      </trkpt>
      <trkpt lat="50.58455" lon="2.7956">
        <ele>20.87</ele>
        <time>2024-09-04T11:46:14.075Z</time>
      </trkpt>
      <trkpt lat="50.58434" lon="2.79533">
        <ele>20.84</ele>
        <time>2024-09-04T11:46:14.586Z</time>
      </trkpt>
      <trkpt lat="50.58413" lon="2.79508">
        <ele>20.87</ele>
        <time>2024-09-04T11:46:15.101Z</time>
      </trkpt>
      <trkpt lat="50.584" lon="2.79492">
        <ele>20.9</ele>
        <time>2024-09-04T11:46:15.619Z</time>
      </trkpt>
      <trkpt lat="50.58376" lon="2.79462">
        <ele>20.95</ele>
        <time>2024-09-04T11:46:16.142Z</time>
      </trkpt>
      <trkpt lat="50.58352" lon="2.79433">
        <ele>20.98</ele>
        <time>2024-09-04T11:46:16.669Z</time>
      </trkpt>
      <trkpt lat="50.58329" lon="2.79404">
        <ele>21.01</ele>
        <time>2024-09-04T11:46:17.201Z</time>
      </trkpt>
      <trkpt lat="50.58307" lon="2.7938">
        <ele>21.03</ele>
        <time>2024-09-04T11:46:17.737Z</time>
      </trkpt>
      <trkpt lat="50.58286" lon="2.79356">
        <ele>20.99</ele>
        <time>2024-09-04T11:46:18.278Z</time>
      </trkpt>
      <trkpt lat="50.58264" lon="2.79332">
        <ele>20.97</ele>
        <time>2024-09-04T11:46:18.823Z</time>
      </trkpt>
      <trkpt lat="50.58241" lon="2.79307">
        <ele>20.96</ele>
        <time>2024-09-04T11:46:19.372Z</time>
      </trkpt>
      <trkpt lat="50.58218" lon="2.79282">
        <ele>20.96</ele>
        <time>2024-09-04T11:46:19.926Z</time>
      </trkpt>
      <trkpt lat="50.58195" lon="2.79257">
        <ele>20.99</ele>
        <time>2024-09-04T11:46:20.484Z</time>
      </trkpt>
      <trkpt lat="50.58172" lon="2.79232">
        <ele>21.01</ele>
        <time>2024-09-04T11:46:21.047Z</time>
      </trkpt>
      <trkpt lat="50.58148" lon="2.79205">
        <ele>21.06</ele>
        <time>2024-09-04T11:46:21.615Z</time>
      </trkpt>
      <trkpt lat="50.58124" lon="2.79178">
        <ele>20.97</ele>
        <time>2024-09-04T11:46:22.187Z</time>
      </trkpt>
      <trkpt lat="50.58099" lon="2.7915">
        <ele>20.88</ele>
        <time>2024-09-04T11:46:22.764Z</time>
      </trkpt>
      <trkpt lat="50.58075" lon="2.79123">
        <ele>20.88</ele>
        <time>2024-09-04T11:46:23.346Z</time>
      </trkpt>
      <trkpt lat="50.58051" lon="2.79096">
        <ele>20.89</ele>
        <time>2024-09-04T11:46:23.933Z</time>
      </trkpt>
      <trkpt lat="50.58028" lon="2.79067">
        <ele>20.81</ele>
        <time>2024-09-04T11:46:24.524Z</time>
      </trkpt>
      <trkpt lat="50.58005" lon="2.79039">
        <ele>20.71</ele>
        <time>2024-09-04T11:46:25.120Z</time>
      </trkpt>
      <trkpt lat="50.57982" lon="2.7901">
        <ele>20.67</ele>
        <time>2024-09-04T11:46:25.721Z</time>
      </trkpt>
      <trkpt lat="50.57959" lon="2.78982">
        <ele>20.63</ele>
        <time>2024-09-04T11:46:26.326Z</time>
      </trkpt>
      <trkpt lat="50.5794" lon="2.7895">
        <ele>20.55</ele>
        <time>2024-09-04T11:46:26.936Z</time>
      </trkpt>
      <trkpt lat="50.57921" lon="2.78919">
        <ele>20.5</ele>
        <time>2024-09-04T11:46:27.550Z</time>
      </trkpt>
      <trkpt lat="50.57903" lon="2.78887">
        <ele>20.49</ele>
        <time>2024-09-04T11:46:28.169Z</time>
      </trkpt>
      <trkpt lat="50.57882" lon="2.7886">
        <ele>20.42</ele>
        <time>2024-09-04T11:46:28.792Z</time>
      </trkpt>
      <trkpt lat="50.57861" lon="2.78833">
        <ele>20.35</ele>
        <time>2024-09-04T11:46:29.419Z</time>
      </trkpt>
      <trkpt lat="50.57841" lon="2.78806">
        <ele>20.27</ele>
        <time>2024-09-04T11:46:30.051Z</time>
      </trkpt>
      <trkpt lat="50.5782" lon="2.78779">
        <ele>20.21</ele>
        <time>2024-09-04T11:46:30.687Z</time>
      </trkpt>
      <trkpt lat="50.578" lon="2.78754">
        <ele>20.15</ele>
        <time>2024-09-04T11:46:31.327Z</time>
      </trkpt>
      <trkpt lat="50.5778" lon="2.7873">
        <ele>20.07</ele>
        <time>2024-09-04T11:46:31.971Z</time>
      </trkpt>
      <trkpt lat="50.5776" lon="2.78705">
        <ele>20.05</ele>
        <time>2024-09-04T11:46:32.619Z</time>
      </trkpt>
      <trkpt lat="50.5774" lon="2.78681">
        <ele>20.01</ele>
        <time>2024-09-04T11:46:33.271Z</time>
      </trkpt>
      <trkpt lat="50.57718" lon="2.7865">
        <ele>19.98</ele>
        <time>2024-09-04T11:46:33.928Z</time>
      </trkpt>
      <trkpt lat="50.57697" lon="2.7862">
        <ele>19.94</ele>
        <time>2024-09-04T11:46:34.589Z</time>
      </trkpt>
      <trkpt lat="50.57676" lon="2.78589">
        <ele>19.86</ele>
        <time>2024-09-04T11:46:35.255Z</time>
      </trkpt>
      <trkpt lat="50.57655" lon="2.78559">
        <ele>19.81</ele>
        <time>2024-09-04T11:46:35.926Z</time>
      </trkpt>
      <trkpt lat="50.57634" lon="2.78528">
        <ele>19.8</ele>
        <time>2024-09-04T11:46:36.601Z</time>
      </trkpt>
      <trkpt lat="50.57614" lon="2.78497">
        <ele>19.75</ele>
        <time>2024-09-04T11:46:37.281Z</time>
      </trkpt>
      <trkpt lat="50.57593" lon="2.78467">
        <ele>19.76</ele>
        <time>2024-09-04T11:46:37.965Z</time>
      </trkpt>
      <trkpt lat="50.57572" lon="2.78437">
        <ele>19.77</ele>
        <time>2024-09-04T11:46:38.654Z</time>
      </trkpt>
      <trkpt lat="50.57551" lon="2.78407">
        <ele>19.79</ele>
        <time>2024-09-04T11:46:39.347Z</time>
      </trkpt>
      <trkpt lat="50.5753" lon="2.78377">
        <ele>19.84</ele>
        <time>2024-09-04T11:46:40.045Z</time>
      </trkpt>
      <trkpt lat="50.57509" lon="2.78347">
        <ele>19.89</ele>
        <time>2024-09-04T11:46:40.747Z</time>
      </trkpt>
      <trkpt lat="50.57488" lon="2.78317">
        <ele>19.89</ele>
        <time>2024-09-04T11:46:41.454Z</time>
      </trkpt>
      <trkpt lat="50.57467" lon="2.78286">
        <ele>19.87</ele>
        <time>2024-09-04T11:46:42.166Z</time>
      </trkpt>
      <trkpt lat="50.57446" lon="2.78256">
        <ele>19.86</ele>
        <time>2024-09-04T11:46:42.882Z</time>
      </trkpt>
      <trkpt lat="50.57425" lon="2.78227">
        <ele>19.87</ele>
        <time>2024-09-04T11:46:43.603Z</time>
      </trkpt>
      <trkpt lat="50.57411" lon="2.7824">
        <ele>19.9</ele>
        <time>2024-09-04T11:46:44.326Z</time>
      </trkpt>
      <trkpt lat="50.57396" lon="2.78254">
        <ele>19.94</ele>
        <time>2024-09-04T11:46:45.052Z</time>
      </trkpt>
      <trkpt lat="50.57373" lon="2.78277">
        <ele>19.96</ele>
        <time>2024-09-04T11:46:45.782Z</time>
      </trkpt>
      <trkpt lat="50.5735" lon="2.783">
        <ele>19.95</ele>
        <time>2024-09-04T11:46:46.517Z</time>
      </trkpt>
      <trkpt lat="50.57327" lon="2.78324">
        <ele>19.99</ele>
        <time>2024-09-04T11:46:47.256Z</time>
      </trkpt>
      <trkpt lat="50.57302" lon="2.7835">
        <ele>20.09</ele>
        <time>2024-09-04T11:46:48.000Z</time>
      </trkpt>
      <trkpt lat="50.57277" lon="2.78377">
        <ele>20.12</ele>
        <time>2024-09-04T11:46:48.749Z</time>
      </trkpt>
      <trkpt lat="50.57252" lon="2.78403">
        <ele>20.06</ele>
        <time>2024-09-04T11:46:49.503Z</time>
      </trkpt>
      <trkpt lat="50.57227" lon="2.7843">
        <ele>20.05</ele>
        <time>2024-09-04T11:46:50.262Z</time>
      </trkpt>
      <trkpt lat="50.57202" lon="2.78456">
        <ele>20.08</ele>
        <time>2024-09-04T11:46:51.025Z</time>
      </trkpt>
      <trkpt lat="50.57178" lon="2.78482">
        <ele>20.1</ele>
        <time>2024-09-04T11:46:51.793Z</time>
      </trkpt>
      <trkpt lat="50.57159" lon="2.78506">
        <ele>20.16</ele>
        <time>2024-09-04T11:46:52.565Z</time>
      </trkpt>
      <trkpt lat="50.57141" lon="2.7853">
        <ele>20.25</ele>
        <time>2024-09-04T11:46:53.341Z</time>
      </trkpt>
      <trkpt lat="50.57122" lon="2.78554">
        <ele>20.25</ele>
        <time>2024-09-04T11:46:54.121Z</time>
      </trkpt>
      <trkpt lat="50.57103" lon="2.78577">
        <ele>20.28</ele>
        <time>2024-09-04T11:46:54.904Z</time>
      </trkpt>
      <trkpt lat="50.57083" lon="2.78597">
        <ele>20.28</ele>
        <time>2024-09-04T11:46:55.691Z</time>
      </trkpt>
      <trkpt lat="50.57062" lon="2.78617">
        <ele>20.31</ele>
        <time>2024-09-04T11:46:56.482Z</time>
      </trkpt>
      <trkpt lat="50.5704" lon="2.78642">
        <ele>20.38</ele>
        <time>2024-09-04T11:46:57.278Z</time>
      </trkpt>
      <trkpt lat="50.57018" lon="2.78668">
        <ele>20.42</ele>
        <time>2024-09-04T11:46:58.078Z</time>
      </trkpt>
      <trkpt lat="50.56995" lon="2.78693">
        <ele>20.46</ele>
        <time>2024-09-04T11:46:58.882Z</time>
      </trkpt>
      <trkpt lat="50.56973" lon="2.78719">
        <ele>20.5</ele>
        <time>2024-09-04T11:46:59.691Z</time>
      </trkpt>
      <trkpt lat="50.56951" lon="2.78744">
        <ele>20.55</ele>
        <time>2024-09-04T11:47:00.504Z</time>
      </trkpt>
      <trkpt lat="50.56927" lon="2.7877">
        <ele>20.56</ele>
        <time>2024-09-04T11:47:01.322Z</time>
      </trkpt>
      <trkpt lat="50.56904" lon="2.78795">
        <ele>20.63</ele>
        <time>2024-09-04T11:47:02.144Z</time>
      </trkpt>
      <trkpt lat="50.56896" lon="2.78805">
        <ele>20.68</ele>
        <time>2024-09-04T11:47:02.968Z</time>
      </trkpt>
      <trkpt lat="50.56893" lon="2.78808">
        <ele>20.72</ele>
        <time>2024-09-04T11:47:03.793Z</time>
      </trkpt>
      <trkpt lat="50.56889" lon="2.78813">
        <ele>20.76</ele>
        <time>2024-09-04T11:47:04.618Z</time>
      </trkpt>
      <trkpt lat="50.56888" lon="2.78814">
        <ele>20.79</ele>
        <time>2024-09-04T11:47:05.444Z</time>
      </trkpt>
      <trkpt lat="50.56889" lon="2.78813">
        <ele>20.76</ele>
        <time>2024-09-04T11:47:06.270Z</time>
      </trkpt>
      <trkpt lat="50.56893" lon="2.78808">
        <ele>20.72</ele>
        <time>2024-09-04T11:47:07.097Z</time>
      </trkpt>
      <trkpt lat="50.56884" lon="2.78791">
        <ele>20.81</ele>
        <time>2024-09-04T11:47:07.926Z</time>
      </trkpt>
      <trkpt lat="50.56866" lon="2.78756">
        <ele>20.8</ele>
        <time>2024-09-04T11:47:08.759Z</time>
      </trkpt>
      <trkpt lat="50.56848" lon="2.78722">
        <ele>20.84</ele>
        <time>2024-09-04T11:47:09.597Z</time>
      </trkpt>
      <trkpt lat="50.5683" lon="2.78687">
        <ele>20.86</ele>
        <time>2024-09-04T11:47:10.440Z</time>
      </trkpt>
      <trkpt lat="50.56812" lon="2.78652">
        <ele>20.85</ele>
        <time>2024-09-04T11:47:11.287Z</time>
      </trkpt>
      <trkpt lat="50.56794" lon="2.78617">
        <ele>20.8</ele>
        <time>2024-09-04T11:47:12.139Z</time>
      </trkpt>
      <trkpt lat="50.56776" lon="2.78583">
        <ele>20.78</ele>
        <time>2024-09-04T11:47:12.995Z</time>
      </trkpt>
      <trkpt lat="50.56759" lon="2.78548">
        <ele>20.78</ele>
        <time>2024-09-04T11:47:13.856Z</time>
      </trkpt>
      <trkpt lat="50.56743" lon="2.78517">
        <ele>20.78</ele>
        <time>2024-09-04T11:47:14.721Z</time>
      </trkpt>
      <trkpt lat="50.56727" lon="2.78486">
        <ele>20.74</ele>
        <time>2024-09-04T11:47:15.590Z</time>
      </trkpt>
      <trkpt lat="50.56724" lon="2.78481">
        <ele>20.69</ele>
        <time>2024-09-04T11:47:16.460Z</time>
      </trkpt>
      <trkpt lat="50.56714" lon="2.78459">
        <ele>20.63</ele>
        <time>2024-09-04T11:47:17.332Z</time>
      </trkpt>
      <trkpt lat="50.56704" lon="2.78437">
        <ele>20.56</ele>
        <time>2024-09-04T11:47:18.207Z</time>
      </trkpt>
      <trkpt lat="50.56686" lon="2.784">
        <ele>20.5</ele>
        <time>2024-09-04T11:47:19.087Z</time>
      </trkpt>
      <trkpt lat="50.56668" lon="2.78363">
        <ele>20.45</ele>
        <time>2024-09-04T11:47:19.971Z</time>
      </trkpt>
      <trkpt lat="50.56651" lon="2.78326">
        <ele>20.38</ele>
        <time>2024-09-04T11:47:20.860Z</time>
      </trkpt>
      <trkpt lat="50.56635" lon="2.78296">
        <ele>20.32</ele>
        <time>2024-09-04T11:47:21.753Z</time>
      </trkpt>
      <trkpt lat="50.56626" lon="2.78275">
        <ele>20.23</ele>
        <time>2024-09-04T11:47:22.649Z</time>
      </trkpt>
      <trkpt lat="50.56617" lon="2.78251">
        <ele>20.12</ele>
        <time>2024-09-04T11:47:23.548Z</time>
      </trkpt>
      <trkpt lat="50.56608" lon="2.78226">
        <ele>20.01</ele>
        <time>2024-09-04T11:47:24.450Z</time>
      </trkpt>
      <trkpt lat="50.56604" lon="2.78229">
        <ele>19.9</ele>
        <time>2024-09-04T11:47:25.352Z</time>
      </trkpt>
      <trkpt lat="50.56591" lon="2.78188">
        <ele>19.75</ele>
        <time>2024-09-04T11:47:26.259Z</time>
      </trkpt>
      <trkpt lat="50.56581" lon="2.78152">
        <ele>19.59</ele>
        <time>2024-09-04T11:47:27.170Z</time>
      </trkpt>
      <trkpt lat="50.56571" lon="2.78117">
        <ele>19.48</ele>
        <time>2024-09-04T11:47:28.085Z</time>
      </trkpt>
      <trkpt lat="50.56562" lon="2.78095">
        <ele>19.38</ele>
        <time>2024-09-04T11:47:29.003Z</time>
      </trkpt>
      <trkpt lat="50.56543" lon="2.78063">
        <ele>19.3</ele>
        <time>2024-09-04T11:47:29.925Z</time>
      </trkpt>
      <trkpt lat="50.56527" lon="2.78035">
        <ele>19.17</ele>
        <time>2024-09-04T11:47:30.851Z</time>
      </trkpt>
      <trkpt lat="50.56512" lon="2.78007">
        <ele>19.08</ele>
        <time>2024-09-04T11:47:31.781Z</time>
      </trkpt>
      <trkpt lat="50.56496" lon="2.77979">
        <ele>18.95</ele>
        <time>2024-09-04T11:47:32.714Z</time>
      </trkpt>
      <trkpt lat="50.56478" lon="2.7795">
        <ele>18.83</ele>
        <time>2024-09-04T11:47:33.652Z</time>
      </trkpt>
      <trkpt lat="50.56461" lon="2.77926">
        <ele>18.68</ele>
        <time>2024-09-04T11:47:34.593Z</time>
      </trkpt>
      <trkpt lat="50.5644" lon="2.77903">
        <ele>18.58</ele>
        <time>2024-09-04T11:47:35.538Z</time>
      </trkpt>
      <trkpt lat="50.56417" lon="2.77883">
        <ele>18.48</ele>
        <time>2024-09-04T11:47:36.488Z</time>
      </trkpt>
      <trkpt lat="50.56391" lon="2.77866">
        <ele>18.43</ele>
        <time>2024-09-04T11:47:37.442Z</time>
      </trkpt>
      <trkpt lat="50.56365" lon="2.77849">
        <ele>18.35</ele>
        <time>2024-09-04T11:47:38.401Z</time>
      </trkpt>
      <trkpt lat="50.56339" lon="2.77832">
        <ele>18.22</ele>
        <time>2024-09-04T11:47:39.364Z</time>
      </trkpt>
      <trkpt lat="50.56313" lon="2.77814">
        <ele>18.13</ele>
        <time>2024-09-04T11:47:40.332Z</time>
      </trkpt>
      <trkpt lat="50.56287" lon="2.77797">
        <ele>18.06</ele>
        <time>2024-09-04T11:47:41.304Z</time>
      </trkpt>
      <trkpt lat="50.56262" lon="2.7778">
        <ele>18.02</ele>
        <time>2024-09-04T11:47:42.281Z</time>
      </trkpt>
      <trkpt lat="50.56251" lon="2.77769">
        <ele>17.98</ele>
        <time>2024-09-04T11:47:43.260Z</time>
      </trkpt>
      <trkpt lat="50.56245" lon="2.77762">
        <ele>17.92</ele>
        <time>2024-09-04T11:47:44.240Z</time>
      </trkpt>
      <trkpt lat="50.56228" lon="2.77739">
        <ele>17.85</ele>
        <time>2024-09-04T11:47:45.223Z</time>
      </trkpt>
      <trkpt lat="50.56211" lon="2.77717">
        <ele>17.79</ele>
        <time>2024-09-04T11:47:46.210Z</time>
      </trkpt>
      <trkpt lat="50.56191" lon="2.77691">
        <ele>17.74</ele>
        <time>2024-09-04T11:47:47.201Z</time>
      </trkpt>
      <trkpt lat="50.56174" lon="2.77669">
        <ele>17.72</ele>
        <time>2024-09-04T11:47:48.196Z</time>
      </trkpt>
      <trkpt lat="50.56158" lon="2.77646">
        <ele>17.72</ele>
        <time>2024-09-04T11:47:49.194Z</time>
      </trkpt>
      <trkpt lat="50.56141" lon="2.77622">
        <ele>17.74</ele>
        <time>2024-09-04T11:47:50.196Z</time>
      </trkpt>
      <trkpt lat="50.56125" lon="2.77598">
        <ele>17.75</ele>
        <time>2024-09-04T11:47:51.201Z</time>
      </trkpt>
      <trkpt lat="50.56109" lon="2.77569">
        <ele>17.74</ele>
        <time>2024-09-04T11:47:52.210Z</time>
      </trkpt>
      <trkpt lat="50.56094" lon="2.77541">
        <ele>17.74</ele>
        <time>2024-09-04T11:47:53.223Z</time>
      </trkpt>
      <trkpt lat="50.5608" lon="2.77513">
        <ele>17.76</ele>
        <time>2024-09-04T11:47:54.240Z</time>
      </trkpt>
      <trkpt lat="50.56066" lon="2.77486">
        <ele>17.83</ele>
        <time>2024-09-04T11:47:55.260Z</time>
      </trkpt>
      <trkpt lat="50.56052" lon="2.77458">
        <ele>17.88</ele>
        <time>2024-09-04T11:47:56.284Z</time>
      </trkpt>
      <trkpt lat="50.56033" lon="2.77428">
        <ele>17.91</ele>
        <time>2024-09-04T11:47:57.312Z</time>
      </trkpt>
      <trkpt lat="50.56014" lon="2.77403">
        <ele>18</ele>
        <time>2024-09-04T11:47:58.344Z</time>
      </trkpt>
      <trkpt lat="50.55992" lon="2.77378">
        <ele>18.08</ele>
        <time>2024-09-04T11:47:59.380Z</time>
      </trkpt>
      <trkpt lat="50.55977" lon="2.7736">
        <ele>18.18</ele>
        <time>2024-09-04T11:48:00.419Z</time>
      </trkpt>
      <trkpt lat="50.55962" lon="2.77343">
        <ele>18.28</ele>
        <time>2024-09-04T11:48:01.461Z</time>
      </trkpt>
      <trkpt lat="50.55947" lon="2.77326">
        <ele>18.38</ele>
        <time>2024-09-04T11:48:02.506Z</time>
      </trkpt>
      <trkpt lat="50.55933" lon="2.77308">
        <ele>18.44</ele>
        <time>2024-09-04T11:48:03.554Z</time>
      </trkpt>
      <trkpt lat="50.55914" lon="2.77287">
        <ele>18.5</ele>
        <time>2024-09-04T11:48:04.606Z</time>
      </trkpt>
      <trkpt lat="50.55895" lon="2.77266">
        <ele>18.61</ele>
        <time>2024-09-04T11:48:05.662Z</time>
      </trkpt>
      <trkpt lat="50.55876" lon="2.77246">
        <ele>18.71</ele>
        <time>2024-09-04T11:48:06.721Z</time>
      </trkpt>
      <trkpt lat="50.55853" lon="2.77221">
        <ele>18.76</ele>
        <time>2024-09-04T11:48:07.785Z</time>
      </trkpt>
      <trkpt lat="50.55829" lon="2.77196">
        <ele>18.79</ele>
        <time>2024-09-04T11:48:08.853Z</time>
      </trkpt>
      <trkpt lat="50.55812" lon="2.77179">
        <ele>18.89</ele>
        <time>2024-09-04T11:48:09.925Z</time>
      </trkpt>
      <trkpt lat="50.55794" lon="2.77163">
        <ele>18.98</ele>
        <time>2024-09-04T11:48:11.000Z</time>
      </trkpt>
      <trkpt lat="50.55787" lon="2.77158">
        <ele>19.05</ele>
        <time>2024-09-04T11:48:12.076Z</time>
      </trkpt>
      <trkpt lat="50.55764" lon="2.77139">
        <ele>19.12</ele>
        <time>2024-09-04T11:48:13.156Z</time>
      </trkpt>
      <trkpt lat="50.55742" lon="2.77121">
        <ele>19.21</ele>
        <time>2024-09-04T11:48:14.240Z</time>
      </trkpt>
      <trkpt lat="50.55719" lon="2.77103">
        <ele>19.28</ele>
        <time>2024-09-04T11:48:15.329Z</time>
      </trkpt>
      <trkpt lat="50.55696" lon="2.77084">
        <ele>19.32</ele>
        <time>2024-09-04T11:48:16.422Z</time>
      </trkpt>
      <trkpt lat="50.5568" lon="2.77068">
        <ele>19.36</ele>
        <time>2024-09-04T11:48:17.518Z</time>
      </trkpt>
      <trkpt lat="50.55666" lon="2.77054">
        <ele>19.41</ele>
        <time>2024-09-04T11:48:18.616Z</time>
      </trkpt>
      <trkpt lat="50.55652" lon="2.77039">
        <ele>19.48</ele>
        <time>2024-09-04T11:48:19.717Z</time>
      </trkpt>
      <trkpt lat="50.55631" lon="2.7701">
        <ele>19.59</ele>
        <time>2024-09-04T11:48:20.823Z</time>
      </trkpt>
      <trkpt lat="50.55613" lon="2.7699">
        <ele>19.66</ele>
        <time>2024-09-04T11:48:21.932Z</time>
      </trkpt>
      <trkpt lat="50.55602" lon="2.76975">
        <ele>19.68</ele>
        <time>2024-09-04T11:48:23.043Z</time>
      </trkpt>
      <trkpt lat="50.55579" lon="2.76944">
        <ele>19.68</ele>
        <time>2024-09-04T11:48:24.159Z</time>
      </trkpt>
      <trkpt lat="50.55557" lon="2.76914">
        <ele>19.72</ele>
        <time>2024-09-04T11:48:25.280Z</time>
      </trkpt>
      <trkpt lat="50.55534" lon="2.76885">
        <ele>19.78</ele>
        <time>2024-09-04T11:48:26.406Z</time>
      </trkpt>
      <trkpt lat="50.55511" lon="2.76856">
        <ele>19.79</ele>
        <time>2024-09-04T11:48:27.536Z</time>
      </trkpt>
      <trkpt lat="50.55487" lon="2.76832">
        <ele>19.77</ele>
        <time>2024-09-04T11:48:28.671Z</time>
      </trkpt>
      <trkpt lat="50.55463" lon="2.76807">
        <ele>19.78</ele>
        <time>2024-09-04T11:48:29.811Z</time>
      </trkpt>
      <trkpt lat="50.55439" lon="2.76783">
        <ele>19.77</ele>
        <time>2024-09-04T11:48:30.955Z</time>
      </trkpt>
      <trkpt lat="50.55415" lon="2.7676">
        <ele>19.76</ele>
        <time>2024-09-04T11:48:32.104Z</time>
      </trkpt>
      <trkpt lat="50.55391" lon="2.76736">
        <ele>19.75</ele>
        <time>2024-09-04T11:48:33.257Z</time>
      </trkpt>
      <trkpt lat="50.55367" lon="2.76713">
        <ele>19.67</ele>
        <time>2024-09-04T11:48:34.415Z</time>
      </trkpt>
      <trkpt lat="50.55342" lon="2.76689">
        <ele>19.57</ele>
        <time>2024-09-04T11:48:35.577Z</time>
      </trkpt>
      <trkpt lat="50.5533" lon="2.76673">
        <ele>19.52</ele>
        <time>2024-09-04T11:48:36.742Z</time>
      </trkpt>
      <trkpt lat="50.55317" lon="2.76657">
        <ele>19.49</ele>
        <time>2024-09-04T11:48:41.179Z</time>
      </trkpt>
      <trkpt lat="50.55318" lon="2.76657">
        <ele>17</ele>
        <time>2024-09-04T11:48:41.179Z</time>
      </trkpt>
      <trkpt lat="50.55269" lon="2.76583">
        <ele>17.75</ele>
        <time>2024-09-04T11:48:59.785Z</time>
      </trkpt>
      <trkpt lat="50.55235" lon="2.76531">
        <ele>18</ele>
        <time>2024-09-04T11:49:12.747Z</time>
      </trkpt>
      <trkpt lat="50.55206" lon="2.76487">
        <ele>17.75</ele>
        <time>2024-09-04T11:49:24.005Z</time>
      </trkpt>
      <trkpt lat="50.5517" lon="2.76441">
        <ele>17.75</ele>
        <time>2024-09-04T11:49:36.658Z</time>
      </trkpt>
      <trkpt lat="50.5516" lon="2.76456">
        <ele>18</ele>
        <time>2024-09-04T11:49:40.374Z</time>
      </trkpt>
      <trkpt lat="50.55146" lon="2.76482">
        <ele>18</ele>
        <time>2024-09-04T11:49:46.226Z</time>
      </trkpt>
      <trkpt lat="50.55137" lon="2.76498">
        <ele>18</ele>
        <time>2024-09-04T11:49:50.042Z</time>
      </trkpt>
      <trkpt lat="50.55099" lon="2.76552">
        <ele>17.75</ele>
        <time>2024-09-04T11:50:04.098Z</time>
      </trkpt>
      <trkpt lat="50.55074" lon="2.76592">
        <ele>18</ele>
        <time>2024-09-04T11:50:13.923Z</time>
      </trkpt>
      <trkpt lat="50.55067" lon="2.76607">
        <ele>18</ele>
        <time>2024-09-04T11:50:17.106Z</time>
      </trkpt>
      <trkpt lat="50.55055" lon="2.76627">
        <ele>18</ele>
        <time>2024-09-04T11:50:21.953Z</time>
      </trkpt>
      <trkpt lat="50.55047" lon="2.76645">
        <ele>18</ele>
        <time>2024-09-04T11:50:25.763Z</time>
      </trkpt>
      <trkpt lat="50.55036" lon="2.76664">
        <ele>18</ele>
        <time>2024-09-04T11:50:30.400Z</time>
      </trkpt>
      <trkpt lat="50.55023" lon="2.76679">
        <ele>18</ele>
        <time>2024-09-04T11:50:34.697Z</time>
      </trkpt>
      <trkpt lat="50.54929" lon="2.76794">
        <ele>17.75</ele>
        <time>2024-09-04T11:51:07.475Z</time>
      </trkpt>
      <trkpt lat="50.54891" lon="2.76835">
        <ele>18.25</ele>
        <time>2024-09-04T11:51:20.088Z</time>
      </trkpt>
      <trkpt lat="50.54849" lon="2.76883">
        <ele>19.25</ele>
        <time>2024-09-04T11:51:34.271Z</time>
      </trkpt>
      <trkpt lat="50.54787" lon="2.76958">
        <ele>19.25</ele>
        <time>2024-09-04T11:51:55.803Z</time>
      </trkpt>
      <trkpt lat="50.5478" lon="2.76975">
        <ele>19.25</ele>
        <time>2024-09-04T11:51:59.430Z</time>
      </trkpt>
      <trkpt lat="50.54576" lon="2.76638">
        <ele>20.25</ele>
        <time>2024-09-04T11:53:20.807Z</time>
      </trkpt>
      <trkpt lat="50.54556" lon="2.76598">
        <ele>20.5</ele>
        <time>2024-09-04T11:53:29.673Z</time>
      </trkpt>
      <trkpt lat="50.5454" lon="2.76561">
        <ele>20.25</ele>
        <time>2024-09-04T11:53:37.354Z</time>
      </trkpt>
      <trkpt lat="50.54459" lon="2.76351">
        <ele>20</ele>
        <time>2024-09-04T11:54:20.304Z</time>
      </trkpt>
      <trkpt lat="50.54456" lon="2.76345">
        <ele>20</ele>
        <time>2024-09-04T11:54:21.664Z</time>
      </trkpt>
      <trkpt lat="50.54453" lon="2.76341">
        <ele>20</ele>
        <time>2024-09-04T11:54:22.723Z</time>
      </trkpt>
      <trkpt lat="50.5445" lon="2.76338">
        <ele>20</ele>
        <time>2024-09-04T11:54:23.720Z</time>
      </trkpt>
      <trkpt lat="50.54443" lon="2.76338">
        <ele>20</ele>
        <time>2024-09-04T11:54:25.698Z</time>
      </trkpt>
      <trkpt lat="50.54412" lon="2.76349">
        <ele>20</ele>
        <time>2024-09-04T11:54:34.540Z</time>
      </trkpt>
      <trkpt lat="50.54367" lon="2.76363">
        <ele>20</ele>
        <time>2024-09-04T11:54:47.028Z</time>
      </trkpt>
      <trkpt lat="50.54358" lon="2.76362">
        <ele>20</ele>
        <time>2024-09-04T11:54:49.622Z</time>
      </trkpt>
      <trkpt lat="50.5434" lon="2.7634">
        <ele>20</ele>
        <time>2024-09-04T11:54:55.905Z</time>
      </trkpt>
      <trkpt lat="50.54327" lon="2.76334">
        <ele>19.75</ele>
        <time>2024-09-04T11:54:59.564Z</time>
      </trkpt>
      <trkpt lat="50.5427" lon="2.76353">
        <ele>19</ele>
        <time>2024-09-04T11:55:15.538Z</time>
      </trkpt>
      <trkpt lat="50.54256" lon="2.76358">
        <ele>19</ele>
        <time>2024-09-04T11:55:19.440Z</time>
      </trkpt>
      <trkpt lat="50.54236" lon="2.7637">
        <ele>18.75</ele>
        <time>2024-09-04T11:55:25.330Z</time>
      </trkpt>
      <trkpt lat="50.54117" lon="2.76447">
        <ele>19.25</ele>
        <time>2024-09-04T11:56:00.792Z</time>
      </trkpt>
      <trkpt lat="50.53929" lon="2.76574">
        <ele>19</ele>
        <time>2024-09-04T11:56:57.045Z</time>
      </trkpt>
      <trkpt lat="50.5381" lon="2.76657">
        <ele>20.5</ele>
        <time>2024-09-04T11:57:32.527Z</time>
      </trkpt>
      <trkpt lat="50.53777" lon="2.76681">
        <ele>20.25</ele>
        <time>2024-09-04T11:57:42.667Z</time>
      </trkpt>
      <trkpt lat="50.53631" lon="2.76812">
        <ele>22.25</ele>
        <time>2024-09-04T11:58:43.317Z</time>
      </trkpt>
      <trkpt lat="50.53631" lon="2.76812">
        <ele>21.75</ele>
        <time>2024-09-04T11:58:43.347Z</time>
      </trkpt>
      <trkpt lat="50.53607" lon="2.76834">
        <ele>22.25</ele>
        <time>2024-09-04T11:58:53.397Z</time>
      </trkpt>
      <trkpt lat="50.53591" lon="2.76839">
        <ele>22.75</ele>
        <time>2024-09-04T11:58:59.233Z</time>
      </trkpt>
      <trkpt lat="50.53582" lon="2.76837">
        <ele>23</ele>
        <time>2024-09-04T11:59:02.584Z</time>
      </trkpt>
      <trkpt lat="50.53576" lon="2.76833">
        <ele>23.25</ele>
        <time>2024-09-04T11:59:05.031Z</time>
      </trkpt>
      <trkpt lat="50.53562" lon="2.76821">
        <ele>23.75</ele>
        <time>2024-09-04T11:59:10.869Z</time>
      </trkpt>
      <trkpt lat="50.53554" lon="2.76812">
        <ele>24</ele>
        <time>2024-09-04T11:59:14.395Z</time>
      </trkpt>
      <trkpt lat="50.53549" lon="2.76809">
        <ele>24</ele>
        <time>2024-09-04T11:59:16.136Z</time>
      </trkpt>
      <trkpt lat="50.53539" lon="2.76813">
        <ele>24.75</ele>
        <time>2024-09-04T11:59:20.127Z</time>
      </trkpt>
      <trkpt lat="50.53535" lon="2.76815">
        <ele>24.75</ele>
        <time>2024-09-04T11:59:21.440Z</time>
      </trkpt>
      <trkpt lat="50.53523" lon="2.76832">
        <ele>25.75</ele>
        <time>2024-09-04T11:59:27.211Z</time>
      </trkpt>
      <trkpt lat="50.53511" lon="2.76852">
        <ele>26.5</ele>
        <time>2024-09-04T11:59:33.440Z</time>
      </trkpt>
      <trkpt lat="50.53501" lon="2.76873">
        <ele>26.75</ele>
        <time>2024-09-04T11:59:39.583Z</time>
      </trkpt>
      <trkpt lat="50.53483" lon="2.76908">
        <ele>27</ele>
        <time>2024-09-04T11:59:49.969Z</time>
      </trkpt>
      <trkpt lat="50.53481" lon="2.76915">
        <ele>27</ele>
        <time>2024-09-04T11:59:51.738Z</time>
      </trkpt>
      <trkpt lat="50.53479" lon="2.76931">
        <ele>27</ele>
        <time>2024-09-04T11:59:55.426Z</time>
      </trkpt>
      <trkpt lat="50.53473" lon="2.76923">
        <ele>27</ele>
        <time>2024-09-04T11:59:58.111Z</time>
      </trkpt>
      <trkpt lat="50.53455" lon="2.7689">
        <ele>27</ele>
        <time>2024-09-04T12:00:08.134Z</time>
      </trkpt>
      <trkpt lat="50.53437" lon="2.76851">
        <ele>27</ele>
        <time>2024-09-04T12:00:19.069Z</time>
      </trkpt>
      <trkpt lat="50.53409" lon="2.76785">
        <ele>25.75</ele>
        <time>2024-09-04T12:00:37.303Z</time>
      </trkpt>
      <trkpt lat="50.53389" lon="2.76756">
        <ele>25.75</ele>
        <time>2024-09-04T12:00:47.132Z</time>
      </trkpt>
      <trkpt lat="50.53346" lon="2.7671">
        <ele>26.5</ele>
        <time>2024-09-04T12:01:05.974Z</time>
      </trkpt>
      <trkpt lat="50.53277" lon="2.76631">
        <ele>26.75</ele>
        <time>2024-09-04T12:01:37.069Z</time>
      </trkpt>
      <trkpt lat="50.53252" lon="2.76602">
        <ele>26.75</ele>
        <time>2024-09-04T12:01:48.225Z</time>
      </trkpt>
      <trkpt lat="50.53242" lon="2.76588">
        <ele>27.5</ele>
        <time>2024-09-04T12:01:53.014Z</time>
      </trkpt>
      <trkpt lat="50.53207" lon="2.76543">
        <ele>27.5</ele>
        <time>2024-09-04T12:02:09.385Z</time>
      </trkpt>
      <trkpt lat="50.53115" lon="2.76447">
        <ele>27.5</ele>
        <time>2024-09-04T12:02:49.079Z</time>
      </trkpt>
      <trkpt lat="50.53026" lon="2.76339">
        <ele>28</ele>
        <time>2024-09-04T12:03:29.715Z</time>
      </trkpt>
      <trkpt lat="50.53012" lon="2.76324">
        <ele>28</ele>
        <time>2024-09-04T12:03:35.984Z</time>
      </trkpt>
      <trkpt lat="50.52991" lon="2.76304">
        <ele>28</ele>
        <time>2024-09-04T12:03:44.738Z</time>
      </trkpt>
      <trkpt lat="50.52902" lon="2.76246">
        <ele>28</ele>
        <time>2024-09-04T12:04:19.713Z</time>
      </trkpt>
      <trkpt lat="50.5288" lon="2.76228">
        <ele>28</ele>
        <time>2024-09-04T12:04:28.747Z</time>
      </trkpt>
      <trkpt lat="50.52835" lon="2.76198">
        <ele>28.5</ele>
        <time>2024-09-04T12:04:46.432Z</time>
      </trkpt>
      <trkpt lat="50.52828" lon="2.7619">
        <ele>28.75</ele>
        <time>2024-09-04T12:04:49.493Z</time>
      </trkpt>
      <trkpt lat="50.52822" lon="2.76179">
        <ele>28.75</ele>
        <time>2024-09-04T12:04:52.859Z</time>
      </trkpt>
      <trkpt lat="50.52815" lon="2.76161">
        <ele>29</ele>
        <time>2024-09-04T12:04:57.642Z</time>
      </trkpt>
      <trkpt lat="50.52816" lon="2.76144">
        <ele>28.75</ele>
        <time>2024-09-04T12:05:01.391Z</time>
      </trkpt>
      <trkpt lat="50.52821" lon="2.76124">
        <ele>28.5</ele>
        <time>2024-09-04T12:05:06.429Z</time>
      </trkpt>
      <trkpt lat="50.52846" lon="2.7605">
        <ele>27.75</ele>
        <time>2024-09-04T12:05:25.645Z</time>
      </trkpt>
      <trkpt lat="50.52851" lon="2.76032">
        <ele>28</ele>
        <time>2024-09-04T12:05:30.147Z</time>
      </trkpt>
      <trkpt lat="50.52855" lon="2.76015">
        <ele>28</ele>
        <time>2024-09-04T12:05:34.365Z</time>
      </trkpt>
      <trkpt lat="50.52858" lon="2.76002">
        <ele>28</ele>
        <time>2024-09-04T12:05:37.518Z</time>
      </trkpt>
      <trkpt lat="50.52904" lon="2.75806">
        <ele>29.75</ele>
        <time>2024-09-04T12:06:25.507Z</time>
      </trkpt>
      <trkpt lat="50.52905" lon="2.75801">
        <ele>29.75</ele>
        <time>2024-09-04T12:06:26.778Z</time>
      </trkpt>
      <trkpt lat="50.52917" lon="2.75751">
        <ele>29.75</ele>
        <time>2024-09-04T12:06:38.976Z</time>
      </trkpt>
      <trkpt lat="50.52927" lon="2.75705">
        <ele>29.75</ele>
        <time>2024-09-04T12:06:50.175Z</time>
      </trkpt>
      <trkpt lat="50.52939" lon="2.75653">
        <ele>29.25</ele>
        <time>2024-09-04T12:07:02.927Z</time>
      </trkpt>
      <trkpt lat="50.52941" lon="2.75645">
        <ele>29</ele>
        <time>2024-09-04T12:07:04.831Z</time>
      </trkpt>
      <trkpt lat="50.52941" lon="2.75573">
        <ele>27.5</ele>
        <time>2024-09-04T12:07:21.424Z</time>
      </trkpt>
      <trkpt lat="50.52936" lon="2.75285">
        <ele>21.75</ele>
        <time>2024-09-04T12:08:27.655Z</time>
      </trkpt>
      <trkpt lat="50.52936" lon="2.75233">
        <ele>21.5</ele>
        <time>2024-09-04T12:08:39.561Z</time>
      </trkpt>
      <trkpt lat="50.52934" lon="2.75211">
        <ele>21.5</ele>
        <time>2024-09-04T12:08:44.695Z</time>
      </trkpt>
      <trkpt lat="50.52927" lon="2.7518">
        <ele>21.75</ele>
        <time>2024-09-04T12:08:52.305Z</time>
      </trkpt>
      <trkpt lat="50.52856" lon="2.74947">
        <ele>20.5</ele>
        <time>2024-09-04T12:09:51.543Z</time>
      </trkpt>
      <trkpt lat="50.52842" lon="2.74902">
        <ele>20.75</ele>
        <time>2024-09-04T12:10:03.207Z</time>
      </trkpt>
      <trkpt lat="50.52835" lon="2.74872">
        <ele>20.75</ele>
        <time>2024-09-04T12:10:10.551Z</time>
      </trkpt>
      <trkpt lat="50.52836" lon="2.74833">
        <ele>20.75</ele>
        <time>2024-09-04T12:10:19.433Z</time>
      </trkpt>
      <trkpt lat="50.52861" lon="2.74613">
        <ele>20.75</ele>
        <time>2024-09-04T12:11:10.880Z</time>
      </trkpt>
      <trkpt lat="50.52873" lon="2.74501">
        <ele>22.25</ele>
        <time>2024-09-04T12:11:36.784Z</time>
      </trkpt>
      <trkpt lat="50.52873" lon="2.74448">
        <ele>22</ele>
        <time>2024-09-04T12:11:48.988Z</time>
      </trkpt>
      <trkpt lat="50.52873" lon="2.74443">
        <ele>22</ele>
        <time>2024-09-04T12:11:50.112Z</time>
      </trkpt>
      <trkpt lat="50.52858" lon="2.74446">
        <ele>22</ele>
        <time>2024-09-04T12:11:55.558Z</time>
      </trkpt>
      <trkpt lat="50.52846" lon="2.7445">
        <ele>22</ele>
        <time>2024-09-04T12:11:59.740Z</time>
      </trkpt>
      <trkpt lat="50.52772" lon="2.74476">
        <ele>21.25</ele>
        <time>2024-09-04T12:12:27.213Z</time>
      </trkpt>
      <trkpt lat="50.52751" lon="2.74484">
        <ele>21</ele>
        <time>2024-09-04T12:12:34.963Z</time>
      </trkpt>
      <trkpt lat="50.52617" lon="2.74532">
        <ele>20.25</ele>
        <time>2024-09-04T12:13:24.699Z</time>
      </trkpt>
      <trkpt lat="50.52562" lon="2.74564">
        <ele>20</ele>
        <time>2024-09-04T12:13:45.991Z</time>
      </trkpt>
      <trkpt lat="50.52551" lon="2.74572">
        <ele>20</ele>
        <time>2024-09-04T12:13:50.518Z</time>
      </trkpt>
      <trkpt lat="50.52545" lon="2.74575">
        <ele>20</ele>
        <time>2024-09-04T12:13:52.638Z</time>
      </trkpt>
      <trkpt lat="50.5246" lon="2.74629">
        <ele>20.25</ele>
        <time>2024-09-04T12:14:25.796Z</time>
      </trkpt>
      <trkpt lat="50.52388" lon="2.74674">
        <ele>21.25</ele>
        <time>2024-09-04T12:14:53.983Z</time>
      </trkpt>
      <trkpt lat="50.52374" lon="2.74686">
        <ele>21.5</ele>
        <time>2024-09-04T12:14:59.650Z</time>
      </trkpt>
      <trkpt lat="50.52358" lon="2.74698">
        <ele>21.5</ele>
        <time>2024-09-04T12:15:05.851Z</time>
      </trkpt>
      <trkpt lat="50.52352" lon="2.74702">
        <ele>21.75</ele>
        <time>2024-09-04T12:15:08.333Z</time>
      </trkpt>
      <trkpt lat="50.5232" lon="2.74724">
        <ele>21.75</ele>
        <time>2024-09-04T12:15:21.124Z</time>
      </trkpt>
      <trkpt lat="50.52296" lon="2.74739">
        <ele>21.5</ele>
        <time>2024-09-04T12:15:30.259Z</time>
      </trkpt>
      <trkpt lat="50.52237" lon="2.74765">
        <ele>20.75</ele>
        <time>2024-09-04T12:15:52.255Z</time>
      </trkpt>
      <trkpt lat="50.52214" lon="2.74772">
        <ele>21</ele>
        <time>2024-09-04T12:16:00.915Z</time>
      </trkpt>
      <trkpt lat="50.52207" lon="2.74774">
        <ele>21</ele>
        <time>2024-09-04T12:16:03.566Z</time>
      </trkpt>
      <trkpt lat="50.52199" lon="2.74776">
        <ele>21.25</ele>
        <time>2024-09-04T12:16:06.308Z</time>
      </trkpt>
      <trkpt lat="50.52196" lon="2.74777">
        <ele>21.25</ele>
        <time>2024-09-04T12:16:07.583Z</time>
      </trkpt>
      <trkpt lat="50.52181" lon="2.7478">
        <ele>21.25</ele>
        <time>2024-09-04T12:16:13.011Z</time>
      </trkpt>
      <trkpt lat="50.52171" lon="2.74782">
        <ele>21.5</ele>
        <time>2024-09-04T12:16:16.593Z</time>
      </trkpt>
      <trkpt lat="50.52155" lon="2.74785">
        <ele>21.25</ele>
        <time>2024-09-04T12:16:22.391Z</time>
      </trkpt>
      <trkpt lat="50.52126" lon="2.74792">
        <ele>21.25</ele>
        <time>2024-09-04T12:16:33.187Z</time>
      </trkpt>
      <trkpt lat="50.521" lon="2.74797">
        <ele>21</ele>
        <time>2024-09-04T12:16:42.561Z</time>
      </trkpt>
      <trkpt lat="50.52078" lon="2.74802">
        <ele>20.75</ele>
        <time>2024-09-04T12:16:50.477Z</time>
      </trkpt>
      <trkpt lat="50.52059" lon="2.74805">
        <ele>20.75</ele>
        <time>2024-09-04T12:16:57.368Z</time>
      </trkpt>
      <trkpt lat="50.52044" lon="2.74808">
        <ele>20.75</ele>
        <time>2024-09-04T12:17:02.834Z</time>
      </trkpt>
      <trkpt lat="50.52027" lon="2.74812">
        <ele>20.75</ele>
        <time>2024-09-04T12:17:09.173Z</time>
      </trkpt>
      <trkpt lat="50.51994" lon="2.74816">
        <ele>20.5</ele>
        <time>2024-09-04T12:17:21.186Z</time>
      </trkpt>
      <trkpt lat="50.51907" lon="2.74828">
        <ele>20</ele>
        <time>2024-09-04T12:17:52.580Z</time>
      </trkpt>
      <trkpt lat="50.51814" lon="2.74832">
        <ele>21.75</ele>
        <time>2024-09-04T12:18:26.393Z</time>
      </trkpt>
      <trkpt lat="50.51814" lon="2.74832">
        <ele>21.75</ele>
        <time>2024-09-04T12:18:26.393Z</time>
      </trkpt>
      <trkpt lat="50.51771" lon="2.74827">
        <ele>21.75</ele>
        <time>2024-09-04T12:18:41.803Z</time>
      </trkpt>
      <trkpt lat="50.51609" lon="2.74803">
        <ele>22.75</ele>
        <time>2024-09-04T12:18:47.391Z</time>
      </trkpt>
      <trkpt lat="50.51529" lon="2.74793">
        <ele>23</ele>
        <time>2024-09-04T12:18:50.165Z</time>
      </trkpt>
      <trkpt lat="50.51451" lon="2.74781">
        <ele>22.5</ele>
        <time>2024-09-04T12:18:52.863Z</time>
      </trkpt>
      <trkpt lat="50.51364" lon="2.74759">
        <ele>22.25</ele>
        <time>2024-09-04T12:18:55.864Z</time>
      </trkpt>
      <trkpt lat="50.51345" lon="2.74755">
        <ele>22</ele>
        <time>2024-09-04T12:18:56.525Z</time>
      </trkpt>
      <trkpt lat="50.51327" lon="2.74748">
        <ele>22</ele>
        <time>2024-09-04T12:18:57.157Z</time>
      </trkpt>
      <trkpt lat="50.51319" lon="2.74744">
        <ele>22</ele>
        <time>2024-09-04T12:18:57.450Z</time>
      </trkpt>
      <trkpt lat="50.51308" lon="2.74736">
        <ele>22</ele>
        <time>2024-09-04T12:18:57.881Z</time>
      </trkpt>
      <trkpt lat="50.513" lon="2.74731">
        <ele>22</ele>
        <time>2024-09-04T12:18:58.167Z</time>
      </trkpt>
      <trkpt lat="50.51293" lon="2.74731">
        <ele>22</ele>
        <time>2024-09-04T12:18:58.418Z</time>
      </trkpt>
      <trkpt lat="50.51287" lon="2.74728">
        <ele>22</ele>
        <time>2024-09-04T12:18:58.607Z</time>
      </trkpt>
      <trkpt lat="50.51281" lon="2.74727">
        <ele>22</ele>
        <time>2024-09-04T12:18:58.828Z</time>
      </trkpt>
      <trkpt lat="50.51277" lon="2.74725">
        <ele>22.25</ele>
        <time>2024-09-04T12:18:58.978Z</time>
      </trkpt>
      <trkpt lat="50.51275" lon="2.74722">
        <ele>22.25</ele>
        <time>2024-09-04T12:18:59.065Z</time>
      </trkpt>
      <trkpt lat="50.5127" lon="2.74719">
        <ele>22.25</ele>
        <time>2024-09-04T12:18:59.238Z</time>
      </trkpt>
      <trkpt lat="50.51268" lon="2.74719">
        <ele>22.25</ele>
        <time>2024-09-04T12:18:59.327Z</time>
      </trkpt>
      <trkpt lat="50.51263" lon="2.74722">
        <ele>22.25</ele>
        <time>2024-09-04T12:18:59.497Z</time>
      </trkpt>
      <trkpt lat="50.5126" lon="2.74728">
        <ele>22.5</ele>
        <time>2024-09-04T12:18:59.669Z</time>
      </trkpt>
      <trkpt lat="50.51259" lon="2.74733">
        <ele>22.5</ele>
        <time>2024-09-04T12:18:59.782Z</time>
      </trkpt>
      <trkpt lat="50.51254" lon="2.7474">
        <ele>22.75</ele>
        <time>2024-09-04T12:19:00.031Z</time>
      </trkpt>
      <trkpt lat="50.51251" lon="2.74742">
        <ele>22.75</ele>
        <time>2024-09-04T12:19:00.128Z</time>
      </trkpt>
      <trkpt lat="50.51238" lon="2.74742">
        <ele>22.75</ele>
        <time>2024-09-04T12:19:00.598Z</time>
      </trkpt>
      <trkpt lat="50.51203" lon="2.74729">
        <ele>22</ele>
        <time>2024-09-04T12:19:01.817Z</time>
      </trkpt>
      <trkpt lat="50.51175" lon="2.74714">
        <ele>21.5</ele>
        <time>2024-09-04T12:19:02.819Z</time>
      </trkpt>
      <trkpt lat="50.51079" lon="2.74642">
        <ele>22.75</ele>
        <time>2024-09-04T12:19:06.489Z</time>
      </trkpt>
      <trkpt lat="50.51045" lon="2.74622">
        <ele>23.25</ele>
        <time>2024-09-04T12:19:07.717Z</time>
      </trkpt>
      <trkpt lat="50.5101" lon="2.74606">
        <ele>24</ele>
        <time>2024-09-04T12:19:08.982Z</time>
      </trkpt>
      <trkpt lat="50.51014" lon="2.74582">
        <ele>23.5</ele>
        <time>2024-09-04T12:19:09.531Z</time>
      </trkpt>
      <trkpt lat="50.51027" lon="2.74548">
        <ele>23.25</ele>
        <time>2024-09-04T12:19:10.395Z</time>
      </trkpt>
      <trkpt lat="50.51048" lon="2.74491">
        <ele>22.75</ele>
        <time>2024-09-04T12:19:11.835Z</time>
      </trkpt>
      <trkpt lat="50.51048" lon="2.74491">
        <ele>22.75</ele>
        <time>2024-09-04T12:19:11.835Z</time>
      </trkpt>
      <trkpt lat="50.51048" lon="2.74491">
        <ele>22.75</ele>
        <time>2024-09-04T12:19:11.835Z</time>
      </trkpt>
      <trkpt lat="50.51049" lon="2.74491">
        <ele>22.75</ele>
        <time>2024-09-04T12:19:11.844Z</time>
      </trkpt>
      <trkpt lat="50.51072" lon="2.74437">
        <ele>23.5</ele>
        <time>2024-09-04T12:19:13.250Z</time>
      </trkpt>
      <trkpt lat="50.51084" lon="2.74417">
        <ele>24</ele>
        <time>2024-09-04T12:19:13.863Z</time>
      </trkpt>
      <trkpt lat="50.51097" lon="2.74388">
        <ele>24.25</ele>
        <time>2024-09-04T12:19:14.645Z</time>
      </trkpt>
      <trkpt lat="50.51111" lon="2.74337">
        <ele>24.75</ele>
        <time>2024-09-04T12:19:15.846Z</time>
      </trkpt>
      <trkpt lat="50.51126" lon="2.74211">
        <ele>27.25</ele>
        <time>2024-09-04T12:19:18.658Z</time>
      </trkpt>
      <trkpt lat="50.51126" lon="2.74186">
        <ele>27.75</ele>
        <time>2024-09-04T12:19:19.204Z</time>
      </trkpt>
      <trkpt lat="50.51116" lon="2.74148">
        <ele>28</ele>
        <time>2024-09-04T12:19:20.099Z</time>
      </trkpt>
      <trkpt lat="50.51104" lon="2.74133">
        <ele>28.25</ele>
        <time>2024-09-04T12:19:20.614Z</time>
      </trkpt>
      <trkpt lat="50.51095" lon="2.74127">
        <ele>28.25</ele>
        <time>2024-09-04T12:19:20.956Z</time>
      </trkpt>
      <trkpt lat="50.51086" lon="2.74122">
        <ele>28.5</ele>
        <time>2024-09-04T12:19:21.276Z</time>
      </trkpt>
      <trkpt lat="50.51072" lon="2.74114">
        <ele>28.25</ele>
        <time>2024-09-04T12:19:21.778Z</time>
      </trkpt>
      <trkpt lat="50.51064" lon="2.7411">
        <ele>28</ele>
        <time>2024-09-04T12:19:22.095Z</time>
      </trkpt>
      <trkpt lat="50.51052" lon="2.74103">
        <ele>28</ele>
        <time>2024-09-04T12:19:22.523Z</time>
      </trkpt>
      <trkpt lat="50.51014" lon="2.74083">
        <ele>27.25</ele>
        <time>2024-09-04T12:19:23.899Z</time>
      </trkpt>
      <trkpt lat="50.51009" lon="2.7408">
        <ele>27</ele>
        <time>2024-09-04T12:19:24.081Z</time>
      </trkpt>
      <trkpt lat="50.50993" lon="2.7407">
        <ele>26.75</ele>
        <time>2024-09-04T12:19:24.657Z</time>
      </trkpt>
      <trkpt lat="50.50982" lon="2.74063">
        <ele>26.75</ele>
        <time>2024-09-04T12:19:25.079Z</time>
      </trkpt>
      <trkpt lat="50.5094" lon="2.74">
        <ele>26.75</ele>
        <time>2024-09-04T12:19:27.079Z</time>
      </trkpt>
      <trkpt lat="50.5092" lon="2.73981">
        <ele>27</ele>
        <time>2024-09-04T12:19:27.880Z</time>
      </trkpt>
      <trkpt lat="50.50881" lon="2.73954">
        <ele>26.5</ele>
        <time>2024-09-04T12:19:29.339Z</time>
      </trkpt>
      <trkpt lat="50.50874" lon="2.73949">
        <ele>26.5</ele>
        <time>2024-09-04T12:19:29.598Z</time>
      </trkpt>
      <trkpt lat="50.50794" lon="2.73896">
        <ele>25.25</ele>
        <time>2024-09-04T12:19:32.585Z</time>
      </trkpt>
      <trkpt lat="50.50787" lon="2.73889">
        <ele>25</ele>
        <time>2024-09-04T12:19:32.875Z</time>
      </trkpt>
      <trkpt lat="50.50782" lon="2.73879">
        <ele>25</ele>
        <time>2024-09-04T12:19:33.131Z</time>
      </trkpt>
      <trkpt lat="50.50776" lon="2.73863">
        <ele>25.25</ele>
        <time>2024-09-04T12:19:33.554Z</time>
      </trkpt>
      <trkpt lat="50.50775" lon="2.73858">
        <ele>25.25</ele>
        <time>2024-09-04T12:19:33.667Z</time>
      </trkpt>
      <trkpt lat="50.50774" lon="2.73855">
        <ele>25.25</ele>
        <time>2024-09-04T12:19:33.737Z</time>
      </trkpt>
      <trkpt lat="50.50772" lon="2.7385">
        <ele>25.25</ele>
        <time>2024-09-04T12:19:33.878Z</time>
      </trkpt>
      <trkpt lat="50.50768" lon="2.73848">
        <ele>25</ele>
        <time>2024-09-04T12:19:34.019Z</time>
      </trkpt>
      <trkpt lat="50.50763" lon="2.73849">
        <ele>25</ele>
        <time>2024-09-04T12:19:34.185Z</time>
      </trkpt>
      <trkpt lat="50.50752" lon="2.73844">
        <ele>24.75</ele>
        <time>2024-09-04T12:19:34.588Z</time>
      </trkpt>
      <trkpt lat="50.50741" lon="2.73838">
        <ele>24.75</ele>
        <time>2024-09-04T12:19:34.987Z</time>
      </trkpt>
      <trkpt lat="50.50729" lon="2.73828">
        <ele>25</ele>
        <time>2024-09-04T12:19:35.436Z</time>
      </trkpt>
      <trkpt lat="50.50716" lon="2.73811">
        <ele>25.25</ele>
        <time>2024-09-04T12:19:36.015Z</time>
      </trkpt>
      <trkpt lat="50.50677" lon="2.73748">
        <ele>26</ele>
        <time>2024-09-04T12:19:37.945Z</time>
      </trkpt>
      <trkpt lat="50.50641" lon="2.73708">
        <ele>26</ele>
        <time>2024-09-04T12:19:39.440Z</time>
      </trkpt>
      <trkpt lat="50.50422" lon="2.7353">
        <ele>26</ele>
        <time>2024-09-04T12:19:47.921Z</time>
      </trkpt>
      <trkpt lat="50.50422" lon="2.7352">
        <ele>26</ele>
        <time>2024-09-04T12:19:48.139Z</time>
      </trkpt>
      <trkpt lat="50.50426" lon="2.73419">
        <ele>24</ele>
        <time>2024-09-04T12:19:50.345Z</time>
      </trkpt>
      <trkpt lat="50.50427" lon="2.73354">
        <ele>23</ele>
        <time>2024-09-04T12:19:51.768Z</time>
      </trkpt>
      <trkpt lat="50.50424" lon="2.73288">
        <ele>21.75</ele>
        <time>2024-09-04T12:19:53.215Z</time>
      </trkpt>
      <trkpt lat="50.50424" lon="2.73246">
        <ele>21</ele>
        <time>2024-09-04T12:19:54.124Z</time>
      </trkpt>
      <trkpt lat="50.50429" lon="2.73099">
        <ele>20.75</ele>
        <time>2024-09-04T12:19:57.344Z</time>
      </trkpt>
      <trkpt lat="50.5043" lon="2.73067">
        <ele>21</ele>
        <time>2024-09-04T12:19:58.046Z</time>
      </trkpt>
      <trkpt lat="50.50437" lon="2.73039">
        <ele>21</ele>
        <time>2024-09-04T12:19:58.681Z</time>
      </trkpt>
      <trkpt lat="50.5045" lon="2.72992">
        <ele>21.5</ele>
        <time>2024-09-04T12:19:59.813Z</time>
      </trkpt>
      <trkpt lat="50.50461" lon="2.72951">
        <ele>22.5</ele>
        <time>2024-09-04T12:20:00.779Z</time>
      </trkpt>
      <trkpt lat="50.50466" lon="2.72929">
        <ele>24.64</ele>
        <time>2024-09-04T12:47:44.566Z</time>
      </trkpt>
      <trkpt lat="50.50452" lon="2.72922">
        <ele>24.79</ele>
        <time>2024-09-04T12:47:47.031Z</time>
      </trkpt>
      <trkpt lat="50.50438" lon="2.72913">
        <ele>24.96</ele>
        <time>2024-09-04T12:47:49.499Z</time>
      </trkpt>
      <trkpt lat="50.50413" lon="2.72894">
        <ele>25.17</ele>
        <time>2024-09-04T12:47:51.971Z</time>
      </trkpt>
      <trkpt lat="50.50389" lon="2.72875">
        <ele>25.37</ele>
        <time>2024-09-04T12:47:54.447Z</time>
      </trkpt>
      <trkpt lat="50.50372" lon="2.7286">
        <ele>25.56</ele>
        <time>2024-09-04T12:47:56.926Z</time>
      </trkpt>
      <trkpt lat="50.50356" lon="2.72845">
        <ele>25.78</ele>
        <time>2024-09-04T12:47:59.408Z</time>
      </trkpt>
      <trkpt lat="50.50348" lon="2.72835">
        <ele>26.01</ele>
        <time>2024-09-04T12:48:01.892Z</time>
      </trkpt>
      <trkpt lat="50.50326" lon="2.72807">
        <ele>26.23</ele>
        <time>2024-09-04T12:48:04.381Z</time>
      </trkpt>
      <trkpt lat="50.50316" lon="2.72791">
        <ele>26.48</ele>
        <time>2024-09-04T12:48:06.872Z</time>
      </trkpt>
      <trkpt lat="50.50298" lon="2.72762">
        <ele>26.73</ele>
        <time>2024-09-04T12:48:09.367Z</time>
      </trkpt>
      <trkpt lat="50.50291" lon="2.72749">
        <ele>27</ele>
        <time>2024-09-04T12:48:11.864Z</time>
      </trkpt>
      <trkpt lat="50.50271" lon="2.72735">
        <ele>27.31</ele>
        <time>2024-09-04T12:48:14.364Z</time>
      </trkpt>
      <trkpt lat="50.50251" lon="2.72722">
        <ele>27.61</ele>
        <time>2024-09-04T12:48:16.868Z</time>
      </trkpt>
      <trkpt lat="50.50247" lon="2.72719">
        <ele>27.88</ele>
        <time>2024-09-04T12:48:19.372Z</time>
      </trkpt>
      <trkpt lat="50.50243" lon="2.72706">
        <ele>28.15</ele>
        <time>2024-09-04T12:48:21.878Z</time>
      </trkpt>
      <trkpt lat="50.50241" lon="2.7269">
        <ele>28.42</ele>
        <time>2024-09-04T12:48:24.386Z</time>
      </trkpt>
      <trkpt lat="50.50247" lon="2.72651">
        <ele>28.66</ele>
        <time>2024-09-04T12:48:26.898Z</time>
      </trkpt>
      <trkpt lat="50.50249" lon="2.72637">
        <ele>28.91</ele>
        <time>2024-09-04T12:48:29.411Z</time>
      </trkpt>
      <trkpt lat="50.50252" lon="2.72613">
        <ele>29.17</ele>
        <time>2024-09-04T12:48:31.927Z</time>
      </trkpt>
      <trkpt lat="50.50258" lon="2.72574">
        <ele>29.53</ele>
        <time>2024-09-04T12:48:34.447Z</time>
      </trkpt>
      <trkpt lat="50.50259" lon="2.72562">
        <ele>29.79</ele>
        <time>2024-09-04T12:48:36.968Z</time>
      </trkpt>
      <trkpt lat="50.50262" lon="2.7254">
        <ele>30.04</ele>
        <time>2024-09-04T12:48:39.491Z</time>
      </trkpt>
      <trkpt lat="50.5029" lon="2.72557">
        <ele>30.23</ele>
        <time>2024-09-04T12:48:42.019Z</time>
      </trkpt>
      <trkpt lat="50.50308" lon="2.72567">
        <ele>30.42</ele>
        <time>2024-09-04T12:48:44.550Z</time>
      </trkpt>
      <trkpt lat="50.50326" lon="2.72577">
        <ele>30.6</ele>
        <time>2024-09-04T12:48:47.084Z</time>
      </trkpt>
      <trkpt lat="50.50336" lon="2.72583">
        <ele>30.78</ele>
        <time>2024-09-04T12:48:49.620Z</time>
      </trkpt>
      <trkpt lat="50.50344" lon="2.72584">
        <ele>30.97</ele>
        <time>2024-09-04T12:48:52.157Z</time>
      </trkpt>
      <trkpt lat="50.50356" lon="2.72583">
        <ele>31.16</ele>
        <time>2024-09-04T12:48:54.696Z</time>
      </trkpt>
      <trkpt lat="50.50366" lon="2.72581">
        <ele>31.32</ele>
        <time>2024-09-04T12:48:57.237Z</time>
      </trkpt>
      <trkpt lat="50.5039" lon="2.72567">
        <ele>31.49</ele>
        <time>2024-09-04T12:48:59.782Z</time>
      </trkpt>
      <trkpt lat="50.50399" lon="2.72561">
        <ele>31.63</ele>
        <time>2024-09-04T12:49:02.328Z</time>
      </trkpt>
      <trkpt lat="50.50402" lon="2.72557">
        <ele>31.74</ele>
        <time>2024-09-04T12:49:04.875Z</time>
      </trkpt>
      <trkpt lat="50.50407" lon="2.72549">
        <ele>31.84</ele>
        <time>2024-09-04T12:49:07.423Z</time>
      </trkpt>
      <trkpt lat="50.5041" lon="2.72551">
        <ele>31.93</ele>
        <time>2024-09-04T12:49:09.972Z</time>
      </trkpt>
      <trkpt lat="50.50412" lon="2.72551">
        <ele>32.01</ele>
        <time>2024-09-04T12:49:12.521Z</time>
      </trkpt>
      <trkpt lat="50.50415" lon="2.72551">
        <ele>32.08</ele>
        <time>2024-09-04T12:49:15.070Z</time>
      </trkpt>
      <trkpt lat="50.50417" lon="2.72548">
        <ele>32.13</ele>
        <time>2024-09-04T12:49:17.620Z</time>
      </trkpt>
      <trkpt lat="50.50418" lon="2.72545">
        <ele>32.17</ele>
        <time>2024-09-04T12:49:20.170Z</time>
      </trkpt>
      <trkpt lat="50.50419" lon="2.72541">
        <ele>32.2</ele>
        <time>2024-09-04T12:49:22.721Z</time>
      </trkpt>
      <trkpt lat="50.50418" lon="2.72537">
        <ele>32.22</ele>
        <time>2024-09-04T12:49:25.272Z</time>
      </trkpt>
      <trkpt lat="50.50417" lon="2.72534">
        <ele>32.23</ele>
        <time>2024-09-04T12:49:27.823Z</time>
      </trkpt>
      <trkpt lat="50.50414" lon="2.72531">
        <ele>32.23</ele>
        <time>2024-09-04T12:49:30.375Z</time>
      </trkpt>
      <trkpt lat="50.50412" lon="2.72531">
        <ele>32.21</ele>
        <time>2024-09-04T12:49:32.927Z</time>
      </trkpt>
      <trkpt lat="50.50409" lon="2.72532">
        <ele>32.19</ele>
        <time>2024-09-04T12:49:35.480Z</time>
      </trkpt>
      <trkpt lat="50.50409" lon="2.72529">
        <ele>32.16</ele>
        <time>2024-09-04T12:49:38.033Z</time>
      </trkpt>
      <trkpt lat="50.50407" lon="2.72518">
        <ele>32.11</ele>
        <time>2024-09-04T12:49:40.587Z</time>
      </trkpt>
      <trkpt lat="50.50408" lon="2.72504">
        <ele>32.06</ele>
        <time>2024-09-04T12:49:43.143Z</time>
      </trkpt>
      <trkpt lat="50.50412" lon="2.72456">
        <ele>31.98</ele>
        <time>2024-09-04T12:49:45.704Z</time>
      </trkpt>
      <trkpt lat="50.50414" lon="2.72432">
        <ele>31.9</ele>
        <time>2024-09-04T12:49:48.267Z</time>
      </trkpt>
      <trkpt lat="50.50417" lon="2.72394">
        <ele>31.79</ele>
        <time>2024-09-04T12:49:50.834Z</time>
      </trkpt>
      <trkpt lat="50.5042" lon="2.72357">
        <ele>31.73</ele>
        <time>2024-09-04T12:49:53.405Z</time>
      </trkpt>
      <trkpt lat="50.50423" lon="2.72319">
        <ele>31.71</ele>
        <time>2024-09-04T12:49:55.980Z</time>
      </trkpt>
      <trkpt lat="50.50424" lon="2.72303">
        <ele>31.68</ele>
        <time>2024-09-04T12:49:58.556Z</time>
      </trkpt>
      <trkpt lat="50.50426" lon="2.72282">
        <ele>31.67</ele>
        <time>2024-09-04T12:50:01.134Z</time>
      </trkpt>
      <trkpt lat="50.50428" lon="2.72256">
        <ele>31.64</ele>
        <time>2024-09-04T12:50:03.715Z</time>
      </trkpt>
      <trkpt lat="50.5043" lon="2.7223">
        <ele>31.59</ele>
        <time>2024-09-04T12:50:06.299Z</time>
      </trkpt>
      <trkpt lat="50.50433" lon="2.72203">
        <ele>31.51</ele>
        <time>2024-09-04T12:50:08.886Z</time>
      </trkpt>
      <trkpt lat="50.50435" lon="2.72175">
        <ele>31.41</ele>
        <time>2024-09-04T12:50:11.475Z</time>
      </trkpt>
      <trkpt lat="50.50434" lon="2.72154">
        <ele>31.33</ele>
        <time>2024-09-04T12:50:14.067Z</time>
      </trkpt>
      <trkpt lat="50.50437" lon="2.72118">
        <ele>31.26</ele>
        <time>2024-09-04T12:50:16.662Z</time>
      </trkpt>
      <trkpt lat="50.5044" lon="2.72081">
        <ele>31.16</ele>
        <time>2024-09-04T12:50:19.261Z</time>
      </trkpt>
      <trkpt lat="50.50444" lon="2.72044">
        <ele>31.04</ele>
        <time>2024-09-04T12:50:21.864Z</time>
      </trkpt>
      <trkpt lat="50.50447" lon="2.72007">
        <ele>30.95</ele>
        <time>2024-09-04T12:50:24.471Z</time>
      </trkpt>
      <trkpt lat="50.50449" lon="2.71989">
        <ele>30.88</ele>
        <time>2024-09-04T12:50:27.080Z</time>
      </trkpt>
      <trkpt lat="50.50452" lon="2.71951">
        <ele>30.84</ele>
        <time>2024-09-04T12:50:29.692Z</time>
      </trkpt>
      <trkpt lat="50.50454" lon="2.71925">
        <ele>30.74</ele>
        <time>2024-09-04T12:50:32.307Z</time>
      </trkpt>
      <trkpt lat="50.50456" lon="2.71898">
        <ele>30.6</ele>
        <time>2024-09-04T12:50:34.925Z</time>
      </trkpt>
      <trkpt lat="50.50457" lon="2.71883">
        <ele>30.47</ele>
        <time>2024-09-04T12:50:37.544Z</time>
      </trkpt>
      <trkpt lat="50.50459" lon="2.71855">
        <ele>30.33</ele>
        <time>2024-09-04T12:50:40.166Z</time>
      </trkpt>
      <trkpt lat="50.50463" lon="2.71836">
        <ele>30.22</ele>
        <time>2024-09-04T12:50:42.790Z</time>
      </trkpt>
      <trkpt lat="50.50467" lon="2.71791">
        <ele>30.14</ele>
        <time>2024-09-04T12:50:45.419Z</time>
      </trkpt>
      <trkpt lat="50.50471" lon="2.71746">
        <ele>30.03</ele>
        <time>2024-09-04T12:50:48.053Z</time>
      </trkpt>
      <trkpt lat="50.50471" lon="2.71726">
        <ele>29.91</ele>
        <time>2024-09-04T12:50:50.689Z</time>
      </trkpt>
      <trkpt lat="50.50474" lon="2.71686">
        <ele>29.76</ele>
        <time>2024-09-04T12:50:53.329Z</time>
      </trkpt>
      <trkpt lat="50.50477" lon="2.71651">
        <ele>29.58</ele>
        <time>2024-09-04T12:50:55.972Z</time>
      </trkpt>
      <trkpt lat="50.50479" lon="2.71617">
        <ele>29.44</ele>
        <time>2024-09-04T12:50:58.619Z</time>
      </trkpt>
      <trkpt lat="50.50482" lon="2.71582">
        <ele>29.27</ele>
        <time>2024-09-04T12:51:02.520Z</time>
      </trkpt>
      <trkpt lat="50.50482" lon="2.71582">
        <ele>27</ele>
        <time>2024-09-04T12:51:02.520Z</time>
      </trkpt>
      <trkpt lat="50.50485" lon="2.71566">
        <ele>26.75</ele>
        <time>2024-09-04T12:51:04.462Z</time>
      </trkpt>
      <trkpt lat="50.50543" lon="2.71484">
        <ele>25.5</ele>
        <time>2024-09-04T12:51:18.277Z</time>
      </trkpt>
      <trkpt lat="50.50585" lon="2.71421">
        <ele>24</ele>
        <time>2024-09-04T12:51:28.524Z</time>
      </trkpt>
      <trkpt lat="50.50653" lon="2.71313">
        <ele>24</ele>
        <time>2024-09-04T12:51:45.703Z</time>
      </trkpt>
      <trkpt lat="50.50664" lon="2.71294">
        <ele>24.25</ele>
        <time>2024-09-04T12:51:48.580Z</time>
      </trkpt>
      <trkpt lat="50.50705" lon="2.71221">
        <ele>24.5</ele>
        <time>2024-09-04T12:51:59.584Z</time>
      </trkpt>
      <trkpt lat="50.50788" lon="2.71061">
        <ele>24</ele>
        <time>2024-09-04T12:52:22.936Z</time>
      </trkpt>
      <trkpt lat="50.50795" lon="2.7105">
        <ele>23.75</ele>
        <time>2024-09-04T12:52:25.122Z</time>
      </trkpt>
      <trkpt lat="50.50795" lon="2.7105">
        <ele>23.75</ele>
        <time>2024-09-04T12:52:25.140Z</time>
      </trkpt>
      <trkpt lat="50.50789" lon="2.71035">
        <ele>24</ele>
        <time>2024-09-04T12:52:27.534Z</time>
      </trkpt>
      <trkpt lat="50.5074" lon="2.70937">
        <ele>25</ele>
        <time>2024-09-04T12:52:44.696Z</time>
      </trkpt>
      <trkpt lat="50.50725" lon="2.70907">
        <ele>25</ele>
        <time>2024-09-04T12:52:49.952Z</time>
      </trkpt>
      <trkpt lat="50.50705" lon="2.70847">
        <ele>25</ele>
        <time>2024-09-04T12:52:59.336Z</time>
      </trkpt>
      <trkpt lat="50.5064" lon="2.70611">
        <ele>24.75</ele>
        <time>2024-09-04T12:53:34.702Z</time>
      </trkpt>
      <trkpt lat="50.50543" lon="2.70253">
        <ele>24.5</ele>
        <time>2024-09-04T12:54:28.354Z</time>
      </trkpt>
      <trkpt lat="50.50524" lon="2.70198">
        <ele>24.5</ele>
        <time>2024-09-04T12:54:36.960Z</time>
      </trkpt>
      <trkpt lat="50.50511" lon="2.70166">
        <ele>24.75</ele>
        <time>2024-09-04T12:54:42.180Z</time>
      </trkpt>
      <trkpt lat="50.50494" lon="2.70137">
        <ele>24.5</ele>
        <time>2024-09-04T12:54:47.752Z</time>
      </trkpt>
      <trkpt lat="50.50417" lon="2.69994">
        <ele>23</ele>
        <time>2024-09-04T12:55:13.470Z</time>
      </trkpt>
      <trkpt lat="50.50394" lon="2.69948">
        <ele>23.5</ele>
        <time>2024-09-04T12:55:21.548Z</time>
      </trkpt>
      <trkpt lat="50.50383" lon="2.69926">
        <ele>23.75</ele>
        <time>2024-09-04T12:55:25.349Z</time>
      </trkpt>
      <trkpt lat="50.50375" lon="2.6991">
        <ele>24</ele>
        <time>2024-09-04T12:55:28.150Z</time>
      </trkpt>
      <trkpt lat="50.50354" lon="2.69866">
        <ele>24</ele>
        <time>2024-09-04T12:55:35.732Z</time>
      </trkpt>
      <trkpt lat="50.5033" lon="2.69817">
        <ele>24</ele>
        <time>2024-09-04T12:55:44.315Z</time>
      </trkpt>
      <trkpt lat="50.50323" lon="2.69803">
        <ele>24</ele>
        <time>2024-09-04T12:55:46.673Z</time>
      </trkpt>
      <trkpt lat="50.50314" lon="2.69786">
        <ele>24</ele>
        <time>2024-09-04T12:55:49.732Z</time>
      </trkpt>
      <trkpt lat="50.50312" lon="2.69781">
        <ele>24</ele>
        <time>2024-09-04T12:55:50.500Z</time>
      </trkpt>
      <trkpt lat="50.50306" lon="2.6977">
        <ele>24</ele>
        <time>2024-09-04T12:55:52.492Z</time>
      </trkpt>
      <trkpt lat="50.50283" lon="2.69716">
        <ele>24</ele>
        <time>2024-09-04T12:56:01.527Z</time>
      </trkpt>
      <trkpt lat="50.50274" lon="2.6969">
        <ele>24</ele>
        <time>2024-09-04T12:56:05.545Z</time>
      </trkpt>
      <trkpt lat="50.50272" lon="2.69674">
        <ele>24</ele>
        <time>2024-09-04T12:56:07.867Z</time>
      </trkpt>
      <trkpt lat="50.50271" lon="2.69657">
        <ele>23.75</ele>
        <time>2024-09-04T12:56:10.184Z</time>
      </trkpt>
      <trkpt lat="50.50271" lon="2.69643">
        <ele>23.5</ele>
        <time>2024-09-04T12:56:12.113Z</time>
      </trkpt>
      <trkpt lat="50.50271" lon="2.69574">
        <ele>23</ele>
        <time>2024-09-04T12:56:21.673Z</time>
      </trkpt>
      <trkpt lat="50.5027" lon="2.69555">
        <ele>23</ele>
        <time>2024-09-04T12:56:24.209Z</time>
      </trkpt>
      <trkpt lat="50.50266" lon="2.69535">
        <ele>23</ele>
        <time>2024-09-04T12:56:27.098Z</time>
      </trkpt>
      <trkpt lat="50.50253" lon="2.69476">
        <ele>23.25</ele>
        <time>2024-09-04T12:56:35.797Z</time>
      </trkpt>
      <trkpt lat="50.5024" lon="2.6942">
        <ele>24</ele>
        <time>2024-09-04T12:56:44.013Z</time>
      </trkpt>
      <trkpt lat="50.50238" lon="2.69415">
        <ele>24.25</ele>
        <time>2024-09-04T12:56:44.786Z</time>
      </trkpt>
      <trkpt lat="50.50235" lon="2.69406">
        <ele>24.25</ele>
        <time>2024-09-04T12:56:46.216Z</time>
      </trkpt>
      <trkpt lat="50.5025" lon="2.69382">
        <ele>24</ele>
        <time>2024-09-04T12:56:50.766Z</time>
      </trkpt>
      <trkpt lat="50.50245" lon="2.69373">
        <ele>24</ele>
        <time>2024-09-04T12:56:52.305Z</time>
      </trkpt>
      <trkpt lat="50.50233" lon="2.69349">
        <ele>24.25</ele>
        <time>2024-09-04T12:56:56.553Z</time>
      </trkpt>
      <trkpt lat="50.50207" lon="2.69296">
        <ele>24.75</ele>
        <time>2024-09-04T12:57:05.740Z</time>
      </trkpt>
      <trkpt lat="50.5019" lon="2.69248">
        <ele>24.5</ele>
        <time>2024-09-04T12:57:13.358Z</time>
      </trkpt>
      <trkpt lat="50.50184" lon="2.69231">
        <ele>24.75</ele>
        <time>2024-09-04T12:57:16.039Z</time>
      </trkpt>
      <trkpt lat="50.50174" lon="2.69206">
        <ele>24.75</ele>
        <time>2024-09-04T12:57:20.099Z</time>
      </trkpt>
      <trkpt lat="50.50133" lon="2.69092">
        <ele>24.75</ele>
        <time>2024-09-04T12:57:38.179Z</time>
      </trkpt>
      <trkpt lat="50.50093" lon="2.68981">
        <ele>25.75</ele>
        <time>2024-09-04T12:57:55.710Z</time>
      </trkpt>
      <trkpt lat="50.50077" lon="2.6894">
        <ele>26</ele>
        <time>2024-09-04T12:58:02.313Z</time>
      </trkpt>
      <trkpt lat="50.50059" lon="2.68889">
        <ele>26</ele>
        <time>2024-09-04T12:58:10.343Z</time>
      </trkpt>
      <trkpt lat="50.50052" lon="2.68866">
        <ele>26</ele>
        <time>2024-09-04T12:58:13.844Z</time>
      </trkpt>
      <trkpt lat="50.50039" lon="2.68765">
        <ele>25.5</ele>
        <time>2024-09-04T12:58:28.021Z</time>
      </trkpt>
      <trkpt lat="50.50037" lon="2.68744">
        <ele>25.5</ele>
        <time>2024-09-04T12:58:30.975Z</time>
      </trkpt>
      <trkpt lat="50.50037" lon="2.68734">
        <ele>25.5</ele>
        <time>2024-09-04T12:58:32.410Z</time>
      </trkpt>
      <trkpt lat="50.50039" lon="2.68718">
        <ele>25.5</ele>
        <time>2024-09-04T12:58:34.597Z</time>
      </trkpt>
      <trkpt lat="50.50043" lon="2.68706">
        <ele>25.25</ele>
        <time>2024-09-04T12:58:36.438Z</time>
      </trkpt>
      <trkpt lat="50.50047" lon="2.68691">
        <ele>25.25</ele>
        <time>2024-09-04T12:58:38.680Z</time>
      </trkpt>
      <trkpt lat="50.50048" lon="2.6868">
        <ele>25.25</ele>
        <time>2024-09-04T12:58:40.287Z</time>
      </trkpt>
      <trkpt lat="50.50048" lon="2.68674">
        <ele>25.25</ele>
        <time>2024-09-04T12:58:41.076Z</time>
      </trkpt>
      <trkpt lat="50.50044" lon="2.6863">
        <ele>25.5</ele>
        <time>2024-09-04T12:58:47.243Z</time>
      </trkpt>
      <trkpt lat="50.50043" lon="2.68615">
        <ele>25.75</ele>
        <time>2024-09-04T12:58:49.314Z</time>
      </trkpt>
      <trkpt lat="50.50039" lon="2.68576">
        <ele>26</ele>
        <time>2024-09-04T12:58:54.696Z</time>
      </trkpt>
      <trkpt lat="50.50038" lon="2.68565">
        <ele>26</ele>
        <time>2024-09-04T12:58:56.247Z</time>
      </trkpt>
      <trkpt lat="50.50035" lon="2.68533">
        <ele>26.25</ele>
        <time>2024-09-04T12:59:00.743Z</time>
      </trkpt>
      <trkpt lat="50.50032" lon="2.68503">
        <ele>26.25</ele>
        <time>2024-09-04T12:59:04.908Z</time>
      </trkpt>
      <trkpt lat="50.50031" lon="2.68489">
        <ele>26.25</ele>
        <time>2024-09-04T12:59:06.786Z</time>
      </trkpt>
      <trkpt lat="50.5003" lon="2.68478">
        <ele>26.25</ele>
        <time>2024-09-04T12:59:08.391Z</time>
      </trkpt>
      <trkpt lat="50.50023" lon="2.6841">
        <ele>26.75</ele>
        <time>2024-09-04T12:59:17.918Z</time>
      </trkpt>
      <trkpt lat="50.50009" lon="2.68294">
        <ele>26.25</ele>
        <time>2024-09-04T12:59:34.043Z</time>
      </trkpt>
      <trkpt lat="50.50005" lon="2.68258">
        <ele>25</ele>
        <time>2024-09-04T12:59:39.196Z</time>
      </trkpt>
      <trkpt lat="50.50003" lon="2.68241">
        <ele>24.5</ele>
        <time>2024-09-04T12:59:41.599Z</time>
      </trkpt>
      <trkpt lat="50.49999" lon="2.68224">
        <ele>24.25</ele>
        <time>2024-09-04T12:59:44.077Z</time>
      </trkpt>
      <trkpt lat="50.49996" lon="2.68213">
        <ele>24</ele>
        <time>2024-09-04T12:59:45.675Z</time>
      </trkpt>
      <trkpt lat="50.49991" lon="2.68197">
        <ele>23.75</ele>
        <time>2024-09-04T12:59:48.025Z</time>
      </trkpt>
      <trkpt lat="50.49974" lon="2.68141">
        <ele>23.25</ele>
        <time>2024-09-04T12:59:56.632Z</time>
      </trkpt>
      <trkpt lat="50.49964" lon="2.68123">
        <ele>23.25</ele>
        <time>2024-09-04T12:59:59.983Z</time>
      </trkpt>
      <trkpt lat="50.49961" lon="2.68117">
        <ele>23.25</ele>
        <time>2024-09-04T13:00:01.051Z</time>
      </trkpt>
      <trkpt lat="50.49956" lon="2.6811">
        <ele>23.25</ele>
        <time>2024-09-04T13:00:02.491Z</time>
      </trkpt>
      <trkpt lat="50.49948" lon="2.68102">
        <ele>23.25</ele>
        <time>2024-09-04T13:00:04.533Z</time>
      </trkpt>
      <trkpt lat="50.49914" lon="2.68081">
        <ele>23.75</ele>
        <time>2024-09-04T13:00:12.520Z</time>
      </trkpt>
      <trkpt lat="50.49899" lon="2.68075">
        <ele>23.75</ele>
        <time>2024-09-04T13:00:15.823Z</time>
      </trkpt>
      <trkpt lat="50.49888" lon="2.68073">
        <ele>23.75</ele>
        <time>2024-09-04T13:00:18.095Z</time>
      </trkpt>
      <trkpt lat="50.49885" lon="2.68072">
        <ele>23.75</ele>
        <time>2024-09-04T13:00:18.832Z</time>
      </trkpt>
      <trkpt lat="50.49876" lon="2.68072">
        <ele>23.75</ele>
        <time>2024-09-04T13:00:20.805Z</time>
      </trkpt>
      <trkpt lat="50.4986" lon="2.68072">
        <ele>23.75</ele>
        <time>2024-09-04T13:00:24.250Z</time>
      </trkpt>
      <trkpt lat="50.4985" lon="2.68077">
        <ele>23.75</ele>
        <time>2024-09-04T13:00:26.427Z</time>
      </trkpt>
      <trkpt lat="50.4983" lon="2.68089">
        <ele>23.75</ele>
        <time>2024-09-04T13:00:31.141Z</time>
      </trkpt>
      <trkpt lat="50.49804" lon="2.68117">
        <ele>23.25</ele>
        <time>2024-09-04T13:00:38.028Z</time>
      </trkpt>
      <trkpt lat="50.49802" lon="2.68119">
        <ele>23.25</ele>
        <time>2024-09-04T13:00:38.523Z</time>
      </trkpt>
      <trkpt lat="50.49783" lon="2.68145">
        <ele>23</ele>
        <time>2024-09-04T13:00:43.962Z</time>
      </trkpt>
      <trkpt lat="50.49774" lon="2.68157">
        <ele>23</ele>
        <time>2024-09-04T13:00:46.579Z</time>
      </trkpt>
      <trkpt lat="50.49745" lon="2.68185">
        <ele>23</ele>
        <time>2024-09-04T13:00:53.817Z</time>
      </trkpt>
      <trkpt lat="50.49722" lon="2.68204">
        <ele>23</ele>
        <time>2024-09-04T13:00:59.514Z</time>
      </trkpt>
      <trkpt lat="50.49716" lon="2.68205">
        <ele>22.75</ele>
        <time>2024-09-04T13:01:00.761Z</time>
      </trkpt>
      <trkpt lat="50.49711" lon="2.68204">
        <ele>23</ele>
        <time>2024-09-04T13:01:01.784Z</time>
      </trkpt>
      <trkpt lat="50.49706" lon="2.68202">
        <ele>23</ele>
        <time>2024-09-04T13:01:02.986Z</time>
      </trkpt>
      <trkpt lat="50.49701" lon="2.68197">
        <ele>23</ele>
        <time>2024-09-04T13:01:04.280Z</time>
      </trkpt>
      <trkpt lat="50.49689" lon="2.6817">
        <ele>23</ele>
        <time>2024-09-04T13:01:08.761Z</time>
      </trkpt>
      <trkpt lat="50.49685" lon="2.68161">
        <ele>22.75</ele>
        <time>2024-09-04T13:01:10.413Z</time>
      </trkpt>
      <trkpt lat="50.49675" lon="2.68146">
        <ele>22.75</ele>
        <time>2024-09-04T13:01:13.350Z</time>
      </trkpt>
      <trkpt lat="50.49666" lon="2.68135">
        <ele>22.5</ele>
        <time>2024-09-04T13:01:15.728Z</time>
      </trkpt>
      <trkpt lat="50.49619" lon="2.68075">
        <ele>22.5</ele>
        <time>2024-09-04T13:01:28.780Z</time>
      </trkpt>
      <trkpt lat="50.49602" lon="2.68057">
        <ele>22.75</ele>
        <time>2024-09-04T13:01:33.299Z</time>
      </trkpt>
      <trkpt lat="50.49595" lon="2.68053">
        <ele>22.75</ele>
        <time>2024-09-04T13:01:35.055Z</time>
      </trkpt>
      <trkpt lat="50.49579" lon="2.6805">
        <ele>23</ele>
        <time>2024-09-04T13:01:38.462Z</time>
      </trkpt>
      <trkpt lat="50.49551" lon="2.68057">
        <ele>23</ele>
        <time>2024-09-04T13:01:44.507Z</time>
      </trkpt>
      <trkpt lat="50.49496" lon="2.68102">
        <ele>23</ele>
        <time>2024-09-04T13:01:57.999Z</time>
      </trkpt>
      <trkpt lat="50.49477" lon="2.68108">
        <ele>23</ele>
        <time>2024-09-04T13:02:02.278Z</time>
      </trkpt>
      <trkpt lat="50.4946" lon="2.68109">
        <ele>23.25</ele>
        <time>2024-09-04T13:02:05.897Z</time>
      </trkpt>
      <trkpt lat="50.49439" lon="2.68106">
        <ele>23.5</ele>
        <time>2024-09-04T13:02:10.423Z</time>
      </trkpt>
      <trkpt lat="50.49427" lon="2.681">
        <ele>23.5</ele>
        <time>2024-09-04T13:02:13.237Z</time>
      </trkpt>
      <trkpt lat="50.49415" lon="2.68091">
        <ele>23.75</ele>
        <time>2024-09-04T13:02:16.065Z</time>
      </trkpt>
      <trkpt lat="50.49399" lon="2.68075">
        <ele>23.75</ele>
        <time>2024-09-04T13:02:20.165Z</time>
      </trkpt>
      <trkpt lat="50.49348" lon="2.68022">
        <ele>22.5</ele>
        <time>2024-09-04T13:02:33.484Z</time>
      </trkpt>
      <trkpt lat="50.49322" lon="2.67996">
        <ele>21.75</ele>
        <time>2024-09-04T13:02:40.163Z</time>
      </trkpt>
      <trkpt lat="50.49296" lon="2.67962">
        <ele>21.75</ele>
        <time>2024-09-04T13:02:47.360Z</time>
      </trkpt>
      <trkpt lat="50.49277" lon="2.67927">
        <ele>21.75</ele>
        <time>2024-09-04T13:02:53.861Z</time>
      </trkpt>
      <trkpt lat="50.49268" lon="2.6791">
        <ele>22</ele>
        <time>2024-09-04T13:02:56.807Z</time>
      </trkpt>
      <trkpt lat="50.49262" lon="2.67895">
        <ele>22</ele>
        <time>2024-09-04T13:02:59.306Z</time>
      </trkpt>
      <trkpt lat="50.49249" lon="2.6786">
        <ele>22</ele>
        <time>2024-09-04T13:03:04.825Z</time>
      </trkpt>
      <trkpt lat="50.49242" lon="2.67837">
        <ele>22</ele>
        <time>2024-09-04T13:03:08.416Z</time>
      </trkpt>
      <trkpt lat="50.49238" lon="2.67827">
        <ele>21.75</ele>
        <time>2024-09-04T13:03:09.990Z</time>
      </trkpt>
      <trkpt lat="50.49235" lon="2.67816">
        <ele>21.75</ele>
        <time>2024-09-04T13:03:11.597Z</time>
      </trkpt>
      <trkpt lat="50.49226" lon="2.67797">
        <ele>21.5</ele>
        <time>2024-09-04T13:03:14.877Z</time>
      </trkpt>
      <trkpt lat="50.4922" lon="2.67785">
        <ele>21.5</ele>
        <time>2024-09-04T13:03:16.975Z</time>
      </trkpt>
      <trkpt lat="50.4921" lon="2.67769">
        <ele>21.5</ele>
        <time>2024-09-04T13:03:20.030Z</time>
      </trkpt>
      <trkpt lat="50.49183" lon="2.67726">
        <ele>21.75</ele>
        <time>2024-09-04T13:03:28.354Z</time>
      </trkpt>
      <trkpt lat="50.49177" lon="2.67717">
        <ele>21.75</ele>
        <time>2024-09-04T13:03:30.188Z</time>
      </trkpt>
      <trkpt lat="50.49158" lon="2.67688">
        <ele>22.25</ele>
        <time>2024-09-04T13:03:35.942Z</time>
      </trkpt>
      <trkpt lat="50.49147" lon="2.67674">
        <ele>22.5</ele>
        <time>2024-09-04T13:03:38.924Z</time>
      </trkpt>
      <trkpt lat="50.49129" lon="2.67655">
        <ele>22.75</ele>
        <time>2024-09-04T13:03:43.714Z</time>
      </trkpt>
      <trkpt lat="50.48951" lon="2.67492">
        <ele>24.25</ele>
        <time>2024-09-04T13:04:28.286Z</time>
      </trkpt>
      <trkpt lat="50.48944" lon="2.67486">
        <ele>24.25</ele>
        <time>2024-09-04T13:04:29.930Z</time>
      </trkpt>
      <trkpt lat="50.48938" lon="2.6748">
        <ele>24.25</ele>
        <time>2024-09-04T13:04:31.602Z</time>
      </trkpt>
      <trkpt lat="50.48902" lon="2.67447">
        <ele>23.5</ele>
        <time>2024-09-04T13:04:40.507Z</time>
      </trkpt>
      <trkpt lat="50.48826" lon="2.67377">
        <ele>22.5</ele>
        <time>2024-09-04T13:04:59.564Z</time>
      </trkpt>
      <trkpt lat="50.48783" lon="2.67336">
        <ele>23</ele>
        <time>2024-09-04T13:05:10.558Z</time>
      </trkpt>
      <trkpt lat="50.48769" lon="2.67322">
        <ele>23.5</ele>
        <time>2024-09-04T13:05:14.233Z</time>
      </trkpt>
      <trkpt lat="50.48763" lon="2.67313">
        <ele>23.75</ele>
        <time>2024-09-04T13:05:15.882Z</time>
      </trkpt>
      <trkpt lat="50.48757" lon="2.67301">
        <ele>24</ele>
        <time>2024-09-04T13:05:18.082Z</time>
      </trkpt>
      <trkpt lat="50.48752" lon="2.67282">
        <ele>24.5</ele>
        <time>2024-09-04T13:05:20.894Z</time>
      </trkpt>
      <trkpt lat="50.48749" lon="2.67263">
        <ele>24.75</ele>
        <time>2024-09-04T13:05:23.640Z</time>
      </trkpt>
      <trkpt lat="50.48747" lon="2.67252">
        <ele>25</ele>
        <time>2024-09-04T13:05:25.168Z</time>
      </trkpt>
      <trkpt lat="50.48747" lon="2.67243">
        <ele>25</ele>
        <time>2024-09-04T13:05:26.379Z</time>
      </trkpt>
      <trkpt lat="50.48748" lon="2.67234">
        <ele>25</ele>
        <time>2024-09-04T13:05:27.718Z</time>
      </trkpt>
      <trkpt lat="50.48748" lon="2.67224">
        <ele>25</ele>
        <time>2024-09-04T13:05:29.065Z</time>
      </trkpt>
      <trkpt lat="50.48744" lon="2.67216">
        <ele>25</ele>
        <time>2024-09-04T13:05:30.402Z</time>
      </trkpt>
      <trkpt lat="50.48742" lon="2.67213">
        <ele>25</ele>
        <time>2024-09-04T13:05:31.074Z</time>
      </trkpt>
      <trkpt lat="50.48736" lon="2.67209">
        <ele>25</ele>
        <time>2024-09-04T13:05:32.419Z</time>
      </trkpt>
      <trkpt lat="50.48733" lon="2.67209">
        <ele>25</ele>
        <time>2024-09-04T13:05:33.090Z</time>
      </trkpt>
      <trkpt lat="50.48725" lon="2.67197">
        <ele>25.25</ele>
        <time>2024-09-04T13:05:35.400Z</time>
      </trkpt>
      <trkpt lat="50.48718" lon="2.67185">
        <ele>25.25</ele>
        <time>2024-09-04T13:05:37.750Z</time>
      </trkpt>
      <trkpt lat="50.48704" lon="2.67146">
        <ele>25</ele>
        <time>2024-09-04T13:05:43.791Z</time>
      </trkpt>
      <trkpt lat="50.48684" lon="2.67085">
        <ele>24</ele>
        <time>2024-09-04T13:05:53.364Z</time>
      </trkpt>
      <trkpt lat="50.48669" lon="2.6705">
        <ele>23.5</ele>
        <time>2024-09-04T13:05:59.212Z</time>
      </trkpt>
      <trkpt lat="50.48644" lon="2.67003">
        <ele>23.75</ele>
        <time>2024-09-04T13:06:07.632Z</time>
      </trkpt>
      <trkpt lat="50.48632" lon="2.66982">
        <ele>24.25</ele>
        <time>2024-09-04T13:06:11.441Z</time>
      </trkpt>
      <trkpt lat="50.48625" lon="2.66969">
        <ele>24.5</ele>
        <time>2024-09-04T13:06:13.859Z</time>
      </trkpt>
      <trkpt lat="50.48582" lon="2.66893">
        <ele>25</ele>
        <time>2024-09-04T13:06:27.784Z</time>
      </trkpt>
      <trkpt lat="50.48562" lon="2.66858">
        <ele>25.5</ele>
        <time>2024-09-04T13:06:34.328Z</time>
      </trkpt>
      <trkpt lat="50.48551" lon="2.66836">
        <ele>25.75</ele>
        <time>2024-09-04T13:06:38.262Z</time>
      </trkpt>
      <trkpt lat="50.4854" lon="2.66817">
        <ele>25.75</ele>
        <time>2024-09-04T13:06:41.705Z</time>
      </trkpt>
      <trkpt lat="50.48535" lon="2.66806">
        <ele>25.75</ele>
        <time>2024-09-04T13:06:43.593Z</time>
      </trkpt>
      <trkpt lat="50.48472" lon="2.66708">
        <ele>26</ele>
        <time>2024-09-04T13:07:02.669Z</time>
      </trkpt>
      <trkpt lat="50.48448" lon="2.66671">
        <ele>26</ele>
        <time>2024-09-04T13:07:10.068Z</time>
      </trkpt>
      <trkpt lat="50.48443" lon="2.66662">
        <ele>25.75</ele>
        <time>2024-09-04T13:07:11.783Z</time>
      </trkpt>
      <trkpt lat="50.48412" lon="2.66615">
        <ele>25.5</ele>
        <time>2024-09-04T13:07:20.982Z</time>
      </trkpt>
      <trkpt lat="50.48408" lon="2.66608">
        <ele>25.5</ele>
        <time>2024-09-04T13:07:22.381Z</time>
      </trkpt>
      <trkpt lat="50.48334" lon="2.66503">
        <ele>27.75</ele>
        <time>2024-09-04T13:07:44.017Z</time>
      </trkpt>
      <trkpt lat="50.48321" lon="2.66485">
        <ele>27.75</ele>
        <time>2024-09-04T13:07:47.591Z</time>
      </trkpt>
      <trkpt lat="50.48307" lon="2.66464">
        <ele>27.75</ele>
        <time>2024-09-04T13:07:51.811Z</time>
      </trkpt>
      <trkpt lat="50.48285" lon="2.66429">
        <ele>27.5</ele>
        <time>2024-09-04T13:07:58.595Z</time>
      </trkpt>
      <trkpt lat="50.48248" lon="2.66308">
        <ele>28</ele>
        <time>2024-09-04T13:08:17.096Z</time>
      </trkpt>
      <trkpt lat="50.48245" lon="2.66296">
        <ele>28</ele>
        <time>2024-09-04T13:08:18.961Z</time>
      </trkpt>
      <trkpt lat="50.48242" lon="2.66285">
        <ele>28</ele>
        <time>2024-09-04T13:08:20.508Z</time>
      </trkpt>
      <trkpt lat="50.48235" lon="2.6626">
        <ele>28</ele>
        <time>2024-09-04T13:08:24.263Z</time>
      </trkpt>
      <trkpt lat="50.48227" lon="2.66244">
        <ele>28.25</ele>
        <time>2024-09-04T13:08:27.167Z</time>
      </trkpt>
      <trkpt lat="50.48191" lon="2.66208">
        <ele>28.5</ele>
        <time>2024-09-04T13:08:36.409Z</time>
      </trkpt>
      <trkpt lat="50.48154" lon="2.66162">
        <ele>29.25</ele>
        <time>2024-09-04T13:08:46.627Z</time>
      </trkpt>
      <trkpt lat="50.48137" lon="2.66136">
        <ele>29.75</ele>
        <time>2024-09-04T13:08:51.610Z</time>
      </trkpt>
      <trkpt lat="50.48135" lon="2.66133">
        <ele>29.75</ele>
        <time>2024-09-04T13:08:52.208Z</time>
      </trkpt>
      <trkpt lat="50.48129" lon="2.66127">
        <ele>29.75</ele>
        <time>2024-09-04T13:08:53.778Z</time>
      </trkpt>
      <trkpt lat="50.48138" lon="2.66114">
        <ele>29.75</ele>
        <time>2024-09-04T13:08:56.352Z</time>
      </trkpt>
      <trkpt lat="50.48139" lon="2.66112">
        <ele>29.75</ele>
        <time>2024-09-04T13:08:56.686Z</time>
      </trkpt>
      <trkpt lat="50.48166" lon="2.66069">
        <ele>30</ele>
        <time>2024-09-04T13:09:05.030Z</time>
      </trkpt>
      <trkpt lat="50.48153" lon="2.6608">
        <ele>30</ele>
        <time>2024-09-04T13:09:08.221Z</time>
      </trkpt>
      <trkpt lat="50.48144" lon="2.66094">
        <ele>29.75</ele>
        <time>2024-09-04T13:09:10.878Z</time>
      </trkpt>
      <trkpt lat="50.48139" lon="2.66098">
        <ele>29.75</ele>
        <time>2024-09-04T13:09:12.208Z</time>
      </trkpt>
      <trkpt lat="50.48133" lon="2.66101">
        <ele>29.75</ele>
        <time>2024-09-04T13:09:13.518Z</time>
      </trkpt>
      <trkpt lat="50.48127" lon="2.66102">
        <ele>29.75</ele>
        <time>2024-09-04T13:09:14.823Z</time>
      </trkpt>
      <trkpt lat="50.48127" lon="2.66102">
        <ele>29.75</ele>
        <time>2024-09-04T13:09:14.841Z</time>
      </trkpt>
      <trkpt lat="50.48127" lon="2.66102">
        <ele>29.75</ele>
        <time>2024-09-04T13:12:36.070Z</time>
      </trkpt>
      <trkpt lat="50.48117" lon="2.66101">
        <ele>30</ele>
        <time>2024-09-04T13:12:37.593Z</time>
      </trkpt>
      <trkpt lat="50.48111" lon="2.66099">
        <ele>30</ele>
        <time>2024-09-04T13:12:38.444Z</time>
      </trkpt>
      <trkpt lat="50.48118" lon="2.6611">
        <ele>30</ele>
        <time>2024-09-04T13:12:39.848Z</time>
      </trkpt>
      <trkpt lat="50.4812" lon="2.66113">
        <ele>30</ele>
        <time>2024-09-04T13:12:40.204Z</time>
      </trkpt>
      <trkpt lat="50.48129" lon="2.66127">
        <ele>29.75</ele>
        <time>2024-09-04T13:12:42.117Z</time>
      </trkpt>
      <trkpt lat="50.48138" lon="2.66114">
        <ele>29.75</ele>
        <time>2024-09-04T13:12:43.821Z</time>
      </trkpt>
      <trkpt lat="50.48139" lon="2.66112">
        <ele>29.75</ele>
        <time>2024-09-04T13:12:44.042Z</time>
      </trkpt>
      <trkpt lat="50.48166" lon="2.66069">
        <ele>30</ele>
        <time>2024-09-04T13:12:49.566Z</time>
      </trkpt>
      <trkpt lat="50.48194" lon="2.66028">
        <ele>29.75</ele>
        <time>2024-09-04T13:12:55.048Z</time>
      </trkpt>
      <trkpt lat="50.4821" lon="2.66003">
        <ele>29.75</ele>
        <time>2024-09-04T13:12:58.243Z</time>
      </trkpt>
      <trkpt lat="50.48219" lon="2.65988">
        <ele>30</ele>
        <time>2024-09-04T13:13:00.127Z</time>
      </trkpt>
      <trkpt lat="50.48234" lon="2.65972">
        <ele>30</ele>
        <time>2024-09-04T13:13:02.780Z</time>
      </trkpt>
      <trkpt lat="50.48235" lon="2.65964">
        <ele>30</ele>
        <time>2024-09-04T13:13:03.527Z</time>
      </trkpt>
      <trkpt lat="50.48236" lon="2.65952">
        <ele>30</ele>
        <time>2024-09-04T13:13:04.590Z</time>
      </trkpt>
      <trkpt lat="50.48259" lon="2.65885">
        <ele>30</ele>
        <time>2024-09-04T13:13:11.534Z</time>
      </trkpt>
      <trkpt lat="50.48269" lon="2.65845">
        <ele>30.25</ele>
        <time>2024-09-04T13:13:15.451Z</time>
      </trkpt>
      <trkpt lat="50.4827" lon="2.65837">
        <ele>30.25</ele>
        <time>2024-09-04T13:13:16.229Z</time>
      </trkpt>
      <trkpt lat="50.48271" lon="2.65809">
        <ele>31</ele>
        <time>2024-09-04T13:13:18.756Z</time>
      </trkpt>
      <trkpt lat="50.48274" lon="2.65779">
        <ele>31.5</ele>
        <time>2024-09-04T13:13:21.550Z</time>
      </trkpt>
      <trkpt lat="50.48274" lon="2.65767">
        <ele>31.75</ele>
        <time>2024-09-04T13:13:22.614Z</time>
      </trkpt>
      <trkpt lat="50.48278" lon="2.65757">
        <ele>32</ele>
        <time>2024-09-04T13:13:23.643Z</time>
      </trkpt>
      <trkpt lat="50.48283" lon="2.6574">
        <ele>32.5</ele>
        <time>2024-09-04T13:13:25.376Z</time>
      </trkpt>
      <trkpt lat="50.48296" lon="2.65715">
        <ele>33</ele>
        <time>2024-09-04T13:13:28.342Z</time>
      </trkpt>
      <trkpt lat="50.483" lon="2.65708">
        <ele>33.25</ele>
        <time>2024-09-04T13:13:29.177Z</time>
      </trkpt>
      <trkpt lat="50.48304" lon="2.65701">
        <ele>33.25</ele>
        <time>2024-09-04T13:13:30.042Z</time>
      </trkpt>
      <trkpt lat="50.48316" lon="2.65678">
        <ele>33.75</ele>
        <time>2024-09-04T13:13:32.718Z</time>
      </trkpt>
      <trkpt lat="50.48337" lon="2.65648">
        <ele>34.25</ele>
        <time>2024-09-04T13:13:36.846Z</time>
      </trkpt>
      <trkpt lat="50.48361" lon="2.65621">
        <ele>34.75</ele>
        <time>2024-09-04T13:13:41.107Z</time>
      </trkpt>
      <trkpt lat="50.48379" lon="2.65599">
        <ele>35</ele>
        <time>2024-09-04T13:13:44.348Z</time>
      </trkpt>
      <trkpt lat="50.48401" lon="2.65576">
        <ele>35</ele>
        <time>2024-09-04T13:13:48.088Z</time>
      </trkpt>
      <trkpt lat="50.48461" lon="2.65504">
        <ele>33.25</ele>
        <time>2024-09-04T13:13:58.928Z</time>
      </trkpt>
      <trkpt lat="50.48514" lon="2.65408">
        <ele>31.5</ele>
        <time>2024-09-04T13:14:10.539Z</time>
      </trkpt>
      <trkpt lat="50.48565" lon="2.65297">
        <ele>31.5</ele>
        <time>2024-09-04T13:14:23.054Z</time>
      </trkpt>
      <trkpt lat="50.48603" lon="2.6522">
        <ele>33.5</ele>
        <time>2024-09-04T13:14:31.947Z</time>
      </trkpt>
      <trkpt lat="50.48635" lon="2.65152">
        <ele>35</ele>
        <time>2024-09-04T13:14:39.612Z</time>
      </trkpt>
      <trkpt lat="50.48669" lon="2.65056">
        <ele>36</ele>
        <time>2024-09-04T13:14:49.684Z</time>
      </trkpt>
      <trkpt lat="50.48677" lon="2.65037">
        <ele>36</ele>
        <time>2024-09-04T13:14:51.708Z</time>
      </trkpt>
      <trkpt lat="50.48693" lon="2.64995">
        <ele>36.25</ele>
        <time>2024-09-04T13:14:56.206Z</time>
      </trkpt>
      <trkpt lat="50.48719" lon="2.6492">
        <ele>37.5</ele>
        <time>2024-09-04T13:15:03.967Z</time>
      </trkpt>
      <trkpt lat="50.48727" lon="2.64885">
        <ele>37.75</ele>
        <time>2024-09-04T13:15:07.326Z</time>
      </trkpt>
      <trkpt lat="50.48728" lon="2.64853">
        <ele>37.75</ele>
        <time>2024-09-04T13:15:10.295Z</time>
      </trkpt>
      <trkpt lat="50.48723" lon="2.64801">
        <ele>38</ele>
        <time>2024-09-04T13:15:15.047Z</time>
      </trkpt>
      <trkpt lat="50.48711" lon="2.64739">
        <ele>38.25</ele>
        <time>2024-09-04T13:15:20.984Z</time>
      </trkpt>
      <trkpt lat="50.48711" lon="2.64713">
        <ele>38.25</ele>
        <time>2024-09-04T13:15:23.402Z</time>
      </trkpt>
      <trkpt lat="50.48721" lon="2.64672">
        <ele>38.25</ele>
        <time>2024-09-04T13:15:27.368Z</time>
      </trkpt>
      <trkpt lat="50.48797" lon="2.64499">
        <ele>38</ele>
        <time>2024-09-04T13:15:46.512Z</time>
      </trkpt>
      <trkpt lat="50.48864" lon="2.64346">
        <ele>38.25</ele>
        <time>2024-09-04T13:16:03.566Z</time>
      </trkpt>
      <trkpt lat="50.48881" lon="2.64296">
        <ele>37.75</ele>
        <time>2024-09-04T13:16:08.617Z</time>
      </trkpt>
      <trkpt lat="50.489" lon="2.64226">
        <ele>36.75</ele>
        <time>2024-09-04T13:16:15.592Z</time>
      </trkpt>
      <trkpt lat="50.48916" lon="2.64146">
        <ele>36</ele>
        <time>2024-09-04T13:16:23.215Z</time>
      </trkpt>
      <trkpt lat="50.4893" lon="2.64083">
        <ele>35.75</ele>
        <time>2024-09-04T13:16:29.380Z</time>
      </trkpt>
      <trkpt lat="50.48945" lon="2.64033">
        <ele>35.5</ele>
        <time>2024-09-04T13:16:34.430Z</time>
      </trkpt>
      <trkpt lat="50.49047" lon="2.63723">
        <ele>32.25</ele>
        <time>2024-09-04T13:17:06.193Z</time>
      </trkpt>
      <trkpt lat="50.49056" lon="2.63697">
        <ele>32.25</ele>
        <time>2024-09-04T13:17:08.919Z</time>
      </trkpt>
      <trkpt lat="50.49105" lon="2.63549">
        <ele>33.5</ele>
        <time>2024-09-04T13:17:24.126Z</time>
      </trkpt>
      <trkpt lat="50.49167" lon="2.63405">
        <ele>37.25</ele>
        <time>2024-09-04T13:17:39.968Z</time>
      </trkpt>
      <trkpt lat="50.49178" lon="2.63372">
        <ele>38.25</ele>
        <time>2024-09-04T13:17:43.429Z</time>
      </trkpt>
      <trkpt lat="50.49189" lon="2.63335">
        <ele>39</ele>
        <time>2024-09-04T13:17:47.093Z</time>
      </trkpt>
      <trkpt lat="50.49199" lon="2.63288">
        <ele>40</ele>
        <time>2024-09-04T13:17:51.661Z</time>
      </trkpt>
      <trkpt lat="50.49202" lon="2.63276">
        <ele>40.25</ele>
        <time>2024-09-04T13:17:52.839Z</time>
      </trkpt>
      <trkpt lat="50.49207" lon="2.63255">
        <ele>40.75</ele>
        <time>2024-09-04T13:17:54.804Z</time>
      </trkpt>
      <trkpt lat="50.4921" lon="2.6325">
        <ele>41</ele>
        <time>2024-09-04T13:17:55.465Z</time>
      </trkpt>
      <trkpt lat="50.49212" lon="2.63246">
        <ele>41</ele>
        <time>2024-09-04T13:17:55.904Z</time>
      </trkpt>
      <trkpt lat="50.49212" lon="2.63237">
        <ele>41</ele>
        <time>2024-09-04T13:17:56.785Z</time>
      </trkpt>
      <trkpt lat="50.4921" lon="2.63228">
        <ele>41</ele>
        <time>2024-09-04T13:17:57.675Z</time>
      </trkpt>
      <trkpt lat="50.49205" lon="2.63222">
        <ele>41</ele>
        <time>2024-09-04T13:17:58.503Z</time>
      </trkpt>
      <trkpt lat="50.492" lon="2.6322">
        <ele>40.75</ele>
        <time>2024-09-04T13:17:59.322Z</time>
      </trkpt>
      <trkpt lat="50.49195" lon="2.63222">
        <ele>40.75</ele>
        <time>2024-09-04T13:17:59.999Z</time>
      </trkpt>
      <trkpt lat="50.49191" lon="2.6322">
        <ele>40.5</ele>
        <time>2024-09-04T13:18:00.579Z</time>
      </trkpt>
      <trkpt lat="50.49183" lon="2.63214">
        <ele>40.25</ele>
        <time>2024-09-04T13:18:01.861Z</time>
      </trkpt>
      <trkpt lat="50.49174" lon="2.63196">
        <ele>40</ele>
        <time>2024-09-04T13:18:03.919Z</time>
      </trkpt>
      <trkpt lat="50.49163" lon="2.63182">
        <ele>39.75</ele>
        <time>2024-09-04T13:18:05.945Z</time>
      </trkpt>
      <trkpt lat="50.49147" lon="2.63168">
        <ele>39.5</ele>
        <time>2024-09-04T13:18:08.620Z</time>
      </trkpt>
      <trkpt lat="50.4913" lon="2.63159">
        <ele>39</ele>
        <time>2024-09-04T13:18:11.180Z</time>
      </trkpt>
      <trkpt lat="50.49118" lon="2.63156">
        <ele>38.75</ele>
        <time>2024-09-04T13:18:12.978Z</time>
      </trkpt>
      <trkpt lat="50.49098" lon="2.63154">
        <ele>38.5</ele>
        <time>2024-09-04T13:18:15.782Z</time>
      </trkpt>
      <trkpt lat="50.48983" lon="2.63163">
        <ele>37.75</ele>
        <time>2024-09-04T13:18:32.308Z</time>
      </trkpt>
      <trkpt lat="50.48952" lon="2.63161">
        <ele>37.25</ele>
        <time>2024-09-04T13:18:36.831Z</time>
      </trkpt>
      <trkpt lat="50.48911" lon="2.63144">
        <ele>37.25</ele>
        <time>2024-09-04T13:18:42.831Z</time>
      </trkpt>
      <trkpt lat="50.48885" lon="2.63129">
        <ele>37.25</ele>
        <time>2024-09-04T13:18:46.815Z</time>
      </trkpt>
      <trkpt lat="50.48849" lon="2.63107">
        <ele>37</ele>
        <time>2024-09-04T13:18:52.286Z</time>
      </trkpt>
      <trkpt lat="50.48783" lon="2.63079">
        <ele>37.5</ele>
        <time>2024-09-04T13:19:02.209Z</time>
      </trkpt>
      <trkpt lat="50.48749" lon="2.63063">
        <ele>38</ele>
        <time>2024-09-04T13:19:07.286Z</time>
      </trkpt>
      <trkpt lat="50.48738" lon="2.63055">
        <ele>38.25</ele>
        <time>2024-09-04T13:19:08.993Z</time>
      </trkpt>
      <trkpt lat="50.48724" lon="2.63041">
        <ele>38.75</ele>
        <time>2024-09-04T13:19:11.343Z</time>
      </trkpt>
      <trkpt lat="50.48697" lon="2.6301">
        <ele>39.75</ele>
        <time>2024-09-04T13:19:16.079Z</time>
      </trkpt>
      <trkpt lat="50.48642" lon="2.62949">
        <ele>41.5</ele>
        <time>2024-09-04T13:19:25.774Z</time>
      </trkpt>
      <trkpt lat="50.48593" lon="2.62891">
        <ele>42.25</ele>
        <time>2024-09-04T13:19:34.649Z</time>
      </trkpt>
      <trkpt lat="50.48584" lon="2.62882">
        <ele>42.25</ele>
        <time>2024-09-04T13:19:36.159Z</time>
      </trkpt>
      <trkpt lat="50.48536" lon="2.62826">
        <ele>44</ele>
        <time>2024-09-04T13:19:44.673Z</time>
      </trkpt>
      <trkpt lat="50.4852" lon="2.6281">
        <ele>44.5</ele>
        <time>2024-09-04T13:19:47.375Z</time>
      </trkpt>
      <trkpt lat="50.48503" lon="2.62795">
        <ele>44.75</ele>
        <time>2024-09-04T13:19:50.179Z</time>
      </trkpt>
      <trkpt lat="50.48449" lon="2.62753">
        <ele>46</ele>
        <time>2024-09-04T13:19:58.848Z</time>
      </trkpt>
      <trkpt lat="50.48445" lon="2.6275">
        <ele>46.25</ele>
        <time>2024-09-04T13:19:59.474Z</time>
      </trkpt>
      <trkpt lat="50.48439" lon="2.62745">
        <ele>46.5</ele>
        <time>2024-09-04T13:20:00.502Z</time>
      </trkpt>
      <trkpt lat="50.48433" lon="2.62741">
        <ele>46.5</ele>
        <time>2024-09-04T13:20:01.331Z</time>
      </trkpt>
      <trkpt lat="50.48407" lon="2.62718">
        <ele>47.5</ele>
        <time>2024-09-04T13:20:05.691Z</time>
      </trkpt>
      <trkpt lat="50.48381" lon="2.62694">
        <ele>48.25</ele>
        <time>2024-09-04T13:20:10.037Z</time>
      </trkpt>
      <trkpt lat="50.48341" lon="2.62648">
        <ele>50.25</ele>
        <time>2024-09-04T13:20:17.076Z</time>
      </trkpt>
      <trkpt lat="50.48335" lon="2.62638">
        <ele>50.5</ele>
        <time>2024-09-04T13:20:18.336Z</time>
      </trkpt>
      <trkpt lat="50.48333" lon="2.62632">
        <ele>50.75</ele>
        <time>2024-09-04T13:20:19.029Z</time>
      </trkpt>
      <trkpt lat="50.4832" lon="2.62596">
        <ele>52</ele>
        <time>2024-09-04T13:20:22.805Z</time>
      </trkpt>
      <trkpt lat="50.48305" lon="2.62576">
        <ele>52.75</ele>
        <time>2024-09-04T13:20:25.597Z</time>
      </trkpt>
      <trkpt lat="50.48295" lon="2.62561">
        <ele>53.25</ele>
        <time>2024-09-04T13:20:27.543Z</time>
      </trkpt>
      <trkpt lat="50.48288" lon="2.62549">
        <ele>53.75</ele>
        <time>2024-09-04T13:20:28.985Z</time>
      </trkpt>
      <trkpt lat="50.48273" lon="2.62524">
        <ele>54.75</ele>
        <time>2024-09-04T13:20:32.144Z</time>
      </trkpt>
      <trkpt lat="50.48256" lon="2.62493">
        <ele>55.75</ele>
        <time>2024-09-04T13:20:35.881Z</time>
      </trkpt>
      <trkpt lat="50.48254" lon="2.6249">
        <ele>56</ele>
        <time>2024-09-04T13:20:36.284Z</time>
      </trkpt>
      <trkpt lat="50.48252" lon="2.62484">
        <ele>56</ele>
        <time>2024-09-04T13:20:36.897Z</time>
      </trkpt>
      <trkpt lat="50.48251" lon="2.62472">
        <ele>56.25</ele>
        <time>2024-09-04T13:20:37.978Z</time>
      </trkpt>
      <trkpt lat="50.48255" lon="2.62403">
        <ele>57</ele>
        <time>2024-09-04T13:20:44.260Z</time>
      </trkpt>
      <trkpt lat="50.48255" lon="2.62389">
        <ele>57.25</ele>
        <time>2024-09-04T13:20:45.574Z</time>
      </trkpt>
      <trkpt lat="50.48253" lon="2.6236">
        <ele>57.5</ele>
        <time>2024-09-04T13:20:48.250Z</time>
      </trkpt>
      <trkpt lat="50.48252" lon="2.62348">
        <ele>57.75</ele>
        <time>2024-09-04T13:20:49.369Z</time>
      </trkpt>
      <trkpt lat="50.48249" lon="2.62339">
        <ele>57.75</ele>
        <time>2024-09-04T13:20:50.219Z</time>
      </trkpt>
      <trkpt lat="50.48244" lon="2.62331">
        <ele>58</ele>
        <time>2024-09-04T13:20:51.211Z</time>
      </trkpt>
      <trkpt lat="50.48233" lon="2.6232">
        <ele>58.25</ele>
        <time>2024-09-04T13:20:53.139Z</time>
      </trkpt>
      <trkpt lat="50.48187" lon="2.62294">
        <ele>59</ele>
        <time>2024-09-04T13:21:00.186Z</time>
      </trkpt>
      <trkpt lat="50.48128" lon="2.62262">
        <ele>59</ele>
        <time>2024-09-04T13:21:09.076Z</time>
      </trkpt>
      <trkpt lat="50.48122" lon="2.6226">
        <ele>59</ele>
        <time>2024-09-04T13:21:09.907Z</time>
      </trkpt>
      <trkpt lat="50.48112" lon="2.62262">
        <ele>59</ele>
        <time>2024-09-04T13:21:11.404Z</time>
      </trkpt>
      <trkpt lat="50.481" lon="2.62263">
        <ele>58.75</ele>
        <time>2024-09-04T13:21:13.054Z</time>
      </trkpt>
      <trkpt lat="50.48077" lon="2.62256">
        <ele>58.75</ele>
        <time>2024-09-04T13:21:16.441Z</time>
      </trkpt>
      <trkpt lat="50.48038" lon="2.62232">
        <ele>58.5</ele>
        <time>2024-09-04T13:21:22.416Z</time>
      </trkpt>
      <trkpt lat="50.47978" lon="2.62191">
        <ele>57.25</ele>
        <time>2024-09-04T13:21:31.876Z</time>
      </trkpt>
      <trkpt lat="50.47973" lon="2.62189">
        <ele>57.25</ele>
        <time>2024-09-04T13:21:32.573Z</time>
      </trkpt>
      <trkpt lat="50.47969" lon="2.62186">
        <ele>57.25</ele>
        <time>2024-09-04T13:21:33.150Z</time>
      </trkpt>
      <trkpt lat="50.47965" lon="2.62183">
        <ele>57</ele>
        <time>2024-09-04T13:21:33.850Z</time>
      </trkpt>
      <trkpt lat="50.47961" lon="2.6218">
        <ele>57</ele>
        <time>2024-09-04T13:21:34.470Z</time>
      </trkpt>
      <trkpt lat="50.4794" lon="2.62167">
        <ele>56.5</ele>
        <time>2024-09-04T13:21:37.737Z</time>
      </trkpt>
      <trkpt lat="50.47936" lon="2.62164">
        <ele>56.25</ele>
        <time>2024-09-04T13:21:38.404Z</time>
      </trkpt>
      <trkpt lat="50.47932" lon="2.62161">
        <ele>56.25</ele>
        <time>2024-09-04T13:21:38.964Z</time>
      </trkpt>
      <trkpt lat="50.47919" lon="2.62153">
        <ele>56</ele>
        <time>2024-09-04T13:21:40.956Z</time>
      </trkpt>
      <trkpt lat="50.47915" lon="2.6215">
        <ele>55.75</ele>
        <time>2024-09-04T13:21:41.589Z</time>
      </trkpt>
      <trkpt lat="50.47902" lon="2.62142">
        <ele>55.5</ele>
        <time>2024-09-04T13:21:43.594Z</time>
      </trkpt>
      <trkpt lat="50.47894" lon="2.62133">
        <ele>55</ele>
        <time>2024-09-04T13:21:44.986Z</time>
      </trkpt>
      <trkpt lat="50.47859" lon="2.62106">
        <ele>53.5</ele>
        <time>2024-09-04T13:21:50.552Z</time>
      </trkpt>
      <trkpt lat="50.47855" lon="2.621">
        <ele>53.25</ele>
        <time>2024-09-04T13:21:51.455Z</time>
      </trkpt>
      <trkpt lat="50.47855" lon="2.621">
        <ele>55.7</ele>
        <time>2024-09-04T13:21:51.455Z</time>
      </trkpt>
      <trkpt lat="50.47851" lon="2.6209">
        <ele>55.2</ele>
        <time>2024-09-04T13:44:30.712Z</time>
      </trkpt>
      <trkpt lat="50.4785" lon="2.62046">
        <ele>54.62</ele>
        <time>2024-09-04T13:44:34.846Z</time>
      </trkpt>
      <trkpt lat="50.47853" lon="2.61999">
        <ele>54</ele>
        <time>2024-09-04T13:44:38.985Z</time>
      </trkpt>
      <trkpt lat="50.47856" lon="2.61953">
        <ele>53.49</ele>
        <time>2024-09-04T13:44:43.129Z</time>
      </trkpt>
      <trkpt lat="50.47857" lon="2.61917">
        <ele>53.04</ele>
        <time>2024-09-04T13:44:47.277Z</time>
      </trkpt>
      <trkpt lat="50.47857" lon="2.61888">
        <ele>52.54</ele>
        <time>2024-09-04T13:44:51.428Z</time>
      </trkpt>
      <trkpt lat="50.47856" lon="2.61844">
        <ele>52.07</ele>
        <time>2024-09-04T13:44:55.583Z</time>
      </trkpt>
      <trkpt lat="50.47855" lon="2.61801">
        <ele>51.56</ele>
        <time>2024-09-04T13:44:59.742Z</time>
      </trkpt>
      <trkpt lat="50.47853" lon="2.61757">
        <ele>51.05</ele>
        <time>2024-09-04T13:45:03.906Z</time>
      </trkpt>
      <trkpt lat="50.47853" lon="2.61713">
        <ele>50.52</ele>
        <time>2024-09-04T13:45:08.074Z</time>
      </trkpt>
      <trkpt lat="50.47854" lon="2.61681">
        <ele>50.04</ele>
        <time>2024-09-04T13:45:12.246Z</time>
      </trkpt>
      <trkpt lat="50.47855" lon="2.61649">
        <ele>49.61</ele>
        <time>2024-09-04T13:45:16.421Z</time>
      </trkpt>
      <trkpt lat="50.47857" lon="2.61623">
        <ele>49.2</ele>
        <time>2024-09-04T13:45:20.599Z</time>
      </trkpt>
      <trkpt lat="50.4786" lon="2.61596">
        <ele>48.77</ele>
        <time>2024-09-04T13:45:24.779Z</time>
      </trkpt>
      <trkpt lat="50.47866" lon="2.6156">
        <ele>48.32</ele>
        <time>2024-09-04T13:45:28.963Z</time>
      </trkpt>
      <trkpt lat="50.47877" lon="2.61517">
        <ele>47.94</ele>
        <time>2024-09-04T13:45:33.152Z</time>
      </trkpt>
      <trkpt lat="50.47885" lon="2.61483">
        <ele>47.61</ele>
        <time>2024-09-04T13:45:37.345Z</time>
      </trkpt>
      <trkpt lat="50.47893" lon="2.61448">
        <ele>47.28</ele>
        <time>2024-09-04T13:45:41.542Z</time>
      </trkpt>
      <trkpt lat="50.479" lon="2.61414">
        <ele>46.99</ele>
        <time>2024-09-04T13:45:45.742Z</time>
      </trkpt>
      <trkpt lat="50.47902" lon="2.61393">
        <ele>46.73</ele>
        <time>2024-09-04T13:45:49.944Z</time>
      </trkpt>
      <trkpt lat="50.47901" lon="2.61384">
        <ele>46.51</ele>
        <time>2024-09-04T13:45:54.147Z</time>
      </trkpt>
      <trkpt lat="50.479" lon="2.61373">
        <ele>46.33</ele>
        <time>2024-09-04T13:45:58.351Z</time>
      </trkpt>
      <trkpt lat="50.47898" lon="2.61363">
        <ele>46.16</ele>
        <time>2024-09-04T13:46:02.556Z</time>
      </trkpt>
      <trkpt lat="50.47888" lon="2.6133">
        <ele>46.05</ele>
        <time>2024-09-04T13:46:06.765Z</time>
      </trkpt>
      <trkpt lat="50.47874" lon="2.61291">
        <ele>45.93</ele>
        <time>2024-09-04T13:46:10.979Z</time>
      </trkpt>
      <trkpt lat="50.4786" lon="2.61252">
        <ele>45.85</ele>
        <time>2024-09-04T13:46:15.197Z</time>
      </trkpt>
      <trkpt lat="50.47844" lon="2.61212">
        <ele>45.83</ele>
        <time>2024-09-04T13:46:19.420Z</time>
      </trkpt>
      <trkpt lat="50.47828" lon="2.61172">
        <ele>45.82</ele>
        <time>2024-09-04T13:46:23.648Z</time>
      </trkpt>
      <trkpt lat="50.47812" lon="2.61132">
        <ele>45.79</ele>
        <time>2024-09-04T13:46:27.881Z</time>
      </trkpt>
      <trkpt lat="50.47795" lon="2.61092">
        <ele>45.88</ele>
        <time>2024-09-04T13:46:32.119Z</time>
      </trkpt>
      <trkpt lat="50.47779" lon="2.61052">
        <ele>45.98</ele>
        <time>2024-09-04T13:46:36.362Z</time>
      </trkpt>
      <trkpt lat="50.47763" lon="2.61011">
        <ele>46.08</ele>
        <time>2024-09-04T13:46:40.609Z</time>
      </trkpt>
      <trkpt lat="50.47747" lon="2.60971">
        <ele>46.2</ele>
        <time>2024-09-04T13:46:44.861Z</time>
      </trkpt>
      <trkpt lat="50.47731" lon="2.60932">
        <ele>46.27</ele>
        <time>2024-09-04T13:46:49.118Z</time>
      </trkpt>
      <trkpt lat="50.47715" lon="2.6089">
        <ele>46.31</ele>
        <time>2024-09-04T13:46:53.380Z</time>
      </trkpt>
      <trkpt lat="50.477" lon="2.60848">
        <ele>46.48</ele>
        <time>2024-09-04T13:46:57.647Z</time>
      </trkpt>
      <trkpt lat="50.47685" lon="2.60807">
        <ele>46.66</ele>
        <time>2024-09-04T13:47:01.919Z</time>
      </trkpt>
      <trkpt lat="50.47669" lon="2.60765">
        <ele>46.76</ele>
        <time>2024-09-04T13:47:06.196Z</time>
      </trkpt>
      <trkpt lat="50.47654" lon="2.60723">
        <ele>46.79</ele>
        <time>2024-09-04T13:47:10.478Z</time>
      </trkpt>
      <trkpt lat="50.47639" lon="2.60682">
        <ele>46.84</ele>
        <time>2024-09-04T13:47:14.765Z</time>
      </trkpt>
      <trkpt lat="50.47626" lon="2.60651">
        <ele>46.96</ele>
        <time>2024-09-04T13:47:19.055Z</time>
      </trkpt>
      <trkpt lat="50.47612" lon="2.60619">
        <ele>47.07</ele>
        <time>2024-09-04T13:47:23.349Z</time>
      </trkpt>
      <trkpt lat="50.47599" lon="2.60588">
        <ele>47.2</ele>
        <time>2024-09-04T13:47:27.647Z</time>
      </trkpt>
      <trkpt lat="50.47584" lon="2.60548">
        <ele>47.22</ele>
        <time>2024-09-04T13:47:31.950Z</time>
      </trkpt>
      <trkpt lat="50.4757" lon="2.60509">
        <ele>47.23</ele>
        <time>2024-09-04T13:47:36.257Z</time>
      </trkpt>
      <trkpt lat="50.47564" lon="2.60483">
        <ele>47.28</ele>
        <time>2024-09-04T13:47:40.567Z</time>
      </trkpt>
      <trkpt lat="50.47558" lon="2.60458">
        <ele>47.32</ele>
        <time>2024-09-04T13:47:44.880Z</time>
      </trkpt>
      <trkpt lat="50.47547" lon="2.60417">
        <ele>47.37</ele>
        <time>2024-09-04T13:47:49.198Z</time>
      </trkpt>
      <trkpt lat="50.47535" lon="2.60379">
        <ele>47.42</ele>
        <time>2024-09-04T13:47:53.520Z</time>
      </trkpt>
      <trkpt lat="50.47524" lon="2.60341">
        <ele>47.41</ele>
        <time>2024-09-04T13:47:57.846Z</time>
      </trkpt>
      <trkpt lat="50.47515" lon="2.60316">
        <ele>47.43</ele>
        <time>2024-09-04T13:48:02.175Z</time>
      </trkpt>
      <trkpt lat="50.47506" lon="2.60294">
        <ele>47.44</ele>
        <time>2024-09-04T13:48:06.507Z</time>
      </trkpt>
      <trkpt lat="50.47488" lon="2.60255">
        <ele>47.48</ele>
        <time>2024-09-04T13:48:10.844Z</time>
      </trkpt>
      <trkpt lat="50.47472" lon="2.6022">
        <ele>47.48</ele>
        <time>2024-09-04T13:48:15.185Z</time>
      </trkpt>
      <trkpt lat="50.47455" lon="2.60183">
        <ele>47.42</ele>
        <time>2024-09-04T13:48:19.531Z</time>
      </trkpt>
      <trkpt lat="50.47438" lon="2.60146">
        <ele>47.38</ele>
        <time>2024-09-04T13:48:23.881Z</time>
      </trkpt>
      <trkpt lat="50.4742" lon="2.60109">
        <ele>47.37</ele>
        <time>2024-09-04T13:48:28.236Z</time>
      </trkpt>
      <trkpt lat="50.47408" lon="2.60082">
        <ele>47.33</ele>
        <time>2024-09-04T13:48:32.594Z</time>
      </trkpt>
      <trkpt lat="50.47395" lon="2.60057">
        <ele>47.3</ele>
        <time>2024-09-04T13:48:36.956Z</time>
      </trkpt>
      <trkpt lat="50.47387" lon="2.60038">
        <ele>47.3</ele>
        <time>2024-09-04T13:48:41.320Z</time>
      </trkpt>
      <trkpt lat="50.47374" lon="2.60009">
        <ele>47.31</ele>
        <time>2024-09-04T13:48:45.688Z</time>
      </trkpt>
      <trkpt lat="50.4736" lon="2.5998">
        <ele>47.28</ele>
        <time>2024-09-04T13:48:50.059Z</time>
      </trkpt>
      <trkpt lat="50.47354" lon="2.59968">
        <ele>47.26</ele>
        <time>2024-09-04T13:48:54.432Z</time>
      </trkpt>
      <trkpt lat="50.47341" lon="2.59939">
        <ele>47.25</ele>
        <time>2024-09-04T13:48:58.809Z</time>
      </trkpt>
      <trkpt lat="50.47327" lon="2.5991">
        <ele>47.25</ele>
        <time>2024-09-04T13:49:03.189Z</time>
      </trkpt>
      <trkpt lat="50.47311" lon="2.59881">
        <ele>47.27</ele>
        <time>2024-09-04T13:49:07.573Z</time>
      </trkpt>
      <trkpt lat="50.47296" lon="2.59857">
        <ele>47.27</ele>
        <time>2024-09-04T13:49:11.961Z</time>
      </trkpt>
      <trkpt lat="50.47281" lon="2.59829">
        <ele>47.28</ele>
        <time>2024-09-04T13:49:16.352Z</time>
      </trkpt>
      <trkpt lat="50.47269" lon="2.59807">
        <ele>47.26</ele>
        <time>2024-09-04T13:49:20.746Z</time>
      </trkpt>
      <trkpt lat="50.47258" lon="2.59784">
        <ele>47.27</ele>
        <time>2024-09-04T13:49:25.143Z</time>
      </trkpt>
      <trkpt lat="50.47252" lon="2.59773">
        <ele>47.28</ele>
        <time>2024-09-04T13:49:29.542Z</time>
      </trkpt>
      <trkpt lat="50.47247" lon="2.59762">
        <ele>47.28</ele>
        <time>2024-09-04T13:49:33.942Z</time>
      </trkpt>
      <trkpt lat="50.47243" lon="2.59756">
        <ele>47.29</ele>
        <time>2024-09-04T13:49:38.343Z</time>
      </trkpt>
      <trkpt lat="50.47231" lon="2.59731">
        <ele>47.28</ele>
        <time>2024-09-04T13:49:42.747Z</time>
      </trkpt>
      <trkpt lat="50.47226" lon="2.59722">
        <ele>47.29</ele>
        <time>2024-09-04T13:49:47.152Z</time>
      </trkpt>
      <trkpt lat="50.47215" lon="2.59699">
        <ele>47.3</ele>
        <time>2024-09-04T13:49:51.560Z</time>
      </trkpt>
      <trkpt lat="50.47203" lon="2.59675">
        <ele>47.35</ele>
        <time>2024-09-04T13:49:55.971Z</time>
      </trkpt>
      <trkpt lat="50.47198" lon="2.5965">
        <ele>47.41</ele>
        <time>2024-09-04T13:50:00.385Z</time>
      </trkpt>
      <trkpt lat="50.47192" lon="2.59625">
        <ele>47.47</ele>
        <time>2024-09-04T13:50:04.802Z</time>
      </trkpt>
      <trkpt lat="50.47188" lon="2.59608">
        <ele>47.5</ele>
        <time>2024-09-04T13:50:09.221Z</time>
      </trkpt>
      <trkpt lat="50.4719" lon="2.59598">
        <ele>47.53</ele>
        <time>2024-09-04T13:50:13.641Z</time>
      </trkpt>
      <trkpt lat="50.4719" lon="2.59588">
        <ele>47.55</ele>
        <time>2024-09-04T13:50:18.062Z</time>
      </trkpt>
      <trkpt lat="50.47189" lon="2.59578">
        <ele>47.55</ele>
        <time>2024-09-04T13:50:22.484Z</time>
      </trkpt>
      <trkpt lat="50.47186" lon="2.59569">
        <ele>47.55</ele>
        <time>2024-09-04T13:50:26.907Z</time>
      </trkpt>
      <trkpt lat="50.47182" lon="2.59562">
        <ele>47.56</ele>
        <time>2024-09-04T13:50:31.331Z</time>
      </trkpt>
      <trkpt lat="50.47176" lon="2.59557">
        <ele>47.56</ele>
        <time>2024-09-04T13:50:35.756Z</time>
      </trkpt>
      <trkpt lat="50.47173" lon="2.59554">
        <ele>47.57</ele>
        <time>2024-09-04T13:50:40.182Z</time>
      </trkpt>
      <trkpt lat="50.47167" lon="2.59553">
        <ele>47.58</ele>
        <time>2024-09-04T13:50:44.609Z</time>
      </trkpt>
      <trkpt lat="50.47162" lon="2.59553">
        <ele>47.6</ele>
        <time>2024-09-04T13:50:49.036Z</time>
      </trkpt>
      <trkpt lat="50.47157" lon="2.59555">
        <ele>47.62</ele>
        <time>2024-09-04T13:50:53.464Z</time>
      </trkpt>
      <trkpt lat="50.47152" lon="2.59558">
        <ele>47.65</ele>
        <time>2024-09-04T13:50:57.893Z</time>
      </trkpt>
      <trkpt lat="50.47148" lon="2.59564">
        <ele>47.68</ele>
        <time>2024-09-04T13:51:02.323Z</time>
      </trkpt>
      <trkpt lat="50.47144" lon="2.5957">
        <ele>47.7</ele>
        <time>2024-09-04T13:51:06.754Z</time>
      </trkpt>
      <trkpt lat="50.47143" lon="2.59574">
        <ele>47.71</ele>
        <time>2024-09-04T13:51:11.185Z</time>
      </trkpt>
      <trkpt lat="50.4714" lon="2.59585">
        <ele>47.72</ele>
        <time>2024-09-04T13:51:15.617Z</time>
      </trkpt>
      <trkpt lat="50.4714" lon="2.59594">
        <ele>47.73</ele>
        <time>2024-09-04T13:51:20.050Z</time>
      </trkpt>
      <trkpt lat="50.47141" lon="2.59601">
        <ele>47.74</ele>
        <time>2024-09-04T13:51:24.484Z</time>
      </trkpt>
      <trkpt lat="50.47142" lon="2.59608">
        <ele>47.75</ele>
        <time>2024-09-04T13:51:28.919Z</time>
      </trkpt>
      <trkpt lat="50.47138" lon="2.59623">
        <ele>47.74</ele>
        <time>2024-09-04T13:51:33.355Z</time>
      </trkpt>
      <trkpt lat="50.47131" lon="2.59635">
        <ele>47.73</ele>
        <time>2024-09-04T13:51:37.793Z</time>
      </trkpt>
      <trkpt lat="50.47109" lon="2.5967">
        <ele>47.64</ele>
        <time>2024-09-04T13:51:42.236Z</time>
      </trkpt>
      <trkpt lat="50.47088" lon="2.59704">
        <ele>47.68</ele>
        <time>2024-09-04T13:51:46.684Z</time>
      </trkpt>
      <trkpt lat="50.47072" lon="2.59728">
        <ele>47.73</ele>
        <time>2024-09-04T13:51:51.135Z</time>
      </trkpt>
      <trkpt lat="50.47055" lon="2.59751">
        <ele>47.81</ele>
        <time>2024-09-04T13:51:55.590Z</time>
      </trkpt>
      <trkpt lat="50.4704" lon="2.59772">
        <ele>47.87</ele>
        <time>2024-09-04T13:52:00.048Z</time>
      </trkpt>
      <trkpt lat="50.47025" lon="2.59793">
        <ele>47.9</ele>
        <time>2024-09-04T13:52:04.509Z</time>
      </trkpt>
      <trkpt lat="50.47012" lon="2.59812">
        <ele>47.89</ele>
        <time>2024-09-04T13:52:08.973Z</time>
      </trkpt>
      <trkpt lat="50.46999" lon="2.59831">
        <ele>47.89</ele>
        <time>2024-09-04T13:52:13.440Z</time>
      </trkpt>
      <trkpt lat="50.46988" lon="2.59835">
        <ele>47.88</ele>
        <time>2024-09-04T13:52:17.909Z</time>
      </trkpt>
      <trkpt lat="50.46968" lon="2.59863">
        <ele>47.86</ele>
        <time>2024-09-04T13:52:22.382Z</time>
      </trkpt>
      <trkpt lat="50.46952" lon="2.59883">
        <ele>47.78</ele>
        <time>2024-09-04T13:52:26.858Z</time>
      </trkpt>
      <trkpt lat="50.46936" lon="2.59902">
        <ele>47.76</ele>
        <time>2024-09-04T13:52:31.338Z</time>
      </trkpt>
      <trkpt lat="50.46932" lon="2.59908">
        <ele>47.75</ele>
        <time>2024-09-04T13:52:35.819Z</time>
      </trkpt>
      <trkpt lat="50.46915" lon="2.5993">
        <ele>47.74</ele>
        <time>2024-09-04T13:52:40.303Z</time>
      </trkpt>
      <trkpt lat="50.46903" lon="2.59945">
        <ele>47.73</ele>
        <time>2024-09-04T13:52:44.790Z</time>
      </trkpt>
      <trkpt lat="50.46889" lon="2.59964">
        <ele>47.74</ele>
        <time>2024-09-04T13:52:49.280Z</time>
      </trkpt>
      <trkpt lat="50.4688" lon="2.59974">
        <ele>47.74</ele>
        <time>2024-09-04T13:52:53.771Z</time>
      </trkpt>
      <trkpt lat="50.46875" lon="2.59979">
        <ele>47.75</ele>
        <time>2024-09-04T13:52:58.263Z</time>
      </trkpt>
      <trkpt lat="50.4687" lon="2.59985">
        <ele>47.78</ele>
        <time>2024-09-04T13:53:02.756Z</time>
      </trkpt>
      <trkpt lat="50.46855" lon="2.6">
        <ele>47.78</ele>
        <time>2024-09-04T13:53:07.252Z</time>
      </trkpt>
      <trkpt lat="50.46837" lon="2.60024">
        <ele>47.86</ele>
        <time>2024-09-04T13:53:11.752Z</time>
      </trkpt>
      <trkpt lat="50.46823" lon="2.60043">
        <ele>47.9</ele>
        <time>2024-09-04T13:53:16.255Z</time>
      </trkpt>
      <trkpt lat="50.46808" lon="2.60063">
        <ele>47.97</ele>
        <time>2024-09-04T13:53:20.761Z</time>
      </trkpt>
      <trkpt lat="50.46789" lon="2.60084">
        <ele>48.09</ele>
        <time>2024-09-04T13:53:25.271Z</time>
      </trkpt>
      <trkpt lat="50.46771" lon="2.60107">
        <ele>48.21</ele>
        <time>2024-09-04T13:53:29.785Z</time>
      </trkpt>
      <trkpt lat="50.46753" lon="2.60131">
        <ele>48.31</ele>
        <time>2024-09-04T13:53:34.302Z</time>
      </trkpt>
      <trkpt lat="50.46731" lon="2.6016">
        <ele>48.47</ele>
        <time>2024-09-04T13:53:38.824Z</time>
      </trkpt>
      <trkpt lat="50.46708" lon="2.6019">
        <ele>48.66</ele>
        <time>2024-09-04T13:53:43.351Z</time>
      </trkpt>
      <trkpt lat="50.46686" lon="2.60219">
        <ele>48.82</ele>
        <time>2024-09-04T13:53:47.882Z</time>
      </trkpt>
      <trkpt lat="50.46674" lon="2.60242">
        <ele>48.99</ele>
        <time>2024-09-04T13:53:52.416Z</time>
      </trkpt>
      <trkpt lat="50.46666" lon="2.60245">
        <ele>49.22</ele>
        <time>2024-09-04T13:53:56.952Z</time>
      </trkpt>
      <trkpt lat="50.46657" lon="2.60247">
        <ele>49.46</ele>
        <time>2024-09-04T13:54:01.489Z</time>
      </trkpt>
      <trkpt lat="50.46646" lon="2.60245">
        <ele>49.71</ele>
        <time>2024-09-04T13:54:06.028Z</time>
      </trkpt>
      <trkpt lat="50.46638" lon="2.60242">
        <ele>49.98</ele>
        <time>2024-09-04T13:54:10.568Z</time>
      </trkpt>
      <trkpt lat="50.46637" lon="2.60243">
        <ele>50.3</ele>
        <time>2024-09-04T13:54:15.108Z</time>
      </trkpt>
      <trkpt lat="50.46635" lon="2.60247">
        <ele>50.63</ele>
        <time>2024-09-04T13:54:19.649Z</time>
      </trkpt>
      <trkpt lat="50.46632" lon="2.60252">
        <ele>50.99</ele>
        <time>2024-09-04T13:54:24.191Z</time>
      </trkpt>
      <trkpt lat="50.4663" lon="2.60256">
        <ele>51.38</ele>
        <time>2024-09-04T13:54:28.733Z</time>
      </trkpt>
      <trkpt lat="50.46629" lon="2.60268">
        <ele>51.8</ele>
        <time>2024-09-04T13:54:33.276Z</time>
      </trkpt>
      <trkpt lat="50.46626" lon="2.60284">
        <ele>52.24</ele>
        <time>2024-09-04T13:54:37.821Z</time>
      </trkpt>
      <trkpt lat="50.46623" lon="2.60298">
        <ele>52.73</ele>
        <time>2024-09-04T13:54:42.368Z</time>
      </trkpt>
      <trkpt lat="50.46619" lon="2.6031">
        <ele>53.23</ele>
        <time>2024-09-04T13:54:46.916Z</time>
      </trkpt>
      <trkpt lat="50.466" lon="2.60339">
        <ele>53.76</ele>
        <time>2024-09-04T13:54:51.468Z</time>
      </trkpt>
      <trkpt lat="50.4658" lon="2.60368">
        <ele>54.33</ele>
        <time>2024-09-04T13:54:56.025Z</time>
      </trkpt>
      <trkpt lat="50.46559" lon="2.60402">
        <ele>55</ele>
        <time>2024-09-04T13:55:00.586Z</time>
      </trkpt>
      <trkpt lat="50.46538" lon="2.60435">
        <ele>55.66</ele>
        <time>2024-09-04T13:55:05.152Z</time>
      </trkpt>
      <trkpt lat="50.46536" lon="2.60454">
        <ele>56.26</ele>
        <time>2024-09-04T13:55:09.720Z</time>
      </trkpt>
      <trkpt lat="50.46536" lon="2.60464">
        <ele>56.86</ele>
        <time>2024-09-04T13:55:14.289Z</time>
      </trkpt>
      <trkpt lat="50.46525" lon="2.60482">
        <ele>57.5</ele>
        <time>2024-09-04T13:55:18.861Z</time>
      </trkpt>
      <trkpt lat="50.46519" lon="2.60495">
        <ele>58.13</ele>
        <time>2024-09-04T13:55:23.434Z</time>
      </trkpt>
      <trkpt lat="50.46504" lon="2.60523">
        <ele>58.8</ele>
        <time>2024-09-04T13:55:28.011Z</time>
      </trkpt>
      <trkpt lat="50.46489" lon="2.60551">
        <ele>59.46</ele>
        <time>2024-09-04T13:55:32.592Z</time>
      </trkpt>
      <trkpt lat="50.4647" lon="2.60589">
        <ele>60.18</ele>
        <time>2024-09-04T13:55:37.178Z</time>
      </trkpt>
      <trkpt lat="50.46451" lon="2.60627">
        <ele>60.87</ele>
        <time>2024-09-04T13:55:41.769Z</time>
      </trkpt>
      <trkpt lat="50.46437" lon="2.60655">
        <ele>61.44</ele>
        <time>2024-09-04T13:55:46.363Z</time>
      </trkpt>
      <trkpt lat="50.46424" lon="2.60684">
        <ele>62.02</ele>
        <time>2024-09-04T13:55:50.961Z</time>
      </trkpt>
      <trkpt lat="50.4641" lon="2.60712">
        <ele>62.57</ele>
        <time>2024-09-04T13:55:55.563Z</time>
      </trkpt>
      <trkpt lat="50.46403" lon="2.60727">
        <ele>63.12</ele>
        <time>2024-09-04T13:56:00.167Z</time>
      </trkpt>
      <trkpt lat="50.46388" lon="2.60746">
        <ele>63.64</ele>
        <time>2024-09-04T13:56:04.774Z</time>
      </trkpt>
      <trkpt lat="50.46372" lon="2.60768">
        <ele>64.13</ele>
        <time>2024-09-04T13:56:09.384Z</time>
      </trkpt>
      <trkpt lat="50.46363" lon="2.60779">
        <ele>64.56</ele>
        <time>2024-09-04T13:56:13.996Z</time>
      </trkpt>
      <trkpt lat="50.46348" lon="2.60795">
        <ele>64.94</ele>
        <time>2024-09-04T13:56:18.611Z</time>
      </trkpt>
      <trkpt lat="50.46338" lon="2.60804">
        <ele>65.3</ele>
        <time>2024-09-04T13:56:23.228Z</time>
      </trkpt>
      <trkpt lat="50.46331" lon="2.60802">
        <ele>65.64</ele>
        <time>2024-09-04T13:56:27.846Z</time>
      </trkpt>
      <trkpt lat="50.46325" lon="2.60803">
        <ele>65.95</ele>
        <time>2024-09-04T13:56:32.465Z</time>
      </trkpt>
      <trkpt lat="50.4632" lon="2.60806">
        <ele>66.24</ele>
        <time>2024-09-04T13:56:37.084Z</time>
      </trkpt>
      <trkpt lat="50.46316" lon="2.60811">
        <ele>66.5</ele>
        <time>2024-09-04T13:56:41.704Z</time>
      </trkpt>
      <trkpt lat="50.46313" lon="2.60818">
        <ele>66.74</ele>
        <time>2024-09-04T13:56:46.325Z</time>
      </trkpt>
      <trkpt lat="50.4631" lon="2.60826">
        <ele>66.95</ele>
        <time>2024-09-04T13:56:50.947Z</time>
      </trkpt>
      <trkpt lat="50.46304" lon="2.60834">
        <ele>67.14</ele>
        <time>2024-09-04T13:56:55.570Z</time>
      </trkpt>
      <trkpt lat="50.46296" lon="2.60842">
        <ele>67.3</ele>
        <time>2024-09-04T13:57:00.195Z</time>
      </trkpt>
      <trkpt lat="50.46278" lon="2.60855">
        <ele>67.45</ele>
        <time>2024-09-04T13:57:04.823Z</time>
      </trkpt>
      <trkpt lat="50.46275" lon="2.60861">
        <ele>67.58</ele>
        <time>2024-09-04T13:57:09.452Z</time>
      </trkpt>
      <trkpt lat="50.46246" lon="2.60879">
        <ele>67.71</ele>
        <time>2024-09-04T13:57:14.086Z</time>
      </trkpt>
      <trkpt lat="50.46227" lon="2.60893">
        <ele>67.8</ele>
        <time>2024-09-04T13:57:18.723Z</time>
      </trkpt>
      <trkpt lat="50.46208" lon="2.60907">
        <ele>67.9</ele>
        <time>2024-09-04T13:57:23.364Z</time>
      </trkpt>
      <trkpt lat="50.46189" lon="2.60921">
        <ele>67.91</ele>
        <time>2024-09-04T13:57:28.008Z</time>
      </trkpt>
      <trkpt lat="50.46171" lon="2.60931">
        <ele>68</ele>
        <time>2024-09-04T13:57:32.655Z</time>
      </trkpt>
      <trkpt lat="50.46153" lon="2.60941">
        <ele>68.05</ele>
        <time>2024-09-04T13:57:37.305Z</time>
      </trkpt>
      <trkpt lat="50.46138" lon="2.60948">
        <ele>68.15</ele>
        <time>2024-09-04T13:57:41.958Z</time>
      </trkpt>
      <trkpt lat="50.46115" lon="2.60957">
        <ele>68.26</ele>
        <time>2024-09-04T13:57:46.614Z</time>
      </trkpt>
      <trkpt lat="50.46092" lon="2.60966">
        <ele>68.28</ele>
        <time>2024-09-04T13:57:51.274Z</time>
      </trkpt>
      <trkpt lat="50.46074" lon="2.60971">
        <ele>68.3</ele>
        <time>2024-09-04T13:57:55.937Z</time>
      </trkpt>
      <trkpt lat="50.46057" lon="2.60975">
        <ele>68.32</ele>
        <time>2024-09-04T13:58:00.603Z</time>
      </trkpt>
      <trkpt lat="50.46036" lon="2.60978">
        <ele>68.36</ele>
        <time>2024-09-04T13:58:05.272Z</time>
      </trkpt>
      <trkpt lat="50.46015" lon="2.6098">
        <ele>68.43</ele>
        <time>2024-09-04T13:58:09.945Z</time>
      </trkpt>
      <trkpt lat="50.45987" lon="2.60981">
        <ele>68.54</ele>
        <time>2024-09-04T13:58:14.622Z</time>
      </trkpt>
      <trkpt lat="50.45969" lon="2.60981">
        <ele>68.66</ele>
        <time>2024-09-04T13:58:19.302Z</time>
      </trkpt>
      <trkpt lat="50.4595" lon="2.60981">
        <ele>68.8</ele>
        <time>2024-09-04T13:58:23.985Z</time>
      </trkpt>
      <trkpt lat="50.45923" lon="2.60975">
        <ele>69</ele>
        <time>2024-09-04T13:58:28.672Z</time>
      </trkpt>
      <trkpt lat="50.45912" lon="2.60973">
        <ele>69.16</ele>
        <time>2024-09-04T13:58:33.361Z</time>
      </trkpt>
      <trkpt lat="50.45892" lon="2.60968">
        <ele>69.3</ele>
        <time>2024-09-04T13:58:38.053Z</time>
      </trkpt>
      <trkpt lat="50.45864" lon="2.6096">
        <ele>69.42</ele>
        <time>2024-09-04T13:58:42.750Z</time>
      </trkpt>
      <trkpt lat="50.45841" lon="2.6095">
        <ele>69.58</ele>
        <time>2024-09-04T13:58:47.451Z</time>
      </trkpt>
      <trkpt lat="50.45824" lon="2.60942">
        <ele>69.77</ele>
        <time>2024-09-04T13:58:52.155Z</time>
      </trkpt>
      <trkpt lat="50.45807" lon="2.60934">
        <ele>69.98</ele>
        <time>2024-09-04T13:58:56.861Z</time>
      </trkpt>
      <trkpt lat="50.45791" lon="2.60924">
        <ele>70.17</ele>
        <time>2024-09-04T13:59:01.570Z</time>
      </trkpt>
      <trkpt lat="50.45775" lon="2.60914">
        <ele>70.38</ele>
        <time>2024-09-04T13:59:06.282Z</time>
      </trkpt>
      <trkpt lat="50.45754" lon="2.60897">
        <ele>70.61</ele>
        <time>2024-09-04T13:59:10.998Z</time>
      </trkpt>
      <trkpt lat="50.45732" lon="2.60879">
        <ele>70.84</ele>
        <time>2024-09-04T13:59:15.718Z</time>
      </trkpt>
      <trkpt lat="50.45711" lon="2.60861">
        <ele>71.06</ele>
        <time>2024-09-04T13:59:20.442Z</time>
      </trkpt>
      <trkpt lat="50.4569" lon="2.60843">
        <ele>71.24</ele>
        <time>2024-09-04T13:59:25.170Z</time>
      </trkpt>
      <trkpt lat="50.45666" lon="2.60818">
        <ele>71.47</ele>
        <time>2024-09-04T13:59:29.902Z</time>
      </trkpt>
      <trkpt lat="50.45643" lon="2.60794">
        <ele>71.78</ele>
        <time>2024-09-04T13:59:34.639Z</time>
      </trkpt>
      <trkpt lat="50.45628" lon="2.6078">
        <ele>72.01</ele>
        <time>2024-09-04T13:59:39.378Z</time>
      </trkpt>
      <trkpt lat="50.45613" lon="2.60766">
        <ele>72.22</ele>
        <time>2024-09-04T13:59:44.120Z</time>
      </trkpt>
      <trkpt lat="50.45595" lon="2.60749">
        <ele>72.39</ele>
        <time>2024-09-04T13:59:48.865Z</time>
      </trkpt>
      <trkpt lat="50.45577" lon="2.60731">
        <ele>72.55</ele>
        <time>2024-09-04T13:59:53.614Z</time>
      </trkpt>
      <trkpt lat="50.45559" lon="2.60714">
        <ele>72.74</ele>
        <time>2024-09-04T13:59:58.366Z</time>
      </trkpt>
      <trkpt lat="50.45537" lon="2.60692">
        <ele>72.92</ele>
        <time>2024-09-04T14:00:03.122Z</time>
      </trkpt>
      <trkpt lat="50.45515" lon="2.60671">
        <ele>73.05</ele>
        <time>2024-09-04T14:00:07.883Z</time>
      </trkpt>
      <trkpt lat="50.455" lon="2.60655">
        <ele>73.15</ele>
        <time>2024-09-04T14:00:12.646Z</time>
      </trkpt>
      <trkpt lat="50.45485" lon="2.60638">
        <ele>73.24</ele>
        <time>2024-09-04T14:00:17.412Z</time>
      </trkpt>
      <trkpt lat="50.45461" lon="2.60617">
        <ele>73.31</ele>
        <time>2024-09-04T14:00:22.183Z</time>
      </trkpt>
      <trkpt lat="50.45446" lon="2.60605">
        <ele>73.36</ele>
        <time>2024-09-04T14:00:26.957Z</time>
      </trkpt>
      <trkpt lat="50.45431" lon="2.60593">
        <ele>73.37</ele>
        <time>2024-09-04T14:00:31.733Z</time>
      </trkpt>
      <trkpt lat="50.45415" lon="2.6058">
        <ele>73.36</ele>
        <time>2024-09-04T14:00:36.512Z</time>
      </trkpt>
      <trkpt lat="50.4539" lon="2.60556">
        <ele>73.39</ele>
        <time>2024-09-04T14:00:41.296Z</time>
      </trkpt>
      <trkpt lat="50.45386" lon="2.60553">
        <ele>73.36</ele>
        <time>2024-09-04T14:00:46.081Z</time>
      </trkpt>
      <trkpt lat="50.45375" lon="2.60546">
        <ele>73.33</ele>
        <time>2024-09-04T14:00:50.867Z</time>
      </trkpt>
      <trkpt lat="50.45353" lon="2.60538">
        <ele>73.26</ele>
        <time>2024-09-04T14:00:55.657Z</time>
      </trkpt>
      <trkpt lat="50.45333" lon="2.60535">
        <ele>73.18</ele>
        <time>2024-09-04T14:01:00.450Z</time>
      </trkpt>
      <trkpt lat="50.45329" lon="2.60532">
        <ele>73.09</ele>
        <time>2024-09-04T14:01:05.244Z</time>
      </trkpt>
      <trkpt lat="50.45308" lon="2.60527">
        <ele>72.94</ele>
        <time>2024-09-04T14:01:10.041Z</time>
      </trkpt>
      <trkpt lat="50.45288" lon="2.60521">
        <ele>72.79</ele>
        <time>2024-09-04T14:01:14.842Z</time>
      </trkpt>
      <trkpt lat="50.45272" lon="2.60518">
        <ele>72.66</ele>
        <time>2024-09-04T14:01:19.645Z</time>
      </trkpt>
      <trkpt lat="50.45256" lon="2.60514">
        <ele>72.57</ele>
        <time>2024-09-04T14:01:24.451Z</time>
      </trkpt>
      <trkpt lat="50.45239" lon="2.60513">
        <ele>72.49</ele>
        <time>2024-09-04T14:01:29.260Z</time>
      </trkpt>
      <trkpt lat="50.45222" lon="2.60512">
        <ele>72.42</ele>
        <time>2024-09-04T14:01:34.071Z</time>
      </trkpt>
      <trkpt lat="50.45205" lon="2.60513">
        <ele>72.33</ele>
        <time>2024-09-04T14:01:38.885Z</time>
      </trkpt>
      <trkpt lat="50.45188" lon="2.60513">
        <ele>72.26</ele>
        <time>2024-09-04T14:01:43.702Z</time>
      </trkpt>
      <trkpt lat="50.45177" lon="2.60511">
        <ele>72.22</ele>
        <time>2024-09-04T14:01:48.520Z</time>
      </trkpt>
      <trkpt lat="50.45166" lon="2.6051">
        <ele>72.17</ele>
        <time>2024-09-04T14:01:53.340Z</time>
      </trkpt>
      <trkpt lat="50.45156" lon="2.60508">
        <ele>72.14</ele>
        <time>2024-09-04T14:01:58.162Z</time>
      </trkpt>
      <trkpt lat="50.45152" lon="2.60505">
        <ele>72.14</ele>
        <time>2024-09-04T14:02:02.985Z</time>
      </trkpt>
      <trkpt lat="50.45147" lon="2.60498">
        <ele>72.16</ele>
        <time>2024-09-04T14:02:07.809Z</time>
      </trkpt>
      <trkpt lat="50.45144" lon="2.60495">
        <ele>72.19</ele>
        <time>2024-09-04T14:02:12.633Z</time>
      </trkpt>
      <trkpt lat="50.45139" lon="2.60493">
        <ele>72.26</ele>
        <time>2024-09-04T14:02:17.458Z</time>
      </trkpt>
      <trkpt lat="50.45132" lon="2.60493">
        <ele>72.35</ele>
        <time>2024-09-04T14:02:22.284Z</time>
      </trkpt>
      <trkpt lat="50.45129" lon="2.60494">
        <ele>72.48</ele>
        <time>2024-09-04T14:02:27.111Z</time>
      </trkpt>
      <trkpt lat="50.45126" lon="2.60496">
        <ele>72.63</ele>
        <time>2024-09-04T14:02:31.938Z</time>
      </trkpt>
      <trkpt lat="50.45121" lon="2.60502">
        <ele>72.81</ele>
        <time>2024-09-04T14:02:36.766Z</time>
      </trkpt>
      <trkpt lat="50.45119" lon="2.60506">
        <ele>73.03</ele>
        <time>2024-09-04T14:02:41.595Z</time>
      </trkpt>
      <trkpt lat="50.45116" lon="2.60516">
        <ele>73.3</ele>
        <time>2024-09-04T14:02:46.425Z</time>
      </trkpt>
      <trkpt lat="50.45109" lon="2.60524">
        <ele>73.6</ele>
        <time>2024-09-04T14:02:51.256Z</time>
      </trkpt>
      <trkpt lat="50.451" lon="2.60531">
        <ele>73.95</ele>
        <time>2024-09-04T14:02:56.089Z</time>
      </trkpt>
      <trkpt lat="50.45081" lon="2.60539">
        <ele>74.33</ele>
        <time>2024-09-04T14:03:00.925Z</time>
      </trkpt>
      <trkpt lat="50.45055" lon="2.60551">
        <ele>74.74</ele>
        <time>2024-09-04T14:03:05.765Z</time>
      </trkpt>
      <trkpt lat="50.45029" lon="2.60566">
        <ele>75.29</ele>
        <time>2024-09-04T14:03:10.610Z</time>
      </trkpt>
      <trkpt lat="50.45003" lon="2.6058">
        <ele>75.92</ele>
        <time>2024-09-04T14:03:15.459Z</time>
      </trkpt>
      <trkpt lat="50.44978" lon="2.60595">
        <ele>76.62</ele>
        <time>2024-09-04T14:03:20.313Z</time>
      </trkpt>
      <trkpt lat="50.44961" lon="2.60604">
        <ele>77.32</ele>
        <time>2024-09-04T14:03:25.169Z</time>
      </trkpt>
      <trkpt lat="50.44946" lon="2.60612">
        <ele>78.07</ele>
        <time>2024-09-04T14:03:30.028Z</time>
      </trkpt>
      <trkpt lat="50.4493" lon="2.60619">
        <ele>78.84</ele>
        <time>2024-09-04T14:03:34.890Z</time>
      </trkpt>
      <trkpt lat="50.44905" lon="2.60628">
        <ele>79.65</ele>
        <time>2024-09-04T14:03:39.756Z</time>
      </trkpt>
      <trkpt lat="50.44881" lon="2.60637">
        <ele>80.53</ele>
        <time>2024-09-04T14:03:44.626Z</time>
      </trkpt>
      <trkpt lat="50.44857" lon="2.60645">
        <ele>81.47</ele>
        <time>2024-09-04T14:03:49.500Z</time>
      </trkpt>
      <trkpt lat="50.4483" lon="2.60647">
        <ele>82.56</ele>
        <time>2024-09-04T14:03:54.378Z</time>
      </trkpt>
      <trkpt lat="50.44803" lon="2.60649">
        <ele>83.64</ele>
        <time>2024-09-04T14:03:59.260Z</time>
      </trkpt>
      <trkpt lat="50.44776" lon="2.60651">
        <ele>84.74</ele>
        <time>2024-09-04T14:04:04.147Z</time>
      </trkpt>
      <trkpt lat="50.4476" lon="2.60652">
        <ele>85.77</ele>
        <time>2024-09-04T14:04:09.036Z</time>
      </trkpt>
      <trkpt lat="50.44743" lon="2.60652">
        <ele>86.82</ele>
        <time>2024-09-04T14:04:13.928Z</time>
      </trkpt>
      <trkpt lat="50.44725" lon="2.60648">
        <ele>87.88</ele>
        <time>2024-09-04T14:04:18.823Z</time>
      </trkpt>
      <trkpt lat="50.44706" lon="2.60644">
        <ele>88.99</ele>
        <time>2024-09-04T14:04:23.721Z</time>
      </trkpt>
      <trkpt lat="50.44678" lon="2.60637">
        <ele>90.12</ele>
        <time>2024-09-04T14:04:28.623Z</time>
      </trkpt>
      <trkpt lat="50.44651" lon="2.60629">
        <ele>91.25</ele>
        <time>2024-09-04T14:04:33.530Z</time>
      </trkpt>
      <trkpt lat="50.44628" lon="2.60622">
        <ele>92.37</ele>
        <time>2024-09-04T14:04:38.440Z</time>
      </trkpt>
      <trkpt lat="50.44598" lon="2.60611">
        <ele>93.49</ele>
        <time>2024-09-04T14:04:43.355Z</time>
      </trkpt>
      <trkpt lat="50.44568" lon="2.606">
        <ele>94.65</ele>
        <time>2024-09-04T14:04:48.275Z</time>
      </trkpt>
      <trkpt lat="50.44537" lon="2.60589">
        <ele>95.77</ele>
        <time>2024-09-04T14:04:53.200Z</time>
      </trkpt>
      <trkpt lat="50.44507" lon="2.60578">
        <ele>96.88</ele>
        <time>2024-09-04T14:04:58.130Z</time>
      </trkpt>
      <trkpt lat="50.44492" lon="2.60568">
        <ele>97.93</ele>
        <time>2024-09-04T14:05:03.063Z</time>
      </trkpt>
      <trkpt lat="50.44487" lon="2.60563">
        <ele>98.92</ele>
        <time>2024-09-04T14:05:07.997Z</time>
      </trkpt>
      <trkpt lat="50.44481" lon="2.60554">
        <ele>99.89</ele>
        <time>2024-09-04T14:05:12.932Z</time>
      </trkpt>
      <trkpt lat="50.44478" lon="2.60547">
        <ele>100.83</ele>
        <time>2024-09-04T14:05:17.868Z</time>
      </trkpt>
      <trkpt lat="50.44474" lon="2.60542">
        <ele>101.75</ele>
        <time>2024-09-04T14:05:22.805Z</time>
      </trkpt>
      <trkpt lat="50.44471" lon="2.60539">
        <ele>102.63</ele>
        <time>2024-09-04T14:05:27.742Z</time>
      </trkpt>
      <trkpt lat="50.44465" lon="2.60537">
        <ele>103.5</ele>
        <time>2024-09-04T14:05:32.681Z</time>
      </trkpt>
      <trkpt lat="50.44458" lon="2.60538">
        <ele>104.35</ele>
        <time>2024-09-04T14:05:37.621Z</time>
      </trkpt>
      <trkpt lat="50.44455" lon="2.6054">
        <ele>105.15</ele>
        <time>2024-09-04T14:05:42.561Z</time>
      </trkpt>
      <trkpt lat="50.44452" lon="2.60543">
        <ele>105.92</ele>
        <time>2024-09-04T14:05:47.502Z</time>
      </trkpt>
      <trkpt lat="50.44448" lon="2.6055">
        <ele>106.66</ele>
        <time>2024-09-04T14:05:52.444Z</time>
      </trkpt>
      <trkpt lat="50.44441" lon="2.60557">
        <ele>107.39</ele>
        <time>2024-09-04T14:05:57.387Z</time>
      </trkpt>
      <trkpt lat="50.44436" lon="2.6056">
        <ele>108.1</ele>
        <time>2024-09-04T14:06:02.331Z</time>
      </trkpt>
      <trkpt lat="50.44427" lon="2.60563">
        <ele>108.8</ele>
        <time>2024-09-04T14:06:07.276Z</time>
      </trkpt>
      <trkpt lat="50.44402" lon="2.60564">
        <ele>109.56</ele>
        <time>2024-09-04T14:06:12.225Z</time>
      </trkpt>
      <trkpt lat="50.44377" lon="2.60564">
        <ele>110.27</ele>
        <time>2024-09-04T14:06:17.178Z</time>
      </trkpt>
      <trkpt lat="50.44351" lon="2.60564">
        <ele>110.94</ele>
        <time>2024-09-04T14:06:22.135Z</time>
      </trkpt>
      <trkpt lat="50.44331" lon="2.60567">
        <ele>111.56</ele>
        <time>2024-09-04T14:06:27.096Z</time>
      </trkpt>
      <trkpt lat="50.4431" lon="2.6057">
        <ele>112.17</ele>
        <time>2024-09-04T14:06:32.060Z</time>
      </trkpt>
      <trkpt lat="50.44292" lon="2.60572">
        <ele>112.82</ele>
        <time>2024-09-04T14:06:37.027Z</time>
      </trkpt>
      <trkpt lat="50.44283" lon="2.60572">
        <ele>113.48</ele>
        <time>2024-09-04T14:06:41.995Z</time>
      </trkpt>
      <trkpt lat="50.44277" lon="2.6057">
        <ele>114.13</ele>
        <time>2024-09-04T14:06:46.964Z</time>
      </trkpt>
      <trkpt lat="50.44264" lon="2.60568">
        <ele>114.82</ele>
        <time>2024-09-04T14:06:51.935Z</time>
      </trkpt>
      <trkpt lat="50.4426" lon="2.60562">
        <ele>115.48</ele>
        <time>2024-09-04T14:06:56.907Z</time>
      </trkpt>
      <trkpt lat="50.44256" lon="2.60558">
        <ele>116.14</ele>
        <time>2024-09-04T14:07:01.880Z</time>
      </trkpt>
      <trkpt lat="50.44251" lon="2.60556">
        <ele>116.81</ele>
        <time>2024-09-04T14:07:06.854Z</time>
      </trkpt>
      <trkpt lat="50.44246" lon="2.60556">
        <ele>117.48</ele>
        <time>2024-09-04T14:07:11.829Z</time>
      </trkpt>
      <trkpt lat="50.44242" lon="2.60558">
        <ele>118.16</ele>
        <time>2024-09-04T14:07:16.804Z</time>
      </trkpt>
      <trkpt lat="50.44234" lon="2.60568">
        <ele>118.85</ele>
        <time>2024-09-04T14:07:21.781Z</time>
      </trkpt>
      <trkpt lat="50.4423" lon="2.60582">
        <ele>119.52</ele>
        <time>2024-09-04T14:07:26.760Z</time>
      </trkpt>
      <trkpt lat="50.44227" lon="2.60583">
        <ele>120.26</ele>
        <time>2024-09-04T14:07:31.739Z</time>
      </trkpt>
      <trkpt lat="50.44221" lon="2.60589">
        <ele>121.03</ele>
        <time>2024-09-04T14:07:36.719Z</time>
      </trkpt>
      <trkpt lat="50.44213" lon="2.60596">
        <ele>121.8</ele>
        <time>2024-09-04T14:07:41.701Z</time>
      </trkpt>
      <trkpt lat="50.44207" lon="2.60601">
        <ele>122.61</ele>
        <time>2024-09-04T14:07:46.684Z</time>
      </trkpt>
      <trkpt lat="50.44197" lon="2.60604">
        <ele>123.45</ele>
        <time>2024-09-04T14:07:51.668Z</time>
      </trkpt>
      <trkpt lat="50.44174" lon="2.60616">
        <ele>124.41</ele>
        <time>2024-09-04T14:07:56.656Z</time>
      </trkpt>
      <trkpt lat="50.4415" lon="2.60628">
        <ele>125.44</ele>
        <time>2024-09-04T14:08:01.648Z</time>
      </trkpt>
      <trkpt lat="50.4413" lon="2.6064">
        <ele>126.55</ele>
        <time>2024-09-04T14:08:06.644Z</time>
      </trkpt>
      <trkpt lat="50.44109" lon="2.60651">
        <ele>127.64</ele>
        <time>2024-09-04T14:08:11.643Z</time>
      </trkpt>
      <trkpt lat="50.44089" lon="2.6066">
        <ele>128.76</ele>
        <time>2024-09-04T14:08:16.646Z</time>
      </trkpt>
      <trkpt lat="50.44069" lon="2.6067">
        <ele>129.87</ele>
        <time>2024-09-04T14:08:21.652Z</time>
      </trkpt>
      <trkpt lat="50.44048" lon="2.60673">
        <ele>131</ele>
        <time>2024-09-04T14:08:26.661Z</time>
      </trkpt>
      <trkpt lat="50.44027" lon="2.60674">
        <ele>132.17</ele>
        <time>2024-09-04T14:08:31.674Z</time>
      </trkpt>
      <trkpt lat="50.44006" lon="2.60676">
        <ele>133.35</ele>
        <time>2024-09-04T14:08:36.690Z</time>
      </trkpt>
      <trkpt lat="50.43993" lon="2.60678">
        <ele>134.53</ele>
        <time>2024-09-04T14:08:41.708Z</time>
      </trkpt>
      <trkpt lat="50.43986" lon="2.60679">
        <ele>135.74</ele>
        <time>2024-09-04T14:08:46.727Z</time>
      </trkpt>
      <trkpt lat="50.43973" lon="2.60685">
        <ele>136.99</ele>
        <time>2024-09-04T14:08:51.749Z</time>
      </trkpt>
      <trkpt lat="50.43961" lon="2.60696">
        <ele>138.31</ele>
        <time>2024-09-04T14:08:56.773Z</time>
      </trkpt>
      <trkpt lat="50.43949" lon="2.60715">
        <ele>139.69</ele>
        <time>2024-09-04T14:09:01.800Z</time>
      </trkpt>
      <trkpt lat="50.43937" lon="2.60741">
        <ele>141.09</ele>
        <time>2024-09-04T14:09:06.830Z</time>
      </trkpt>
      <trkpt lat="50.43925" lon="2.6077">
        <ele>142.51</ele>
        <time>2024-09-04T14:09:11.863Z</time>
      </trkpt>
      <trkpt lat="50.43916" lon="2.60798">
        <ele>143.93</ele>
        <time>2024-09-04T14:09:16.900Z</time>
      </trkpt>
      <trkpt lat="50.43904" lon="2.60829">
        <ele>145.42</ele>
        <time>2024-09-04T14:09:21.940Z</time>
      </trkpt>
      <trkpt lat="50.43892" lon="2.60859">
        <ele>146.99</ele>
        <time>2024-09-04T14:09:26.984Z</time>
      </trkpt>
      <trkpt lat="50.43883" lon="2.60884">
        <ele>148.55</ele>
        <time>2024-09-04T14:09:32.031Z</time>
      </trkpt>
      <trkpt lat="50.43874" lon="2.60909">
        <ele>150.14</ele>
        <time>2024-09-04T14:09:37.081Z</time>
      </trkpt>
      <trkpt lat="50.43863" lon="2.60935">
        <ele>151.72</ele>
        <time>2024-09-04T14:09:42.134Z</time>
      </trkpt>
      <trkpt lat="50.43854" lon="2.60949">
        <ele>153.27</ele>
        <time>2024-09-04T14:09:47.189Z</time>
      </trkpt>
      <trkpt lat="50.43847" lon="2.60956">
        <ele>154.83</ele>
        <time>2024-09-04T14:09:52.245Z</time>
      </trkpt>
      <trkpt lat="50.43837" lon="2.60963">
        <ele>156.4</ele>
        <time>2024-09-04T14:09:57.303Z</time>
      </trkpt>
      <trkpt lat="50.43822" lon="2.60967">
        <ele>158.02</ele>
        <time>2024-09-04T14:10:02.363Z</time>
      </trkpt>
      <trkpt lat="50.43811" lon="2.60968">
        <ele>159.67</ele>
        <time>2024-09-04T14:10:07.425Z</time>
      </trkpt>
      <trkpt lat="50.43798" lon="2.60966">
        <ele>161.37</ele>
        <time>2024-09-04T14:10:12.489Z</time>
      </trkpt>
      <trkpt lat="50.43773" lon="2.60958">
        <ele>163.13</ele>
        <time>2024-09-04T14:10:17.557Z</time>
      </trkpt>
      <trkpt lat="50.43748" lon="2.60949">
        <ele>164.89</ele>
        <time>2024-09-04T14:10:22.629Z</time>
      </trkpt>
      <trkpt lat="50.43723" lon="2.60941">
        <ele>166.55</ele>
        <time>2024-09-04T14:10:27.706Z</time>
      </trkpt>
      <trkpt lat="50.43699" lon="2.60933">
        <ele>168.27</ele>
        <time>2024-09-04T14:10:32.787Z</time>
      </trkpt>
      <trkpt lat="50.43674" lon="2.60925">
        <ele>170.04</ele>
        <time>2024-09-04T14:10:37.872Z</time>
      </trkpt>
      <trkpt lat="50.43646" lon="2.60913">
        <ele>171.79</ele>
        <time>2024-09-04T14:10:42.961Z</time>
      </trkpt>
      <trkpt lat="50.43618" lon="2.609">
        <ele>173.48</ele>
        <time>2024-09-04T14:10:48.055Z</time>
      </trkpt>
      <trkpt lat="50.43592" lon="2.60887">
        <ele>175.08</ele>
        <time>2024-09-04T14:10:53.153Z</time>
      </trkpt>
      <trkpt lat="50.43565" lon="2.60874">
        <ele>176.74</ele>
        <time>2024-09-04T14:10:58.256Z</time>
      </trkpt>
      <trkpt lat="50.43539" lon="2.60861">
        <ele>178.39</ele>
        <time>2024-09-04T14:11:03.363Z</time>
      </trkpt>
      <trkpt lat="50.4351" lon="2.60855">
        <ele>179.86</ele>
        <time>2024-09-04T14:11:08.475Z</time>
      </trkpt>
      <trkpt lat="50.435" lon="2.60856">
        <ele>181.23</ele>
        <time>2024-09-04T14:11:13.589Z</time>
      </trkpt>
      <trkpt lat="50.43478" lon="2.6086">
        <ele>182.55</ele>
        <time>2024-09-04T14:11:18.706Z</time>
      </trkpt>
      <trkpt lat="50.43455" lon="2.60864">
        <ele>183.86</ele>
        <time>2024-09-04T14:11:23.827Z</time>
      </trkpt>
      <trkpt lat="50.43433" lon="2.60868">
        <ele>185.11</ele>
        <time>2024-09-04T14:11:28.951Z</time>
      </trkpt>
      <trkpt lat="50.43417" lon="2.60867">
        <ele>186.34</ele>
        <time>2024-09-04T14:11:34.078Z</time>
      </trkpt>
      <trkpt lat="50.43402" lon="2.60856">
        <ele>187.53</ele>
        <time>2024-09-04T14:11:39.208Z</time>
      </trkpt>
      <trkpt lat="50.43387" lon="2.60839">
        <ele>188.66</ele>
        <time>2024-09-04T14:11:44.341Z</time>
      </trkpt>
      <trkpt lat="50.43381" lon="2.60836">
        <ele>189.7</ele>
        <time>2024-09-04T14:11:49.475Z</time>
      </trkpt>
      <trkpt lat="50.43376" lon="2.60835">
        <ele>190.65</ele>
        <time>2024-09-04T14:11:54.609Z</time>
      </trkpt>
      <trkpt lat="50.43375" lon="2.60828">
        <ele>191.51</ele>
        <time>2024-09-04T14:11:59.744Z</time>
      </trkpt>
      <trkpt lat="50.43373" lon="2.60823">
        <ele>192.28</ele>
        <time>2024-09-04T14:12:04.880Z</time>
      </trkpt>
      <trkpt lat="50.4337" lon="2.60818">
        <ele>192.96</ele>
        <time>2024-09-04T14:12:10.016Z</time>
      </trkpt>
      <trkpt lat="50.43363" lon="2.60808">
        <ele>193.58</ele>
        <time>2024-09-04T14:12:15.154Z</time>
      </trkpt>
      <trkpt lat="50.43348" lon="2.60788">
        <ele>194.12</ele>
        <time>2024-09-04T14:12:20.295Z</time>
      </trkpt>
      <trkpt lat="50.43327" lon="2.60759">
        <ele>194.58</ele>
        <time>2024-09-04T14:12:25.441Z</time>
      </trkpt>
      <trkpt lat="50.43306" lon="2.60729">
        <ele>194.91</ele>
        <time>2024-09-04T14:12:30.591Z</time>
      </trkpt>
      <trkpt lat="50.43284" lon="2.607">
        <ele>195.08</ele>
        <time>2024-09-04T14:12:35.746Z</time>
      </trkpt>
      <trkpt lat="50.43263" lon="2.6067">
        <ele>195.13</ele>
        <time>2024-09-04T14:12:40.905Z</time>
      </trkpt>
      <trkpt lat="50.43241" lon="2.60641">
        <ele>195.03</ele>
        <time>2024-09-04T14:12:46.069Z</time>
      </trkpt>
      <trkpt lat="50.4322" lon="2.60611">
        <ele>194.71</ele>
        <time>2024-09-04T14:12:51.237Z</time>
      </trkpt>
      <trkpt lat="50.43198" lon="2.60581">
        <ele>194.3</ele>
        <time>2024-09-04T14:12:56.410Z</time>
      </trkpt>
      <trkpt lat="50.43177" lon="2.60552">
        <ele>193.74</ele>
        <time>2024-09-04T14:13:01.588Z</time>
      </trkpt>
      <trkpt lat="50.43155" lon="2.60522">
        <ele>193.01</ele>
        <time>2024-09-04T14:13:06.770Z</time>
      </trkpt>
      <trkpt lat="50.43134" lon="2.60493">
        <ele>192.08</ele>
        <time>2024-09-04T14:13:11.957Z</time>
      </trkpt>
      <trkpt lat="50.43116" lon="2.60473">
        <ele>191.04</ele>
        <time>2024-09-04T14:13:17.147Z</time>
      </trkpt>
      <trkpt lat="50.43102" lon="2.60458">
        <ele>189.85</ele>
        <time>2024-09-04T14:13:22.340Z</time>
      </trkpt>
      <trkpt lat="50.43088" lon="2.60449">
        <ele>188.55</ele>
        <time>2024-09-04T14:13:27.535Z</time>
      </trkpt>
      <trkpt lat="50.43072" lon="2.60447">
        <ele>187.1</ele>
        <time>2024-09-04T14:13:32.733Z</time>
      </trkpt>
      <trkpt lat="50.43046" lon="2.60452">
        <ele>185.48</ele>
        <time>2024-09-04T14:13:37.935Z</time>
      </trkpt>
      <trkpt lat="50.43018" lon="2.60458">
        <ele>183.8</ele>
        <time>2024-09-04T14:13:43.142Z</time>
      </trkpt>
      <trkpt lat="50.42991" lon="2.60465">
        <ele>182.04</ele>
        <time>2024-09-04T14:13:48.353Z</time>
      </trkpt>
      <trkpt lat="50.42963" lon="2.60471">
        <ele>180.22</ele>
        <time>2024-09-04T14:13:53.569Z</time>
      </trkpt>
      <trkpt lat="50.42936" lon="2.60478">
        <ele>178.25</ele>
        <time>2024-09-04T14:13:58.789Z</time>
      </trkpt>
      <trkpt lat="50.42908" lon="2.60485">
        <ele>176.16</ele>
        <time>2024-09-04T14:14:04.013Z</time>
      </trkpt>
      <trkpt lat="50.4288" lon="2.60491">
        <ele>173.87</ele>
        <time>2024-09-04T14:14:09.242Z</time>
      </trkpt>
      <trkpt lat="50.42853" lon="2.60498">
        <ele>171.47</ele>
        <time>2024-09-04T14:14:14.475Z</time>
      </trkpt>
      <trkpt lat="50.42837" lon="2.60498">
        <ele>169.12</ele>
        <time>2024-09-04T14:14:19.711Z</time>
      </trkpt>
      <trkpt lat="50.42824" lon="2.60495">
        <ele>166.7</ele>
        <time>2024-09-04T14:14:24.949Z</time>
      </trkpt>
      <trkpt lat="50.42811" lon="2.60487">
        <ele>164.2</ele>
        <time>2024-09-04T14:14:30.189Z</time>
      </trkpt>
      <trkpt lat="50.42799" lon="2.60474">
        <ele>161.62</ele>
        <time>2024-09-04T14:14:35.432Z</time>
      </trkpt>
      <trkpt lat="50.42786" lon="2.60453">
        <ele>159.04</ele>
        <time>2024-09-04T14:14:40.678Z</time>
      </trkpt>
      <trkpt lat="50.42769" lon="2.60415">
        <ele>156.32</ele>
        <time>2024-09-04T14:14:45.928Z</time>
      </trkpt>
      <trkpt lat="50.42751" lon="2.60377">
        <ele>153.54</ele>
        <time>2024-09-04T14:14:51.183Z</time>
      </trkpt>
      <trkpt lat="50.42733" lon="2.60339">
        <ele>150.74</ele>
        <time>2024-09-04T14:14:56.443Z</time>
      </trkpt>
      <trkpt lat="50.42716" lon="2.60302">
        <ele>147.95</ele>
        <time>2024-09-04T14:15:01.708Z</time>
      </trkpt>
      <trkpt lat="50.42708" lon="2.6028">
        <ele>145.2</ele>
        <time>2024-09-04T14:15:06.975Z</time>
      </trkpt>
      <trkpt lat="50.42698" lon="2.60241">
        <ele>142.38</ele>
        <time>2024-09-04T14:15:12.247Z</time>
      </trkpt>
      <trkpt lat="50.42687" lon="2.60201">
        <ele>139.5</ele>
        <time>2024-09-04T14:15:17.523Z</time>
      </trkpt>
      <trkpt lat="50.42676" lon="2.60155">
        <ele>136.69</ele>
        <time>2024-09-04T14:15:22.804Z</time>
      </trkpt>
      <trkpt lat="50.42666" lon="2.60109">
        <ele>133.93</ele>
        <time>2024-09-04T14:15:28.090Z</time>
      </trkpt>
      <trkpt lat="50.42655" lon="2.60063">
        <ele>131.14</ele>
        <time>2024-09-04T14:15:33.381Z</time>
      </trkpt>
      <trkpt lat="50.42644" lon="2.60017">
        <ele>128.43</ele>
        <time>2024-09-04T14:15:38.677Z</time>
      </trkpt>
      <trkpt lat="50.42632" lon="2.59976">
        <ele>125.69</ele>
        <time>2024-09-04T14:15:43.978Z</time>
      </trkpt>
      <trkpt lat="50.42621" lon="2.59935">
        <ele>123.01</ele>
        <time>2024-09-04T14:15:49.283Z</time>
      </trkpt>
      <trkpt lat="50.42609" lon="2.59894">
        <ele>120.38</ele>
        <time>2024-09-04T14:15:54.593Z</time>
      </trkpt>
      <trkpt lat="50.42597" lon="2.59853">
        <ele>117.87</ele>
        <time>2024-09-04T14:15:59.907Z</time>
      </trkpt>
      <trkpt lat="50.4259" lon="2.59816">
        <ele>115.48</ele>
        <time>2024-09-04T14:16:05.225Z</time>
      </trkpt>
      <trkpt lat="50.42582" lon="2.5978">
        <ele>113.12</ele>
        <time>2024-09-04T14:16:10.547Z</time>
      </trkpt>
      <trkpt lat="50.42575" lon="2.59743">
        <ele>110.81</ele>
        <time>2024-09-04T14:16:15.873Z</time>
      </trkpt>
      <trkpt lat="50.42568" lon="2.59706">
        <ele>108.61</ele>
        <time>2024-09-04T14:16:21.203Z</time>
      </trkpt>
      <trkpt lat="50.42567" lon="2.59675">
        <ele>106.47</ele>
        <time>2024-09-04T14:16:26.536Z</time>
      </trkpt>
      <trkpt lat="50.42565" lon="2.59643">
        <ele>104.42</ele>
        <time>2024-09-04T14:16:31.873Z</time>
      </trkpt>
      <trkpt lat="50.42564" lon="2.59626">
        <ele>102.49</ele>
        <time>2024-09-04T14:16:37.211Z</time>
      </trkpt>
      <trkpt lat="50.42563" lon="2.59593">
        <ele>100.63</ele>
        <time>2024-09-04T14:16:42.553Z</time>
      </trkpt>
      <trkpt lat="50.42561" lon="2.59559">
        <ele>98.88</ele>
        <time>2024-09-04T14:16:47.898Z</time>
      </trkpt>
      <trkpt lat="50.4256" lon="2.59526">
        <ele>97.25</ele>
        <time>2024-09-04T14:16:53.247Z</time>
      </trkpt>
      <trkpt lat="50.42558" lon="2.59487">
        <ele>95.78</ele>
        <time>2024-09-04T14:16:58.600Z</time>
      </trkpt>
      <trkpt lat="50.42555" lon="2.59448">
        <ele>94.4</ele>
        <time>2024-09-04T14:17:03.957Z</time>
      </trkpt>
      <trkpt lat="50.42551" lon="2.59424">
        <ele>93.06</ele>
        <time>2024-09-04T14:17:09.316Z</time>
      </trkpt>
      <trkpt lat="50.42547" lon="2.59399">
        <ele>91.82</ele>
        <time>2024-09-04T14:17:14.678Z</time>
      </trkpt>
      <trkpt lat="50.42536" lon="2.59359">
        <ele>90.62</ele>
        <time>2024-09-04T14:17:20.044Z</time>
      </trkpt>
      <trkpt lat="50.42521" lon="2.59317">
        <ele>89.53</ele>
        <time>2024-09-04T14:17:25.415Z</time>
      </trkpt>
      <trkpt lat="50.42504" lon="2.5928">
        <ele>88.57</ele>
        <time>2024-09-04T14:17:30.791Z</time>
      </trkpt>
      <trkpt lat="50.42487" lon="2.59244">
        <ele>87.74</ele>
        <time>2024-09-04T14:17:36.172Z</time>
      </trkpt>
      <trkpt lat="50.42481" lon="2.59231">
        <ele>87.04</ele>
        <time>2024-09-04T14:17:41.554Z</time>
      </trkpt>
      <trkpt lat="50.42466" lon="2.59197">
        <ele>86.4</ele>
        <time>2024-09-04T14:17:46.940Z</time>
      </trkpt>
      <trkpt lat="50.4246" lon="2.59175">
        <ele>85.88</ele>
        <time>2024-09-04T14:17:52.329Z</time>
      </trkpt>
      <trkpt lat="50.42458" lon="2.59161">
        <ele>85.47</ele>
        <time>2024-09-04T14:17:57.719Z</time>
      </trkpt>
      <trkpt lat="50.42458" lon="2.59152">
        <ele>85.14</ele>
        <time>2024-09-04T14:18:03.110Z</time>
      </trkpt>
      <trkpt lat="50.42461" lon="2.59123">
        <ele>84.89</ele>
        <time>2024-09-04T14:18:08.504Z</time>
      </trkpt>
      <trkpt lat="50.42465" lon="2.59095">
        <ele>84.71</ele>
        <time>2024-09-04T14:18:13.901Z</time>
      </trkpt>
      <trkpt lat="50.42468" lon="2.59068">
        <ele>84.62</ele>
        <time>2024-09-04T14:18:19.301Z</time>
      </trkpt>
      <trkpt lat="50.42471" lon="2.59041">
        <ele>84.62</ele>
        <time>2024-09-04T14:18:24.704Z</time>
      </trkpt>
      <trkpt lat="50.42469" lon="2.59027">
        <ele>84.69</ele>
        <time>2024-09-04T14:18:30.108Z</time>
      </trkpt>
      <trkpt lat="50.42464" lon="2.59002">
        <ele>84.86</ele>
        <time>2024-09-04T14:18:35.515Z</time>
      </trkpt>
      <trkpt lat="50.42454" lon="2.58982">
        <ele>85.08</ele>
        <time>2024-09-04T14:18:40.925Z</time>
      </trkpt>
      <trkpt lat="50.42436" lon="2.58957">
        <ele>85.39</ele>
        <time>2024-09-04T14:18:46.338Z</time>
      </trkpt>
      <trkpt lat="50.42419" lon="2.58932">
        <ele>85.73</ele>
        <time>2024-09-04T14:18:51.755Z</time>
      </trkpt>
      <trkpt lat="50.42401" lon="2.58907">
        <ele>86.12</ele>
        <time>2024-09-04T14:18:57.176Z</time>
      </trkpt>
      <trkpt lat="50.42379" lon="2.58883">
        <ele>86.56</ele>
        <time>2024-09-04T14:19:02.601Z</time>
      </trkpt>
      <trkpt lat="50.42357" lon="2.58859">
        <ele>86.99</ele>
        <time>2024-09-04T14:19:08.030Z</time>
      </trkpt>
      <trkpt lat="50.4235" lon="2.5885">
        <ele>87.44</ele>
        <time>2024-09-04T14:19:13.461Z</time>
      </trkpt>
      <trkpt lat="50.42347" lon="2.58846">
        <ele>87.93</ele>
        <time>2024-09-04T14:19:18.893Z</time>
      </trkpt>
      <trkpt lat="50.42345" lon="2.58841">
        <ele>88.44</ele>
        <time>2024-09-04T14:19:24.325Z</time>
      </trkpt>
      <trkpt lat="50.42347" lon="2.58837">
        <ele>88.97</ele>
        <time>2024-09-04T14:19:29.758Z</time>
      </trkpt>
      <trkpt lat="50.42347" lon="2.58834">
        <ele>89.52</ele>
        <time>2024-09-04T14:19:35.191Z</time>
      </trkpt>
      <trkpt lat="50.42347" lon="2.58832">
        <ele>90.08</ele>
        <time>2024-09-04T14:19:40.624Z</time>
      </trkpt>
      <trkpt lat="50.42344" lon="2.58828">
        <ele>90.66</ele>
        <time>2024-09-04T14:19:46.058Z</time>
      </trkpt>
      <trkpt lat="50.42341" lon="2.58827">
        <ele>91.24</ele>
        <time>2024-09-04T14:19:51.492Z</time>
      </trkpt>
      <trkpt lat="50.42338" lon="2.5883">
        <ele>91.83</ele>
        <time>2024-09-04T14:19:56.927Z</time>
      </trkpt>
      <trkpt lat="50.42337" lon="2.58834">
        <ele>92.42</ele>
        <time>2024-09-04T14:20:02.362Z</time>
      </trkpt>
      <trkpt lat="50.42337" lon="2.58837">
        <ele>93.02</ele>
        <time>2024-09-04T14:20:07.798Z</time>
      </trkpt>
      <trkpt lat="50.42325" lon="2.58841">
        <ele>93.62</ele>
        <time>2024-09-04T14:20:13.236Z</time>
      </trkpt>
      <trkpt lat="50.42309" lon="2.58846">
        <ele>94.22</ele>
        <time>2024-09-04T14:20:18.676Z</time>
      </trkpt>
      <trkpt lat="50.42293" lon="2.58852">
        <ele>94.8</ele>
        <time>2024-09-04T14:20:24.119Z</time>
      </trkpt>
      <trkpt lat="50.42265" lon="2.58876">
        <ele>95.43</ele>
        <time>2024-09-04T14:20:29.567Z</time>
      </trkpt>
      <trkpt lat="50.42251" lon="2.58893">
        <ele>96.05</ele>
        <time>2024-09-04T14:20:35.018Z</time>
      </trkpt>
      <trkpt lat="50.42236" lon="2.58911">
        <ele>96.65</ele>
        <time>2024-09-04T14:20:40.472Z</time>
      </trkpt>
      <trkpt lat="50.42213" lon="2.58941">
        <ele>97.23</ele>
        <time>2024-09-04T14:20:45.931Z</time>
      </trkpt>
      <trkpt lat="50.42188" lon="2.58971">
        <ele>97.78</ele>
        <time>2024-09-04T14:20:51.395Z</time>
      </trkpt>
      <trkpt lat="50.42163" lon="2.59001">
        <ele>98.35</ele>
        <time>2024-09-04T14:20:56.864Z</time>
      </trkpt>
      <trkpt lat="50.42144" lon="2.59026">
        <ele>98.92</ele>
        <time>2024-09-04T14:21:02.337Z</time>
      </trkpt>
      <trkpt lat="50.42125" lon="2.59051">
        <ele>99.45</ele>
        <time>2024-09-04T14:21:07.814Z</time>
      </trkpt>
      <trkpt lat="50.42101" lon="2.5908">
        <ele>99.93</ele>
        <time>2024-09-04T14:21:13.296Z</time>
      </trkpt>
      <trkpt lat="50.42076" lon="2.5911">
        <ele>100.42</ele>
        <time>2024-09-04T14:21:18.782Z</time>
      </trkpt>
      <trkpt lat="50.4206" lon="2.59127">
        <ele>100.9</ele>
        <time>2024-09-04T14:21:24.272Z</time>
      </trkpt>
      <trkpt lat="50.42044" lon="2.59143">
        <ele>101.38</ele>
        <time>2024-09-04T14:21:29.765Z</time>
      </trkpt>
      <trkpt lat="50.42025" lon="2.59161">
        <ele>101.85</ele>
        <time>2024-09-04T14:21:35.261Z</time>
      </trkpt>
      <trkpt lat="50.42006" lon="2.59178">
        <ele>102.27</ele>
        <time>2024-09-04T14:21:40.761Z</time>
      </trkpt>
      <trkpt lat="50.42" lon="2.59186">
        <ele>102.66</ele>
        <time>2024-09-04T14:21:46.262Z</time>
      </trkpt>
      <trkpt lat="50.41981" lon="2.59206">
        <ele>103.08</ele>
        <time>2024-09-04T14:21:51.767Z</time>
      </trkpt>
      <trkpt lat="50.41959" lon="2.59228">
        <ele>103.41</ele>
        <time>2024-09-04T14:21:57.276Z</time>
      </trkpt>
      <trkpt lat="50.41958" lon="2.59229">
        <ele>103.73</ele>
        <time>2024-09-04T14:22:02.785Z</time>
      </trkpt>
      <trkpt lat="50.41953" lon="2.59237">
        <ele>104.06</ele>
        <time>2024-09-04T14:22:08.295Z</time>
      </trkpt>
      <trkpt lat="50.41939" lon="2.5927">
        <ele>104.33</ele>
        <time>2024-09-04T14:22:13.809Z</time>
      </trkpt>
      <trkpt lat="50.41924" lon="2.59303">
        <ele>104.66</ele>
        <time>2024-09-04T14:22:19.327Z</time>
      </trkpt>
      <trkpt lat="50.4191" lon="2.59336">
        <ele>104.96</ele>
        <time>2024-09-04T14:22:24.849Z</time>
      </trkpt>
      <trkpt lat="50.41894" lon="2.59374">
        <ele>105.18</ele>
        <time>2024-09-04T14:22:30.376Z</time>
      </trkpt>
      <trkpt lat="50.41877" lon="2.59412">
        <ele>105.38</ele>
        <time>2024-09-04T14:22:35.908Z</time>
      </trkpt>
      <trkpt lat="50.41865" lon="2.59451">
        <ele>105.66</ele>
        <time>2024-09-04T14:22:41.444Z</time>
      </trkpt>
      <trkpt lat="50.41853" lon="2.59489">
        <ele>105.96</ele>
        <time>2024-09-04T14:22:46.985Z</time>
      </trkpt>
      <trkpt lat="50.41841" lon="2.59527">
        <ele>106.26</ele>
        <time>2024-09-04T14:22:52.530Z</time>
      </trkpt>
      <trkpt lat="50.41829" lon="2.59565">
        <ele>106.54</ele>
        <time>2024-09-04T14:22:58.079Z</time>
      </trkpt>
      <trkpt lat="50.41817" lon="2.59604">
        <ele>106.79</ele>
        <time>2024-09-04T14:23:03.633Z</time>
      </trkpt>
      <trkpt lat="50.41806" lon="2.59641">
        <ele>107.05</ele>
        <time>2024-09-04T14:23:09.191Z</time>
      </trkpt>
      <trkpt lat="50.41801" lon="2.59663">
        <ele>107.32</ele>
        <time>2024-09-04T14:23:14.751Z</time>
      </trkpt>
      <trkpt lat="50.41801" lon="2.59676">
        <ele>107.58</ele>
        <time>2024-09-04T14:23:20.313Z</time>
      </trkpt>
      <trkpt lat="50.41805" lon="2.59689">
        <ele>107.85</ele>
        <time>2024-09-04T14:23:25.876Z</time>
      </trkpt>
      <trkpt lat="50.41815" lon="2.59712">
        <ele>108.15</ele>
        <time>2024-09-04T14:23:31.442Z</time>
      </trkpt>
      <trkpt lat="50.41819" lon="2.59722">
        <ele>108.48</ele>
        <time>2024-09-04T14:23:37.009Z</time>
      </trkpt>
      <trkpt lat="50.4183" lon="2.59744">
        <ele>108.83</ele>
        <time>2024-09-04T14:23:42.579Z</time>
      </trkpt>
      <trkpt lat="50.41841" lon="2.59765">
        <ele>109.23</ele>
        <time>2024-09-04T14:23:48.152Z</time>
      </trkpt>
      <trkpt lat="50.4185" lon="2.59789">
        <ele>109.64</ele>
        <time>2024-09-04T14:23:53.728Z</time>
      </trkpt>
      <trkpt lat="50.41858" lon="2.59814">
        <ele>110.1</ele>
        <time>2024-09-04T14:23:59.306Z</time>
      </trkpt>
      <trkpt lat="50.41863" lon="2.59832">
        <ele>110.59</ele>
        <time>2024-09-04T14:24:04.887Z</time>
      </trkpt>
      <trkpt lat="50.41865" lon="2.59855">
        <ele>111.11</ele>
        <time>2024-09-04T14:24:10.470Z</time>
      </trkpt>
      <trkpt lat="50.41863" lon="2.59869">
        <ele>111.67</ele>
        <time>2024-09-04T14:24:16.054Z</time>
      </trkpt>
      <trkpt lat="50.41854" lon="2.59891">
        <ele>112.28</ele>
        <time>2024-09-04T14:24:21.641Z</time>
      </trkpt>
      <trkpt lat="50.41847" lon="2.59907">
        <ele>112.91</ele>
        <time>2024-09-04T14:24:27.230Z</time>
      </trkpt>
      <trkpt lat="50.41831" lon="2.59947">
        <ele>113.63</ele>
        <time>2024-09-04T14:24:32.824Z</time>
      </trkpt>
      <trkpt lat="50.41829" lon="2.59954">
        <ele>114.31</ele>
        <time>2024-09-04T14:24:38.419Z</time>
      </trkpt>
      <trkpt lat="50.41825" lon="2.59983">
        <ele>115.06</ele>
        <time>2024-09-04T14:24:44.017Z</time>
      </trkpt>
      <trkpt lat="50.41824" lon="2.59989">
        <ele>115.79</ele>
        <time>2024-09-04T14:24:49.615Z</time>
      </trkpt>
      <trkpt lat="50.4182" lon="2.59997">
        <ele>116.54</ele>
        <time>2024-09-04T14:24:55.214Z</time>
      </trkpt>
      <trkpt lat="50.41797" lon="2.60023">
        <ele>117.32</ele>
        <time>2024-09-04T14:25:00.818Z</time>
      </trkpt>
      <trkpt lat="50.41784" lon="2.60038">
        <ele>118.18</ele>
        <time>2024-09-04T14:25:06.424Z</time>
      </trkpt>
      <trkpt lat="50.41771" lon="2.60054">
        <ele>119.09</ele>
        <time>2024-09-04T14:25:12.033Z</time>
      </trkpt>
      <trkpt lat="50.41761" lon="2.60064">
        <ele>120.02</ele>
        <time>2024-09-04T14:25:17.644Z</time>
      </trkpt>
      <trkpt lat="50.41741" lon="2.60079">
        <ele>121</ele>
        <time>2024-09-04T14:25:23.258Z</time>
      </trkpt>
      <trkpt lat="50.41721" lon="2.60093">
        <ele>121.97</ele>
        <time>2024-09-04T14:25:28.876Z</time>
      </trkpt>
      <trkpt lat="50.41699" lon="2.60112">
        <ele>123.06</ele>
        <time>2024-09-04T14:25:34.498Z</time>
      </trkpt>
      <trkpt lat="50.41686" lon="2.60119">
        <ele>124.11</ele>
        <time>2024-09-04T14:25:40.122Z</time>
      </trkpt>
      <trkpt lat="50.41658" lon="2.60125">
        <ele>125.24</ele>
        <time>2024-09-04T14:25:45.751Z</time>
      </trkpt>
      <trkpt lat="50.41649" lon="2.60125">
        <ele>126.3</ele>
        <time>2024-09-04T14:25:51.381Z</time>
      </trkpt>
      <trkpt lat="50.41638" lon="2.60124">
        <ele>127.38</ele>
        <time>2024-09-04T14:25:57.013Z</time>
      </trkpt>
      <trkpt lat="50.41614" lon="2.60118">
        <ele>128.47</ele>
        <time>2024-09-04T14:26:02.649Z</time>
      </trkpt>
      <trkpt lat="50.41603" lon="2.60116">
        <ele>129.58</ele>
        <time>2024-09-04T14:26:08.287Z</time>
      </trkpt>
      <trkpt lat="50.41595" lon="2.60118">
        <ele>130.72</ele>
        <time>2024-09-04T14:26:13.926Z</time>
      </trkpt>
      <trkpt lat="50.41585" lon="2.60123">
        <ele>131.89</ele>
        <time>2024-09-04T14:26:19.567Z</time>
      </trkpt>
      <trkpt lat="50.41578" lon="2.60132">
        <ele>133.09</ele>
        <time>2024-09-04T14:26:25.209Z</time>
      </trkpt>
      <trkpt lat="50.41567" lon="2.60152">
        <ele>134.31</ele>
        <time>2024-09-04T14:26:30.854Z</time>
      </trkpt>
      <trkpt lat="50.41558" lon="2.60167">
        <ele>135.56</ele>
        <time>2024-09-04T14:26:36.501Z</time>
      </trkpt>
      <trkpt lat="50.41541" lon="2.60188">
        <ele>136.86</ele>
        <time>2024-09-04T14:26:42.151Z</time>
      </trkpt>
      <trkpt lat="50.41524" lon="2.60209">
        <ele>138.14</ele>
        <time>2024-09-04T14:26:47.805Z</time>
      </trkpt>
      <trkpt lat="50.41506" lon="2.6023">
        <ele>139.41</ele>
        <time>2024-09-04T14:26:53.462Z</time>
      </trkpt>
      <trkpt lat="50.415" lon="2.60241">
        <ele>140.68</ele>
        <time>2024-09-04T14:26:59.121Z</time>
      </trkpt>
      <trkpt lat="50.41497" lon="2.60247">
        <ele>141.96</ele>
        <time>2024-09-04T14:27:04.781Z</time>
      </trkpt>
      <trkpt lat="50.41496" lon="2.60256">
        <ele>143.25</ele>
        <time>2024-09-04T14:27:10.442Z</time>
      </trkpt>
      <trkpt lat="50.41497" lon="2.60261">
        <ele>144.55</ele>
        <time>2024-09-04T14:27:16.103Z</time>
      </trkpt>
      <trkpt lat="50.415" lon="2.60267">
        <ele>145.84</ele>
        <time>2024-09-04T14:27:21.765Z</time>
      </trkpt>
      <trkpt lat="50.41504" lon="2.6027">
        <ele>147.14</ele>
        <time>2024-09-04T14:27:27.428Z</time>
      </trkpt>
      <trkpt lat="50.41532" lon="2.60281">
        <ele>148.51</ele>
        <time>2024-09-04T14:27:33.095Z</time>
      </trkpt>
      <trkpt lat="50.41544" lon="2.60288">
        <ele>149.85</ele>
        <time>2024-09-04T14:27:38.764Z</time>
      </trkpt>
      <trkpt lat="50.41567" lon="2.60307">
        <ele>151.23</ele>
        <time>2024-09-04T14:27:44.437Z</time>
      </trkpt>
      <trkpt lat="50.4159" lon="2.60325">
        <ele>152.56</ele>
        <time>2024-09-04T14:27:50.115Z</time>
      </trkpt>
      <trkpt lat="50.41617" lon="2.60347">
        <ele>153.88</ele>
        <time>2024-09-04T14:27:55.798Z</time>
      </trkpt>
      <trkpt lat="50.41626" lon="2.60353">
        <ele>155.15</ele>
        <time>2024-09-04T14:28:01.482Z</time>
      </trkpt>
      <trkpt lat="50.41635" lon="2.60358">
        <ele>156.4</ele>
        <time>2024-09-04T14:28:07.168Z</time>
      </trkpt>
      <trkpt lat="50.4165" lon="2.60363">
        <ele>157.65</ele>
        <time>2024-09-04T14:28:12.856Z</time>
      </trkpt>
      <trkpt lat="50.4168" lon="2.6037">
        <ele>158.89</ele>
        <time>2024-09-04T14:28:18.549Z</time>
      </trkpt>
      <trkpt lat="50.4169" lon="2.60375">
        <ele>160.08</ele>
        <time>2024-09-04T14:28:24.244Z</time>
      </trkpt>
      <trkpt lat="50.41696" lon="2.60382">
        <ele>161.26</ele>
        <time>2024-09-04T14:28:29.940Z</time>
      </trkpt>
      <trkpt lat="50.417" lon="2.60389">
        <ele>162.42</ele>
        <time>2024-09-04T14:28:35.637Z</time>
      </trkpt>
      <trkpt lat="50.41705" lon="2.604">
        <ele>163.56</ele>
        <time>2024-09-04T14:28:41.335Z</time>
      </trkpt>
      <trkpt lat="50.41709" lon="2.60414">
        <ele>164.66</ele>
        <time>2024-09-04T14:28:47.035Z</time>
      </trkpt>
      <trkpt lat="50.41715" lon="2.60447">
        <ele>165.78</ele>
        <time>2024-09-04T14:28:52.738Z</time>
      </trkpt>
      <trkpt lat="50.4172" lon="2.60479">
        <ele>166.9</ele>
        <time>2024-09-04T14:28:58.445Z</time>
      </trkpt>
      <trkpt lat="50.41726" lon="2.60517">
        <ele>167.98</ele>
        <time>2024-09-04T14:29:04.156Z</time>
      </trkpt>
      <trkpt lat="50.41731" lon="2.60537">
        <ele>168.96</ele>
        <time>2024-09-04T14:29:09.869Z</time>
      </trkpt>
      <trkpt lat="50.41735" lon="2.60549">
        <ele>169.9</ele>
        <time>2024-09-04T14:29:15.583Z</time>
      </trkpt>
      <trkpt lat="50.41739" lon="2.60558">
        <ele>170.79</ele>
        <time>2024-09-04T14:29:21.298Z</time>
      </trkpt>
      <trkpt lat="50.41753" lon="2.60579">
        <ele>171.67</ele>
        <time>2024-09-04T14:29:27.016Z</time>
      </trkpt>
      <trkpt lat="50.4177" lon="2.60603">
        <ele>172.52</ele>
        <time>2024-09-04T14:29:32.738Z</time>
      </trkpt>
      <trkpt lat="50.41788" lon="2.60626">
        <ele>173.32</ele>
        <time>2024-09-04T14:29:38.464Z</time>
      </trkpt>
      <trkpt lat="50.41808" lon="2.60655">
        <ele>174.07</ele>
        <time>2024-09-04T14:29:44.194Z</time>
      </trkpt>
      <trkpt lat="50.41829" lon="2.60684">
        <ele>174.76</ele>
        <time>2024-09-04T14:29:49.929Z</time>
      </trkpt>
      <trkpt lat="50.41849" lon="2.60713">
        <ele>175.41</ele>
        <time>2024-09-04T14:29:55.668Z</time>
      </trkpt>
      <trkpt lat="50.41864" lon="2.60741">
        <ele>175.98</ele>
        <time>2024-09-04T14:30:01.411Z</time>
      </trkpt>
      <trkpt lat="50.41878" lon="2.60774">
        <ele>176.51</ele>
        <time>2024-09-04T14:30:07.158Z</time>
      </trkpt>
      <trkpt lat="50.41891" lon="2.60808">
        <ele>176.98</ele>
        <time>2024-09-04T14:30:12.909Z</time>
      </trkpt>
      <trkpt lat="50.41904" lon="2.60842">
        <ele>177.45</ele>
        <time>2024-09-04T14:30:18.664Z</time>
      </trkpt>
      <trkpt lat="50.41916" lon="2.60876">
        <ele>177.87</ele>
        <time>2024-09-04T14:30:24.423Z</time>
      </trkpt>
      <trkpt lat="50.41929" lon="2.6091">
        <ele>178.23</ele>
        <time>2024-09-04T14:30:30.186Z</time>
      </trkpt>
      <trkpt lat="50.41943" lon="2.60943">
        <ele>178.56</ele>
        <time>2024-09-04T14:30:35.953Z</time>
      </trkpt>
      <trkpt lat="50.41953" lon="2.60963">
        <ele>178.87</ele>
        <time>2024-09-04T14:30:41.723Z</time>
      </trkpt>
      <trkpt lat="50.41971" lon="2.60986">
        <ele>179.16</ele>
        <time>2024-09-04T14:30:47.496Z</time>
      </trkpt>
      <trkpt lat="50.41982" lon="2.61003">
        <ele>179.37</ele>
        <time>2024-09-04T14:30:53.272Z</time>
      </trkpt>
      <trkpt lat="50.41993" lon="2.6102">
        <ele>179.53</ele>
        <time>2024-09-04T14:30:59.050Z</time>
      </trkpt>
      <trkpt lat="50.42003" lon="2.61039">
        <ele>179.63</ele>
        <time>2024-09-04T14:31:04.831Z</time>
      </trkpt>
      <trkpt lat="50.42017" lon="2.61068">
        <ele>179.63</ele>
        <time>2024-09-04T14:31:10.615Z</time>
      </trkpt>
      <trkpt lat="50.42026" lon="2.61091">
        <ele>179.57</ele>
        <time>2024-09-04T14:31:16.402Z</time>
      </trkpt>
      <trkpt lat="50.42036" lon="2.61118">
        <ele>179.45</ele>
        <time>2024-09-04T14:31:22.192Z</time>
      </trkpt>
      <trkpt lat="50.42047" lon="2.61144">
        <ele>179.32</ele>
        <time>2024-09-04T14:31:27.986Z</time>
      </trkpt>
      <trkpt lat="50.42053" lon="2.61153">
        <ele>179.22</ele>
        <time>2024-09-04T14:31:33.781Z</time>
      </trkpt>
      <trkpt lat="50.42075" lon="2.61176">
        <ele>179.08</ele>
        <time>2024-09-04T14:31:39.580Z</time>
      </trkpt>
      <trkpt lat="50.42096" lon="2.612">
        <ele>178.92</ele>
        <time>2024-09-04T14:31:45.383Z</time>
      </trkpt>
      <trkpt lat="50.42118" lon="2.61223">
        <ele>178.79</ele>
        <time>2024-09-04T14:31:51.191Z</time>
      </trkpt>
      <trkpt lat="50.42144" lon="2.61252">
        <ele>178.66</ele>
        <time>2024-09-04T14:31:57.004Z</time>
      </trkpt>
      <trkpt lat="50.42169" lon="2.6128">
        <ele>178.48</ele>
        <time>2024-09-04T14:32:02.822Z</time>
      </trkpt>
      <trkpt lat="50.42195" lon="2.61309">
        <ele>178.27</ele>
        <time>2024-09-04T14:32:08.645Z</time>
      </trkpt>
      <trkpt lat="50.4222" lon="2.61337">
        <ele>178.08</ele>
        <time>2024-09-04T14:32:14.473Z</time>
      </trkpt>
      <trkpt lat="50.42232" lon="2.6135">
        <ele>177.91</ele>
        <time>2024-09-04T14:32:20.303Z</time>
      </trkpt>
      <trkpt lat="50.42242" lon="2.6136">
        <ele>177.74</ele>
        <time>2024-09-04T14:32:26.135Z</time>
      </trkpt>
      <trkpt lat="50.42257" lon="2.61377">
        <ele>177.56</ele>
        <time>2024-09-04T14:32:31.970Z</time>
      </trkpt>
      <trkpt lat="50.42272" lon="2.61394">
        <ele>177.39</ele>
        <time>2024-09-04T14:32:37.808Z</time>
      </trkpt>
      <trkpt lat="50.42294" lon="2.61418">
        <ele>177.23</ele>
        <time>2024-09-04T14:32:43.650Z</time>
      </trkpt>
      <trkpt lat="50.42316" lon="2.61442">
        <ele>177.04</ele>
        <time>2024-09-04T14:32:49.496Z</time>
      </trkpt>
      <trkpt lat="50.42338" lon="2.61466">
        <ele>176.87</ele>
        <time>2024-09-04T14:32:55.347Z</time>
      </trkpt>
      <trkpt lat="50.4236" lon="2.6149">
        <ele>176.69</ele>
        <time>2024-09-04T14:33:01.202Z</time>
      </trkpt>
      <trkpt lat="50.42376" lon="2.61507">
        <ele>176.48</ele>
        <time>2024-09-04T14:33:07.060Z</time>
      </trkpt>
      <trkpt lat="50.42392" lon="2.61523">
        <ele>176.26</ele>
        <time>2024-09-04T14:33:12.921Z</time>
      </trkpt>
      <trkpt lat="50.42415" lon="2.61547">
        <ele>176.07</ele>
        <time>2024-09-04T14:33:18.787Z</time>
      </trkpt>
      <trkpt lat="50.42437" lon="2.61571">
        <ele>175.85</ele>
        <time>2024-09-04T14:33:24.657Z</time>
      </trkpt>
      <trkpt lat="50.4246" lon="2.61594">
        <ele>175.67</ele>
        <time>2024-09-04T14:33:30.531Z</time>
      </trkpt>
      <trkpt lat="50.42483" lon="2.61618">
        <ele>175.5</ele>
        <time>2024-09-04T14:33:36.410Z</time>
      </trkpt>
      <trkpt lat="50.42497" lon="2.61636">
        <ele>175.33</ele>
        <time>2024-09-04T14:33:42.292Z</time>
      </trkpt>
      <trkpt lat="50.42511" lon="2.61655">
        <ele>175.16</ele>
        <time>2024-09-04T14:33:48.177Z</time>
      </trkpt>
      <trkpt lat="50.42516" lon="2.61663">
        <ele>175.01</ele>
        <time>2024-09-04T14:33:54.063Z</time>
      </trkpt>
      <trkpt lat="50.42518" lon="2.61676">
        <ele>174.84</ele>
        <time>2024-09-04T14:33:59.950Z</time>
      </trkpt>
      <trkpt lat="50.42519" lon="2.61684">
        <ele>174.68</ele>
        <time>2024-09-04T14:34:05.838Z</time>
      </trkpt>
      <trkpt lat="50.42519" lon="2.61688">
        <ele>174.52</ele>
        <time>2024-09-04T14:34:11.726Z</time>
      </trkpt>
      <trkpt lat="50.42519" lon="2.61692">
        <ele>174.37</ele>
        <time>2024-09-04T14:34:17.615Z</time>
      </trkpt>
      <trkpt lat="50.4252" lon="2.61694">
        <ele>174.23</ele>
        <time>2024-09-04T14:34:23.504Z</time>
      </trkpt>
      <trkpt lat="50.42523" lon="2.61698">
        <ele>174.08</ele>
        <time>2024-09-04T14:34:29.394Z</time>
      </trkpt>
      <trkpt lat="50.42526" lon="2.61699">
        <ele>173.94</ele>
        <time>2024-09-04T14:34:35.284Z</time>
      </trkpt>
      <trkpt lat="50.42529" lon="2.61698">
        <ele>173.8</ele>
        <time>2024-09-04T14:34:41.175Z</time>
      </trkpt>
      <trkpt lat="50.42532" lon="2.61693">
        <ele>173.67</ele>
        <time>2024-09-04T14:34:47.066Z</time>
      </trkpt>
      <trkpt lat="50.42533" lon="2.6169">
        <ele>173.53</ele>
        <time>2024-09-04T14:34:52.958Z</time>
      </trkpt>
      <trkpt lat="50.42532" lon="2.61683">
        <ele>173.4</ele>
        <time>2024-09-04T14:34:58.850Z</time>
      </trkpt>
      <trkpt lat="50.4253" lon="2.6168">
        <ele>173.25</ele>
        <time>2024-09-04T14:35:04.743Z</time>
      </trkpt>
      <trkpt lat="50.42526" lon="2.61677">
        <ele>173.09</ele>
        <time>2024-09-04T14:35:10.636Z</time>
      </trkpt>
      <trkpt lat="50.42523" lon="2.61678">
        <ele>172.93</ele>
        <time>2024-09-04T14:35:16.530Z</time>
      </trkpt>
      <trkpt lat="50.42521" lon="2.61681">
        <ele>172.76</ele>
        <time>2024-09-04T14:35:22.424Z</time>
      </trkpt>
      <trkpt lat="50.42519" lon="2.61684">
        <ele>174.68</ele>
        <time>2024-09-04T14:35:28.319Z</time>
      </trkpt>
      <trkpt lat="50.42519" lon="2.61688">
        <ele>174.52</ele>
        <time>2024-09-04T14:35:34.214Z</time>
      </trkpt>
      <trkpt lat="50.42519" lon="2.61692">
        <ele>174.37</ele>
        <time>2024-09-04T14:35:40.110Z</time>
      </trkpt>
      <trkpt lat="50.42518" lon="2.617">
        <ele>172.01</ele>
        <time>2024-09-04T14:35:46.007Z</time>
      </trkpt>
      <trkpt lat="50.42517" lon="2.6171">
        <ele>171.81</ele>
        <time>2024-09-04T14:35:51.905Z</time>
      </trkpt>
      <trkpt lat="50.42499" lon="2.61737">
        <ele>171.59</ele>
        <time>2024-09-04T14:35:57.807Z</time>
      </trkpt>
      <trkpt lat="50.42481" lon="2.61765">
        <ele>171.37</ele>
        <time>2024-09-04T14:36:03.713Z</time>
      </trkpt>
      <trkpt lat="50.42464" lon="2.61793">
        <ele>171.17</ele>
        <time>2024-09-04T14:36:09.623Z</time>
      </trkpt>
      <trkpt lat="50.42446" lon="2.61821">
        <ele>170.95</ele>
        <time>2024-09-04T14:36:15.537Z</time>
      </trkpt>
      <trkpt lat="50.42428" lon="2.61849">
        <ele>170.67</ele>
        <time>2024-09-04T14:36:21.455Z</time>
      </trkpt>
      <trkpt lat="50.42409" lon="2.61881">
        <ele>170.39</ele>
        <time>2024-09-04T14:36:27.377Z</time>
      </trkpt>
      <trkpt lat="50.4239" lon="2.61907">
        <ele>170.12</ele>
        <time>2024-09-04T14:36:33.303Z</time>
      </trkpt>
      <trkpt lat="50.42371" lon="2.61934">
        <ele>169.82</ele>
        <time>2024-09-04T14:36:39.233Z</time>
      </trkpt>
      <trkpt lat="50.42353" lon="2.61961">
        <ele>169.5</ele>
        <time>2024-09-04T14:36:45.167Z</time>
      </trkpt>
      <trkpt lat="50.42343" lon="2.61973">
        <ele>169.23</ele>
        <time>2024-09-04T14:36:51.103Z</time>
      </trkpt>
      <trkpt lat="50.42327" lon="2.61994">
        <ele>168.93</ele>
        <time>2024-09-04T14:36:57.043Z</time>
      </trkpt>
      <trkpt lat="50.4231" lon="2.62015">
        <ele>168.67</ele>
        <time>2024-09-04T14:37:02.986Z</time>
      </trkpt>
      <trkpt lat="50.42291" lon="2.62037">
        <ele>168.42</ele>
        <time>2024-09-04T14:37:08.933Z</time>
      </trkpt>
      <trkpt lat="50.42272" lon="2.62059">
        <ele>168.16</ele>
        <time>2024-09-04T14:37:14.884Z</time>
      </trkpt>
      <trkpt lat="50.42257" lon="2.62076">
        <ele>167.93</ele>
        <time>2024-09-04T14:37:20.838Z</time>
      </trkpt>
      <trkpt lat="50.42242" lon="2.62092">
        <ele>167.68</ele>
        <time>2024-09-04T14:37:26.795Z</time>
      </trkpt>
      <trkpt lat="50.4222" lon="2.62118">
        <ele>167.45</ele>
        <time>2024-09-04T14:37:32.756Z</time>
      </trkpt>
      <trkpt lat="50.42198" lon="2.62143">
        <ele>167.23</ele>
        <time>2024-09-04T14:37:38.721Z</time>
      </trkpt>
      <trkpt lat="50.42176" lon="2.62168">
        <ele>167.02</ele>
        <time>2024-09-04T14:37:44.691Z</time>
      </trkpt>
      <trkpt lat="50.42165" lon="2.62182">
        <ele>166.82</ele>
        <time>2024-09-04T14:37:50.663Z</time>
      </trkpt>
      <trkpt lat="50.42161" lon="2.62194">
        <ele>166.62</ele>
        <time>2024-09-04T14:37:56.636Z</time>
      </trkpt>
      <trkpt lat="50.42157" lon="2.62204">
        <ele>166.43</ele>
        <time>2024-09-04T14:38:02.611Z</time>
      </trkpt>
      <trkpt lat="50.42151" lon="2.62232">
        <ele>166.25</ele>
        <time>2024-09-04T14:38:08.589Z</time>
      </trkpt>
      <trkpt lat="50.42145" lon="2.62271">
        <ele>166.1</ele>
        <time>2024-09-04T14:38:14.571Z</time>
      </trkpt>
      <trkpt lat="50.42141" lon="2.62305">
        <ele>165.94</ele>
        <time>2024-09-04T14:38:20.556Z</time>
      </trkpt>
      <trkpt lat="50.42136" lon="2.62339">
        <ele>165.81</ele>
        <time>2024-09-04T14:38:26.545Z</time>
      </trkpt>
      <trkpt lat="50.42132" lon="2.62381">
        <ele>165.68</ele>
        <time>2024-09-04T14:38:32.538Z</time>
      </trkpt>
      <trkpt lat="50.42133" lon="2.62403">
        <ele>165.6</ele>
        <time>2024-09-04T14:38:38.533Z</time>
      </trkpt>
      <trkpt lat="50.42137" lon="2.62444">
        <ele>165.55</ele>
        <time>2024-09-04T14:38:44.533Z</time>
      </trkpt>
      <trkpt lat="50.42143" lon="2.62478">
        <ele>165.55</ele>
        <time>2024-09-04T14:38:50.536Z</time>
      </trkpt>
      <trkpt lat="50.42149" lon="2.62513">
        <ele>165.55</ele>
        <time>2024-09-04T14:38:56.543Z</time>
      </trkpt>
      <trkpt lat="50.42155" lon="2.62543">
        <ele>165.54</ele>
        <time>2024-09-04T14:39:02.553Z</time>
      </trkpt>
      <trkpt lat="50.42161" lon="2.62574">
        <ele>165.55</ele>
        <time>2024-09-04T14:39:08.566Z</time>
      </trkpt>
      <trkpt lat="50.42173" lon="2.62618">
        <ele>165.55</ele>
        <time>2024-09-04T14:39:14.584Z</time>
      </trkpt>
      <trkpt lat="50.42186" lon="2.62661">
        <ele>165.63</ele>
        <time>2024-09-04T14:39:20.607Z</time>
      </trkpt>
      <trkpt lat="50.42198" lon="2.62705">
        <ele>165.74</ele>
        <time>2024-09-04T14:39:26.635Z</time>
      </trkpt>
      <trkpt lat="50.4221" lon="2.62748">
        <ele>165.81</ele>
        <time>2024-09-04T14:39:32.668Z</time>
      </trkpt>
      <trkpt lat="50.42219" lon="2.62791">
        <ele>165.92</ele>
        <time>2024-09-04T14:39:38.706Z</time>
      </trkpt>
      <trkpt lat="50.42223" lon="2.62815">
        <ele>166.08</ele>
        <time>2024-09-04T14:39:44.746Z</time>
      </trkpt>
      <trkpt lat="50.42227" lon="2.62839">
        <ele>166.25</ele>
        <time>2024-09-04T14:39:50.789Z</time>
      </trkpt>
      <trkpt lat="50.42233" lon="2.62878">
        <ele>166.39</ele>
        <time>2024-09-04T14:39:56.836Z</time>
      </trkpt>
      <trkpt lat="50.42239" lon="2.62916">
        <ele>166.55</ele>
        <time>2024-09-04T14:40:02.887Z</time>
      </trkpt>
      <trkpt lat="50.42245" lon="2.62954">
        <ele>166.73</ele>
        <time>2024-09-04T14:40:08.942Z</time>
      </trkpt>
      <trkpt lat="50.42251" lon="2.62992">
        <ele>166.95</ele>
        <time>2024-09-04T14:40:15.001Z</time>
      </trkpt>
      <trkpt lat="50.42257" lon="2.63032">
        <ele>167.15</ele>
        <time>2024-09-04T14:40:21.064Z</time>
      </trkpt>
      <trkpt lat="50.42262" lon="2.63058">
        <ele>167.35</ele>
        <time>2024-09-04T14:40:27.130Z</time>
      </trkpt>
      <trkpt lat="50.42266" lon="2.63083">
        <ele>167.59</ele>
        <time>2024-09-04T14:40:33.198Z</time>
      </trkpt>
      <trkpt lat="50.42274" lon="2.63115">
        <ele>167.79</ele>
        <time>2024-09-04T14:40:39.270Z</time>
      </trkpt>
      <trkpt lat="50.42281" lon="2.63147">
        <ele>168.06</ele>
        <time>2024-09-04T14:40:45.345Z</time>
      </trkpt>
      <trkpt lat="50.42288" lon="2.63179">
        <ele>168.32</ele>
        <time>2024-09-04T14:40:51.424Z</time>
      </trkpt>
      <trkpt lat="50.42298" lon="2.63226">
        <ele>168.64</ele>
        <time>2024-09-04T14:40:57.508Z</time>
      </trkpt>
      <trkpt lat="50.42308" lon="2.63272">
        <ele>168.89</ele>
        <time>2024-09-04T14:41:03.597Z</time>
      </trkpt>
      <trkpt lat="50.42314" lon="2.63298">
        <ele>169.14</ele>
        <time>2024-09-04T14:41:09.689Z</time>
      </trkpt>
      <trkpt lat="50.4232" lon="2.63323">
        <ele>169.41</ele>
        <time>2024-09-04T14:41:15.783Z</time>
      </trkpt>
      <trkpt lat="50.42325" lon="2.63347">
        <ele>169.68</ele>
        <time>2024-09-04T14:41:21.880Z</time>
      </trkpt>
      <trkpt lat="50.42326" lon="2.63361">
        <ele>169.96</ele>
        <time>2024-09-04T14:41:27.978Z</time>
      </trkpt>
      <trkpt lat="50.42325" lon="2.63367">
        <ele>170.21</ele>
        <time>2024-09-04T14:41:34.077Z</time>
      </trkpt>
      <trkpt lat="50.42325" lon="2.63367">
        <ele>170.46</ele>
        <time>2024-09-04T14:41:40.176Z</time>
      </trkpt>
      <trkpt lat="50.42325" lon="2.63367">
        <ele>170.21</ele>
        <time>2024-09-04T14:41:46.275Z</time>
      </trkpt>
      <trkpt lat="50.42323" lon="2.63368">
        <ele>170.95</ele>
        <time>2024-09-04T14:41:52.375Z</time>
      </trkpt>
      <trkpt lat="50.42295" lon="2.63371">
        <ele>171.16</ele>
        <time>2024-09-04T14:41:58.479Z</time>
      </trkpt>
      <trkpt lat="50.42268" lon="2.63374">
        <ele>171.4</ele>
        <time>2024-09-04T14:42:04.587Z</time>
      </trkpt>
      <trkpt lat="50.4224" lon="2.63377">
        <ele>171.65</ele>
        <time>2024-09-04T14:42:10.700Z</time>
      </trkpt>
      <trkpt lat="50.42213" lon="2.6338">
        <ele>171.86</ele>
        <time>2024-09-04T14:42:16.817Z</time>
      </trkpt>
      <trkpt lat="50.42185" lon="2.63384">
        <ele>172.03</ele>
        <time>2024-09-04T14:42:22.939Z</time>
      </trkpt>
      <trkpt lat="50.42157" lon="2.63387">
        <ele>172.27</ele>
        <time>2024-09-04T14:42:29.065Z</time>
      </trkpt>
      <trkpt lat="50.42128" lon="2.63391">
        <ele>172.49</ele>
        <time>2024-09-04T14:42:35.196Z</time>
      </trkpt>
      <trkpt lat="50.42099" lon="2.63394">
        <ele>172.67</ele>
        <time>2024-09-04T14:42:41.332Z</time>
      </trkpt>
      <trkpt lat="50.4207" lon="2.63398">
        <ele>172.81</ele>
        <time>2024-09-04T14:42:47.472Z</time>
      </trkpt>
      <trkpt lat="50.42053" lon="2.634">
        <ele>172.95</ele>
        <time>2024-09-04T14:42:53.615Z</time>
      </trkpt>
      <trkpt lat="50.42036" lon="2.63403">
        <ele>173.09</ele>
        <time>2024-09-04T14:42:59.761Z</time>
      </trkpt>
      <trkpt lat="50.42015" lon="2.63409">
        <ele>173.23</ele>
        <time>2024-09-04T14:43:05.910Z</time>
      </trkpt>
      <trkpt lat="50.41987" lon="2.63423">
        <ele>173.4</ele>
        <time>2024-09-04T14:43:12.064Z</time>
      </trkpt>
      <trkpt lat="50.41959" lon="2.63437">
        <ele>173.5</ele>
        <time>2024-09-04T14:43:18.223Z</time>
      </trkpt>
      <trkpt lat="50.41931" lon="2.63451">
        <ele>173.58</ele>
        <time>2024-09-04T14:43:24.386Z</time>
      </trkpt>
      <trkpt lat="50.41913" lon="2.63457">
        <ele>173.61</ele>
        <time>2024-09-04T14:43:30.552Z</time>
      </trkpt>
      <trkpt lat="50.41888" lon="2.63461">
        <ele>173.58</ele>
        <time>2024-09-04T14:43:36.722Z</time>
      </trkpt>
      <trkpt lat="50.41857" lon="2.6346">
        <ele>173.55</ele>
        <time>2024-09-04T14:43:42.897Z</time>
      </trkpt>
      <trkpt lat="50.41825" lon="2.6346">
        <ele>173.6</ele>
        <time>2024-09-04T14:43:49.077Z</time>
      </trkpt>
      <trkpt lat="50.41794" lon="2.63459">
        <ele>173.61</ele>
        <time>2024-09-04T14:43:55.262Z</time>
      </trkpt>
      <trkpt lat="50.41763" lon="2.63459">
        <ele>173.58</ele>
        <time>2024-09-04T14:44:01.452Z</time>
      </trkpt>
      <trkpt lat="50.41732" lon="2.63459">
        <ele>173.47</ele>
        <time>2024-09-04T14:44:07.647Z</time>
      </trkpt>
      <trkpt lat="50.41713" lon="2.63458">
        <ele>173.39</ele>
        <time>2024-09-04T14:44:13.845Z</time>
      </trkpt>
      <trkpt lat="50.41694" lon="2.63457">
        <ele>173.29</ele>
        <time>2024-09-04T14:44:20.046Z</time>
      </trkpt>
      <trkpt lat="50.41666" lon="2.63454">
        <ele>173.18</ele>
        <time>2024-09-04T14:44:26.252Z</time>
      </trkpt>
      <trkpt lat="50.41638" lon="2.63446">
        <ele>173.09</ele>
        <time>2024-09-04T14:44:32.462Z</time>
      </trkpt>
      <trkpt lat="50.4161" lon="2.63438">
        <ele>172.98</ele>
        <time>2024-09-04T14:44:38.677Z</time>
      </trkpt>
      <trkpt lat="50.41582" lon="2.6343">
        <ele>172.76</ele>
        <time>2024-09-04T14:44:44.897Z</time>
      </trkpt>
      <trkpt lat="50.41554" lon="2.63422">
        <ele>172.51</ele>
        <time>2024-09-04T14:44:51.121Z</time>
      </trkpt>
      <trkpt lat="50.41526" lon="2.63414">
        <ele>172.33</ele>
        <time>2024-09-04T14:44:57.350Z</time>
      </trkpt>
      <trkpt lat="50.41516" lon="2.63412">
        <ele>172.1</ele>
        <time>2024-09-04T14:45:03.580Z</time>
      </trkpt>
      <trkpt lat="50.41504" lon="2.63412">
        <ele>171.85</ele>
        <time>2024-09-04T14:45:09.812Z</time>
      </trkpt>
      <trkpt lat="50.41491" lon="2.63414">
        <ele>171.58</ele>
        <time>2024-09-04T14:45:16.046Z</time>
      </trkpt>
      <trkpt lat="50.41468" lon="2.6342">
        <ele>171.3</ele>
        <time>2024-09-04T14:45:22.284Z</time>
      </trkpt>
      <trkpt lat="50.41448" lon="2.63427">
        <ele>171.05</ele>
        <time>2024-09-04T14:45:28.525Z</time>
      </trkpt>
      <trkpt lat="50.41418" lon="2.63434">
        <ele>170.77</ele>
        <time>2024-09-04T14:45:34.771Z</time>
      </trkpt>
      <trkpt lat="50.41388" lon="2.63442">
        <ele>170.49</ele>
        <time>2024-09-04T14:45:41.022Z</time>
      </trkpt>
      <trkpt lat="50.41367" lon="2.63445">
        <ele>170.22</ele>
        <time>2024-09-04T14:45:47.276Z</time>
      </trkpt>
      <trkpt lat="50.41346" lon="2.63448">
        <ele>169.93</ele>
        <time>2024-09-04T14:45:53.534Z</time>
      </trkpt>
      <trkpt lat="50.41324" lon="2.63452">
        <ele>169.59</ele>
        <time>2024-09-04T14:45:59.795Z</time>
      </trkpt>
      <trkpt lat="50.41308" lon="2.63455">
        <ele>169.22</ele>
        <time>2024-09-04T14:46:06.059Z</time>
      </trkpt>
      <trkpt lat="50.41291" lon="2.63459">
        <ele>168.84</ele>
        <time>2024-09-04T14:46:12.326Z</time>
      </trkpt>
      <trkpt lat="50.41262" lon="2.63462">
        <ele>168.46</ele>
        <time>2024-09-04T14:46:18.597Z</time>
      </trkpt>
      <trkpt lat="50.41232" lon="2.63467">
        <ele>168.05</ele>
        <time>2024-09-04T14:46:24.873Z</time>
      </trkpt>
      <trkpt lat="50.41201" lon="2.63471">
        <ele>167.69</ele>
        <time>2024-09-04T14:46:31.154Z</time>
      </trkpt>
      <trkpt lat="50.41171" lon="2.63476">
        <ele>167.38</ele>
        <time>2024-09-04T14:46:37.440Z</time>
      </trkpt>
      <trkpt lat="50.41149" lon="2.6348">
        <ele>167.06</ele>
        <time>2024-09-04T14:46:43.730Z</time>
      </trkpt>
      <trkpt lat="50.41126" lon="2.63484">
        <ele>166.73</ele>
        <time>2024-09-04T14:46:50.023Z</time>
      </trkpt>
      <trkpt lat="50.4111" lon="2.63486">
        <ele>166.4</ele>
        <time>2024-09-04T14:46:56.319Z</time>
      </trkpt>
      <trkpt lat="50.41094" lon="2.63488">
        <ele>166.07</ele>
        <time>2024-09-04T14:47:02.617Z</time>
      </trkpt>
      <trkpt lat="50.41073" lon="2.63487">
        <ele>165.78</ele>
        <time>2024-09-04T14:47:08.919Z</time>
      </trkpt>
      <trkpt lat="50.41053" lon="2.63481">
        <ele>165.51</ele>
        <time>2024-09-04T14:47:15.224Z</time>
      </trkpt>
      <trkpt lat="50.41034" lon="2.63475">
        <ele>165.24</ele>
        <time>2024-09-04T14:47:21.532Z</time>
      </trkpt>
      <trkpt lat="50.41014" lon="2.6346">
        <ele>164.99</ele>
        <time>2024-09-04T14:47:27.844Z</time>
      </trkpt>
      <trkpt lat="50.40988" lon="2.63437">
        <ele>164.76</ele>
        <time>2024-09-04T14:47:34.160Z</time>
      </trkpt>
      <trkpt lat="50.4097" lon="2.63419">
        <ele>164.52</ele>
        <time>2024-09-04T14:47:40.480Z</time>
      </trkpt>
      <trkpt lat="50.40951" lon="2.63401">
        <ele>164.26</ele>
        <time>2024-09-04T14:47:46.803Z</time>
      </trkpt>
      <trkpt lat="50.40933" lon="2.63383">
        <ele>164.01</ele>
        <time>2024-09-04T14:47:53.130Z</time>
      </trkpt>
      <trkpt lat="50.40915" lon="2.63366">
        <ele>163.78</ele>
        <time>2024-09-04T14:47:59.460Z</time>
      </trkpt>
      <trkpt lat="50.40898" lon="2.63348">
        <ele>163.61</ele>
        <time>2024-09-04T14:48:05.793Z</time>
      </trkpt>
      <trkpt lat="50.40891" lon="2.63342">
        <ele>163.44</ele>
        <time>2024-09-04T14:48:12.128Z</time>
      </trkpt>
      <trkpt lat="50.40881" lon="2.63338">
        <ele>163.26</ele>
        <time>2024-09-04T14:48:18.464Z</time>
      </trkpt>
      <trkpt lat="50.40872" lon="2.63342">
        <ele>163.09</ele>
        <time>2024-09-04T14:48:24.802Z</time>
      </trkpt>
      <trkpt lat="50.4087" lon="2.63343">
        <ele>162.94</ele>
        <time>2024-09-04T14:48:31.140Z</time>
      </trkpt>
      <trkpt lat="50.40862" lon="2.63348">
        <ele>162.81</ele>
        <time>2024-09-04T14:48:37.480Z</time>
      </trkpt>
      <trkpt lat="50.40851" lon="2.63361">
        <ele>162.68</ele>
        <time>2024-09-04T14:48:43.822Z</time>
      </trkpt>
      <trkpt lat="50.40829" lon="2.63391">
        <ele>162.51</ele>
        <time>2024-09-04T14:48:50.168Z</time>
      </trkpt>
      <trkpt lat="50.40807" lon="2.6342">
        <ele>162.39</ele>
        <time>2024-09-04T14:48:56.519Z</time>
      </trkpt>
      <trkpt lat="50.40801" lon="2.6343">
        <ele>162.31</ele>
        <time>2024-09-04T14:49:02.871Z</time>
      </trkpt>
      <trkpt lat="50.40793" lon="2.63443">
        <ele>162.26</ele>
        <time>2024-09-04T14:49:09.225Z</time>
      </trkpt>
      <trkpt lat="50.40775" lon="2.63467">
        <ele>162.21</ele>
        <time>2024-09-04T14:49:15.583Z</time>
      </trkpt>
      <trkpt lat="50.40761" lon="2.63486">
        <ele>162.2</ele>
        <time>2024-09-04T14:49:21.944Z</time>
      </trkpt>
      <trkpt lat="50.40786" lon="2.6351">
        <ele>162.21</ele>
        <time>2024-09-04T14:49:28.310Z</time>
      </trkpt>
      <trkpt lat="50.40799" lon="2.63528">
        <ele>162.24</ele>
        <time>2024-09-04T14:49:34.678Z</time>
      </trkpt>
      <trkpt lat="50.40807" lon="2.63548">
        <ele>162.27</ele>
        <time>2024-09-04T14:49:41.049Z</time>
      </trkpt>
      <trkpt lat="50.4082" lon="2.63584">
        <ele>162.28</ele>
        <time>2024-09-04T14:49:47.424Z</time>
      </trkpt>
      <trkpt lat="50.40833" lon="2.63623">
        <ele>162.29</ele>
        <time>2024-09-04T14:49:53.804Z</time>
      </trkpt>
      <trkpt lat="50.40847" lon="2.63662">
        <ele>162.32</ele>
        <time>2024-09-04T14:50:00.188Z</time>
      </trkpt>
      <trkpt lat="50.4086" lon="2.63701">
        <ele>162.36</ele>
        <time>2024-09-04T14:50:06.577Z</time>
      </trkpt>
      <trkpt lat="50.40873" lon="2.6374">
        <ele>162.41</ele>
        <time>2024-09-04T14:50:12.970Z</time>
      </trkpt>
      <trkpt lat="50.40887" lon="2.63779">
        <ele>162.42</ele>
        <time>2024-09-04T14:50:19.368Z</time>
      </trkpt>
      <trkpt lat="50.409" lon="2.63823">
        <ele>162.5</ele>
        <time>2024-09-04T14:50:25.771Z</time>
      </trkpt>
      <trkpt lat="50.40914" lon="2.63867">
        <ele>162.54</ele>
        <time>2024-09-04T14:50:32.179Z</time>
      </trkpt>
      <trkpt lat="50.40928" lon="2.63911">
        <ele>162.64</ele>
        <time>2024-09-04T14:50:38.592Z</time>
      </trkpt>
      <trkpt lat="50.40941" lon="2.63954">
        <ele>162.74</ele>
        <time>2024-09-04T14:50:45.010Z</time>
      </trkpt>
      <trkpt lat="50.40943" lon="2.63961">
        <ele>162.81</ele>
        <time>2024-09-04T14:50:51.428Z</time>
      </trkpt>
      <trkpt lat="50.40945" lon="2.63965">
        <ele>162.87</ele>
        <time>2024-09-04T14:50:57.847Z</time>
      </trkpt>
      <trkpt lat="50.40955" lon="2.63996">
        <ele>162.94</ele>
        <time>2024-09-04T14:51:04.269Z</time>
      </trkpt>
      <trkpt lat="50.40964" lon="2.64028">
        <ele>163.05</ele>
        <time>2024-09-04T14:51:10.695Z</time>
      </trkpt>
      <trkpt lat="50.40974" lon="2.64059">
        <ele>163.08</ele>
        <time>2024-09-04T14:51:17.125Z</time>
      </trkpt>
      <trkpt lat="50.40981" lon="2.64087">
        <ele>163.1</ele>
        <time>2024-09-04T14:51:23.558Z</time>
      </trkpt>
      <trkpt lat="50.40988" lon="2.64108">
        <ele>163.15</ele>
        <time>2024-09-04T14:51:29.993Z</time>
      </trkpt>
      <trkpt lat="50.40996" lon="2.64137">
        <ele>163.17</ele>
        <time>2024-09-04T14:51:36.431Z</time>
      </trkpt>
      <trkpt lat="50.40997" lon="2.64153">
        <ele>163.2</ele>
        <time>2024-09-04T14:51:42.871Z</time>
      </trkpt>
      <trkpt lat="50.40997" lon="2.64175">
        <ele>163.23</ele>
        <time>2024-09-04T14:51:49.313Z</time>
      </trkpt>
      <trkpt lat="50.40997" lon="2.64224">
        <ele>163.25</ele>
        <time>2024-09-04T14:51:55.760Z</time>
      </trkpt>
      <trkpt lat="50.40998" lon="2.64234">
        <ele>163.26</ele>
        <time>2024-09-04T14:52:02.208Z</time>
      </trkpt>
      <trkpt lat="50.40995" lon="2.64247">
        <ele>163.25</ele>
        <time>2024-09-04T14:52:08.658Z</time>
      </trkpt>
      <trkpt lat="50.40988" lon="2.64264">
        <ele>163.25</ele>
        <time>2024-09-04T14:52:15.110Z</time>
      </trkpt>
      <trkpt lat="50.40981" lon="2.64284">
        <ele>163.26</ele>
        <time>2024-09-04T14:52:21.564Z</time>
      </trkpt>
      <trkpt lat="50.40975" lon="2.64305">
        <ele>163.26</ele>
        <time>2024-09-04T14:52:28.020Z</time>
      </trkpt>
      <trkpt lat="50.40971" lon="2.64332">
        <ele>163.26</ele>
        <time>2024-09-04T14:52:34.479Z</time>
      </trkpt>
      <trkpt lat="50.40968" lon="2.64342">
        <ele>163.25</ele>
        <time>2024-09-04T14:52:40.939Z</time>
      </trkpt>
      <trkpt lat="50.40963" lon="2.6435">
        <ele>163.25</ele>
        <time>2024-09-04T14:52:47.400Z</time>
      </trkpt>
      <trkpt lat="50.40956" lon="2.64353">
        <ele>163.24</ele>
        <time>2024-09-04T14:52:53.863Z</time>
      </trkpt>
      <trkpt lat="50.40933" lon="2.64347">
        <ele>163.23</ele>
        <time>2024-09-04T14:53:00.329Z</time>
      </trkpt>
      <trkpt lat="50.40909" lon="2.64341">
        <ele>163.2</ele>
        <time>2024-09-04T14:53:06.799Z</time>
      </trkpt>
      <trkpt lat="50.40885" lon="2.64335">
        <ele>163.16</ele>
        <time>2024-09-04T14:53:13.273Z</time>
      </trkpt>
      <trkpt lat="50.40867" lon="2.64333">
        <ele>163.14</ele>
        <time>2024-09-04T14:53:19.750Z</time>
      </trkpt>
      <trkpt lat="50.40853" lon="2.64334">
        <ele>163.12</ele>
        <time>2024-09-04T14:53:26.229Z</time>
      </trkpt>
      <trkpt lat="50.40836" lon="2.64345">
        <ele>163.11</ele>
        <time>2024-09-04T14:53:32.711Z</time>
      </trkpt>
      <trkpt lat="50.4081" lon="2.64362">
        <ele>163.13</ele>
        <time>2024-09-04T14:53:39.198Z</time>
      </trkpt>
      <trkpt lat="50.40784" lon="2.64379">
        <ele>163.15</ele>
        <time>2024-09-04T14:53:45.689Z</time>
      </trkpt>
      <trkpt lat="50.40758" lon="2.64395">
        <ele>163.1</ele>
        <time>2024-09-04T14:53:52.185Z</time>
      </trkpt>
      <trkpt lat="50.40732" lon="2.64412">
        <ele>163.02</ele>
        <time>2024-09-04T14:53:58.685Z</time>
      </trkpt>
      <trkpt lat="50.40705" lon="2.64429">
        <ele>162.98</ele>
        <time>2024-09-04T14:54:05.190Z</time>
      </trkpt>
      <trkpt lat="50.40678" lon="2.64449">
        <ele>162.94</ele>
        <time>2024-09-04T14:54:11.700Z</time>
      </trkpt>
      <trkpt lat="50.40656" lon="2.64468">
        <ele>162.92</ele>
        <time>2024-09-04T14:54:18.214Z</time>
      </trkpt>
      <trkpt lat="50.40635" lon="2.64486">
        <ele>162.92</ele>
        <time>2024-09-04T14:54:24.732Z</time>
      </trkpt>
      <trkpt lat="50.40623" lon="2.64496">
        <ele>162.92</ele>
        <time>2024-09-04T14:54:31.252Z</time>
      </trkpt>
      <trkpt lat="50.40615" lon="2.64505">
        <ele>162.89</ele>
        <time>2024-09-04T14:54:37.773Z</time>
      </trkpt>
      <trkpt lat="50.40605" lon="2.64517">
        <ele>162.87</ele>
        <time>2024-09-04T14:54:44.296Z</time>
      </trkpt>
      <trkpt lat="50.40598" lon="2.6453">
        <ele>162.83</ele>
        <time>2024-09-04T14:54:50.821Z</time>
      </trkpt>
      <trkpt lat="50.40586" lon="2.64558">
        <ele>162.81</ele>
        <time>2024-09-04T14:54:57.350Z</time>
      </trkpt>
      <trkpt lat="50.40574" lon="2.6459">
        <ele>162.81</ele>
        <time>2024-09-04T14:55:03.882Z</time>
      </trkpt>
      <trkpt lat="50.40561" lon="2.64622">
        <ele>162.77</ele>
        <time>2024-09-04T14:55:10.418Z</time>
      </trkpt>
      <trkpt lat="50.40546" lon="2.64661">
        <ele>162.77</ele>
        <time>2024-09-04T14:55:16.959Z</time>
      </trkpt>
      <trkpt lat="50.40531" lon="2.647">
        <ele>162.73</ele>
        <time>2024-09-04T14:55:23.505Z</time>
      </trkpt>
      <trkpt lat="50.40516" lon="2.64738">
        <ele>162.66</ele>
        <time>2024-09-04T14:55:30.055Z</time>
      </trkpt>
      <trkpt lat="50.40507" lon="2.64762">
        <ele>162.58</ele>
        <time>2024-09-04T14:55:36.608Z</time>
      </trkpt>
      <trkpt lat="50.40496" lon="2.64791">
        <ele>162.51</ele>
        <time>2024-09-04T14:55:43.164Z</time>
      </trkpt>
      <trkpt lat="50.40486" lon="2.6482">
        <ele>162.44</ele>
        <time>2024-09-04T14:55:49.724Z</time>
      </trkpt>
      <trkpt lat="50.40484" lon="2.6483">
        <ele>162.38</ele>
        <time>2024-09-04T14:55:56.285Z</time>
      </trkpt>
      <trkpt lat="50.40483" lon="2.64843">
        <ele>162.29</ele>
        <time>2024-09-04T14:56:02.847Z</time>
      </trkpt>
      <trkpt lat="50.40483" lon="2.6489">
        <ele>162.15</ele>
        <time>2024-09-04T14:56:09.414Z</time>
      </trkpt>
      <trkpt lat="50.40482" lon="2.64908">
        <ele>162.03</ele>
        <time>2024-09-04T14:56:15.983Z</time>
      </trkpt>
      <trkpt lat="50.40477" lon="2.64934">
        <ele>161.92</ele>
        <time>2024-09-04T14:56:22.555Z</time>
      </trkpt>
      <trkpt lat="50.40474" lon="2.64943">
        <ele>161.83</ele>
        <time>2024-09-04T14:56:29.128Z</time>
      </trkpt>
      <trkpt lat="50.40468" lon="2.64951">
        <ele>161.72</ele>
        <time>2024-09-04T14:56:35.702Z</time>
      </trkpt>
      <trkpt lat="50.40462" lon="2.64958">
        <ele>161.61</ele>
        <time>2024-09-04T14:56:42.277Z</time>
      </trkpt>
      <trkpt lat="50.40453" lon="2.64963">
        <ele>161.49</ele>
        <time>2024-09-04T14:56:48.854Z</time>
      </trkpt>
      <trkpt lat="50.40427" lon="2.64966">
        <ele>161.37</ele>
        <time>2024-09-04T14:56:55.435Z</time>
      </trkpt>
      <trkpt lat="50.40406" lon="2.64969">
        <ele>161.26</ele>
        <time>2024-09-04T14:57:02.019Z</time>
      </trkpt>
      <trkpt lat="50.40379" lon="2.64976">
        <ele>161.15</ele>
        <time>2024-09-04T14:57:08.608Z</time>
      </trkpt>
      <trkpt lat="50.40361" lon="2.64984">
        <ele>161</ele>
        <time>2024-09-04T14:57:15.200Z</time>
      </trkpt>
      <trkpt lat="50.40343" lon="2.64993">
        <ele>160.85</ele>
        <time>2024-09-04T14:57:21.795Z</time>
      </trkpt>
      <trkpt lat="50.40338" lon="2.65027">
        <ele>160.68</ele>
        <time>2024-09-04T14:57:28.393Z</time>
      </trkpt>
      <trkpt lat="50.40334" lon="2.65046">
        <ele>160.51</ele>
        <time>2024-09-04T14:57:34.993Z</time>
      </trkpt>
      <trkpt lat="50.4033" lon="2.65058">
        <ele>160.34</ele>
        <time>2024-09-04T14:57:41.595Z</time>
      </trkpt>
      <trkpt lat="50.40329" lon="2.6507">
        <ele>160.17</ele>
        <time>2024-09-04T14:57:48.198Z</time>
      </trkpt>
      <trkpt lat="50.40327" lon="2.65089">
        <ele>159.98</ele>
        <time>2024-09-04T14:57:54.803Z</time>
      </trkpt>
      <trkpt lat="50.40328" lon="2.65105">
        <ele>159.8</ele>
        <time>2024-09-04T14:58:01.410Z</time>
      </trkpt>
      <trkpt lat="50.40329" lon="2.65133">
        <ele>159.61</ele>
        <time>2024-09-04T14:58:08.019Z</time>
      </trkpt>
      <trkpt lat="50.40331" lon="2.65161">
        <ele>159.47</ele>
        <time>2024-09-04T14:58:14.631Z</time>
      </trkpt>
      <trkpt lat="50.40331" lon="2.65173">
        <ele>159.32</ele>
        <time>2024-09-04T14:58:21.244Z</time>
      </trkpt>
      <trkpt lat="50.40328" lon="2.65186">
        <ele>159.13</ele>
        <time>2024-09-04T14:58:27.859Z</time>
      </trkpt>
      <trkpt lat="50.40325" lon="2.65199">
        <ele>158.95</ele>
        <time>2024-09-04T14:58:34.475Z</time>
      </trkpt>
      <trkpt lat="50.4032" lon="2.65211">
        <ele>158.79</ele>
        <time>2024-09-04T14:58:41.093Z</time>
      </trkpt>
      <trkpt lat="50.40304" lon="2.65247">
        <ele>158.56</ele>
        <time>2024-09-04T14:58:47.715Z</time>
      </trkpt>
      <trkpt lat="50.40288" lon="2.6528">
        <ele>158.41</ele>
        <time>2024-09-04T14:58:54.342Z</time>
      </trkpt>
      <trkpt lat="50.40272" lon="2.65313">
        <ele>158.29</ele>
        <time>2024-09-04T14:59:00.973Z</time>
      </trkpt>
      <trkpt lat="50.40257" lon="2.65345">
        <ele>158.11</ele>
        <time>2024-09-04T14:59:07.608Z</time>
      </trkpt>
      <trkpt lat="50.40242" lon="2.65376">
        <ele>157.87</ele>
        <time>2024-09-04T14:59:14.247Z</time>
      </trkpt>
      <trkpt lat="50.40228" lon="2.65407">
        <ele>157.64</ele>
        <time>2024-09-04T14:59:20.890Z</time>
      </trkpt>
      <trkpt lat="50.40214" lon="2.65438">
        <ele>157.48</ele>
        <time>2024-09-04T14:59:27.537Z</time>
      </trkpt>
      <trkpt lat="50.402" lon="2.65468">
        <ele>157.33</ele>
        <time>2024-09-04T14:59:34.187Z</time>
      </trkpt>
      <trkpt lat="50.40182" lon="2.65507">
        <ele>157.16</ele>
        <time>2024-09-04T14:59:40.842Z</time>
      </trkpt>
      <trkpt lat="50.40164" lon="2.65546">
        <ele>156.98</ele>
        <time>2024-09-04T14:59:47.502Z</time>
      </trkpt>
      <trkpt lat="50.40146" lon="2.65585">
        <ele>156.78</ele>
        <time>2024-09-04T14:59:54.167Z</time>
      </trkpt>
      <trkpt lat="50.40129" lon="2.65624">
        <ele>156.57</ele>
        <time>2024-09-04T15:00:00.837Z</time>
      </trkpt>
      <trkpt lat="50.40111" lon="2.65663">
        <ele>156.39</ele>
        <time>2024-09-04T15:00:07.512Z</time>
      </trkpt>
      <trkpt lat="50.40093" lon="2.65702">
        <ele>156.2</ele>
        <time>2024-09-04T15:00:14.192Z</time>
      </trkpt>
      <trkpt lat="50.40078" lon="2.65736">
        <ele>156</ele>
        <time>2024-09-04T15:00:20.876Z</time>
      </trkpt>
      <trkpt lat="50.40062" lon="2.65769">
        <ele>155.79</ele>
        <time>2024-09-04T15:00:27.564Z</time>
      </trkpt>
      <trkpt lat="50.40047" lon="2.65803">
        <ele>155.61</ele>
        <time>2024-09-04T15:00:34.257Z</time>
      </trkpt>
      <trkpt lat="50.40031" lon="2.65837">
        <ele>155.37</ele>
        <time>2024-09-04T15:00:40.954Z</time>
      </trkpt>
      <trkpt lat="50.40015" lon="2.6587">
        <ele>155.18</ele>
        <time>2024-09-04T15:00:47.655Z</time>
      </trkpt>
      <trkpt lat="50.39999" lon="2.65907">
        <ele>154.98</ele>
        <time>2024-09-04T15:00:54.361Z</time>
      </trkpt>
      <trkpt lat="50.39983" lon="2.65949">
        <ele>154.73</ele>
        <time>2024-09-04T15:01:01.072Z</time>
      </trkpt>
      <trkpt lat="50.39967" lon="2.65991">
        <ele>154.54</ele>
        <time>2024-09-04T15:01:07.788Z</time>
      </trkpt>
      <trkpt lat="50.3995" lon="2.66033">
        <ele>154.31</ele>
        <time>2024-09-04T15:01:14.509Z</time>
      </trkpt>
      <trkpt lat="50.39934" lon="2.66074">
        <ele>154.12</ele>
        <time>2024-09-04T15:01:21.235Z</time>
      </trkpt>
      <trkpt lat="50.39923" lon="2.66105">
        <ele>153.87</ele>
        <time>2024-09-04T15:01:27.964Z</time>
      </trkpt>
      <trkpt lat="50.39912" lon="2.66135">
        <ele>153.62</ele>
        <time>2024-09-04T15:01:34.697Z</time>
      </trkpt>
      <trkpt lat="50.39903" lon="2.6617">
        <ele>153.39</ele>
        <time>2024-09-04T15:01:41.434Z</time>
      </trkpt>
      <trkpt lat="50.39896" lon="2.66208">
        <ele>153.13</ele>
        <time>2024-09-04T15:01:48.175Z</time>
      </trkpt>
      <trkpt lat="50.39888" lon="2.66245">
        <ele>152.86</ele>
        <time>2024-09-04T15:01:54.920Z</time>
      </trkpt>
      <trkpt lat="50.39882" lon="2.66292">
        <ele>152.6</ele>
        <time>2024-09-04T15:02:01.670Z</time>
      </trkpt>
      <trkpt lat="50.39876" lon="2.66339">
        <ele>152.32</ele>
        <time>2024-09-04T15:02:08.425Z</time>
      </trkpt>
      <trkpt lat="50.3987" lon="2.66385">
        <ele>152</ele>
        <time>2024-09-04T15:02:15.184Z</time>
      </trkpt>
      <trkpt lat="50.39864" lon="2.66432">
        <ele>151.77</ele>
        <time>2024-09-04T15:02:21.948Z</time>
      </trkpt>
      <trkpt lat="50.39858" lon="2.66479">
        <ele>151.53</ele>
        <time>2024-09-04T15:02:28.717Z</time>
      </trkpt>
      <trkpt lat="50.39852" lon="2.66524">
        <ele>151.18</ele>
        <time>2024-09-04T15:02:35.491Z</time>
      </trkpt>
      <trkpt lat="50.39847" lon="2.66554">
        <ele>150.9</ele>
        <time>2024-09-04T15:02:42.268Z</time>
      </trkpt>
      <trkpt lat="50.39842" lon="2.66584">
        <ele>150.64</ele>
        <time>2024-09-04T15:02:49.048Z</time>
      </trkpt>
      <trkpt lat="50.39837" lon="2.66609">
        <ele>150.39</ele>
        <time>2024-09-04T15:02:55.831Z</time>
      </trkpt>
      <trkpt lat="50.39831" lon="2.66632">
        <ele>150.17</ele>
        <time>2024-09-04T15:03:02.617Z</time>
      </trkpt>
      <trkpt lat="50.39825" lon="2.66655">
        <ele>149.97</ele>
        <time>2024-09-04T15:03:09.405Z</time>
      </trkpt>
      <trkpt lat="50.39815" lon="2.66692">
        <ele>149.79</ele>
        <time>2024-09-04T15:03:16.197Z</time>
      </trkpt>
      <trkpt lat="50.39805" lon="2.66728">
        <ele>149.5</ele>
        <time>2024-09-04T15:03:22.993Z</time>
      </trkpt>
      <trkpt lat="50.39793" lon="2.66762">
        <ele>149.3</ele>
        <time>2024-09-04T15:03:29.793Z</time>
      </trkpt>
      <trkpt lat="50.39783" lon="2.66781">
        <ele>149.1</ele>
        <time>2024-09-04T15:03:36.596Z</time>
      </trkpt>
      <trkpt lat="50.39769" lon="2.66807">
        <ele>148.92</ele>
        <time>2024-09-04T15:03:43.402Z</time>
      </trkpt>
      <trkpt lat="50.39755" lon="2.66832">
        <ele>148.7</ele>
        <time>2024-09-04T15:03:50.212Z</time>
      </trkpt>
      <trkpt lat="50.39741" lon="2.66858">
        <ele>148.45</ele>
        <time>2024-09-04T15:03:57.025Z</time>
      </trkpt>
      <trkpt lat="50.39726" lon="2.66889">
        <ele>148.21</ele>
        <time>2024-09-04T15:04:03.842Z</time>
      </trkpt>
      <trkpt lat="50.39714" lon="2.66921">
        <ele>147.99</ele>
        <time>2024-09-04T15:04:10.663Z</time>
      </trkpt>
      <trkpt lat="50.39701" lon="2.66953">
        <ele>147.77</ele>
        <time>2024-09-04T15:04:17.488Z</time>
      </trkpt>
      <trkpt lat="50.39688" lon="2.66986">
        <ele>147.57</ele>
        <time>2024-09-04T15:04:24.317Z</time>
      </trkpt>
      <trkpt lat="50.39675" lon="2.67018">
        <ele>147.45</ele>
        <time>2024-09-04T15:04:31.150Z</time>
      </trkpt>
      <trkpt lat="50.39662" lon="2.67052">
        <ele>147.29</ele>
        <time>2024-09-04T15:04:37.987Z</time>
      </trkpt>
      <trkpt lat="50.3965" lon="2.67086">
        <ele>147.13</ele>
        <time>2024-09-04T15:04:44.828Z</time>
      </trkpt>
      <trkpt lat="50.39643" lon="2.67107">
        <ele>146.92</ele>
        <time>2024-09-04T15:04:51.671Z</time>
      </trkpt>
      <trkpt lat="50.39634" lon="2.67137">
        <ele>146.69</ele>
        <time>2024-09-04T15:04:58.517Z</time>
      </trkpt>
      <trkpt lat="50.39624" lon="2.67184">
        <ele>146.42</ele>
        <time>2024-09-04T15:05:05.368Z</time>
      </trkpt>
      <trkpt lat="50.39613" lon="2.6723">
        <ele>146.24</ele>
        <time>2024-09-04T15:05:12.224Z</time>
      </trkpt>
      <trkpt lat="50.39602" lon="2.67276">
        <ele>145.97</ele>
        <time>2024-09-04T15:05:19.086Z</time>
      </trkpt>
      <trkpt lat="50.39592" lon="2.67322">
        <ele>145.7</ele>
        <time>2024-09-04T15:05:25.953Z</time>
      </trkpt>
      <trkpt lat="50.39584" lon="2.67352">
        <ele>145.47</ele>
        <time>2024-09-04T15:05:32.823Z</time>
      </trkpt>
      <trkpt lat="50.39575" lon="2.67385">
        <ele>145.22</ele>
        <time>2024-09-04T15:05:39.696Z</time>
      </trkpt>
      <trkpt lat="50.39563" lon="2.67426">
        <ele>144.95</ele>
        <time>2024-09-04T15:05:46.574Z</time>
      </trkpt>
      <trkpt lat="50.39551" lon="2.67466">
        <ele>144.67</ele>
        <time>2024-09-04T15:05:53.457Z</time>
      </trkpt>
      <trkpt lat="50.39539" lon="2.67507">
        <ele>144.39</ele>
        <time>2024-09-04T15:06:00.344Z</time>
      </trkpt>
      <trkpt lat="50.39527" lon="2.67548">
        <ele>144.1</ele>
        <time>2024-09-04T15:06:07.236Z</time>
      </trkpt>
      <trkpt lat="50.39515" lon="2.67589">
        <ele>143.82</ele>
        <time>2024-09-04T15:06:14.132Z</time>
      </trkpt>
      <trkpt lat="50.39503" lon="2.6763">
        <ele>143.53</ele>
        <time>2024-09-04T15:06:21.033Z</time>
      </trkpt>
      <trkpt lat="50.39492" lon="2.6767">
        <ele>143.26</ele>
        <time>2024-09-04T15:06:27.939Z</time>
      </trkpt>
      <trkpt lat="50.3948" lon="2.6771">
        <ele>142.99</ele>
        <time>2024-09-04T15:06:34.849Z</time>
      </trkpt>
      <trkpt lat="50.3947" lon="2.67744">
        <ele>142.71</ele>
        <time>2024-09-04T15:06:41.763Z</time>
      </trkpt>
      <trkpt lat="50.39462" lon="2.67778">
        <ele>142.38</ele>
        <time>2024-09-04T15:06:48.681Z</time>
      </trkpt>
      <trkpt lat="50.39457" lon="2.67812">
        <ele>142.06</ele>
        <time>2024-09-04T15:06:55.602Z</time>
      </trkpt>
      <trkpt lat="50.39452" lon="2.67846">
        <ele>141.73</ele>
        <time>2024-09-04T15:07:02.527Z</time>
      </trkpt>
      <trkpt lat="50.39446" lon="2.6789">
        <ele>141.39</ele>
        <time>2024-09-04T15:07:09.456Z</time>
      </trkpt>
      <trkpt lat="50.39441" lon="2.67933">
        <ele>141.03</ele>
        <time>2024-09-04T15:07:16.390Z</time>
      </trkpt>
      <trkpt lat="50.39436" lon="2.67967">
        <ele>140.67</ele>
        <time>2024-09-04T15:07:23.327Z</time>
      </trkpt>
      <trkpt lat="50.39432" lon="2.67988">
        <ele>140.33</ele>
        <time>2024-09-04T15:07:30.267Z</time>
      </trkpt>
      <trkpt lat="50.39427" lon="2.68008">
        <ele>139.98</ele>
        <time>2024-09-04T15:07:37.209Z</time>
      </trkpt>
      <trkpt lat="50.39421" lon="2.68031">
        <ele>139.6</ele>
        <time>2024-09-04T15:07:44.153Z</time>
      </trkpt>
      <trkpt lat="50.39411" lon="2.68062">
        <ele>139.25</ele>
        <time>2024-09-04T15:07:51.101Z</time>
      </trkpt>
      <trkpt lat="50.39401" lon="2.68094">
        <ele>138.88</ele>
        <time>2024-09-04T15:07:58.053Z</time>
      </trkpt>
      <trkpt lat="50.39391" lon="2.68125">
        <ele>138.51</ele>
        <time>2024-09-04T15:08:05.008Z</time>
      </trkpt>
      <trkpt lat="50.39386" lon="2.68145">
        <ele>138.17</ele>
        <time>2024-09-04T15:08:11.965Z</time>
      </trkpt>
      <trkpt lat="50.39383" lon="2.68162">
        <ele>137.81</ele>
        <time>2024-09-04T15:08:18.924Z</time>
      </trkpt>
      <trkpt lat="50.39381" lon="2.68177">
        <ele>137.46</ele>
        <time>2024-09-04T15:08:25.885Z</time>
      </trkpt>
      <trkpt lat="50.3938" lon="2.68194">
        <ele>137.1</ele>
        <time>2024-09-04T15:08:32.847Z</time>
      </trkpt>
      <trkpt lat="50.39382" lon="2.68208">
        <ele>136.76</ele>
        <time>2024-09-04T15:08:39.811Z</time>
      </trkpt>
      <trkpt lat="50.3939" lon="2.6825">
        <ele>136.42</ele>
        <time>2024-09-04T15:08:46.779Z</time>
      </trkpt>
      <trkpt lat="50.39392" lon="2.68264">
        <ele>136.1</ele>
        <time>2024-09-04T15:08:53.749Z</time>
      </trkpt>
      <trkpt lat="50.39392" lon="2.68277">
        <ele>135.79</ele>
        <time>2024-09-04T15:09:00.720Z</time>
      </trkpt>
      <trkpt lat="50.39392" lon="2.68293">
        <ele>135.46</ele>
        <time>2024-09-04T15:09:07.693Z</time>
      </trkpt>
      <trkpt lat="50.3939" lon="2.68312">
        <ele>135.09</ele>
        <time>2024-09-04T15:09:14.668Z</time>
      </trkpt>
      <trkpt lat="50.39384" lon="2.68348">
        <ele>134.74</ele>
        <time>2024-09-04T15:09:21.647Z</time>
      </trkpt>
      <trkpt lat="50.39379" lon="2.68385">
        <ele>134.39</ele>
        <time>2024-09-04T15:09:28.630Z</time>
      </trkpt>
      <trkpt lat="50.39373" lon="2.68421">
        <ele>134.03</ele>
        <time>2024-09-04T15:09:35.616Z</time>
      </trkpt>
      <trkpt lat="50.39371" lon="2.6845">
        <ele>133.62</ele>
        <time>2024-09-04T15:09:42.605Z</time>
      </trkpt>
      <trkpt lat="50.3937" lon="2.68475">
        <ele>133.21</ele>
        <time>2024-09-04T15:09:49.597Z</time>
      </trkpt>
      <trkpt lat="50.3937" lon="2.6852">
        <ele>132.8</ele>
        <time>2024-09-04T15:09:56.594Z</time>
      </trkpt>
      <trkpt lat="50.39369" lon="2.68565">
        <ele>132.37</ele>
        <time>2024-09-04T15:10:03.595Z</time>
      </trkpt>
      <trkpt lat="50.39368" lon="2.68611">
        <ele>131.95</ele>
        <time>2024-09-04T15:10:10.601Z</time>
      </trkpt>
      <trkpt lat="50.39368" lon="2.68656">
        <ele>131.56</ele>
        <time>2024-09-04T15:10:17.611Z</time>
      </trkpt>
      <trkpt lat="50.39367" lon="2.68701">
        <ele>131.15</ele>
        <time>2024-09-04T15:10:24.626Z</time>
      </trkpt>
      <trkpt lat="50.39366" lon="2.68747">
        <ele>130.68</ele>
        <time>2024-09-04T15:10:31.646Z</time>
      </trkpt>
      <trkpt lat="50.39365" lon="2.68792">
        <ele>130.15</ele>
        <time>2024-09-04T15:10:38.670Z</time>
      </trkpt>
      <trkpt lat="50.39365" lon="2.68836">
        <ele>129.69</ele>
        <time>2024-09-04T15:10:45.699Z</time>
      </trkpt>
      <trkpt lat="50.39366" lon="2.68862">
        <ele>129.18</ele>
        <time>2024-09-04T15:10:52.731Z</time>
      </trkpt>
      <trkpt lat="50.39366" lon="2.68888">
        <ele>128.65</ele>
        <time>2024-09-04T15:10:59.765Z</time>
      </trkpt>
      <trkpt lat="50.3937" lon="2.68935">
        <ele>128.07</ele>
        <time>2024-09-04T15:11:06.804Z</time>
      </trkpt>
      <trkpt lat="50.39372" lon="2.68961">
        <ele>127.45</ele>
        <time>2024-09-04T15:11:13.846Z</time>
      </trkpt>
      <trkpt lat="50.39374" lon="2.68986">
        <ele>126.81</ele>
        <time>2024-09-04T15:11:20.890Z</time>
      </trkpt>
      <trkpt lat="50.39377" lon="2.69024">
        <ele>126.15</ele>
        <time>2024-09-04T15:11:27.938Z</time>
      </trkpt>
      <trkpt lat="50.39379" lon="2.69063">
        <ele>125.35</ele>
        <time>2024-09-04T15:11:34.990Z</time>
      </trkpt>
      <trkpt lat="50.39382" lon="2.69101">
        <ele>124.54</ele>
        <time>2024-09-04T15:11:42.046Z</time>
      </trkpt>
      <trkpt lat="50.39385" lon="2.69138">
        <ele>123.74</ele>
        <time>2024-09-04T15:11:49.106Z</time>
      </trkpt>
      <trkpt lat="50.39386" lon="2.69173">
        <ele>122.92</ele>
        <time>2024-09-04T15:11:56.170Z</time>
      </trkpt>
      <trkpt lat="50.39386" lon="2.69212">
        <ele>122.12</ele>
        <time>2024-09-04T15:12:03.238Z</time>
      </trkpt>
      <trkpt lat="50.39385" lon="2.69249">
        <ele>121.29</ele>
        <time>2024-09-04T15:12:10.309Z</time>
      </trkpt>
      <trkpt lat="50.39385" lon="2.69285">
        <ele>120.4</ele>
        <time>2024-09-04T15:12:17.384Z</time>
      </trkpt>
      <trkpt lat="50.39384" lon="2.69321">
        <ele>119.45</ele>
        <time>2024-09-04T15:12:24.463Z</time>
      </trkpt>
      <trkpt lat="50.39385" lon="2.69339">
        <ele>118.55</ele>
        <time>2024-09-04T15:12:31.544Z</time>
      </trkpt>
      <trkpt lat="50.39389" lon="2.69357">
        <ele>117.6</ele>
        <time>2024-09-04T15:12:38.627Z</time>
      </trkpt>
      <trkpt lat="50.39397" lon="2.69387">
        <ele>116.65</ele>
        <time>2024-09-04T15:12:45.713Z</time>
      </trkpt>
      <trkpt lat="50.394" lon="2.69394">
        <ele>115.74</ele>
        <time>2024-09-04T15:12:52.800Z</time>
      </trkpt>
      <trkpt lat="50.39407" lon="2.69412">
        <ele>114.79</ele>
        <time>2024-09-04T15:12:59.889Z</time>
      </trkpt>
      <trkpt lat="50.39417" lon="2.6943">
        <ele>113.83</ele>
        <time>2024-09-04T15:13:06.980Z</time>
      </trkpt>
      <trkpt lat="50.39428" lon="2.69445">
        <ele>112.88</ele>
        <time>2024-09-04T15:13:14.074Z</time>
      </trkpt>
      <trkpt lat="50.39438" lon="2.69456">
        <ele>111.95</ele>
        <time>2024-09-04T15:13:21.170Z</time>
      </trkpt>
      <trkpt lat="50.39461" lon="2.69478">
        <ele>111.03</ele>
        <time>2024-09-04T15:13:28.270Z</time>
      </trkpt>
      <trkpt lat="50.39483" lon="2.69499">
        <ele>110.11</ele>
        <time>2024-09-04T15:13:35.374Z</time>
      </trkpt>
      <trkpt lat="50.39506" lon="2.6952">
        <ele>109.22</ele>
        <time>2024-09-04T15:13:42.482Z</time>
      </trkpt>
      <trkpt lat="50.39529" lon="2.69541">
        <ele>108.36</ele>
        <time>2024-09-04T15:13:49.595Z</time>
      </trkpt>
      <trkpt lat="50.39551" lon="2.69562">
        <ele>107.5</ele>
        <time>2024-09-04T15:13:56.712Z</time>
      </trkpt>
      <trkpt lat="50.39573" lon="2.69583">
        <ele>106.73</ele>
        <time>2024-09-04T15:14:03.833Z</time>
      </trkpt>
      <trkpt lat="50.39595" lon="2.69604">
        <ele>105.92</ele>
        <time>2024-09-04T15:14:10.958Z</time>
      </trkpt>
      <trkpt lat="50.39617" lon="2.69625">
        <ele>105.14</ele>
        <time>2024-09-04T15:14:18.087Z</time>
      </trkpt>
      <trkpt lat="50.39626" lon="2.69635">
        <ele>104.45</ele>
        <time>2024-09-04T15:14:25.218Z</time>
      </trkpt>
      <trkpt lat="50.39633" lon="2.69645">
        <ele>103.79</ele>
        <time>2024-09-04T15:14:32.350Z</time>
      </trkpt>
      <trkpt lat="50.39639" lon="2.69658">
        <ele>103.19</ele>
        <time>2024-09-04T15:14:39.484Z</time>
      </trkpt>
      <trkpt lat="50.39642" lon="2.69666">
        <ele>102.62</ele>
        <time>2024-09-04T15:14:46.619Z</time>
      </trkpt>
      <trkpt lat="50.39644" lon="2.69673">
        <ele>102.09</ele>
        <time>2024-09-04T15:14:53.755Z</time>
      </trkpt>
      <trkpt lat="50.39646" lon="2.69681">
        <ele>101.6</ele>
        <time>2024-09-04T15:15:00.892Z</time>
      </trkpt>
      <trkpt lat="50.3965" lon="2.69699">
        <ele>101.16</ele>
        <time>2024-09-04T15:15:08.031Z</time>
      </trkpt>
      <trkpt lat="50.39652" lon="2.69715">
        <ele>100.77</ele>
        <time>2024-09-04T15:15:15.171Z</time>
      </trkpt>
      <trkpt lat="50.39652" lon="2.69728">
        <ele>100.4</ele>
        <time>2024-09-04T15:15:22.313Z</time>
      </trkpt>
      <trkpt lat="50.39652" lon="2.69744">
        <ele>100.03</ele>
        <time>2024-09-04T15:15:29.456Z</time>
      </trkpt>
      <trkpt lat="50.39648" lon="2.69772">
        <ele>99.66</ele>
        <time>2024-09-04T15:15:36.602Z</time>
      </trkpt>
      <trkpt lat="50.39639" lon="2.69819">
        <ele>99.27</ele>
        <time>2024-09-04T15:15:43.753Z</time>
      </trkpt>
      <trkpt lat="50.39629" lon="2.69865">
        <ele>98.99</ele>
        <time>2024-09-04T15:15:50.909Z</time>
      </trkpt>
      <trkpt lat="50.3962" lon="2.69912">
        <ele>98.79</ele>
        <time>2024-09-04T15:15:58.070Z</time>
      </trkpt>
      <trkpt lat="50.3961" lon="2.69949">
        <ele>98.58</ele>
        <time>2024-09-04T15:16:05.235Z</time>
      </trkpt>
      <trkpt lat="50.39596" lon="2.6999">
        <ele>98.36</ele>
        <time>2024-09-04T15:16:12.405Z</time>
      </trkpt>
      <trkpt lat="50.39583" lon="2.70026">
        <ele>98.18</ele>
        <time>2024-09-04T15:16:19.579Z</time>
      </trkpt>
      <trkpt lat="50.39571" lon="2.70061">
        <ele>98.03</ele>
        <time>2024-09-04T15:16:26.757Z</time>
      </trkpt>
      <trkpt lat="50.39558" lon="2.70096">
        <ele>97.96</ele>
        <time>2024-09-04T15:16:33.940Z</time>
      </trkpt>
      <trkpt lat="50.39552" lon="2.70113">
        <ele>97.91</ele>
        <time>2024-09-04T15:16:41.125Z</time>
      </trkpt>
      <trkpt lat="50.39545" lon="2.70133">
        <ele>97.85</ele>
        <time>2024-09-04T15:16:48.312Z</time>
      </trkpt>
      <trkpt lat="50.39536" lon="2.70155">
        <ele>97.81</ele>
        <time>2024-09-04T15:16:55.501Z</time>
      </trkpt>
      <trkpt lat="50.39528" lon="2.70176">
        <ele>97.82</ele>
        <time>2024-09-04T15:17:02.693Z</time>
      </trkpt>
      <trkpt lat="50.39516" lon="2.70204">
        <ele>97.85</ele>
        <time>2024-09-04T15:17:09.888Z</time>
      </trkpt>
      <trkpt lat="50.39503" lon="2.70231">
        <ele>97.91</ele>
        <time>2024-09-04T15:17:17.087Z</time>
      </trkpt>
      <trkpt lat="50.39488" lon="2.70261">
        <ele>97.97</ele>
        <time>2024-09-04T15:17:24.290Z</time>
      </trkpt>
      <trkpt lat="50.39484" lon="2.70269">
        <ele>98.05</ele>
        <time>2024-09-04T15:17:31.494Z</time>
      </trkpt>
      <trkpt lat="50.39466" lon="2.70303">
        <ele>98.13</ele>
        <time>2024-09-04T15:17:38.702Z</time>
      </trkpt>
      <trkpt lat="50.39457" lon="2.70322">
        <ele>98.23</ele>
        <time>2024-09-04T15:17:45.913Z</time>
      </trkpt>
      <trkpt lat="50.39448" lon="2.7034">
        <ele>98.34</ele>
        <time>2024-09-04T15:17:53.126Z</time>
      </trkpt>
      <trkpt lat="50.39441" lon="2.70359">
        <ele>98.45</ele>
        <time>2024-09-04T15:18:00.341Z</time>
      </trkpt>
      <trkpt lat="50.39427" lon="2.70397">
        <ele>98.59</ele>
        <time>2024-09-04T15:18:07.561Z</time>
      </trkpt>
      <trkpt lat="50.39423" lon="2.70409">
        <ele>98.7</ele>
        <time>2024-09-04T15:18:14.782Z</time>
      </trkpt>
      <trkpt lat="50.39418" lon="2.70423">
        <ele>98.81</ele>
        <time>2024-09-04T15:18:22.005Z</time>
      </trkpt>
      <trkpt lat="50.39409" lon="2.7045">
        <ele>98.93</ele>
        <time>2024-09-04T15:18:29.231Z</time>
      </trkpt>
      <trkpt lat="50.394" lon="2.70476">
        <ele>99.03</ele>
        <time>2024-09-04T15:18:36.460Z</time>
      </trkpt>
      <trkpt lat="50.39396" lon="2.70495">
        <ele>99.11</ele>
        <time>2024-09-04T15:18:43.691Z</time>
      </trkpt>
      <trkpt lat="50.39391" lon="2.70531">
        <ele>99.15</ele>
        <time>2024-09-04T15:18:50.926Z</time>
      </trkpt>
      <trkpt lat="50.3939" lon="2.70564">
        <ele>99.13</ele>
        <time>2024-09-04T15:18:58.164Z</time>
      </trkpt>
      <trkpt lat="50.39389" lon="2.70595">
        <ele>99.14</ele>
        <time>2024-09-04T15:19:05.405Z</time>
      </trkpt>
      <trkpt lat="50.39388" lon="2.70608">
        <ele>99.16</ele>
        <time>2024-09-04T15:19:12.648Z</time>
      </trkpt>
      <trkpt lat="50.39385" lon="2.70626">
        <ele>99.19</ele>
        <time>2024-09-04T15:19:19.893Z</time>
      </trkpt>
      <trkpt lat="50.39382" lon="2.70638">
        <ele>99.22</ele>
        <time>2024-09-04T15:19:27.139Z</time>
      </trkpt>
      <trkpt lat="50.39375" lon="2.70658">
        <ele>99.24</ele>
        <time>2024-09-04T15:19:34.387Z</time>
      </trkpt>
      <trkpt lat="50.39358" lon="2.70697">
        <ele>99.24</ele>
        <time>2024-09-04T15:19:41.640Z</time>
      </trkpt>
      <trkpt lat="50.39341" lon="2.70735">
        <ele>99.24</ele>
        <time>2024-09-04T15:19:48.898Z</time>
      </trkpt>
      <trkpt lat="50.39324" lon="2.70766">
        <ele>99.21</ele>
        <time>2024-09-04T15:19:56.160Z</time>
      </trkpt>
      <trkpt lat="50.39306" lon="2.70796">
        <ele>99.16</ele>
        <time>2024-09-04T15:20:03.426Z</time>
      </trkpt>
      <trkpt lat="50.39289" lon="2.70827">
        <ele>99.09</ele>
        <time>2024-09-04T15:20:10.697Z</time>
      </trkpt>
      <trkpt lat="50.39278" lon="2.7085">
        <ele>99.02</ele>
        <time>2024-09-04T15:20:17.970Z</time>
      </trkpt>
      <trkpt lat="50.39265" lon="2.70881">
        <ele>98.94</ele>
        <time>2024-09-04T15:20:25.247Z</time>
      </trkpt>
      <trkpt lat="50.39259" lon="2.70904">
        <ele>98.87</ele>
        <time>2024-09-04T15:20:32.527Z</time>
      </trkpt>
      <trkpt lat="50.39252" lon="2.70928">
        <ele>98.79</ele>
        <time>2024-09-04T15:20:39.809Z</time>
      </trkpt>
      <trkpt lat="50.39248" lon="2.70945">
        <ele>98.7</ele>
        <time>2024-09-04T15:20:47.093Z</time>
      </trkpt>
      <trkpt lat="50.39243" lon="2.70981">
        <ele>98.59</ele>
        <time>2024-09-04T15:20:54.381Z</time>
      </trkpt>
      <trkpt lat="50.39238" lon="2.71016">
        <ele>98.47</ele>
        <time>2024-09-04T15:21:01.673Z</time>
      </trkpt>
      <trkpt lat="50.39232" lon="2.71052">
        <ele>98.35</ele>
        <time>2024-09-04T15:21:08.969Z</time>
      </trkpt>
      <trkpt lat="50.39226" lon="2.71086">
        <ele>98.21</ele>
        <time>2024-09-04T15:21:16.268Z</time>
      </trkpt>
      <trkpt lat="50.39224" lon="2.71101">
        <ele>98.04</ele>
        <time>2024-09-04T15:21:23.569Z</time>
      </trkpt>
      <trkpt lat="50.39218" lon="2.71128">
        <ele>97.84</ele>
        <time>2024-09-04T15:21:30.873Z</time>
      </trkpt>
      <trkpt lat="50.39211" lon="2.71154">
        <ele>97.63</ele>
        <time>2024-09-04T15:21:38.180Z</time>
      </trkpt>
      <trkpt lat="50.39206" lon="2.71169">
        <ele>97.39</ele>
        <time>2024-09-04T15:21:45.488Z</time>
      </trkpt>
      <trkpt lat="50.39197" lon="2.712">
        <ele>97.11</ele>
        <time>2024-09-04T15:21:52.800Z</time>
      </trkpt>
      <trkpt lat="50.39189" lon="2.71225">
        <ele>96.79</ele>
        <time>2024-09-04T15:22:00.115Z</time>
      </trkpt>
      <trkpt lat="50.3918" lon="2.7125">
        <ele>96.45</ele>
        <time>2024-09-04T15:22:07.433Z</time>
      </trkpt>
      <trkpt lat="50.39172" lon="2.71275">
        <ele>96.07</ele>
        <time>2024-09-04T15:22:14.753Z</time>
      </trkpt>
      <trkpt lat="50.39166" lon="2.71297">
        <ele>95.71</ele>
        <time>2024-09-04T15:22:22.076Z</time>
      </trkpt>
      <trkpt lat="50.39163" lon="2.71316">
        <ele>95.33</ele>
        <time>2024-09-04T15:22:29.401Z</time>
      </trkpt>
      <trkpt lat="50.39161" lon="2.71346">
        <ele>94.92</ele>
        <time>2024-09-04T15:22:36.729Z</time>
      </trkpt>
      <trkpt lat="50.39159" lon="2.71388">
        <ele>94.5</ele>
        <time>2024-09-04T15:22:44.061Z</time>
      </trkpt>
      <trkpt lat="50.39157" lon="2.7143">
        <ele>94.06</ele>
        <time>2024-09-04T15:22:51.398Z</time>
      </trkpt>
      <trkpt lat="50.39156" lon="2.71441">
        <ele>93.6</ele>
        <time>2024-09-04T15:22:58.736Z</time>
      </trkpt>
      <trkpt lat="50.39154" lon="2.71451">
        <ele>93.12</ele>
        <time>2024-09-04T15:23:06.075Z</time>
      </trkpt>
      <trkpt lat="50.39151" lon="2.71464">
        <ele>92.63</ele>
        <time>2024-09-04T15:23:13.415Z</time>
      </trkpt>
      <trkpt lat="50.39143" lon="2.71488">
        <ele>92.14</ele>
        <time>2024-09-04T15:23:20.758Z</time>
      </trkpt>
      <trkpt lat="50.39134" lon="2.71521">
        <ele>91.63</ele>
        <time>2024-09-04T15:23:28.105Z</time>
      </trkpt>
      <trkpt lat="50.39128" lon="2.7155">
        <ele>91.1</ele>
        <time>2024-09-04T15:23:35.455Z</time>
      </trkpt>
      <trkpt lat="50.39123" lon="2.71579">
        <ele>90.58</ele>
        <time>2024-09-04T15:23:42.808Z</time>
      </trkpt>
      <trkpt lat="50.39113" lon="2.71624">
        <ele>90</ele>
        <time>2024-09-04T15:23:50.166Z</time>
      </trkpt>
      <trkpt lat="50.39106" lon="2.71653">
        <ele>89.48</ele>
        <time>2024-09-04T15:23:57.527Z</time>
      </trkpt>
      <trkpt lat="50.39095" lon="2.71693">
        <ele>88.94</ele>
        <time>2024-09-04T15:24:04.892Z</time>
      </trkpt>
      <trkpt lat="50.39091" lon="2.71712">
        <ele>88.37</ele>
        <time>2024-09-04T15:24:12.259Z</time>
      </trkpt>
      <trkpt lat="50.39082" lon="2.71749">
        <ele>87.77</ele>
        <time>2024-09-04T15:24:19.631Z</time>
      </trkpt>
      <trkpt lat="50.39072" lon="2.71786">
        <ele>87.18</ele>
        <time>2024-09-04T15:24:27.007Z</time>
      </trkpt>
      <trkpt lat="50.3907" lon="2.71799">
        <ele>86.62</ele>
        <time>2024-09-04T15:24:34.384Z</time>
      </trkpt>
      <trkpt lat="50.3907" lon="2.71814">
        <ele>86.06</ele>
        <time>2024-09-04T15:24:41.762Z</time>
      </trkpt>
      <trkpt lat="50.39071" lon="2.71827">
        <ele>85.51</ele>
        <time>2024-09-04T15:24:49.142Z</time>
      </trkpt>
      <trkpt lat="50.39074" lon="2.71841">
        <ele>84.97</ele>
        <time>2024-09-04T15:24:56.523Z</time>
      </trkpt>
      <trkpt lat="50.39079" lon="2.71857">
        <ele>84.46</ele>
        <time>2024-09-04T15:25:03.906Z</time>
      </trkpt>
      <trkpt lat="50.39084" lon="2.7187">
        <ele>83.97</ele>
        <time>2024-09-04T15:25:11.291Z</time>
      </trkpt>
      <trkpt lat="50.39101" lon="2.71911">
        <ele>83.51</ele>
        <time>2024-09-04T15:25:18.681Z</time>
      </trkpt>
      <trkpt lat="50.39108" lon="2.71937">
        <ele>83.04</ele>
        <time>2024-09-04T15:25:26.074Z</time>
      </trkpt>
      <trkpt lat="50.39115" lon="2.71964">
        <ele>82.59</ele>
        <time>2024-09-04T15:25:33.470Z</time>
      </trkpt>
      <trkpt lat="50.39119" lon="2.71975">
        <ele>82.18</ele>
        <time>2024-09-04T15:25:40.867Z</time>
      </trkpt>
      <trkpt lat="50.39126" lon="2.71989">
        <ele>81.78</ele>
        <time>2024-09-04T15:25:48.266Z</time>
      </trkpt>
      <trkpt lat="50.39129" lon="2.71991">
        <ele>81.42</ele>
        <time>2024-09-04T15:25:55.665Z</time>
      </trkpt>
      <trkpt lat="50.39134" lon="2.71993">
        <ele>81.08</ele>
        <time>2024-09-04T15:26:03.065Z</time>
      </trkpt>
      <trkpt lat="50.3914" lon="2.71993">
        <ele>80.79</ele>
        <time>2024-09-04T15:26:10.466Z</time>
      </trkpt>
      <trkpt lat="50.39167" lon="2.71989">
        <ele>80.53</ele>
        <time>2024-09-04T15:26:17.871Z</time>
      </trkpt>
      <trkpt lat="50.39194" lon="2.71985">
        <ele>80.33</ele>
        <time>2024-09-04T15:26:25.281Z</time>
      </trkpt>
      <trkpt lat="50.3922" lon="2.71981">
        <ele>80.16</ele>
        <time>2024-09-04T15:26:32.695Z</time>
      </trkpt>
      <trkpt lat="50.39232" lon="2.71984">
        <ele>80.03</ele>
        <time>2024-09-04T15:26:40.111Z</time>
      </trkpt>
      <trkpt lat="50.39241" lon="2.71991">
        <ele>79.95</ele>
        <time>2024-09-04T15:26:47.529Z</time>
      </trkpt>
      <trkpt lat="50.39249" lon="2.71999">
        <ele>79.91</ele>
        <time>2024-09-04T15:26:54.948Z</time>
      </trkpt>
      <trkpt lat="50.39255" lon="2.72008">
        <ele>79.93</ele>
        <time>2024-09-04T15:27:02.368Z</time>
      </trkpt>
      <trkpt lat="50.3926" lon="2.72018">
        <ele>80.01</ele>
        <time>2024-09-04T15:27:09.790Z</time>
      </trkpt>
      <trkpt lat="50.39265" lon="2.7203">
        <ele>80.14</ele>
        <time>2024-09-04T15:27:17.213Z</time>
      </trkpt>
      <trkpt lat="50.39267" lon="2.72049">
        <ele>80.31</ele>
        <time>2024-09-04T15:27:24.638Z</time>
      </trkpt>
      <trkpt lat="50.39266" lon="2.72066">
        <ele>80.53</ele>
        <time>2024-09-04T15:27:32.065Z</time>
      </trkpt>
      <trkpt lat="50.39265" lon="2.72096">
        <ele>80.81</ele>
        <time>2024-09-04T15:27:39.495Z</time>
      </trkpt>
      <trkpt lat="50.39269" lon="2.72097">
        <ele>81.13</ele>
        <time>2024-09-04T15:27:46.926Z</time>
      </trkpt>
      <trkpt lat="50.39276" lon="2.72098">
        <ele>81.52</ele>
        <time>2024-09-04T15:27:54.358Z</time>
      </trkpt>
      <trkpt lat="50.39291" lon="2.72107">
        <ele>81.98</ele>
        <time>2024-09-04T15:28:01.792Z</time>
      </trkpt>
      <trkpt lat="50.39308" lon="2.72117">
        <ele>82.52</ele>
        <time>2024-09-04T15:28:09.229Z</time>
      </trkpt>
      <trkpt lat="50.39325" lon="2.72126">
        <ele>83.12</ele>
        <time>2024-09-04T15:28:16.669Z</time>
      </trkpt>
      <trkpt lat="50.39331" lon="2.72126">
        <ele>83.76</ele>
        <time>2024-09-04T15:28:24.110Z</time>
      </trkpt>
      <trkpt lat="50.39341" lon="2.72122">
        <ele>84.47</ele>
        <time>2024-09-04T15:28:31.553Z</time>
      </trkpt>
      <trkpt lat="50.39351" lon="2.7212">
        <ele>85.24</ele>
        <time>2024-09-04T15:28:38.997Z</time>
      </trkpt>
      <trkpt lat="50.3938" lon="2.72122">
        <ele>86.09</ele>
        <time>2024-09-04T15:28:46.446Z</time>
      </trkpt>
      <trkpt lat="50.39385" lon="2.72119">
        <ele>86.98</ele>
        <time>2024-09-04T15:28:53.896Z</time>
      </trkpt>
      <trkpt lat="50.39388" lon="2.72114">
        <ele>87.94</ele>
        <time>2024-09-04T15:29:01.347Z</time>
      </trkpt>
      <trkpt lat="50.3939" lon="2.72104">
        <ele>88.96</ele>
        <time>2024-09-04T15:29:08.799Z</time>
      </trkpt>
      <trkpt lat="50.39393" lon="2.72091">
        <ele>90.06</ele>
        <time>2024-09-04T15:29:16.252Z</time>
      </trkpt>
      <trkpt lat="50.39399" lon="2.72043">
        <ele>91.29</ele>
        <time>2024-09-04T15:29:23.710Z</time>
      </trkpt>
      <trkpt lat="50.39405" lon="2.71995">
        <ele>92.56</ele>
        <time>2024-09-04T15:29:31.173Z</time>
      </trkpt>
      <trkpt lat="50.39411" lon="2.71947">
        <ele>93.89</ele>
        <time>2024-09-04T15:29:38.641Z</time>
      </trkpt>
      <trkpt lat="50.39415" lon="2.71908">
        <ele>95.24</ele>
        <time>2024-09-04T15:29:46.113Z</time>
      </trkpt>
      <trkpt lat="50.39419" lon="2.71869">
        <ele>96.66</ele>
        <time>2024-09-04T15:29:53.589Z</time>
      </trkpt>
      <trkpt lat="50.39421" lon="2.71857">
        <ele>98.1</ele>
        <time>2024-09-04T15:30:01.066Z</time>
      </trkpt>
      <trkpt lat="50.39425" lon="2.71825">
        <ele>99.65</ele>
        <time>2024-09-04T15:30:08.547Z</time>
      </trkpt>
      <trkpt lat="50.39428" lon="2.71802">
        <ele>101.21</ele>
        <time>2024-09-04T15:30:16.030Z</time>
      </trkpt>
      <trkpt lat="50.39433" lon="2.71781">
        <ele>102.84</ele>
        <time>2024-09-04T15:30:23.515Z</time>
      </trkpt>
      <trkpt lat="50.39443" lon="2.71752">
        <ele>104.54</ele>
        <time>2024-09-04T15:30:31.004Z</time>
      </trkpt>
      <trkpt lat="50.39447" lon="2.71736">
        <ele>106.28</ele>
        <time>2024-09-04T15:30:38.494Z</time>
      </trkpt>
      <trkpt lat="50.39449" lon="2.71724">
        <ele>108.03</ele>
        <time>2024-09-04T15:30:45.986Z</time>
      </trkpt>
      <trkpt lat="50.39452" lon="2.717">
        <ele>109.82</ele>
        <time>2024-09-04T15:30:53.480Z</time>
      </trkpt>
      <trkpt lat="50.39454" lon="2.71692">
        <ele>111.62</ele>
        <time>2024-09-04T15:31:00.975Z</time>
      </trkpt>
      <trkpt lat="50.39457" lon="2.71688">
        <ele>113.46</ele>
        <time>2024-09-04T15:31:08.471Z</time>
      </trkpt>
      <trkpt lat="50.3946" lon="2.71685">
        <ele>115.34</ele>
        <time>2024-09-04T15:31:15.967Z</time>
      </trkpt>
      <trkpt lat="50.39467" lon="2.71682">
        <ele>117.29</ele>
        <time>2024-09-04T15:31:23.465Z</time>
      </trkpt>
      <trkpt lat="50.39488" lon="2.71682">
        <ele>119.34</ele>
        <time>2024-09-04T15:31:30.966Z</time>
      </trkpt>
      <trkpt lat="50.3951" lon="2.71685">
        <ele>121.39</ele>
        <time>2024-09-04T15:31:38.470Z</time>
      </trkpt>
      <trkpt lat="50.39534" lon="2.7169">
        <ele>123.41</ele>
        <time>2024-09-04T15:31:45.978Z</time>
      </trkpt>
      <trkpt lat="50.39559" lon="2.71694">
        <ele>125.43</ele>
        <time>2024-09-04T15:31:53.490Z</time>
      </trkpt>
      <trkpt lat="50.39576" lon="2.71696">
        <ele>127.45</ele>
        <time>2024-09-04T15:32:01.005Z</time>
      </trkpt>
      <trkpt lat="50.39599" lon="2.71695">
        <ele>129.49</ele>
        <time>2024-09-04T15:32:08.524Z</time>
      </trkpt>
      <trkpt lat="50.39604" lon="2.71693">
        <ele>131.51</ele>
        <time>2024-09-04T15:32:16.044Z</time>
      </trkpt>
      <trkpt lat="50.3962" lon="2.71682">
        <ele>133.6</ele>
        <time>2024-09-04T15:32:23.566Z</time>
      </trkpt>
      <trkpt lat="50.39634" lon="2.71669">
        <ele>135.67</ele>
        <time>2024-09-04T15:32:31.091Z</time>
      </trkpt>
      <trkpt lat="50.3965" lon="2.71651">
        <ele>137.77</ele>
        <time>2024-09-04T15:32:38.619Z</time>
      </trkpt>
      <trkpt lat="50.39672" lon="2.71619">
        <ele>139.95</ele>
        <time>2024-09-04T15:32:46.152Z</time>
      </trkpt>
      <trkpt lat="50.39693" lon="2.71587">
        <ele>142.03</ele>
        <time>2024-09-04T15:32:53.690Z</time>
      </trkpt>
      <trkpt lat="50.39703" lon="2.71573">
        <ele>144.05</ele>
        <time>2024-09-04T15:33:01.230Z</time>
      </trkpt>
      <trkpt lat="50.39715" lon="2.71561">
        <ele>146.01</ele>
        <time>2024-09-04T15:33:08.772Z</time>
      </trkpt>
      <trkpt lat="50.39725" lon="2.71552">
        <ele>147.93</ele>
        <time>2024-09-04T15:33:16.316Z</time>
      </trkpt>
      <trkpt lat="50.39739" lon="2.71545">
        <ele>149.83</ele>
        <time>2024-09-04T15:33:23.862Z</time>
      </trkpt>
      <trkpt lat="50.39765" lon="2.71535">
        <ele>151.73</ele>
        <time>2024-09-04T15:33:31.413Z</time>
      </trkpt>
      <trkpt lat="50.3979" lon="2.71524">
        <ele>153.56</ele>
        <time>2024-09-04T15:33:38.968Z</time>
      </trkpt>
      <trkpt lat="50.39814" lon="2.71516">
        <ele>155.46</ele>
        <time>2024-09-04T15:33:46.527Z</time>
      </trkpt>
      <trkpt lat="50.39839" lon="2.71507">
        <ele>157.26</ele>
        <time>2024-09-04T15:33:54.090Z</time>
      </trkpt>
      <trkpt lat="50.39851" lon="2.71501">
        <ele>158.96</ele>
        <time>2024-09-04T15:34:01.655Z</time>
      </trkpt>
      <trkpt lat="50.39859" lon="2.71496">
        <ele>160.53</ele>
        <time>2024-09-04T15:34:09.221Z</time>
      </trkpt>
      <trkpt lat="50.39867" lon="2.71489">
        <ele>162.01</ele>
        <time>2024-09-04T15:34:16.789Z</time>
      </trkpt>
      <trkpt lat="50.39891" lon="2.71462">
        <ele>163.52</ele>
        <time>2024-09-04T15:34:24.361Z</time>
      </trkpt>
      <trkpt lat="50.39915" lon="2.71436">
        <ele>164.99</ele>
        <time>2024-09-04T15:34:31.938Z</time>
      </trkpt>
      <trkpt lat="50.39929" lon="2.71419">
        <ele>166.31</ele>
        <time>2024-09-04T15:34:39.518Z</time>
      </trkpt>
      <trkpt lat="50.39943" lon="2.71401">
        <ele>167.57</ele>
        <time>2024-09-04T15:34:47.101Z</time>
      </trkpt>
      <trkpt lat="50.39954" lon="2.71392">
        <ele>168.72</ele>
        <time>2024-09-04T15:34:54.686Z</time>
      </trkpt>
      <trkpt lat="50.39961" lon="2.71388">
        <ele>169.8</ele>
        <time>2024-09-04T15:35:02.272Z</time>
      </trkpt>
      <trkpt lat="50.39965" lon="2.71386">
        <ele>170.79</ele>
        <time>2024-09-04T15:35:09.859Z</time>
      </trkpt>
      <trkpt lat="50.39969" lon="2.71387">
        <ele>171.71</ele>
        <time>2024-09-04T15:35:17.446Z</time>
      </trkpt>
      <trkpt lat="50.39973" lon="2.71388">
        <ele>172.55</ele>
        <time>2024-09-04T15:35:25.034Z</time>
      </trkpt>
      <trkpt lat="50.39977" lon="2.71392">
        <ele>173.32</ele>
        <time>2024-09-04T15:35:32.623Z</time>
      </trkpt>
      <trkpt lat="50.39982" lon="2.71386">
        <ele>174.03</ele>
        <time>2024-09-04T15:35:40.213Z</time>
      </trkpt>
      <trkpt lat="50.39977" lon="2.71392">
        <ele>173.32</ele>
        <time>2024-09-04T15:35:47.804Z</time>
      </trkpt>
      <trkpt lat="50.39967" lon="2.71411">
        <ele>175.1</ele>
        <time>2024-09-04T15:35:55.397Z</time>
      </trkpt>
      <trkpt lat="50.39965" lon="2.71419">
        <ele>175.57</ele>
        <time>2024-09-04T15:36:02.991Z</time>
      </trkpt>
      <trkpt lat="50.39961" lon="2.71431">
        <ele>175.99</ele>
        <time>2024-09-04T15:36:10.587Z</time>
      </trkpt>
      <trkpt lat="50.39954" lon="2.71463">
        <ele>176.34</ele>
        <time>2024-09-04T15:36:18.186Z</time>
      </trkpt>
      <trkpt lat="50.39947" lon="2.71495">
        <ele>176.65</ele>
        <time>2024-09-04T15:36:25.789Z</time>
      </trkpt>
      <trkpt lat="50.39943" lon="2.71528">
        <ele>176.93</ele>
        <time>2024-09-04T15:36:33.395Z</time>
      </trkpt>
      <trkpt lat="50.3994" lon="2.71572">
        <ele>177.15</ele>
        <time>2024-09-04T15:36:41.005Z</time>
      </trkpt>
      <trkpt lat="50.39939" lon="2.71616">
        <ele>177.18</ele>
        <time>2024-09-04T15:36:48.620Z</time>
      </trkpt>
      <trkpt lat="50.3994" lon="2.71643">
        <ele>177.21</ele>
        <time>2024-09-04T15:36:56.238Z</time>
      </trkpt>
      <trkpt lat="50.39941" lon="2.71656">
        <ele>177.26</ele>
        <time>2024-09-04T15:37:03.857Z</time>
      </trkpt>
      <trkpt lat="50.39944" lon="2.71671">
        <ele>177.28</ele>
        <time>2024-09-04T15:37:11.478Z</time>
      </trkpt>
      <trkpt lat="50.3995" lon="2.71693">
        <ele>177.31</ele>
        <time>2024-09-04T15:37:19.101Z</time>
      </trkpt>
      <trkpt lat="50.39958" lon="2.71717">
        <ele>177.33</ele>
        <time>2024-09-04T15:37:26.727Z</time>
      </trkpt>
      <trkpt lat="50.39966" lon="2.71741">
        <ele>177.29</ele>
        <time>2024-09-04T15:37:34.356Z</time>
      </trkpt>
      <trkpt lat="50.39969" lon="2.71753">
        <ele>177.19</ele>
        <time>2024-09-04T15:37:41.986Z</time>
      </trkpt>
      <trkpt lat="50.39976" lon="2.71783">
        <ele>177.09</ele>
        <time>2024-09-04T15:37:49.619Z</time>
      </trkpt>
      <trkpt lat="50.39982" lon="2.71812">
        <ele>176.93</ele>
        <time>2024-09-04T15:37:57.255Z</time>
      </trkpt>
      <trkpt lat="50.39989" lon="2.71856">
        <ele>176.67</ele>
        <time>2024-09-04T15:38:04.896Z</time>
      </trkpt>
      <trkpt lat="50.39992" lon="2.7188">
        <ele>176.43</ele>
        <time>2024-09-04T15:38:12.540Z</time>
      </trkpt>
      <trkpt lat="50.39995" lon="2.71908">
        <ele>176.23</ele>
        <time>2024-09-04T15:38:20.186Z</time>
      </trkpt>
      <trkpt lat="50.39998" lon="2.71944">
        <ele>176.01</ele>
        <time>2024-09-04T15:38:27.836Z</time>
      </trkpt>
      <trkpt lat="50.4" lon="2.7197">
        <ele>175.75</ele>
        <time>2024-09-04T15:38:35.489Z</time>
      </trkpt>
      <trkpt lat="50.40001" lon="2.72">
        <ele>175.48</ele>
        <time>2024-09-04T15:38:43.145Z</time>
      </trkpt>
      <trkpt lat="50.40001" lon="2.72017">
        <ele>175.16</ele>
        <time>2024-09-04T15:38:50.803Z</time>
      </trkpt>
      <trkpt lat="50.39998" lon="2.7205">
        <ele>174.81</ele>
        <time>2024-09-04T15:38:58.464Z</time>
      </trkpt>
      <trkpt lat="50.39996" lon="2.72083">
        <ele>174.42</ele>
        <time>2024-09-04T15:39:06.129Z</time>
      </trkpt>
      <trkpt lat="50.39993" lon="2.72116">
        <ele>173.97</ele>
        <time>2024-09-04T15:39:13.797Z</time>
      </trkpt>
      <trkpt lat="50.39991" lon="2.72147">
        <ele>173.49</ele>
        <time>2024-09-04T15:39:21.468Z</time>
      </trkpt>
      <trkpt lat="50.39988" lon="2.72176">
        <ele>173.01</ele>
        <time>2024-09-04T15:39:29.142Z</time>
      </trkpt>
      <trkpt lat="50.39985" lon="2.72195">
        <ele>172.5</ele>
        <time>2024-09-04T15:39:36.818Z</time>
      </trkpt>
      <trkpt lat="50.39982" lon="2.72207">
        <ele>171.99</ele>
        <time>2024-09-04T15:39:44.495Z</time>
      </trkpt>
      <trkpt lat="50.39978" lon="2.72222">
        <ele>171.45</ele>
        <time>2024-09-04T15:39:52.174Z</time>
      </trkpt>
      <trkpt lat="50.39965" lon="2.72253">
        <ele>170.85</ele>
        <time>2024-09-04T15:39:59.857Z</time>
      </trkpt>
      <trkpt lat="50.39949" lon="2.72286">
        <ele>170.29</ele>
        <time>2024-09-04T15:40:07.544Z</time>
      </trkpt>
      <trkpt lat="50.3994" lon="2.72307">
        <ele>169.69</ele>
        <time>2024-09-04T15:40:15.234Z</time>
      </trkpt>
      <trkpt lat="50.3993" lon="2.72328">
        <ele>169.1</ele>
        <time>2024-09-04T15:40:22.926Z</time>
      </trkpt>
      <trkpt lat="50.39916" lon="2.72356">
        <ele>168.5</ele>
        <time>2024-09-04T15:40:30.622Z</time>
      </trkpt>
      <trkpt lat="50.39903" lon="2.72384">
        <ele>167.83</ele>
        <time>2024-09-04T15:40:38.322Z</time>
      </trkpt>
      <trkpt lat="50.3989" lon="2.72412">
        <ele>167.12</ele>
        <time>2024-09-04T15:40:46.025Z</time>
      </trkpt>
      <trkpt lat="50.39886" lon="2.72423">
        <ele>166.44</ele>
        <time>2024-09-04T15:40:53.729Z</time>
      </trkpt>
      <trkpt lat="50.39884" lon="2.72436">
        <ele>165.69</ele>
        <time>2024-09-04T15:41:01.435Z</time>
      </trkpt>
      <trkpt lat="50.39883" lon="2.7245">
        <ele>164.92</ele>
        <time>2024-09-04T15:41:09.142Z</time>
      </trkpt>
      <trkpt lat="50.39883" lon="2.72457">
        <ele>164.15</ele>
        <time>2024-09-04T15:41:16.850Z</time>
      </trkpt>
      <trkpt lat="50.39884" lon="2.72473">
        <ele>163.35</ele>
        <time>2024-09-04T15:41:24.560Z</time>
      </trkpt>
      <trkpt lat="50.39888" lon="2.7249">
        <ele>162.51</ele>
        <time>2024-09-04T15:41:32.271Z</time>
      </trkpt>
      <trkpt lat="50.39899" lon="2.72524">
        <ele>161.65</ele>
        <time>2024-09-04T15:41:39.986Z</time>
      </trkpt>
      <trkpt lat="50.39912" lon="2.72557">
        <ele>160.82</ele>
        <time>2024-09-04T15:41:47.705Z</time>
      </trkpt>
      <trkpt lat="50.39924" lon="2.72589">
        <ele>159.95</ele>
        <time>2024-09-04T15:41:55.428Z</time>
      </trkpt>
      <trkpt lat="50.39937" lon="2.72621">
        <ele>159</ele>
        <time>2024-09-04T15:42:03.155Z</time>
      </trkpt>
      <trkpt lat="50.3995" lon="2.72653">
        <ele>158.03</ele>
        <time>2024-09-04T15:42:10.886Z</time>
      </trkpt>
      <trkpt lat="50.39965" lon="2.72689">
        <ele>157.07</ele>
        <time>2024-09-04T15:42:18.621Z</time>
      </trkpt>
      <trkpt lat="50.39979" lon="2.72724">
        <ele>156.07</ele>
        <time>2024-09-04T15:42:26.360Z</time>
      </trkpt>
      <trkpt lat="50.39994" lon="2.72759">
        <ele>155</ele>
        <time>2024-09-04T15:42:34.104Z</time>
      </trkpt>
      <trkpt lat="50.40003" lon="2.72784">
        <ele>153.91</ele>
        <time>2024-09-04T15:42:41.851Z</time>
      </trkpt>
      <trkpt lat="50.40013" lon="2.72809">
        <ele>152.81</ele>
        <time>2024-09-04T15:42:49.601Z</time>
      </trkpt>
      <trkpt lat="50.40026" lon="2.7285">
        <ele>151.69</ele>
        <time>2024-09-04T15:42:57.355Z</time>
      </trkpt>
      <trkpt lat="50.40027" lon="2.72853">
        <ele>150.6</ele>
        <time>2024-09-04T15:43:05.110Z</time>
      </trkpt>
      <trkpt lat="50.40033" lon="2.72885">
        <ele>149.44</ele>
        <time>2024-09-04T15:43:12.868Z</time>
      </trkpt>
      <trkpt lat="50.4004" lon="2.72928">
        <ele>148.28</ele>
        <time>2024-09-04T15:43:20.631Z</time>
      </trkpt>
      <trkpt lat="50.40042" lon="2.72956">
        <ele>147.1</ele>
        <time>2024-09-04T15:43:28.397Z</time>
      </trkpt>
      <trkpt lat="50.40044" lon="2.72996">
        <ele>145.89</ele>
        <time>2024-09-04T15:43:36.167Z</time>
      </trkpt>
      <trkpt lat="50.40048" lon="2.73035">
        <ele>144.63</ele>
        <time>2024-09-04T15:43:43.941Z</time>
      </trkpt>
      <trkpt lat="50.40054" lon="2.73066">
        <ele>143.39</ele>
        <time>2024-09-04T15:43:51.718Z</time>
      </trkpt>
      <trkpt lat="50.40061" lon="2.73097">
        <ele>142.14</ele>
        <time>2024-09-04T15:43:59.498Z</time>
      </trkpt>
      <trkpt lat="50.40064" lon="2.73116">
        <ele>140.94</ele>
        <time>2024-09-04T15:44:07.280Z</time>
      </trkpt>
      <trkpt lat="50.40065" lon="2.73135">
        <ele>139.74</ele>
        <time>2024-09-04T15:44:15.064Z</time>
      </trkpt>
      <trkpt lat="50.40065" lon="2.73179">
        <ele>138.49</ele>
        <time>2024-09-04T15:44:22.853Z</time>
      </trkpt>
      <trkpt lat="50.40065" lon="2.73223">
        <ele>137.2</ele>
        <time>2024-09-04T15:44:30.646Z</time>
      </trkpt>
      <trkpt lat="50.40064" lon="2.73261">
        <ele>135.91</ele>
        <time>2024-09-04T15:44:38.443Z</time>
      </trkpt>
      <trkpt lat="50.40063" lon="2.733">
        <ele>134.67</ele>
        <time>2024-09-04T15:44:46.244Z</time>
      </trkpt>
      <trkpt lat="50.40063" lon="2.73338">
        <ele>133.51</ele>
        <time>2024-09-04T15:44:54.049Z</time>
      </trkpt>
      <trkpt lat="50.40061" lon="2.73356">
        <ele>132.39</ele>
        <time>2024-09-04T15:45:01.856Z</time>
      </trkpt>
      <trkpt lat="50.40058" lon="2.73376">
        <ele>131.25</ele>
        <time>2024-09-04T15:45:09.665Z</time>
      </trkpt>
      <trkpt lat="50.40048" lon="2.73418">
        <ele>130.03</ele>
        <time>2024-09-04T15:45:17.479Z</time>
      </trkpt>
      <trkpt lat="50.40036" lon="2.7346">
        <ele>128.88</ele>
        <time>2024-09-04T15:45:25.297Z</time>
      </trkpt>
      <trkpt lat="50.40024" lon="2.73501">
        <ele>127.79</ele>
        <time>2024-09-04T15:45:33.120Z</time>
      </trkpt>
      <trkpt lat="50.40019" lon="2.73515">
        <ele>126.7</ele>
        <time>2024-09-04T15:45:40.945Z</time>
      </trkpt>
      <trkpt lat="50.40014" lon="2.73537">
        <ele>125.63</ele>
        <time>2024-09-04T15:45:48.772Z</time>
      </trkpt>
      <trkpt lat="50.40013" lon="2.73551">
        <ele>124.56</ele>
        <time>2024-09-04T15:45:56.600Z</time>
      </trkpt>
      <trkpt lat="50.40014" lon="2.73563">
        <ele>123.52</ele>
        <time>2024-09-04T15:46:04.430Z</time>
      </trkpt>
      <trkpt lat="50.40017" lon="2.73586">
        <ele>122.49</ele>
        <time>2024-09-04T15:46:12.262Z</time>
      </trkpt>
      <trkpt lat="50.40021" lon="2.73603">
        <ele>121.49</ele>
        <time>2024-09-04T15:46:20.096Z</time>
      </trkpt>
      <trkpt lat="50.40028" lon="2.73623">
        <ele>120.49</ele>
        <time>2024-09-04T15:46:27.932Z</time>
      </trkpt>
      <trkpt lat="50.40031" lon="2.73643">
        <ele>119.49</ele>
        <time>2024-09-04T15:46:35.770Z</time>
      </trkpt>
      <trkpt lat="50.40032" lon="2.73659">
        <ele>118.5</ele>
        <time>2024-09-04T15:46:43.610Z</time>
      </trkpt>
      <trkpt lat="50.40032" lon="2.73675">
        <ele>117.51</ele>
        <time>2024-09-04T15:46:51.452Z</time>
      </trkpt>
      <trkpt lat="50.40031" lon="2.7369">
        <ele>116.53</ele>
        <time>2024-09-04T15:46:55.415Z</time>
      </trkpt>
      <trkpt lat="50.40031" lon="2.7369">
        <ele>115.25</ele>
        <time>2024-09-04T15:46:55.415Z</time>
      </trkpt>
      <trkpt lat="50.40029" lon="2.73705">
        <ele>115</ele>
        <time>2024-09-04T15:46:59.346Z</time>
      </trkpt>
      <trkpt lat="50.40026" lon="2.73721">
        <ele>114.5</ele>
        <time>2024-09-04T15:47:03.492Z</time>
      </trkpt>
      <trkpt lat="50.40015" lon="2.73768">
        <ele>113.5</ele>
        <time>2024-09-04T15:47:16.334Z</time>
      </trkpt>
      <trkpt lat="50.40013" lon="2.73785">
        <ele>113</ele>
        <time>2024-09-04T15:47:20.827Z</time>
      </trkpt>
      <trkpt lat="50.40012" lon="2.73797">
        <ele>112.5</ele>
        <time>2024-09-04T15:47:23.920Z</time>
      </trkpt>
      <trkpt lat="50.40013" lon="2.73831">
        <ele>111.25</ele>
        <time>2024-09-04T15:47:32.425Z</time>
      </trkpt>
      <trkpt lat="50.40016" lon="2.73855">
        <ele>110.5</ele>
        <time>2024-09-04T15:47:38.745Z</time>
      </trkpt>
      <trkpt lat="50.40022" lon="2.73877">
        <ele>109.75</ele>
        <time>2024-09-04T15:47:44.870Z</time>
      </trkpt>
      <trkpt lat="50.40032" lon="2.73903">
        <ele>108.5</ele>
        <time>2024-09-04T15:47:52.488Z</time>
      </trkpt>
      <trkpt lat="50.40038" lon="2.73914">
        <ele>108</ele>
        <time>2024-09-04T15:47:56.227Z</time>
      </trkpt>
      <trkpt lat="50.40049" lon="2.73928">
        <ele>107.25</ele>
        <time>2024-09-04T15:48:01.967Z</time>
      </trkpt>
      <trkpt lat="50.4006" lon="2.73954">
        <ele>106</ele>
        <time>2024-09-04T15:48:09.785Z</time>
      </trkpt>
      <trkpt lat="50.40066" lon="2.73961">
        <ele>105.75</ele>
        <time>2024-09-04T15:48:12.746Z</time>
      </trkpt>
      <trkpt lat="50.40067" lon="2.73962">
        <ele>105.5</ele>
        <time>2024-09-04T15:48:13.526Z</time>
      </trkpt>
      <trkpt lat="50.40054" lon="2.73989">
        <ele>105.5</ele>
        <time>2024-09-04T15:48:22.059Z</time>
      </trkpt>
      <trkpt lat="50.40043" lon="2.74011">
        <ele>105.25</ele>
        <time>2024-09-04T15:48:29.474Z</time>
      </trkpt>
      <trkpt lat="50.40019" lon="2.74056">
        <ele>104</ele>
        <time>2024-09-04T15:48:44.288Z</time>
      </trkpt>
      <trkpt lat="50.40011" lon="2.74071">
        <ele>103.75</ele>
        <time>2024-09-04T15:48:49.215Z</time>
      </trkpt>
      <trkpt lat="50.40004" lon="2.74083">
        <ele>103.75</ele>
        <time>2024-09-04T15:48:53.403Z</time>
      </trkpt>
      <trkpt lat="50.4" lon="2.74094">
        <ele>103.25</ele>
        <time>2024-09-04T15:48:56.544Z</time>
      </trkpt>
      <trkpt lat="50.3999" lon="2.74107">
        <ele>102.25</ele>
        <time>2024-09-04T15:49:01.773Z</time>
      </trkpt>
      <trkpt lat="50.39981" lon="2.74127">
        <ele>101.25</ele>
        <time>2024-09-04T15:49:07.999Z</time>
      </trkpt>
      <trkpt lat="50.39966" lon="2.74147">
        <ele>100</ele>
        <time>2024-09-04T15:49:16.094Z</time>
      </trkpt>
      <trkpt lat="50.39938" lon="2.74177">
        <ele>98.25</ele>
        <time>2024-09-04T15:49:29.611Z</time>
      </trkpt>
      <trkpt lat="50.39897" lon="2.74209">
        <ele>96.5</ele>
        <time>2024-09-04T15:49:47.693Z</time>
      </trkpt>
      <trkpt lat="50.39871" lon="2.74223">
        <ele>95.5</ele>
        <time>2024-09-04T15:49:58.899Z</time>
      </trkpt>
      <trkpt lat="50.39842" lon="2.74233">
        <ele>94.5</ele>
        <time>2024-09-04T15:50:10.914Z</time>
      </trkpt>
      <trkpt lat="50.39817" lon="2.7424">
        <ele>94.25</ele>
        <time>2024-09-04T15:50:21.080Z</time>
      </trkpt>
      <trkpt lat="50.39812" lon="2.74242">
        <ele>94.25</ele>
        <time>2024-09-04T15:50:23.117Z</time>
      </trkpt>
      <trkpt lat="50.39703" lon="2.74245">
        <ele>90</ele>
        <time>2024-09-04T15:51:06.481Z</time>
      </trkpt>
      <trkpt lat="50.39651" lon="2.74245">
        <ele>86</ele>
        <time>2024-09-04T15:51:27.459Z</time>
      </trkpt>
      <trkpt lat="50.39622" lon="2.74241">
        <ele>84.25</ele>
        <time>2024-09-04T15:51:38.989Z</time>
      </trkpt>
      <trkpt lat="50.39562" lon="2.7424">
        <ele>81.75</ele>
        <time>2024-09-04T15:52:03.089Z</time>
      </trkpt>
      <trkpt lat="50.39546" lon="2.7424">
        <ele>81.5</ele>
        <time>2024-09-04T15:52:09.534Z</time>
      </trkpt>
      <trkpt lat="50.39535" lon="2.7424">
        <ele>81.5</ele>
        <time>2024-09-04T15:52:13.977Z</time>
      </trkpt>
      <trkpt lat="50.39499" lon="2.74241">
        <ele>81</ele>
        <time>2024-09-04T15:52:28.353Z</time>
      </trkpt>
      <trkpt lat="50.39469" lon="2.74246">
        <ele>80.5</ele>
        <time>2024-09-04T15:52:40.211Z</time>
      </trkpt>
      <trkpt lat="50.39419" lon="2.74245">
        <ele>80</ele>
        <time>2024-09-04T15:53:00.428Z</time>
      </trkpt>
      <trkpt lat="50.39417" lon="2.74245">
        <ele>80</ele>
        <time>2024-09-04T15:53:01.269Z</time>
      </trkpt>
      <trkpt lat="50.39404" lon="2.74247">
        <ele>79.5</ele>
        <time>2024-09-04T15:53:06.458Z</time>
      </trkpt>
      <trkpt lat="50.3939" lon="2.74249">
        <ele>79</ele>
        <time>2024-09-04T15:53:12.016Z</time>
      </trkpt>
      <trkpt lat="50.39362" lon="2.74253">
        <ele>77.75</ele>
        <time>2024-09-04T15:53:23.192Z</time>
      </trkpt>
      <trkpt lat="50.39362" lon="2.74253">
        <ele>75.36</ele>
        <time>2024-09-04T15:53:23.192Z</time>
      </trkpt>
      <trkpt lat="50.39363" lon="2.74261">
        <ele>74.8</ele>
        <time>2024-09-04T15:53:25.207Z</time>
      </trkpt>
      <trkpt lat="50.39367" lon="2.74276">
        <ele>74.26</ele>
        <time>2024-09-04T15:53:33.179Z</time>
      </trkpt>
      <trkpt lat="50.39376" lon="2.7431">
        <ele>73.78</ele>
        <time>2024-09-04T15:53:41.155Z</time>
      </trkpt>
      <trkpt lat="50.39384" lon="2.74343">
        <ele>73.35</ele>
        <time>2024-09-04T15:53:49.135Z</time>
      </trkpt>
      <trkpt lat="50.39393" lon="2.74376">
        <ele>72.89</ele>
        <time>2024-09-04T15:53:57.118Z</time>
      </trkpt>
      <trkpt lat="50.39397" lon="2.74392">
        <ele>72.48</ele>
        <time>2024-09-04T15:54:05.103Z</time>
      </trkpt>
      <trkpt lat="50.39403" lon="2.7441">
        <ele>72.11</ele>
        <time>2024-09-04T15:54:13.090Z</time>
      </trkpt>
      <trkpt lat="50.39411" lon="2.74441">
        <ele>71.75</ele>
        <time>2024-09-04T15:54:21.081Z</time>
      </trkpt>
      <trkpt lat="50.3942" lon="2.74472">
        <ele>71.42</ele>
        <time>2024-09-04T15:54:29.075Z</time>
      </trkpt>
      <trkpt lat="50.39424" lon="2.74487">
        <ele>71.13</ele>
        <time>2024-09-04T15:54:37.071Z</time>
      </trkpt>
      <trkpt lat="50.39432" lon="2.74512">
        <ele>70.87</ele>
        <time>2024-09-04T15:54:45.070Z</time>
      </trkpt>
      <trkpt lat="50.39439" lon="2.74538">
        <ele>70.67</ele>
        <time>2024-09-04T15:54:53.071Z</time>
      </trkpt>
      <trkpt lat="50.39449" lon="2.74568">
        <ele>70.5</ele>
        <time>2024-09-04T15:55:01.076Z</time>
      </trkpt>
      <trkpt lat="50.39455" lon="2.74582">
        <ele>70.34</ele>
        <time>2024-09-04T15:55:09.083Z</time>
      </trkpt>
      <trkpt lat="50.39473" lon="2.74616">
        <ele>70.22</ele>
        <time>2024-09-04T15:55:17.094Z</time>
      </trkpt>
      <trkpt lat="50.3949" lon="2.74649">
        <ele>70.16</ele>
        <time>2024-09-04T15:55:25.109Z</time>
      </trkpt>
      <trkpt lat="50.39507" lon="2.74678">
        <ele>70.13</ele>
        <time>2024-09-04T15:55:33.128Z</time>
      </trkpt>
      <trkpt lat="50.39524" lon="2.74707">
        <ele>70.11</ele>
        <time>2024-09-04T15:55:41.152Z</time>
      </trkpt>
      <trkpt lat="50.39542" lon="2.7474">
        <ele>70.03</ele>
        <time>2024-09-04T15:55:49.180Z</time>
      </trkpt>
      <trkpt lat="50.39559" lon="2.74772">
        <ele>69.96</ele>
        <time>2024-09-04T15:55:57.212Z</time>
      </trkpt>
      <trkpt lat="50.39575" lon="2.74798">
        <ele>69.95</ele>
        <time>2024-09-04T15:56:05.248Z</time>
      </trkpt>
      <trkpt lat="50.39591" lon="2.74823">
        <ele>69.96</ele>
        <time>2024-09-04T15:56:13.287Z</time>
      </trkpt>
      <trkpt lat="50.39608" lon="2.74847">
        <ele>69.97</ele>
        <time>2024-09-04T15:56:21.330Z</time>
      </trkpt>
      <trkpt lat="50.39625" lon="2.74869">
        <ele>69.97</ele>
        <time>2024-09-04T15:56:29.377Z</time>
      </trkpt>
      <trkpt lat="50.39643" lon="2.7489">
        <ele>69.99</ele>
        <time>2024-09-04T15:56:37.427Z</time>
      </trkpt>
      <trkpt lat="50.39657" lon="2.7491">
        <ele>70.04</ele>
        <time>2024-09-04T15:56:45.480Z</time>
      </trkpt>
      <trkpt lat="50.3967" lon="2.74929">
        <ele>70.09</ele>
        <time>2024-09-04T15:56:53.536Z</time>
      </trkpt>
      <trkpt lat="50.3969" lon="2.74962">
        <ele>70.13</ele>
        <time>2024-09-04T15:57:01.597Z</time>
      </trkpt>
      <trkpt lat="50.39709" lon="2.7499">
        <ele>70.23</ele>
        <time>2024-09-04T15:57:09.662Z</time>
      </trkpt>
      <trkpt lat="50.39728" lon="2.75018">
        <ele>70.34</ele>
        <time>2024-09-04T15:57:17.731Z</time>
      </trkpt>
      <trkpt lat="50.39746" lon="2.75045">
        <ele>70.49</ele>
        <time>2024-09-04T15:57:25.804Z</time>
      </trkpt>
      <trkpt lat="50.39765" lon="2.75075">
        <ele>70.58</ele>
        <time>2024-09-04T15:57:33.882Z</time>
      </trkpt>
      <trkpt lat="50.39782" lon="2.75098">
        <ele>70.66</ele>
        <time>2024-09-04T15:57:41.963Z</time>
      </trkpt>
      <trkpt lat="50.39798" lon="2.75119">
        <ele>70.74</ele>
        <time>2024-09-04T15:57:50.048Z</time>
      </trkpt>
      <trkpt lat="50.39817" lon="2.75144">
        <ele>70.86</ele>
        <time>2024-09-04T15:57:58.136Z</time>
      </trkpt>
      <trkpt lat="50.39836" lon="2.75169">
        <ele>71.05</ele>
        <time>2024-09-04T15:58:06.228Z</time>
      </trkpt>
      <trkpt lat="50.39855" lon="2.75193">
        <ele>71.28</ele>
        <time>2024-09-04T15:58:14.324Z</time>
      </trkpt>
      <trkpt lat="50.39871" lon="2.75214">
        <ele>71.46</ele>
        <time>2024-09-04T15:58:22.424Z</time>
      </trkpt>
      <trkpt lat="50.39886" lon="2.75234">
        <ele>71.61</ele>
        <time>2024-09-04T15:58:30.527Z</time>
      </trkpt>
      <trkpt lat="50.39906" lon="2.7526">
        <ele>71.58</ele>
        <time>2024-09-04T15:58:38.634Z</time>
      </trkpt>
      <trkpt lat="50.39917" lon="2.75273">
        <ele>71.63</ele>
        <time>2024-09-04T15:58:46.743Z</time>
      </trkpt>
      <trkpt lat="50.39924" lon="2.75281">
        <ele>71.72</ele>
        <time>2024-09-04T15:58:54.854Z</time>
      </trkpt>
      <trkpt lat="50.3994" lon="2.75302">
        <ele>71.76</ele>
        <time>2024-09-04T15:59:02.968Z</time>
      </trkpt>
      <trkpt lat="50.39951" lon="2.75316">
        <ele>71.84</ele>
        <time>2024-09-04T15:59:11.084Z</time>
      </trkpt>
      <trkpt lat="50.39967" lon="2.75333">
        <ele>71.93</ele>
        <time>2024-09-04T15:59:19.203Z</time>
      </trkpt>
      <trkpt lat="50.39981" lon="2.7535">
        <ele>72.04</ele>
        <time>2024-09-04T15:59:27.325Z</time>
      </trkpt>
      <trkpt lat="50.39998" lon="2.75366">
        <ele>72.16</ele>
        <time>2024-09-04T15:59:35.450Z</time>
      </trkpt>
      <trkpt lat="50.40015" lon="2.75383">
        <ele>72.25</ele>
        <time>2024-09-04T15:59:43.579Z</time>
      </trkpt>
      <trkpt lat="50.40036" lon="2.75404">
        <ele>72.34</ele>
        <time>2024-09-04T15:59:51.712Z</time>
      </trkpt>
      <trkpt lat="50.40057" lon="2.75425">
        <ele>72.41</ele>
        <time>2024-09-04T15:59:59.849Z</time>
      </trkpt>
      <trkpt lat="50.40078" lon="2.75447">
        <ele>72.48</ele>
        <time>2024-09-04T16:00:07.990Z</time>
      </trkpt>
      <trkpt lat="50.40091" lon="2.75456">
        <ele>72.59</ele>
        <time>2024-09-04T16:00:16.133Z</time>
      </trkpt>
      <trkpt lat="50.40115" lon="2.7548">
        <ele>72.7</ele>
        <time>2024-09-04T16:00:24.280Z</time>
      </trkpt>
      <trkpt lat="50.40139" lon="2.75505">
        <ele>72.74</ele>
        <time>2024-09-04T16:00:32.432Z</time>
      </trkpt>
      <trkpt lat="50.40163" lon="2.7553">
        <ele>72.84</ele>
        <time>2024-09-04T16:00:40.589Z</time>
      </trkpt>
      <trkpt lat="50.40187" lon="2.75554">
        <ele>72.83</ele>
        <time>2024-09-04T16:00:48.750Z</time>
      </trkpt>
      <trkpt lat="50.40203" lon="2.7557">
        <ele>72.8</ele>
        <time>2024-09-04T16:00:56.914Z</time>
      </trkpt>
      <trkpt lat="50.40223" lon="2.75588">
        <ele>72.76</ele>
        <time>2024-09-04T16:01:05.082Z</time>
      </trkpt>
      <trkpt lat="50.40232" lon="2.75595">
        <ele>72.73</ele>
        <time>2024-09-04T16:01:13.252Z</time>
      </trkpt>
      <trkpt lat="50.40245" lon="2.75598">
        <ele>72.71</ele>
        <time>2024-09-04T16:01:21.424Z</time>
      </trkpt>
      <trkpt lat="50.40259" lon="2.75599">
        <ele>72.65</ele>
        <time>2024-09-04T16:01:29.598Z</time>
      </trkpt>
      <trkpt lat="50.40273" lon="2.75598">
        <ele>72.58</ele>
        <time>2024-09-04T16:01:37.774Z</time>
      </trkpt>
      <trkpt lat="50.40297" lon="2.75596">
        <ele>72.45</ele>
        <time>2024-09-04T16:01:45.954Z</time>
      </trkpt>
      <trkpt lat="50.4032" lon="2.75594">
        <ele>72.37</ele>
        <time>2024-09-04T16:01:54.138Z</time>
      </trkpt>
      <trkpt lat="50.40343" lon="2.75593">
        <ele>72.26</ele>
        <time>2024-09-04T16:02:02.325Z</time>
      </trkpt>
      <trkpt lat="50.40367" lon="2.75596">
        <ele>72.11</ele>
        <time>2024-09-04T16:02:10.516Z</time>
      </trkpt>
      <trkpt lat="50.40397" lon="2.75603">
        <ele>71.95</ele>
        <time>2024-09-04T16:02:18.712Z</time>
      </trkpt>
      <trkpt lat="50.40398" lon="2.75603">
        <ele>71.77</ele>
        <time>2024-09-04T16:02:26.908Z</time>
      </trkpt>
      <trkpt lat="50.40397" lon="2.75603">
        <ele>71.95</ele>
        <time>2024-09-04T16:02:35.104Z</time>
      </trkpt>
      <trkpt lat="50.4039" lon="2.75615">
        <ele>71.37</ele>
        <time>2024-09-04T16:02:43.302Z</time>
      </trkpt>
      <trkpt lat="50.40386" lon="2.75621">
        <ele>71.14</ele>
        <time>2024-09-04T16:02:51.501Z</time>
      </trkpt>
      <trkpt lat="50.40374" lon="2.75644">
        <ele>70.88</ele>
        <time>2024-09-04T16:02:59.703Z</time>
      </trkpt>
      <trkpt lat="50.40362" lon="2.75668">
        <ele>70.63</ele>
        <time>2024-09-04T16:03:07.908Z</time>
      </trkpt>
      <trkpt lat="50.40348" lon="2.757">
        <ele>70.38</ele>
        <time>2024-09-04T16:03:16.117Z</time>
      </trkpt>
      <trkpt lat="50.40333" lon="2.75725">
        <ele>70.09</ele>
        <time>2024-09-04T16:03:24.329Z</time>
      </trkpt>
      <trkpt lat="50.40319" lon="2.75749">
        <ele>69.78</ele>
        <time>2024-09-04T16:03:32.545Z</time>
      </trkpt>
      <trkpt lat="50.40304" lon="2.75774">
        <ele>69.45</ele>
        <time>2024-09-04T16:03:40.764Z</time>
      </trkpt>
      <trkpt lat="50.40283" lon="2.75797">
        <ele>69.11</ele>
        <time>2024-09-04T16:03:48.988Z</time>
      </trkpt>
      <trkpt lat="50.40274" lon="2.75812">
        <ele>68.81</ele>
        <time>2024-09-04T16:03:57.214Z</time>
      </trkpt>
      <trkpt lat="50.40255" lon="2.75811">
        <ele>68.53</ele>
        <time>2024-09-04T16:04:05.443Z</time>
      </trkpt>
      <trkpt lat="50.40232" lon="2.75813">
        <ele>68.28</ele>
        <time>2024-09-04T16:04:13.675Z</time>
      </trkpt>
      <trkpt lat="50.40223" lon="2.75813">
        <ele>68.02</ele>
        <time>2024-09-04T16:04:21.909Z</time>
      </trkpt>
      <trkpt lat="50.40201" lon="2.75813">
        <ele>67.78</ele>
        <time>2024-09-04T16:04:30.146Z</time>
      </trkpt>
      <trkpt lat="50.40183" lon="2.75815">
        <ele>67.55</ele>
        <time>2024-09-04T16:04:38.386Z</time>
      </trkpt>
      <trkpt lat="50.40172" lon="2.75825">
        <ele>67.3</ele>
        <time>2024-09-04T16:04:46.628Z</time>
      </trkpt>
      <trkpt lat="50.40157" lon="2.75841">
        <ele>67</ele>
        <time>2024-09-04T16:04:54.873Z</time>
      </trkpt>
      <trkpt lat="50.40143" lon="2.75857">
        <ele>66.77</ele>
        <time>2024-09-04T16:05:03.121Z</time>
      </trkpt>
      <trkpt lat="50.40131" lon="2.75876">
        <ele>66.49</ele>
        <time>2024-09-04T16:05:11.372Z</time>
      </trkpt>
      <trkpt lat="50.40117" lon="2.75908">
        <ele>66.21</ele>
        <time>2024-09-04T16:05:19.627Z</time>
      </trkpt>
      <trkpt lat="50.40102" lon="2.75939">
        <ele>65.91</ele>
        <time>2024-09-04T16:05:27.886Z</time>
      </trkpt>
      <trkpt lat="50.40127" lon="2.75965">
        <ele>65.66</ele>
        <time>2024-09-04T16:05:36.149Z</time>
      </trkpt>
      <trkpt lat="50.40144" lon="2.75986">
        <ele>65.41</ele>
        <time>2024-09-04T16:05:44.416Z</time>
      </trkpt>
      <trkpt lat="50.40156" lon="2.76002">
        <ele>65.15</ele>
        <time>2024-09-04T16:05:52.685Z</time>
      </trkpt>
      <trkpt lat="50.40176" lon="2.76035">
        <ele>64.86</ele>
        <time>2024-09-04T16:06:00.959Z</time>
      </trkpt>
      <trkpt lat="50.40197" lon="2.76068">
        <ele>64.6</ele>
        <time>2024-09-04T16:06:09.238Z</time>
      </trkpt>
      <trkpt lat="50.40215" lon="2.76093">
        <ele>64.42</ele>
        <time>2024-09-04T16:06:17.521Z</time>
      </trkpt>
      <trkpt lat="50.40233" lon="2.76119">
        <ele>64.21</ele>
        <time>2024-09-04T16:06:25.808Z</time>
      </trkpt>
      <trkpt lat="50.40251" lon="2.76144">
        <ele>63.93</ele>
        <time>2024-09-04T16:06:34.098Z</time>
      </trkpt>
      <trkpt lat="50.40268" lon="2.76167">
        <ele>63.66</ele>
        <time>2024-09-04T16:06:42.392Z</time>
      </trkpt>
      <trkpt lat="50.40286" lon="2.7619">
        <ele>63.53</ele>
        <time>2024-09-04T16:06:50.690Z</time>
      </trkpt>
      <trkpt lat="50.40301" lon="2.76209">
        <ele>63.41</ele>
        <time>2024-09-04T16:06:58.991Z</time>
      </trkpt>
      <trkpt lat="50.40315" lon="2.76226">
        <ele>63.25</ele>
        <time>2024-09-04T16:07:07.295Z</time>
      </trkpt>
      <trkpt lat="50.40329" lon="2.76242">
        <ele>63.06</ele>
        <time>2024-09-04T16:07:15.602Z</time>
      </trkpt>
      <trkpt lat="50.40347" lon="2.76264">
        <ele>62.85</ele>
        <time>2024-09-04T16:07:23.912Z</time>
      </trkpt>
      <trkpt lat="50.40364" lon="2.76284">
        <ele>62.69</ele>
        <time>2024-09-04T16:07:32.226Z</time>
      </trkpt>
      <trkpt lat="50.40376" lon="2.76304">
        <ele>62.58</ele>
        <time>2024-09-04T16:07:40.542Z</time>
      </trkpt>
      <trkpt lat="50.40388" lon="2.7633">
        <ele>62.5</ele>
        <time>2024-09-04T16:07:48.862Z</time>
      </trkpt>
      <trkpt lat="50.40394" lon="2.76356">
        <ele>62.4</ele>
        <time>2024-09-04T16:07:57.184Z</time>
      </trkpt>
      <trkpt lat="50.404" lon="2.76382">
        <ele>62.28</ele>
        <time>2024-09-04T16:08:05.509Z</time>
      </trkpt>
      <trkpt lat="50.40404" lon="2.76401">
        <ele>62.15</ele>
        <time>2024-09-04T16:08:13.836Z</time>
      </trkpt>
      <trkpt lat="50.40407" lon="2.76415">
        <ele>62.05</ele>
        <time>2024-09-04T16:08:22.165Z</time>
      </trkpt>
      <trkpt lat="50.40414" lon="2.76449">
        <ele>61.92</ele>
        <time>2024-09-04T16:08:30.498Z</time>
      </trkpt>
      <trkpt lat="50.40422" lon="2.76486">
        <ele>61.88</ele>
        <time>2024-09-04T16:08:38.835Z</time>
      </trkpt>
      <trkpt lat="50.4043" lon="2.76523">
        <ele>61.81</ele>
        <time>2024-09-04T16:08:47.176Z</time>
      </trkpt>
      <trkpt lat="50.40433" lon="2.76534">
        <ele>61.77</ele>
        <time>2024-09-04T16:08:55.518Z</time>
      </trkpt>
      <trkpt lat="50.40442" lon="2.76562">
        <ele>61.78</ele>
        <time>2024-09-04T16:09:03.863Z</time>
      </trkpt>
      <trkpt lat="50.4045" lon="2.76591">
        <ele>61.84</ele>
        <time>2024-09-04T16:09:12.211Z</time>
      </trkpt>
      <trkpt lat="50.40453" lon="2.76603">
        <ele>61.82</ele>
        <time>2024-09-04T16:09:20.561Z</time>
      </trkpt>
      <trkpt lat="50.40464" lon="2.76639">
        <ele>61.83</ele>
        <time>2024-09-04T16:09:28.915Z</time>
      </trkpt>
      <trkpt lat="50.40473" lon="2.76669">
        <ele>61.8</ele>
        <time>2024-09-04T16:09:37.272Z</time>
      </trkpt>
      <trkpt lat="50.40482" lon="2.76699">
        <ele>61.77</ele>
        <time>2024-09-04T16:09:45.632Z</time>
      </trkpt>
      <trkpt lat="50.40491" lon="2.76727">
        <ele>61.72</ele>
        <time>2024-09-04T16:09:53.996Z</time>
      </trkpt>
      <trkpt lat="50.40499" lon="2.76755">
        <ele>61.67</ele>
        <time>2024-09-04T16:10:02.363Z</time>
      </trkpt>
      <trkpt lat="50.40508" lon="2.76779">
        <ele>61.72</ele>
        <time>2024-09-04T16:10:10.733Z</time>
      </trkpt>
      <trkpt lat="50.40517" lon="2.76801">
        <ele>61.77</ele>
        <time>2024-09-04T16:10:19.105Z</time>
      </trkpt>
      <trkpt lat="50.40526" lon="2.76822">
        <ele>61.82</ele>
        <time>2024-09-04T16:10:27.480Z</time>
      </trkpt>
      <trkpt lat="50.40528" lon="2.76825">
        <ele>61.9</ele>
        <time>2024-09-04T16:10:35.855Z</time>
      </trkpt>
      <trkpt lat="50.40535" lon="2.7684">
        <ele>62</ele>
        <time>2024-09-04T16:10:44.232Z</time>
      </trkpt>
      <trkpt lat="50.40525" lon="2.76847">
        <ele>62.13</ele>
        <time>2024-09-04T16:10:52.611Z</time>
      </trkpt>
      <trkpt lat="50.40522" lon="2.76849">
        <ele>62.27</ele>
        <time>2024-09-04T16:11:00.990Z</time>
      </trkpt>
      <trkpt lat="50.40497" lon="2.76868">
        <ele>62.5</ele>
        <time>2024-09-04T16:11:09.374Z</time>
      </trkpt>
      <trkpt lat="50.40472" lon="2.76888">
        <ele>62.69</ele>
        <time>2024-09-04T16:11:17.762Z</time>
      </trkpt>
      <trkpt lat="50.40446" lon="2.76908">
        <ele>62.79</ele>
        <time>2024-09-04T16:11:26.155Z</time>
      </trkpt>
      <trkpt lat="50.4042" lon="2.76932">
        <ele>62.94</ele>
        <time>2024-09-04T16:11:34.553Z</time>
      </trkpt>
      <trkpt lat="50.40395" lon="2.76958">
        <ele>63.19</ele>
        <time>2024-09-04T16:11:42.956Z</time>
      </trkpt>
      <trkpt lat="50.40374" lon="2.76982">
        <ele>63.43</ele>
        <time>2024-09-04T16:11:51.363Z</time>
      </trkpt>
      <trkpt lat="50.40353" lon="2.77007">
        <ele>63.74</ele>
        <time>2024-09-04T16:11:59.774Z</time>
      </trkpt>
      <trkpt lat="50.4033" lon="2.77033">
        <ele>64.06</ele>
        <time>2024-09-04T16:12:08.190Z</time>
      </trkpt>
      <trkpt lat="50.40308" lon="2.77059">
        <ele>64.47</ele>
        <time>2024-09-04T16:12:16.610Z</time>
      </trkpt>
      <trkpt lat="50.40294" lon="2.77073">
        <ele>64.88</ele>
        <time>2024-09-04T16:12:25.033Z</time>
      </trkpt>
      <trkpt lat="50.40271" lon="2.77091">
        <ele>65.35</ele>
        <time>2024-09-04T16:12:33.460Z</time>
      </trkpt>
      <trkpt lat="50.4026" lon="2.77097">
        <ele>65.78</ele>
        <time>2024-09-04T16:12:41.889Z</time>
      </trkpt>
      <trkpt lat="50.40253" lon="2.771">
        <ele>66.23</ele>
        <time>2024-09-04T16:12:50.319Z</time>
      </trkpt>
      <trkpt lat="50.40241" lon="2.77106">
        <ele>66.71</ele>
        <time>2024-09-04T16:12:58.751Z</time>
      </trkpt>
      <trkpt lat="50.40219" lon="2.77113">
        <ele>67.2</ele>
        <time>2024-09-04T16:13:07.187Z</time>
      </trkpt>
      <trkpt lat="50.40197" lon="2.7712">
        <ele>67.72</ele>
        <time>2024-09-04T16:13:15.626Z</time>
      </trkpt>
      <trkpt lat="50.40174" lon="2.77126">
        <ele>68.25</ele>
        <time>2024-09-04T16:13:24.069Z</time>
      </trkpt>
      <trkpt lat="50.40158" lon="2.7713">
        <ele>68.76</ele>
        <time>2024-09-04T16:13:32.514Z</time>
      </trkpt>
      <trkpt lat="50.40142" lon="2.77134">
        <ele>69.27</ele>
        <time>2024-09-04T16:13:40.962Z</time>
      </trkpt>
      <trkpt lat="50.40124" lon="2.77138">
        <ele>69.78</ele>
        <time>2024-09-04T16:13:49.413Z</time>
      </trkpt>
      <trkpt lat="50.40105" lon="2.77141">
        <ele>70.25</ele>
        <time>2024-09-04T16:13:57.867Z</time>
      </trkpt>
      <trkpt lat="50.40088" lon="2.77143">
        <ele>70.73</ele>
        <time>2024-09-04T16:14:06.324Z</time>
      </trkpt>
      <trkpt lat="50.4007" lon="2.77145">
        <ele>71.22</ele>
        <time>2024-09-04T16:14:14.784Z</time>
      </trkpt>
      <trkpt lat="50.40045" lon="2.77148">
        <ele>71.73</ele>
        <time>2024-09-04T16:14:23.248Z</time>
      </trkpt>
      <trkpt lat="50.4002" lon="2.7715">
        <ele>72.25</ele>
        <time>2024-09-04T16:14:31.716Z</time>
      </trkpt>
      <trkpt lat="50.4" lon="2.77153">
        <ele>72.71</ele>
        <time>2024-09-04T16:14:40.187Z</time>
      </trkpt>
      <trkpt lat="50.39973" lon="2.77159">
        <ele>73.16</ele>
        <time>2024-09-04T16:14:48.662Z</time>
      </trkpt>
      <trkpt lat="50.39946" lon="2.77164">
        <ele>73.56</ele>
        <time>2024-09-04T16:14:57.142Z</time>
      </trkpt>
      <trkpt lat="50.39923" lon="2.7717">
        <ele>73.88</ele>
        <time>2024-09-04T16:15:05.625Z</time>
      </trkpt>
      <trkpt lat="50.399" lon="2.77176">
        <ele>74.17</ele>
        <time>2024-09-04T16:15:14.112Z</time>
      </trkpt>
      <trkpt lat="50.39882" lon="2.7718">
        <ele>74.44</ele>
        <time>2024-09-04T16:15:22.602Z</time>
      </trkpt>
      <trkpt lat="50.39865" lon="2.77184">
        <ele>74.7</ele>
        <time>2024-09-04T16:15:31.095Z</time>
      </trkpt>
      <trkpt lat="50.39859" lon="2.77185">
        <ele>74.93</ele>
        <time>2024-09-04T16:15:39.589Z</time>
      </trkpt>
      <trkpt lat="50.39833" lon="2.77193">
        <ele>75.14</ele>
        <time>2024-09-04T16:15:48.087Z</time>
      </trkpt>
      <trkpt lat="50.39807" lon="2.77201">
        <ele>75.36</ele>
        <time>2024-09-04T16:15:56.589Z</time>
      </trkpt>
      <trkpt lat="50.39789" lon="2.77206">
        <ele>75.48</ele>
        <time>2024-09-04T16:16:05.094Z</time>
      </trkpt>
      <trkpt lat="50.39769" lon="2.77217">
        <ele>75.57</ele>
        <time>2024-09-04T16:16:13.602Z</time>
      </trkpt>
      <trkpt lat="50.39749" lon="2.77228">
        <ele>75.63</ele>
        <time>2024-09-04T16:16:22.114Z</time>
      </trkpt>
      <trkpt lat="50.39742" lon="2.77233">
        <ele>75.63</ele>
        <time>2024-09-04T16:16:30.627Z</time>
      </trkpt>
      <trkpt lat="50.39736" lon="2.7724">
        <ele>75.59</ele>
        <time>2024-09-04T16:16:39.141Z</time>
      </trkpt>
      <trkpt lat="50.39735" lon="2.77239">
        <ele>75.51</ele>
        <time>2024-09-04T16:16:47.656Z</time>
      </trkpt>
      <trkpt lat="50.39736" lon="2.7724">
        <ele>75.59</ele>
        <time>2024-09-04T16:16:56.171Z</time>
      </trkpt>
      <trkpt lat="50.3973" lon="2.77247">
        <ele>75.21</ele>
        <time>2024-09-04T16:17:04.687Z</time>
      </trkpt>
      <trkpt lat="50.39726" lon="2.77256">
        <ele>74.99</ele>
        <time>2024-09-04T16:17:13.204Z</time>
      </trkpt>
      <trkpt lat="50.39719" lon="2.77296">
        <ele>74.66</ele>
        <time>2024-09-04T16:17:21.725Z</time>
      </trkpt>
      <trkpt lat="50.39712" lon="2.77335">
        <ele>74.32</ele>
        <time>2024-09-04T16:17:30.250Z</time>
      </trkpt>
      <trkpt lat="50.39704" lon="2.77383">
        <ele>73.97</ele>
        <time>2024-09-04T16:17:38.780Z</time>
      </trkpt>
      <trkpt lat="50.39696" lon="2.7743">
        <ele>73.57</ele>
        <time>2024-09-04T16:17:47.315Z</time>
      </trkpt>
      <trkpt lat="50.39693" lon="2.77455">
        <ele>73.22</ele>
        <time>2024-09-04T16:17:55.853Z</time>
      </trkpt>
      <trkpt lat="50.39688" lon="2.77473">
        <ele>72.85</ele>
        <time>2024-09-04T16:18:04.393Z</time>
      </trkpt>
      <trkpt lat="50.39683" lon="2.7749">
        <ele>72.47</ele>
        <time>2024-09-04T16:18:12.935Z</time>
      </trkpt>
      <trkpt lat="50.39671" lon="2.77513">
        <ele>72.05</ele>
        <time>2024-09-04T16:18:21.480Z</time>
      </trkpt>
      <trkpt lat="50.39653" lon="2.77532">
        <ele>71.65</ele>
        <time>2024-09-04T16:18:30.028Z</time>
      </trkpt>
      <trkpt lat="50.39636" lon="2.77551">
        <ele>71.22</ele>
        <time>2024-09-04T16:18:38.580Z</time>
      </trkpt>
      <trkpt lat="50.3963" lon="2.77557">
        <ele>70.78</ele>
        <time>2024-09-04T16:18:47.133Z</time>
      </trkpt>
      <trkpt lat="50.39622" lon="2.77565">
        <ele>70.36</ele>
        <time>2024-09-04T16:18:55.687Z</time>
      </trkpt>
      <trkpt lat="50.39601" lon="2.77587">
        <ele>69.93</ele>
        <time>2024-09-04T16:19:04.246Z</time>
      </trkpt>
      <trkpt lat="50.3958" lon="2.77608">
        <ele>69.5</ele>
        <time>2024-09-04T16:19:12.809Z</time>
      </trkpt>
      <trkpt lat="50.39559" lon="2.7763">
        <ele>69.08</ele>
        <time>2024-09-04T16:19:21.376Z</time>
      </trkpt>
      <trkpt lat="50.39545" lon="2.77647">
        <ele>68.68</ele>
        <time>2024-09-04T16:19:29.945Z</time>
      </trkpt>
      <trkpt lat="50.39536" lon="2.7766">
        <ele>68.26</ele>
        <time>2024-09-04T16:19:38.516Z</time>
      </trkpt>
      <trkpt lat="50.39516" lon="2.77691">
        <ele>67.83</ele>
        <time>2024-09-04T16:19:47.092Z</time>
      </trkpt>
      <trkpt lat="50.39496" lon="2.77722">
        <ele>67.35</ele>
        <time>2024-09-04T16:19:55.672Z</time>
      </trkpt>
      <trkpt lat="50.39475" lon="2.77752">
        <ele>66.91</ele>
        <time>2024-09-04T16:20:04.257Z</time>
      </trkpt>
      <trkpt lat="50.39455" lon="2.77783">
        <ele>66.47</ele>
        <time>2024-09-04T16:20:12.846Z</time>
      </trkpt>
      <trkpt lat="50.39435" lon="2.77814">
        <ele>66.02</ele>
        <time>2024-09-04T16:20:21.440Z</time>
      </trkpt>
      <trkpt lat="50.39415" lon="2.77845">
        <ele>65.61</ele>
        <time>2024-09-04T16:20:30.038Z</time>
      </trkpt>
      <trkpt lat="50.39393" lon="2.77878">
        <ele>65.24</ele>
        <time>2024-09-04T16:20:38.641Z</time>
      </trkpt>
      <trkpt lat="50.39372" lon="2.77912">
        <ele>64.87</ele>
        <time>2024-09-04T16:20:47.249Z</time>
      </trkpt>
      <trkpt lat="50.39351" lon="2.7794">
        <ele>64.51</ele>
        <time>2024-09-04T16:20:55.862Z</time>
      </trkpt>
      <trkpt lat="50.39329" lon="2.77969">
        <ele>64.14</ele>
        <time>2024-09-04T16:21:04.479Z</time>
      </trkpt>
      <trkpt lat="50.39308" lon="2.77997">
        <ele>63.76</ele>
        <time>2024-09-04T16:21:13.101Z</time>
      </trkpt>
      <trkpt lat="50.39287" lon="2.78026">
        <ele>63.36</ele>
        <time>2024-09-04T16:21:21.727Z</time>
      </trkpt>
      <trkpt lat="50.39265" lon="2.78054">
        <ele>63</ele>
        <time>2024-09-04T16:21:30.358Z</time>
      </trkpt>
      <trkpt lat="50.39256" lon="2.78069">
        <ele>62.67</ele>
        <time>2024-09-04T16:21:38.991Z</time>
      </trkpt>
      <trkpt lat="50.39247" lon="2.78083">
        <ele>62.36</ele>
        <time>2024-09-04T16:21:47.626Z</time>
      </trkpt>
      <trkpt lat="50.39242" lon="2.78091">
        <ele>62.06</ele>
        <time>2024-09-04T16:21:56.262Z</time>
      </trkpt>
      <trkpt lat="50.39225" lon="2.78125">
        <ele>61.75</ele>
        <time>2024-09-04T16:22:04.902Z</time>
      </trkpt>
      <trkpt lat="50.39211" lon="2.78159">
        <ele>61.48</ele>
        <time>2024-09-04T16:22:13.546Z</time>
      </trkpt>
      <trkpt lat="50.39198" lon="2.78204">
        <ele>61.19</ele>
        <time>2024-09-04T16:22:22.196Z</time>
      </trkpt>
      <trkpt lat="50.39186" lon="2.78249">
        <ele>60.88</ele>
        <time>2024-09-04T16:22:30.851Z</time>
      </trkpt>
      <trkpt lat="50.39173" lon="2.78294">
        <ele>60.68</ele>
        <time>2024-09-04T16:22:39.511Z</time>
      </trkpt>
      <trkpt lat="50.3916" lon="2.78338">
        <ele>60.53</ele>
        <time>2024-09-04T16:22:48.176Z</time>
      </trkpt>
      <trkpt lat="50.39151" lon="2.78367">
        <ele>60.43</ele>
        <time>2024-09-04T16:22:56.844Z</time>
      </trkpt>
      <trkpt lat="50.39143" lon="2.78391">
        <ele>60.35</ele>
        <time>2024-09-04T16:23:05.515Z</time>
      </trkpt>
      <trkpt lat="50.39135" lon="2.78415">
        <ele>60.31</ele>
        <time>2024-09-04T16:23:14.188Z</time>
      </trkpt>
      <trkpt lat="50.39133" lon="2.78408">
        <ele>60.33</ele>
        <time>2024-09-04T16:23:22.862Z</time>
      </trkpt>
      <trkpt lat="50.39118" lon="2.78367">
        <ele>60.41</ele>
        <time>2024-09-04T16:23:31.541Z</time>
      </trkpt>
      <trkpt lat="50.39103" lon="2.78325">
        <ele>60.57</ele>
        <time>2024-09-04T16:23:40.225Z</time>
      </trkpt>
      <trkpt lat="50.3909" lon="2.78286">
        <ele>60.8</ele>
        <time>2024-09-04T16:23:48.914Z</time>
      </trkpt>
      <trkpt lat="50.39076" lon="2.78246">
        <ele>61.02</ele>
        <time>2024-09-04T16:23:57.607Z</time>
      </trkpt>
      <trkpt lat="50.39063" lon="2.78207">
        <ele>61.22</ele>
        <time>2024-09-04T16:24:06.305Z</time>
      </trkpt>
      <trkpt lat="50.3905" lon="2.78178">
        <ele>61.51</ele>
        <time>2024-09-04T16:24:15.006Z</time>
      </trkpt>
      <trkpt lat="50.39032" lon="2.78148">
        <ele>61.85</ele>
        <time>2024-09-04T16:24:23.712Z</time>
      </trkpt>
      <trkpt lat="50.39012" lon="2.78121">
        <ele>62.21</ele>
        <time>2024-09-04T16:24:32.422Z</time>
      </trkpt>
      <trkpt lat="50.38999" lon="2.78105">
        <ele>62.6</ele>
        <time>2024-09-04T16:24:41.134Z</time>
      </trkpt>
      <trkpt lat="50.38979" lon="2.78076">
        <ele>63</ele>
        <time>2024-09-04T16:24:49.851Z</time>
      </trkpt>
      <trkpt lat="50.38962" lon="2.78047">
        <ele>63.48</ele>
        <time>2024-09-04T16:24:58.572Z</time>
      </trkpt>
      <trkpt lat="50.38949" lon="2.78023">
        <ele>63.99</ele>
        <time>2024-09-04T16:25:07.296Z</time>
      </trkpt>
      <trkpt lat="50.38939" lon="2.77992">
        <ele>64.51</ele>
        <time>2024-09-04T16:25:16.024Z</time>
      </trkpt>
      <trkpt lat="50.38928" lon="2.7795">
        <ele>65.02</ele>
        <time>2024-09-04T16:25:24.756Z</time>
      </trkpt>
      <trkpt lat="50.38922" lon="2.77921">
        <ele>65.61</ele>
        <time>2024-09-04T16:25:33.491Z</time>
      </trkpt>
      <trkpt lat="50.38911" lon="2.77876">
        <ele>66.22</ele>
        <time>2024-09-04T16:25:42.231Z</time>
      </trkpt>
      <trkpt lat="50.38899" lon="2.77831">
        <ele>66.91</ele>
        <time>2024-09-04T16:25:50.976Z</time>
      </trkpt>
      <trkpt lat="50.38887" lon="2.77786">
        <ele>67.63</ele>
        <time>2024-09-04T16:25:59.726Z</time>
      </trkpt>
      <trkpt lat="50.38884" lon="2.77774">
        <ele>68.32</ele>
        <time>2024-09-04T16:26:08.478Z</time>
      </trkpt>
      <trkpt lat="50.38878" lon="2.77752">
        <ele>69.03</ele>
        <time>2024-09-04T16:26:17.232Z</time>
      </trkpt>
      <trkpt lat="50.38871" lon="2.77729">
        <ele>69.76</ele>
        <time>2024-09-04T16:26:25.989Z</time>
      </trkpt>
      <trkpt lat="50.38866" lon="2.77706">
        <ele>70.55</ele>
        <time>2024-09-04T16:26:34.748Z</time>
      </trkpt>
      <trkpt lat="50.38863" lon="2.77694">
        <ele>71.35</ele>
        <time>2024-09-04T16:26:43.509Z</time>
      </trkpt>
      <trkpt lat="50.38856" lon="2.77669">
        <ele>72.2</ele>
        <time>2024-09-04T16:26:52.272Z</time>
      </trkpt>
      <trkpt lat="50.38853" lon="2.77655">
        <ele>73.02</ele>
        <time>2024-09-04T16:27:01.037Z</time>
      </trkpt>
      <trkpt lat="50.38852" lon="2.77644">
        <ele>73.84</ele>
        <time>2024-09-04T16:27:09.803Z</time>
      </trkpt>
      <trkpt lat="50.38853" lon="2.77628">
        <ele>74.66</ele>
        <time>2024-09-04T16:27:18.571Z</time>
      </trkpt>
      <trkpt lat="50.3886" lon="2.7759">
        <ele>75.5</ele>
        <time>2024-09-04T16:27:27.343Z</time>
      </trkpt>
      <trkpt lat="50.38866" lon="2.77548">
        <ele>76.4</ele>
        <time>2024-09-04T16:27:36.119Z</time>
      </trkpt>
      <trkpt lat="50.38868" lon="2.77531">
        <ele>77.27</ele>
        <time>2024-09-04T16:27:44.897Z</time>
      </trkpt>
      <trkpt lat="50.38867" lon="2.77519">
        <ele>78.13</ele>
        <time>2024-09-04T16:27:53.676Z</time>
      </trkpt>
      <trkpt lat="50.38858" lon="2.77485">
        <ele>79.05</ele>
        <time>2024-09-04T16:28:02.459Z</time>
      </trkpt>
      <trkpt lat="50.3885" lon="2.77452">
        <ele>79.98</ele>
        <time>2024-09-04T16:28:11.245Z</time>
      </trkpt>
      <trkpt lat="50.38841" lon="2.77422">
        <ele>80.88</ele>
        <time>2024-09-04T16:28:20.035Z</time>
      </trkpt>
      <trkpt lat="50.38833" lon="2.77392">
        <ele>81.81</ele>
        <time>2024-09-04T16:28:28.828Z</time>
      </trkpt>
      <trkpt lat="50.38826" lon="2.77367">
        <ele>82.74</ele>
        <time>2024-09-04T16:28:37.624Z</time>
      </trkpt>
      <trkpt lat="50.38822" lon="2.77345">
        <ele>83.7</ele>
        <time>2024-09-04T16:28:46.422Z</time>
      </trkpt>
      <trkpt lat="50.38822" lon="2.77327">
        <ele>84.63</ele>
        <time>2024-09-04T16:28:55.222Z</time>
      </trkpt>
      <trkpt lat="50.38827" lon="2.77282">
        <ele>85.61</ele>
        <time>2024-09-04T16:29:04.027Z</time>
      </trkpt>
      <trkpt lat="50.38828" lon="2.77266">
        <ele>86.49</ele>
        <time>2024-09-04T16:29:12.833Z</time>
      </trkpt>
      <trkpt lat="50.38828" lon="2.77255">
        <ele>87.36</ele>
        <time>2024-09-04T16:29:21.641Z</time>
      </trkpt>
      <trkpt lat="50.38827" lon="2.77237">
        <ele>88.2</ele>
        <time>2024-09-04T16:29:30.450Z</time>
      </trkpt>
      <trkpt lat="50.38824" lon="2.77207">
        <ele>89.06</ele>
        <time>2024-09-04T16:29:39.263Z</time>
      </trkpt>
      <trkpt lat="50.3882" lon="2.77176">
        <ele>89.94</ele>
        <time>2024-09-04T16:29:48.079Z</time>
      </trkpt>
      <trkpt lat="50.3882" lon="2.77162">
        <ele>90.77</ele>
        <time>2024-09-04T16:29:56.896Z</time>
      </trkpt>
      <trkpt lat="50.38823" lon="2.77153">
        <ele>91.58</ele>
        <time>2024-09-04T16:30:05.714Z</time>
      </trkpt>
      <trkpt lat="50.38847" lon="2.77123">
        <ele>92.36</ele>
        <time>2024-09-04T16:30:14.537Z</time>
      </trkpt>
      <trkpt lat="50.38858" lon="2.77107">
        <ele>93.18</ele>
        <time>2024-09-04T16:30:23.363Z</time>
      </trkpt>
      <trkpt lat="50.38877" lon="2.77077">
        <ele>94.07</ele>
        <time>2024-09-04T16:30:32.193Z</time>
      </trkpt>
      <trkpt lat="50.38895" lon="2.77047">
        <ele>94.98</ele>
        <time>2024-09-04T16:30:41.027Z</time>
      </trkpt>
      <trkpt lat="50.38902" lon="2.77038">
        <ele>95.76</ele>
        <time>2024-09-04T16:30:49.863Z</time>
      </trkpt>
      <trkpt lat="50.38917" lon="2.77027">
        <ele>96.52</ele>
        <time>2024-09-04T16:30:58.701Z</time>
      </trkpt>
      <trkpt lat="50.38933" lon="2.77012">
        <ele>97.29</ele>
        <time>2024-09-04T16:31:07.542Z</time>
      </trkpt>
      <trkpt lat="50.3894" lon="2.77006">
        <ele>98.05</ele>
        <time>2024-09-04T16:31:16.384Z</time>
      </trkpt>
      <trkpt lat="50.38945" lon="2.76997">
        <ele>98.79</ele>
        <time>2024-09-04T16:31:25.228Z</time>
      </trkpt>
      <trkpt lat="50.38948" lon="2.76987">
        <ele>99.53</ele>
        <time>2024-09-04T16:31:34.073Z</time>
      </trkpt>
      <trkpt lat="50.3895" lon="2.76978">
        <ele>100.27</ele>
        <time>2024-09-04T16:31:42.919Z</time>
      </trkpt>
      <trkpt lat="50.38948" lon="2.76967">
        <ele>101.02</ele>
        <time>2024-09-04T16:31:51.766Z</time>
      </trkpt>
      <trkpt lat="50.38944" lon="2.76954">
        <ele>101.77</ele>
        <time>2024-09-04T16:32:00.614Z</time>
      </trkpt>
      <trkpt lat="50.38933" lon="2.76924">
        <ele>102.56</ele>
        <time>2024-09-04T16:32:09.466Z</time>
      </trkpt>
      <trkpt lat="50.38922" lon="2.76894">
        <ele>103.31</ele>
        <time>2024-09-04T16:32:18.321Z</time>
      </trkpt>
      <trkpt lat="50.38911" lon="2.76865">
        <ele>104.09</ele>
        <time>2024-09-04T16:32:27.180Z</time>
      </trkpt>
      <trkpt lat="50.38901" lon="2.76835">
        <ele>104.88</ele>
        <time>2024-09-04T16:32:36.042Z</time>
      </trkpt>
      <trkpt lat="50.38892" lon="2.76819">
        <ele>105.68</ele>
        <time>2024-09-04T16:32:44.907Z</time>
      </trkpt>
      <trkpt lat="50.38867" lon="2.7679">
        <ele>106.54</ele>
        <time>2024-09-04T16:32:53.776Z</time>
      </trkpt>
      <trkpt lat="50.38847" lon="2.76753">
        <ele>107.42</ele>
        <time>2024-09-04T16:33:02.650Z</time>
      </trkpt>
      <trkpt lat="50.38828" lon="2.76715">
        <ele>108.3</ele>
        <time>2024-09-04T16:33:11.529Z</time>
      </trkpt>
      <trkpt lat="50.38814" lon="2.76699">
        <ele>109.2</ele>
        <time>2024-09-04T16:33:20.411Z</time>
      </trkpt>
      <trkpt lat="50.38802" lon="2.76689">
        <ele>110.1</ele>
        <time>2024-09-04T16:33:29.295Z</time>
      </trkpt>
      <trkpt lat="50.38785" lon="2.76679">
        <ele>111.01</ele>
        <time>2024-09-04T16:33:38.182Z</time>
      </trkpt>
      <trkpt lat="50.38768" lon="2.7667">
        <ele>111.95</ele>
        <time>2024-09-04T16:33:47.072Z</time>
      </trkpt>
      <trkpt lat="50.38761" lon="2.76668">
        <ele>112.87</ele>
        <time>2024-09-04T16:33:55.963Z</time>
      </trkpt>
      <trkpt lat="50.38751" lon="2.76667">
        <ele>113.81</ele>
        <time>2024-09-04T16:34:04.856Z</time>
      </trkpt>
      <trkpt lat="50.38745" lon="2.76671">
        <ele>114.75</ele>
        <time>2024-09-04T16:34:13.750Z</time>
      </trkpt>
      <trkpt lat="50.38737" lon="2.76677">
        <ele>115.7</ele>
        <time>2024-09-04T16:34:22.645Z</time>
      </trkpt>
      <trkpt lat="50.38716" lon="2.767">
        <ele>116.64</ele>
        <time>2024-09-04T16:34:31.544Z</time>
      </trkpt>
      <trkpt lat="50.38703" lon="2.76713">
        <ele>117.63</ele>
        <time>2024-09-04T16:34:40.446Z</time>
      </trkpt>
      <trkpt lat="50.38698" lon="2.76718">
        <ele>118.57</ele>
        <time>2024-09-04T16:34:49.349Z</time>
      </trkpt>
      <trkpt lat="50.38685" lon="2.76724">
        <ele>119.51</ele>
        <time>2024-09-04T16:34:58.254Z</time>
      </trkpt>
      <trkpt lat="50.38668" lon="2.76727">
        <ele>120.51</ele>
        <time>2024-09-04T16:35:07.162Z</time>
      </trkpt>
      <trkpt lat="50.38644" lon="2.76723">
        <ele>121.54</ele>
        <time>2024-09-04T16:35:16.074Z</time>
      </trkpt>
      <trkpt lat="50.38622" lon="2.76718">
        <ele>122.6</ele>
        <time>2024-09-04T16:35:24.989Z</time>
      </trkpt>
      <trkpt lat="50.38601" lon="2.76713">
        <ele>123.66</ele>
        <time>2024-09-04T16:35:33.908Z</time>
      </trkpt>
      <trkpt lat="50.3858" lon="2.76709">
        <ele>124.69</ele>
        <time>2024-09-04T16:35:42.830Z</time>
      </trkpt>
      <trkpt lat="50.38561" lon="2.76704">
        <ele>125.74</ele>
        <time>2024-09-04T16:35:51.755Z</time>
      </trkpt>
      <trkpt lat="50.38542" lon="2.76699">
        <ele>126.8</ele>
        <time>2024-09-04T16:36:00.683Z</time>
      </trkpt>
      <trkpt lat="50.38521" lon="2.76695">
        <ele>127.87</ele>
        <time>2024-09-04T16:36:09.615Z</time>
      </trkpt>
      <trkpt lat="50.385" lon="2.76691">
        <ele>128.92</ele>
        <time>2024-09-04T16:36:18.550Z</time>
      </trkpt>
      <trkpt lat="50.38479" lon="2.76687">
        <ele>129.98</ele>
        <time>2024-09-04T16:36:27.488Z</time>
      </trkpt>
      <trkpt lat="50.38457" lon="2.76685">
        <ele>131</ele>
        <time>2024-09-04T16:36:36.430Z</time>
      </trkpt>
      <trkpt lat="50.38432" lon="2.76686">
        <ele>132.02</ele>
        <time>2024-09-04T16:36:45.376Z</time>
      </trkpt>
      <trkpt lat="50.3841" lon="2.7669">
        <ele>133</ele>
        <time>2024-09-04T16:36:54.325Z</time>
      </trkpt>
      <trkpt lat="50.38392" lon="2.76695">
        <ele>133.97</ele>
        <time>2024-09-04T16:37:03.277Z</time>
      </trkpt>
      <trkpt lat="50.38369" lon="2.76703">
        <ele>134.9</ele>
        <time>2024-09-04T16:37:12.233Z</time>
      </trkpt>
      <trkpt lat="50.3835" lon="2.76709">
        <ele>135.82</ele>
        <time>2024-09-04T16:37:21.192Z</time>
      </trkpt>
      <trkpt lat="50.38332" lon="2.76716">
        <ele>136.76</ele>
        <time>2024-09-04T16:37:30.154Z</time>
      </trkpt>
      <trkpt lat="50.38313" lon="2.76723">
        <ele>137.67</ele>
        <time>2024-09-04T16:37:39.119Z</time>
      </trkpt>
      <trkpt lat="50.38284" lon="2.76736">
        <ele>138.54</ele>
        <time>2024-09-04T16:37:48.089Z</time>
      </trkpt>
      <trkpt lat="50.38255" lon="2.76749">
        <ele>139.35</ele>
        <time>2024-09-04T16:37:57.064Z</time>
      </trkpt>
      <trkpt lat="50.38231" lon="2.76759">
        <ele>140.14</ele>
        <time>2024-09-04T16:38:06.043Z</time>
      </trkpt>
      <trkpt lat="50.38207" lon="2.76769">
        <ele>140.9</ele>
        <time>2024-09-04T16:38:15.026Z</time>
      </trkpt>
      <trkpt lat="50.38182" lon="2.76779">
        <ele>141.65</ele>
        <time>2024-09-04T16:38:24.013Z</time>
      </trkpt>
      <trkpt lat="50.38166" lon="2.76788">
        <ele>142.33</ele>
        <time>2024-09-04T16:38:33.003Z</time>
      </trkpt>
      <trkpt lat="50.38147" lon="2.768">
        <ele>142.99</ele>
        <time>2024-09-04T16:38:41.996Z</time>
      </trkpt>
      <trkpt lat="50.38128" lon="2.76812">
        <ele>143.62</ele>
        <time>2024-09-04T16:38:50.992Z</time>
      </trkpt>
      <trkpt lat="50.38107" lon="2.76832">
        <ele>144.25</ele>
        <time>2024-09-04T16:38:59.992Z</time>
      </trkpt>
      <trkpt lat="50.38085" lon="2.76852">
        <ele>144.84</ele>
        <time>2024-09-04T16:39:08.996Z</time>
      </trkpt>
      <trkpt lat="50.38073" lon="2.76862">
        <ele>145.37</ele>
        <time>2024-09-04T16:39:18.003Z</time>
      </trkpt>
      <trkpt lat="50.38058" lon="2.76877">
        <ele>145.86</ele>
        <time>2024-09-04T16:39:27.012Z</time>
      </trkpt>
      <trkpt lat="50.38041" lon="2.76893">
        <ele>146.36</ele>
        <time>2024-09-04T16:39:36.025Z</time>
      </trkpt>
      <trkpt lat="50.38033" lon="2.76901">
        <ele>146.81</ele>
        <time>2024-09-04T16:39:45.039Z</time>
      </trkpt>
      <trkpt lat="50.3801" lon="2.7692">
        <ele>147.29</ele>
        <time>2024-09-04T16:39:54.057Z</time>
      </trkpt>
      <trkpt lat="50.37988" lon="2.76939">
        <ele>147.75</ele>
        <time>2024-09-04T16:40:03.079Z</time>
      </trkpt>
      <trkpt lat="50.37969" lon="2.76954">
        <ele>148.19</ele>
        <time>2024-09-04T16:40:12.105Z</time>
      </trkpt>
      <trkpt lat="50.37949" lon="2.76968">
        <ele>148.67</ele>
        <time>2024-09-04T16:40:21.134Z</time>
      </trkpt>
      <trkpt lat="50.3793" lon="2.76983">
        <ele>149.06</ele>
        <time>2024-09-04T16:40:30.167Z</time>
      </trkpt>
      <trkpt lat="50.37922" lon="2.76989">
        <ele>149.4</ele>
        <time>2024-09-04T16:40:39.201Z</time>
      </trkpt>
      <trkpt lat="50.37917" lon="2.76995">
        <ele>149.71</ele>
        <time>2024-09-04T16:40:48.236Z</time>
      </trkpt>
      <trkpt lat="50.37909" lon="2.77007">
        <ele>150</ele>
        <time>2024-09-04T16:40:57.273Z</time>
      </trkpt>
      <trkpt lat="50.37901" lon="2.77022">
        <ele>150.22</ele>
        <time>2024-09-04T16:41:06.312Z</time>
      </trkpt>
      <trkpt lat="50.37895" lon="2.77031">
        <ele>150.46</ele>
        <time>2024-09-04T16:41:15.352Z</time>
      </trkpt>
      <trkpt lat="50.37889" lon="2.77038">
        <ele>150.69</ele>
        <time>2024-09-04T16:41:24.393Z</time>
      </trkpt>
      <trkpt lat="50.37883" lon="2.77044">
        <ele>150.88</ele>
        <time>2024-09-04T16:41:33.435Z</time>
      </trkpt>
      <trkpt lat="50.37861" lon="2.77062">
        <ele>151.06</ele>
        <time>2024-09-04T16:41:42.481Z</time>
      </trkpt>
      <trkpt lat="50.37839" lon="2.77079">
        <ele>151.19</ele>
        <time>2024-09-04T16:41:51.531Z</time>
      </trkpt>
      <trkpt lat="50.3783" lon="2.77084">
        <ele>151.35</ele>
        <time>2024-09-04T16:42:00.583Z</time>
      </trkpt>
      <trkpt lat="50.37816" lon="2.77089">
        <ele>151.5</ele>
        <time>2024-09-04T16:42:09.637Z</time>
      </trkpt>
      <trkpt lat="50.37808" lon="2.77089">
        <ele>151.63</ele>
        <time>2024-09-04T16:42:18.693Z</time>
      </trkpt>
      <trkpt lat="50.37799" lon="2.77086">
        <ele>151.75</ele>
        <time>2024-09-04T16:42:27.750Z</time>
      </trkpt>
      <trkpt lat="50.3779" lon="2.77081">
        <ele>151.87</ele>
        <time>2024-09-04T16:42:36.808Z</time>
      </trkpt>
      <trkpt lat="50.37785" lon="2.77076">
        <ele>151.96</ele>
        <time>2024-09-04T16:42:45.867Z</time>
      </trkpt>
      <trkpt lat="50.37767" lon="2.77047">
        <ele>152.05</ele>
        <time>2024-09-04T16:42:54.931Z</time>
      </trkpt>
      <trkpt lat="50.37748" lon="2.77018">
        <ele>152.13</ele>
        <time>2024-09-04T16:43:03.999Z</time>
      </trkpt>
      <trkpt lat="50.37735" lon="2.76998">
        <ele>152.21</ele>
        <time>2024-09-04T16:43:13.070Z</time>
      </trkpt>
      <trkpt lat="50.37722" lon="2.76977">
        <ele>152.28</ele>
        <time>2024-09-04T16:43:22.144Z</time>
      </trkpt>
      <trkpt lat="50.3771" lon="2.76959">
        <ele>152.27</ele>
        <time>2024-09-04T16:43:31.220Z</time>
      </trkpt>
      <trkpt lat="50.37698" lon="2.76941">
        <ele>152.24</ele>
        <time>2024-09-04T16:43:40.299Z</time>
      </trkpt>
      <trkpt lat="50.37692" lon="2.76935">
        <ele>152.17</ele>
        <time>2024-09-04T16:43:49.379Z</time>
      </trkpt>
      <trkpt lat="50.37682" lon="2.76928">
        <ele>152.1</ele>
        <time>2024-09-04T16:43:58.461Z</time>
      </trkpt>
      <trkpt lat="50.3767" lon="2.76923">
        <ele>152</ele>
        <time>2024-09-04T16:44:07.545Z</time>
      </trkpt>
      <trkpt lat="50.37649" lon="2.76918">
        <ele>151.91</ele>
        <time>2024-09-04T16:44:16.632Z</time>
      </trkpt>
      <trkpt lat="50.37627" lon="2.76913">
        <ele>151.78</ele>
        <time>2024-09-04T16:44:25.723Z</time>
      </trkpt>
      <trkpt lat="50.37606" lon="2.76908">
        <ele>151.58</ele>
        <time>2024-09-04T16:44:34.817Z</time>
      </trkpt>
      <trkpt lat="50.37581" lon="2.76903">
        <ele>151.29</ele>
        <time>2024-09-04T16:44:43.915Z</time>
      </trkpt>
      <trkpt lat="50.37556" lon="2.76897">
        <ele>150.95</ele>
        <time>2024-09-04T16:44:53.017Z</time>
      </trkpt>
      <trkpt lat="50.37531" lon="2.76892">
        <ele>150.59</ele>
        <time>2024-09-04T16:45:02.124Z</time>
      </trkpt>
      <trkpt lat="50.37511" lon="2.76884">
        <ele>150.27</ele>
        <time>2024-09-04T16:45:11.234Z</time>
      </trkpt>
      <trkpt lat="50.37494" lon="2.76878">
        <ele>149.95</ele>
        <time>2024-09-04T16:45:20.346Z</time>
      </trkpt>
      <trkpt lat="50.37487" lon="2.76876">
        <ele>149.58</ele>
        <time>2024-09-04T16:45:29.460Z</time>
      </trkpt>
      <trkpt lat="50.37482" lon="2.76876">
        <ele>149.17</ele>
        <time>2024-09-04T16:45:38.575Z</time>
      </trkpt>
      <trkpt lat="50.37468" lon="2.76877">
        <ele>148.74</ele>
        <time>2024-09-04T16:45:47.692Z</time>
      </trkpt>
      <trkpt lat="50.37461" lon="2.76879">
        <ele>148.26</ele>
        <time>2024-09-04T16:45:56.810Z</time>
      </trkpt>
      <trkpt lat="50.3745" lon="2.76885">
        <ele>147.74</ele>
        <time>2024-09-04T16:46:05.930Z</time>
      </trkpt>
      <trkpt lat="50.37424" lon="2.76907">
        <ele>147.15</ele>
        <time>2024-09-04T16:46:15.055Z</time>
      </trkpt>
      <trkpt lat="50.37417" lon="2.76912">
        <ele>146.57</ele>
        <time>2024-09-04T16:46:24.181Z</time>
      </trkpt>
      <trkpt lat="50.37411" lon="2.76915">
        <ele>145.95</ele>
        <time>2024-09-04T16:46:33.308Z</time>
      </trkpt>
      <trkpt lat="50.37404" lon="2.76917">
        <ele>145.32</ele>
        <time>2024-09-04T16:46:42.436Z</time>
      </trkpt>
      <trkpt lat="50.37396" lon="2.76917">
        <ele>144.65</ele>
        <time>2024-09-04T16:46:51.565Z</time>
      </trkpt>
      <trkpt lat="50.37379" lon="2.76915">
        <ele>143.95</ele>
        <time>2024-09-04T16:47:00.697Z</time>
      </trkpt>
      <trkpt lat="50.37361" lon="2.76912">
        <ele>143.23</ele>
        <time>2024-09-04T16:47:09.832Z</time>
      </trkpt>
      <trkpt lat="50.37344" lon="2.7691">
        <ele>142.46</ele>
        <time>2024-09-04T16:47:18.970Z</time>
      </trkpt>
      <trkpt lat="50.37319" lon="2.76905">
        <ele>141.66</ele>
        <time>2024-09-04T16:47:28.111Z</time>
      </trkpt>
      <trkpt lat="50.37295" lon="2.76901">
        <ele>140.78</ele>
        <time>2024-09-04T16:47:37.256Z</time>
      </trkpt>
      <trkpt lat="50.37282" lon="2.76898">
        <ele>139.92</ele>
        <time>2024-09-04T16:47:46.404Z</time>
      </trkpt>
      <trkpt lat="50.37263" lon="2.76894">
        <ele>139.05</ele>
        <time>2024-09-04T16:47:55.555Z</time>
      </trkpt>
      <trkpt lat="50.37235" lon="2.76891">
        <ele>138.16</ele>
        <time>2024-09-04T16:48:04.710Z</time>
      </trkpt>
      <trkpt lat="50.37212" lon="2.7689">
        <ele>137.32</ele>
        <time>2024-09-04T16:48:13.869Z</time>
      </trkpt>
      <trkpt lat="50.3719" lon="2.76888">
        <ele>136.45</ele>
        <time>2024-09-04T16:48:23.031Z</time>
      </trkpt>
      <trkpt lat="50.3716" lon="2.76884">
        <ele>135.5</ele>
        <time>2024-09-04T16:48:32.198Z</time>
      </trkpt>
      <trkpt lat="50.37143" lon="2.76883">
        <ele>134.66</ele>
        <time>2024-09-04T16:48:41.368Z</time>
      </trkpt>
      <trkpt lat="50.37114" lon="2.76878">
        <ele>133.82</ele>
        <time>2024-09-04T16:48:50.543Z</time>
      </trkpt>
      <trkpt lat="50.37106" lon="2.76876">
        <ele>133.01</ele>
        <time>2024-09-04T16:48:59.719Z</time>
      </trkpt>
      <trkpt lat="50.37093" lon="2.76872">
        <ele>132.2</ele>
        <time>2024-09-04T16:49:08.897Z</time>
      </trkpt>
      <trkpt lat="50.37073" lon="2.76862">
        <ele>131.39</ele>
        <time>2024-09-04T16:49:18.078Z</time>
      </trkpt>
      <trkpt lat="50.37053" lon="2.76853">
        <ele>130.61</ele>
        <time>2024-09-04T16:49:27.263Z</time>
      </trkpt>
      <trkpt lat="50.37038" lon="2.76846">
        <ele>129.85</ele>
        <time>2024-09-04T16:49:36.450Z</time>
      </trkpt>
      <trkpt lat="50.37023" lon="2.76838">
        <ele>129.13</ele>
        <time>2024-09-04T16:49:45.640Z</time>
      </trkpt>
      <trkpt lat="50.37007" lon="2.76831">
        <ele>128.43</ele>
        <time>2024-09-04T16:49:54.832Z</time>
      </trkpt>
      <trkpt lat="50.36991" lon="2.76825">
        <ele>127.76</ele>
        <time>2024-09-04T16:50:04.027Z</time>
      </trkpt>
      <trkpt lat="50.36972" lon="2.7682">
        <ele>127.12</ele>
        <time>2024-09-04T16:50:13.225Z</time>
      </trkpt>
      <trkpt lat="50.36953" lon="2.76815">
        <ele>126.53</ele>
        <time>2024-09-04T16:50:22.426Z</time>
      </trkpt>
      <trkpt lat="50.36923" lon="2.7681">
        <ele>125.96</ele>
        <time>2024-09-04T16:50:31.632Z</time>
      </trkpt>
      <trkpt lat="50.36904" lon="2.7681">
        <ele>125.43</ele>
        <time>2024-09-04T16:50:40.841Z</time>
      </trkpt>
      <trkpt lat="50.36884" lon="2.76809">
        <ele>124.93</ele>
        <time>2024-09-04T16:50:50.053Z</time>
      </trkpt>
      <trkpt lat="50.36861" lon="2.76809">
        <ele>124.45</ele>
        <time>2024-09-04T16:50:59.269Z</time>
      </trkpt>
      <trkpt lat="50.36838" lon="2.7681">
        <ele>123.97</ele>
        <time>2024-09-04T16:51:08.489Z</time>
      </trkpt>
      <trkpt lat="50.36826" lon="2.76809">
        <ele>123.53</ele>
        <time>2024-09-04T16:51:17.710Z</time>
      </trkpt>
      <trkpt lat="50.36797" lon="2.76807">
        <ele>123.1</ele>
        <time>2024-09-04T16:51:26.936Z</time>
      </trkpt>
      <trkpt lat="50.36768" lon="2.76805">
        <ele>122.73</ele>
        <time>2024-09-04T16:51:36.167Z</time>
      </trkpt>
      <trkpt lat="50.36741" lon="2.76797">
        <ele>122.43</ele>
        <time>2024-09-04T16:51:45.402Z</time>
      </trkpt>
      <trkpt lat="50.36714" lon="2.76788">
        <ele>122.08</ele>
        <time>2024-09-04T16:51:54.642Z</time>
      </trkpt>
      <trkpt lat="50.36688" lon="2.76779">
        <ele>121.77</ele>
        <time>2024-09-04T16:52:03.886Z</time>
      </trkpt>
      <trkpt lat="50.36658" lon="2.76766">
        <ele>121.47</ele>
        <time>2024-09-04T16:52:13.135Z</time>
      </trkpt>
      <trkpt lat="50.36627" lon="2.76753">
        <ele>121.15</ele>
        <time>2024-09-04T16:52:22.389Z</time>
      </trkpt>
      <trkpt lat="50.36612" lon="2.76748">
        <ele>120.88</ele>
        <time>2024-09-04T16:52:31.646Z</time>
      </trkpt>
      <trkpt lat="50.36596" lon="2.76742">
        <ele>120.64</ele>
        <time>2024-09-04T16:52:40.905Z</time>
      </trkpt>
      <trkpt lat="50.36582" lon="2.76736">
        <ele>120.42</ele>
        <time>2024-09-04T16:52:50.166Z</time>
      </trkpt>
      <trkpt lat="50.36554" lon="2.76725">
        <ele>120.18</ele>
        <time>2024-09-04T16:52:59.432Z</time>
      </trkpt>
      <trkpt lat="50.36527" lon="2.76714">
        <ele>119.89</ele>
        <time>2024-09-04T16:53:08.703Z</time>
      </trkpt>
      <trkpt lat="50.36497" lon="2.76705">
        <ele>119.66</ele>
        <time>2024-09-04T16:53:17.978Z</time>
      </trkpt>
      <trkpt lat="50.36474" lon="2.76704">
        <ele>119.49</ele>
        <time>2024-09-04T16:53:27.257Z</time>
      </trkpt>
      <trkpt lat="50.36458" lon="2.76705">
        <ele>119.29</ele>
        <time>2024-09-04T16:53:36.539Z</time>
      </trkpt>
      <trkpt lat="50.36442" lon="2.76706">
        <ele>119.08</ele>
        <time>2024-09-04T16:53:45.823Z</time>
      </trkpt>
      <trkpt lat="50.3642" lon="2.76709">
        <ele>118.87</ele>
        <time>2024-09-04T16:53:55.111Z</time>
      </trkpt>
      <trkpt lat="50.36398" lon="2.76713">
        <ele>118.68</ele>
        <time>2024-09-04T16:54:04.402Z</time>
      </trkpt>
      <trkpt lat="50.36376" lon="2.76717">
        <ele>118.52</ele>
        <time>2024-09-04T16:54:13.697Z</time>
      </trkpt>
      <trkpt lat="50.36359" lon="2.76718">
        <ele>118.35</ele>
        <time>2024-09-04T16:54:22.995Z</time>
      </trkpt>
      <trkpt lat="50.36341" lon="2.7672">
        <ele>118.16</ele>
        <time>2024-09-04T16:54:32.295Z</time>
      </trkpt>
      <trkpt lat="50.36324" lon="2.76719">
        <ele>117.97</ele>
        <time>2024-09-04T16:54:41.598Z</time>
      </trkpt>
      <trkpt lat="50.36307" lon="2.76714">
        <ele>117.76</ele>
        <time>2024-09-04T16:54:50.904Z</time>
      </trkpt>
      <trkpt lat="50.36289" lon="2.7671">
        <ele>117.54</ele>
        <time>2024-09-04T16:55:00.213Z</time>
      </trkpt>
      <trkpt lat="50.36282" lon="2.76708">
        <ele>117.34</ele>
        <time>2024-09-04T16:55:09.523Z</time>
      </trkpt>
      <trkpt lat="50.36262" lon="2.76698">
        <ele>117.16</ele>
        <time>2024-09-04T16:55:18.836Z</time>
      </trkpt>
      <trkpt lat="50.36241" lon="2.76688">
        <ele>117</ele>
        <time>2024-09-04T16:55:28.153Z</time>
      </trkpt>
      <trkpt lat="50.36236" lon="2.76686">
        <ele>116.81</ele>
        <time>2024-09-04T16:55:37.471Z</time>
      </trkpt>
      <trkpt lat="50.36223" lon="2.76681">
        <ele>116.62</ele>
        <time>2024-09-04T16:55:46.791Z</time>
      </trkpt>
      <trkpt lat="50.36198" lon="2.76669">
        <ele>116.39</ele>
        <time>2024-09-04T16:55:56.115Z</time>
      </trkpt>
      <trkpt lat="50.36181" lon="2.76652">
        <ele>116.15</ele>
        <time>2024-09-04T16:56:05.442Z</time>
      </trkpt>
      <trkpt lat="50.36164" lon="2.76634">
        <ele>115.9</ele>
        <time>2024-09-04T16:56:14.773Z</time>
      </trkpt>
      <trkpt lat="50.36147" lon="2.76615">
        <ele>115.67</ele>
        <time>2024-09-04T16:56:24.107Z</time>
      </trkpt>
      <trkpt lat="50.36133" lon="2.766">
        <ele>115.44</ele>
        <time>2024-09-04T16:56:33.444Z</time>
      </trkpt>
      <trkpt lat="50.3612" lon="2.76585">
        <ele>115.18</ele>
        <time>2024-09-04T16:56:42.783Z</time>
      </trkpt>
      <trkpt lat="50.36098" lon="2.76565">
        <ele>114.91</ele>
        <time>2024-09-04T16:56:52.126Z</time>
      </trkpt>
      <trkpt lat="50.36071" lon="2.76543">
        <ele>114.63</ele>
        <time>2024-09-04T16:57:01.474Z</time>
      </trkpt>
      <trkpt lat="50.36049" lon="2.76525">
        <ele>114.36</ele>
        <time>2024-09-04T16:57:10.826Z</time>
      </trkpt>
      <trkpt lat="50.36027" lon="2.76506">
        <ele>114.05</ele>
        <time>2024-09-04T16:57:20.182Z</time>
      </trkpt>
      <trkpt lat="50.36008" lon="2.76492">
        <ele>113.81</ele>
        <time>2024-09-04T16:57:29.542Z</time>
      </trkpt>
      <trkpt lat="50.35989" lon="2.76476">
        <ele>113.55</ele>
        <time>2024-09-04T16:57:38.905Z</time>
      </trkpt>
      <trkpt lat="50.3597" lon="2.76461">
        <ele>113.29</ele>
        <time>2024-09-04T16:57:48.271Z</time>
      </trkpt>
      <trkpt lat="50.35943" lon="2.76439">
        <ele>113.03</ele>
        <time>2024-09-04T16:57:57.642Z</time>
      </trkpt>
      <trkpt lat="50.3593" lon="2.76429">
        <ele>112.79</ele>
        <time>2024-09-04T16:58:07.016Z</time>
      </trkpt>
      <trkpt lat="50.35911" lon="2.76413">
        <ele>112.55</ele>
        <time>2024-09-04T16:58:16.393Z</time>
      </trkpt>
      <trkpt lat="50.35892" lon="2.76398">
        <ele>112.3</ele>
        <time>2024-09-04T16:58:25.774Z</time>
      </trkpt>
      <trkpt lat="50.35875" lon="2.76385">
        <ele>112.08</ele>
        <time>2024-09-04T16:58:35.158Z</time>
      </trkpt>
      <trkpt lat="50.35859" lon="2.76372">
        <ele>111.87</ele>
        <time>2024-09-04T16:58:44.545Z</time>
      </trkpt>
      <trkpt lat="50.35843" lon="2.76362">
        <ele>111.68</ele>
        <time>2024-09-04T16:58:53.934Z</time>
      </trkpt>
      <trkpt lat="50.35828" lon="2.76352">
        <ele>111.5</ele>
        <time>2024-09-04T16:59:03.326Z</time>
      </trkpt>
      <trkpt lat="50.35802" lon="2.76335">
        <ele>111.28</ele>
        <time>2024-09-04T16:59:12.722Z</time>
      </trkpt>
      <trkpt lat="50.35775" lon="2.76318">
        <ele>111.07</ele>
        <time>2024-09-04T16:59:22.123Z</time>
      </trkpt>
      <trkpt lat="50.35749" lon="2.763">
        <ele>110.88</ele>
        <time>2024-09-04T16:59:31.528Z</time>
      </trkpt>
      <trkpt lat="50.3574" lon="2.76289">
        <ele>110.71</ele>
        <time>2024-09-04T16:59:40.935Z</time>
      </trkpt>
      <trkpt lat="50.35723" lon="2.76266">
        <ele>110.56</ele>
        <time>2024-09-04T16:59:50.346Z</time>
      </trkpt>
      <trkpt lat="50.35706" lon="2.76243">
        <ele>110.4</ele>
        <time>2024-09-04T16:59:59.761Z</time>
      </trkpt>
      <trkpt lat="50.35685" lon="2.76215">
        <ele>110.24</ele>
        <time>2024-09-04T17:00:09.180Z</time>
      </trkpt>
      <trkpt lat="50.35665" lon="2.76188">
        <ele>110.1</ele>
        <time>2024-09-04T17:00:18.603Z</time>
      </trkpt>
      <trkpt lat="50.35657" lon="2.76177">
        <ele>109.93</ele>
        <time>2024-09-04T17:00:28.028Z</time>
      </trkpt>
      <trkpt lat="50.35636" lon="2.76151">
        <ele>109.75</ele>
        <time>2024-09-04T17:00:37.457Z</time>
      </trkpt>
      <trkpt lat="50.35614" lon="2.76125">
        <ele>109.55</ele>
        <time>2024-09-04T17:00:46.891Z</time>
      </trkpt>
      <trkpt lat="50.35603" lon="2.76112">
        <ele>109.35</ele>
        <time>2024-09-04T17:00:56.327Z</time>
      </trkpt>
      <trkpt lat="50.35592" lon="2.761">
        <ele>109.15</ele>
        <time>2024-09-04T17:01:05.765Z</time>
      </trkpt>
      <trkpt lat="50.35572" lon="2.76074">
        <ele>108.92</ele>
        <time>2024-09-04T17:01:15.207Z</time>
      </trkpt>
      <trkpt lat="50.35552" lon="2.76049">
        <ele>108.71</ele>
        <time>2024-09-04T17:01:24.653Z</time>
      </trkpt>
      <trkpt lat="50.35536" lon="2.76024">
        <ele>108.51</ele>
        <time>2024-09-04T17:01:34.103Z</time>
      </trkpt>
      <trkpt lat="50.35533" lon="2.76017">
        <ele>108.3</ele>
        <time>2024-09-04T17:01:43.554Z</time>
      </trkpt>
      <trkpt lat="50.35535" lon="2.76014">
        <ele>108.09</ele>
        <time>2024-09-04T17:01:53.005Z</time>
      </trkpt>
      <trkpt lat="50.35536" lon="2.76009">
        <ele>107.87</ele>
        <time>2024-09-04T17:02:02.457Z</time>
      </trkpt>
      <trkpt lat="50.35535" lon="2.76005">
        <ele>107.64</ele>
        <time>2024-09-04T17:02:11.909Z</time>
      </trkpt>
      <trkpt lat="50.35533" lon="2.76001">
        <ele>107.4</ele>
        <time>2024-09-04T17:02:21.362Z</time>
      </trkpt>
      <trkpt lat="50.35535" lon="2.75974">
        <ele>107.15</ele>
        <time>2024-09-04T17:02:30.817Z</time>
      </trkpt>
      <trkpt lat="50.35537" lon="2.75964">
        <ele>106.9</ele>
        <time>2024-09-04T17:02:40.274Z</time>
      </trkpt>
      <trkpt lat="50.35539" lon="2.75929">
        <ele>106.63</ele>
        <time>2024-09-04T17:02:49.734Z</time>
      </trkpt>
      <trkpt lat="50.3554" lon="2.75917">
        <ele>106.35</ele>
        <time>2024-09-04T17:02:59.195Z</time>
      </trkpt>
      <trkpt lat="50.3554" lon="2.759">
        <ele>106.06</ele>
        <time>2024-09-04T17:03:08.658Z</time>
      </trkpt>
      <trkpt lat="50.35542" lon="2.75862">
        <ele>105.74</ele>
        <time>2024-09-04T17:03:18.125Z</time>
      </trkpt>
      <trkpt lat="50.35544" lon="2.75823">
        <ele>105.42</ele>
        <time>2024-09-04T17:03:27.596Z</time>
      </trkpt>
      <trkpt lat="50.35543" lon="2.75802">
        <ele>105.09</ele>
        <time>2024-09-04T17:03:37.069Z</time>
      </trkpt>
      <trkpt lat="50.3554" lon="2.75769">
        <ele>104.77</ele>
        <time>2024-09-04T17:03:46.546Z</time>
      </trkpt>
      <trkpt lat="50.35537" lon="2.75745">
        <ele>104.45</ele>
        <time>2024-09-04T17:03:56.025Z</time>
      </trkpt>
      <trkpt lat="50.35531" lon="2.7572">
        <ele>104.11</ele>
        <time>2024-09-04T17:04:05.507Z</time>
      </trkpt>
      <trkpt lat="50.35528" lon="2.75707">
        <ele>103.78</ele>
        <time>2024-09-04T17:04:14.990Z</time>
      </trkpt>
      <trkpt lat="50.35524" lon="2.75692">
        <ele>103.45</ele>
        <time>2024-09-04T17:04:24.475Z</time>
      </trkpt>
      <trkpt lat="50.35514" lon="2.75654">
        <ele>103.08</ele>
        <time>2024-09-04T17:04:33.964Z</time>
      </trkpt>
      <trkpt lat="50.35504" lon="2.75615">
        <ele>102.69</ele>
        <time>2024-09-04T17:04:43.457Z</time>
      </trkpt>
      <trkpt lat="50.35494" lon="2.75576">
        <ele>102.35</ele>
        <time>2024-09-04T17:04:52.955Z</time>
      </trkpt>
      <trkpt lat="50.35486" lon="2.75539">
        <ele>101.98</ele>
        <time>2024-09-04T17:05:02.457Z</time>
      </trkpt>
      <trkpt lat="50.35481" lon="2.75512">
        <ele>101.63</ele>
        <time>2024-09-04T17:05:11.962Z</time>
      </trkpt>
      <trkpt lat="50.35476" lon="2.75486">
        <ele>101.27</ele>
        <time>2024-09-04T17:05:21.469Z</time>
      </trkpt>
      <trkpt lat="50.35471" lon="2.7545">
        <ele>100.91</ele>
        <time>2024-09-04T17:05:30.980Z</time>
      </trkpt>
      <trkpt lat="50.35468" lon="2.75427">
        <ele>100.57</ele>
        <time>2024-09-04T17:05:40.494Z</time>
      </trkpt>
      <trkpt lat="50.35465" lon="2.75406">
        <ele>100.25</ele>
        <time>2024-09-04T17:05:50.010Z</time>
      </trkpt>
      <trkpt lat="50.35468" lon="2.75404">
        <ele>99.96</ele>
        <time>2024-09-04T17:05:59.526Z</time>
      </trkpt>
      <trkpt lat="50.35472" lon="2.75401">
        <ele>99.68</ele>
        <time>2024-09-04T17:06:09.043Z</time>
      </trkpt>
      <trkpt lat="50.35475" lon="2.75394">
        <ele>99.41</ele>
        <time>2024-09-04T17:06:18.561Z</time>
      </trkpt>
      <trkpt lat="50.35479" lon="2.75381">
        <ele>99.15</ele>
        <time>2024-09-04T17:06:28.080Z</time>
      </trkpt>
      <trkpt lat="50.35487" lon="2.75346">
        <ele>98.9</ele>
        <time>2024-09-04T17:06:37.603Z</time>
      </trkpt>
      <trkpt lat="50.35496" lon="2.75311">
        <ele>98.7</ele>
        <time>2024-09-04T17:06:47.130Z</time>
      </trkpt>
      <trkpt lat="50.35504" lon="2.75276">
        <ele>98.59</ele>
        <time>2024-09-04T17:06:56.661Z</time>
      </trkpt>
      <trkpt lat="50.35509" lon="2.75255">
        <ele>98.45</ele>
        <time>2024-09-04T17:07:06.194Z</time>
      </trkpt>
      <trkpt lat="50.35509" lon="2.75243">
        <ele>98.32</ele>
        <time>2024-09-04T17:07:15.728Z</time>
      </trkpt>
      <trkpt lat="50.35508" lon="2.7523">
        <ele>98.2</ele>
        <time>2024-09-04T17:07:25.264Z</time>
      </trkpt>
      <trkpt lat="50.35505" lon="2.7522">
        <ele>98.1</ele>
        <time>2024-09-04T17:07:34.801Z</time>
      </trkpt>
      <trkpt lat="50.35493" lon="2.7518">
        <ele>97.96</ele>
        <time>2024-09-04T17:07:44.342Z</time>
      </trkpt>
      <trkpt lat="50.35481" lon="2.7514">
        <ele>97.91</ele>
        <time>2024-09-04T17:07:53.888Z</time>
      </trkpt>
      <trkpt lat="50.35475" lon="2.75113">
        <ele>97.91</ele>
        <time>2024-09-04T17:08:03.437Z</time>
      </trkpt>
      <trkpt lat="50.35469" lon="2.75086">
        <ele>97.9</ele>
        <time>2024-09-04T17:08:12.989Z</time>
      </trkpt>
      <trkpt lat="50.35464" lon="2.75042">
        <ele>97.93</ele>
        <time>2024-09-04T17:08:22.545Z</time>
      </trkpt>
      <trkpt lat="50.35458" lon="2.74999">
        <ele>97.92</ele>
        <time>2024-09-04T17:08:32.106Z</time>
      </trkpt>
      <trkpt lat="50.35456" lon="2.74979">
        <ele>97.98</ele>
        <time>2024-09-04T17:08:41.669Z</time>
      </trkpt>
      <trkpt lat="50.35452" lon="2.74946">
        <ele>98.03</ele>
        <time>2024-09-04T17:08:51.235Z</time>
      </trkpt>
      <trkpt lat="50.35448" lon="2.74913">
        <ele>98.09</ele>
        <time>2024-09-04T17:09:00.805Z</time>
      </trkpt>
      <trkpt lat="50.35444" lon="2.7488">
        <ele>98.16</ele>
        <time>2024-09-04T17:09:10.378Z</time>
      </trkpt>
      <trkpt lat="50.3544" lon="2.74837">
        <ele>98.26</ele>
        <time>2024-09-04T17:09:19.956Z</time>
      </trkpt>
      <trkpt lat="50.35439" lon="2.74829">
        <ele>98.37</ele>
        <time>2024-09-04T17:09:29.535Z</time>
      </trkpt>
      <trkpt lat="50.35438" lon="2.74821">
        <ele>98.5</ele>
        <time>2024-09-04T17:09:39.114Z</time>
      </trkpt>
      <trkpt lat="50.35434" lon="2.74779">
        <ele>98.63</ele>
        <time>2024-09-04T17:09:48.698Z</time>
      </trkpt>
      <trkpt lat="50.35429" lon="2.74738">
        <ele>98.76</ele>
        <time>2024-09-04T17:09:58.286Z</time>
      </trkpt>
      <trkpt lat="50.35423" lon="2.74691">
        <ele>98.91</ele>
        <time>2024-09-04T17:10:07.879Z</time>
      </trkpt>
      <trkpt lat="50.35417" lon="2.74645">
        <ele>99.1</ele>
        <time>2024-09-04T17:10:17.477Z</time>
      </trkpt>
      <trkpt lat="50.35411" lon="2.74598">
        <ele>99.21</ele>
        <time>2024-09-04T17:10:27.080Z</time>
      </trkpt>
      <trkpt lat="50.35405" lon="2.74551">
        <ele>99.33</ele>
        <time>2024-09-04T17:10:36.688Z</time>
      </trkpt>
      <trkpt lat="50.35399" lon="2.74513">
        <ele>99.45</ele>
        <time>2024-09-04T17:10:46.300Z</time>
      </trkpt>
      <trkpt lat="50.35392" lon="2.74474">
        <ele>99.63</ele>
        <time>2024-09-04T17:10:55.916Z</time>
      </trkpt>
      <trkpt lat="50.35386" lon="2.74436">
        <ele>99.84</ele>
        <time>2024-09-04T17:11:05.536Z</time>
      </trkpt>
      <trkpt lat="50.3538" lon="2.74398">
        <ele>100.01</ele>
        <time>2024-09-04T17:11:15.160Z</time>
      </trkpt>
      <trkpt lat="50.35373" lon="2.7436">
        <ele>100.13</ele>
        <time>2024-09-04T17:11:24.788Z</time>
      </trkpt>
      <trkpt lat="50.35366" lon="2.74323">
        <ele>100.27</ele>
        <time>2024-09-04T17:11:34.420Z</time>
      </trkpt>
      <trkpt lat="50.35359" lon="2.74285">
        <ele>100.34</ele>
        <time>2024-09-04T17:11:44.056Z</time>
      </trkpt>
      <trkpt lat="50.35352" lon="2.74248">
        <ele>100.4</ele>
        <time>2024-09-04T17:11:53.696Z</time>
      </trkpt>
      <trkpt lat="50.35345" lon="2.74209">
        <ele>100.49</ele>
        <time>2024-09-04T17:12:03.340Z</time>
      </trkpt>
      <trkpt lat="50.35339" lon="2.74169">
        <ele>100.55</ele>
        <time>2024-09-04T17:12:12.988Z</time>
      </trkpt>
      <trkpt lat="50.35334" lon="2.74136">
        <ele>100.65</ele>
        <time>2024-09-04T17:12:22.640Z</time>
      </trkpt>
      <trkpt lat="50.35328" lon="2.74094">
        <ele>100.71</ele>
        <time>2024-09-04T17:12:32.296Z</time>
      </trkpt>
      <trkpt lat="50.35323" lon="2.74055">
        <ele>100.71</ele>
        <time>2024-09-04T17:12:41.956Z</time>
      </trkpt>
      <trkpt lat="50.35318" lon="2.74015">
        <ele>100.76</ele>
        <time>2024-09-04T17:12:51.620Z</time>
      </trkpt>
      <trkpt lat="50.35313" lon="2.73976">
        <ele>100.76</ele>
        <time>2024-09-04T17:13:01.288Z</time>
      </trkpt>
      <trkpt lat="50.35309" lon="2.73951">
        <ele>100.79</ele>
        <time>2024-09-04T17:13:10.959Z</time>
      </trkpt>
      <trkpt lat="50.35305" lon="2.73927">
        <ele>100.8</ele>
        <time>2024-09-04T17:13:20.632Z</time>
      </trkpt>
      <trkpt lat="50.35296" lon="2.73889">
        <ele>100.83</ele>
        <time>2024-09-04T17:13:30.310Z</time>
      </trkpt>
      <trkpt lat="50.35286" lon="2.73851">
        <ele>100.89</ele>
        <time>2024-09-04T17:13:39.992Z</time>
      </trkpt>
      <trkpt lat="50.35276" lon="2.73813">
        <ele>100.94</ele>
        <time>2024-09-04T17:13:49.678Z</time>
      </trkpt>
      <trkpt lat="50.35265" lon="2.73775">
        <ele>101.03</ele>
        <time>2024-09-04T17:13:59.368Z</time>
      </trkpt>
      <trkpt lat="50.35256" lon="2.7374">
        <ele>101.08</ele>
        <time>2024-09-04T17:14:09.062Z</time>
      </trkpt>
      <trkpt lat="50.35246" lon="2.73705">
        <ele>101.15</ele>
        <time>2024-09-04T17:14:18.760Z</time>
      </trkpt>
      <trkpt lat="50.35236" lon="2.7367">
        <ele>101.23</ele>
        <time>2024-09-04T17:14:28.462Z</time>
      </trkpt>
      <trkpt lat="50.35226" lon="2.73629">
        <ele>101.32</ele>
        <time>2024-09-04T17:14:38.169Z</time>
      </trkpt>
      <trkpt lat="50.35221" lon="2.73601">
        <ele>101.42</ele>
        <time>2024-09-04T17:14:47.879Z</time>
      </trkpt>
      <trkpt lat="50.35216" lon="2.73573">
        <ele>101.56</ele>
        <time>2024-09-04T17:14:57.592Z</time>
      </trkpt>
      <trkpt lat="50.35211" lon="2.73536">
        <ele>101.75</ele>
        <time>2024-09-04T17:15:07.308Z</time>
      </trkpt>
      <trkpt lat="50.35207" lon="2.735">
        <ele>101.89</ele>
        <time>2024-09-04T17:15:17.028Z</time>
      </trkpt>
      <trkpt lat="50.35202" lon="2.73463">
        <ele>102.05</ele>
        <time>2024-09-04T17:15:26.752Z</time>
      </trkpt>
      <trkpt lat="50.35198" lon="2.73427">
        <ele>102.22</ele>
        <time>2024-09-04T17:15:36.480Z</time>
      </trkpt>
      <trkpt lat="50.35193" lon="2.73381">
        <ele>102.42</ele>
        <time>2024-09-04T17:15:46.213Z</time>
      </trkpt>
      <trkpt lat="50.35189" lon="2.73335">
        <ele>102.67</ele>
        <time>2024-09-04T17:15:55.950Z</time>
      </trkpt>
      <trkpt lat="50.35183" lon="2.73287">
        <ele>102.89</ele>
        <time>2024-09-04T17:16:05.692Z</time>
      </trkpt>
      <trkpt lat="50.35178" lon="2.73243">
        <ele>103.1</ele>
        <time>2024-09-04T17:16:15.439Z</time>
      </trkpt>
      <trkpt lat="50.35174" lon="2.732">
        <ele>103.29</ele>
        <time>2024-09-04T17:16:25.190Z</time>
      </trkpt>
      <trkpt lat="50.35169" lon="2.73156">
        <ele>103.55</ele>
        <time>2024-09-04T17:16:34.946Z</time>
      </trkpt>
      <trkpt lat="50.35165" lon="2.73121">
        <ele>103.79</ele>
        <time>2024-09-04T17:16:44.706Z</time>
      </trkpt>
      <trkpt lat="50.35161" lon="2.73085">
        <ele>104.04</ele>
        <time>2024-09-04T17:16:54.469Z</time>
      </trkpt>
      <trkpt lat="50.35157" lon="2.73049">
        <ele>104.28</ele>
        <time>2024-09-04T17:17:04.236Z</time>
      </trkpt>
      <trkpt lat="50.35152" lon="2.73024">
        <ele>104.55</ele>
        <time>2024-09-04T17:17:14.006Z</time>
      </trkpt>
      <trkpt lat="50.35147" lon="2.73">
        <ele>104.82</ele>
        <time>2024-09-04T17:17:23.778Z</time>
      </trkpt>
      <trkpt lat="50.3514" lon="2.72964">
        <ele>105.1</ele>
        <time>2024-09-04T17:17:33.554Z</time>
      </trkpt>
      <trkpt lat="50.35132" lon="2.72928">
        <ele>105.39</ele>
        <time>2024-09-04T17:17:43.334Z</time>
      </trkpt>
      <trkpt lat="50.35124" lon="2.72893">
        <ele>105.66</ele>
        <time>2024-09-04T17:17:53.118Z</time>
      </trkpt>
      <trkpt lat="50.35116" lon="2.72857">
        <ele>105.88</ele>
        <time>2024-09-04T17:18:02.906Z</time>
      </trkpt>
      <trkpt lat="50.35109" lon="2.72826">
        <ele>106.09</ele>
        <time>2024-09-04T17:18:12.697Z</time>
      </trkpt>
      <trkpt lat="50.35101" lon="2.72794">
        <ele>106.3</ele>
        <time>2024-09-04T17:18:22.492Z</time>
      </trkpt>
      <trkpt lat="50.35095" lon="2.7276">
        <ele>106.53</ele>
        <time>2024-09-04T17:18:32.290Z</time>
      </trkpt>
      <trkpt lat="50.35091" lon="2.72734">
        <ele>106.74</ele>
        <time>2024-09-04T17:18:42.091Z</time>
      </trkpt>
      <trkpt lat="50.3509" lon="2.72714">
        <ele>106.91</ele>
        <time>2024-09-04T17:18:51.894Z</time>
      </trkpt>
      <trkpt lat="50.3509" lon="2.72685">
        <ele>107.05</ele>
        <time>2024-09-04T17:19:01.700Z</time>
      </trkpt>
      <trkpt lat="50.35092" lon="2.72639">
        <ele>107.17</ele>
        <time>2024-09-04T17:19:11.511Z</time>
      </trkpt>
      <trkpt lat="50.35094" lon="2.72592">
        <ele>107.28</ele>
        <time>2024-09-04T17:19:21.327Z</time>
      </trkpt>
      <trkpt lat="50.35096" lon="2.72546">
        <ele>107.37</ele>
        <time>2024-09-04T17:19:31.147Z</time>
      </trkpt>
      <trkpt lat="50.35098" lon="2.725">
        <ele>107.42</ele>
        <time>2024-09-04T17:19:40.972Z</time>
      </trkpt>
      <trkpt lat="50.351" lon="2.72453">
        <ele>107.44</ele>
        <time>2024-09-04T17:19:50.802Z</time>
      </trkpt>
      <trkpt lat="50.35101" lon="2.72408">
        <ele>107.46</ele>
        <time>2024-09-04T17:20:00.637Z</time>
      </trkpt>
      <trkpt lat="50.35104" lon="2.7238">
        <ele>107.45</ele>
        <time>2024-09-04T17:20:10.475Z</time>
      </trkpt>
      <trkpt lat="50.35106" lon="2.72335">
        <ele>107.38</ele>
        <time>2024-09-04T17:20:20.317Z</time>
      </trkpt>
      <trkpt lat="50.35109" lon="2.7229">
        <ele>107.29</ele>
        <time>2024-09-04T17:20:30.164Z</time>
      </trkpt>
      <trkpt lat="50.35111" lon="2.72245">
        <ele>107.17</ele>
        <time>2024-09-04T17:20:40.015Z</time>
      </trkpt>
      <trkpt lat="50.35113" lon="2.722">
        <ele>107.02</ele>
        <time>2024-09-04T17:20:49.871Z</time>
      </trkpt>
      <trkpt lat="50.35115" lon="2.72155">
        <ele>106.81</ele>
        <time>2024-09-04T17:20:59.732Z</time>
      </trkpt>
      <trkpt lat="50.35117" lon="2.7211">
        <ele>106.57</ele>
        <time>2024-09-04T17:21:09.597Z</time>
      </trkpt>
      <trkpt lat="50.35119" lon="2.72066">
        <ele>106.39</ele>
        <time>2024-09-04T17:21:19.467Z</time>
      </trkpt>
      <trkpt lat="50.35122" lon="2.72021">
        <ele>106.15</ele>
        <time>2024-09-04T17:21:29.341Z</time>
      </trkpt>
      <trkpt lat="50.35124" lon="2.71976">
        <ele>105.89</ele>
        <time>2024-09-04T17:21:39.220Z</time>
      </trkpt>
      <trkpt lat="50.35126" lon="2.71931">
        <ele>105.6</ele>
        <time>2024-09-04T17:21:49.104Z</time>
      </trkpt>
      <trkpt lat="50.35128" lon="2.71887">
        <ele>105.3</ele>
        <time>2024-09-04T17:21:58.992Z</time>
      </trkpt>
      <trkpt lat="50.35129" lon="2.71849">
        <ele>104.94</ele>
        <time>2024-09-04T17:22:08.884Z</time>
      </trkpt>
      <trkpt lat="50.3513" lon="2.71811">
        <ele>104.61</ele>
        <time>2024-09-04T17:22:18.780Z</time>
      </trkpt>
      <trkpt lat="50.35131" lon="2.71773">
        <ele>104.24</ele>
        <time>2024-09-04T17:22:28.680Z</time>
      </trkpt>
      <trkpt lat="50.35132" lon="2.71735">
        <ele>103.89</ele>
        <time>2024-09-04T17:22:38.584Z</time>
      </trkpt>
      <trkpt lat="50.35134" lon="2.71693">
        <ele>103.53</ele>
        <time>2024-09-04T17:22:48.492Z</time>
      </trkpt>
      <trkpt lat="50.35136" lon="2.71651">
        <ele>103.17</ele>
        <time>2024-09-04T17:22:58.404Z</time>
      </trkpt>
      <trkpt lat="50.35138" lon="2.7161">
        <ele>102.84</ele>
        <time>2024-09-04T17:23:08.321Z</time>
      </trkpt>
      <trkpt lat="50.3514" lon="2.71568">
        <ele>102.49</ele>
        <time>2024-09-04T17:23:18.242Z</time>
      </trkpt>
      <trkpt lat="50.35142" lon="2.71526">
        <ele>102.18</ele>
        <time>2024-09-04T17:23:28.167Z</time>
      </trkpt>
      <trkpt lat="50.35144" lon="2.71485">
        <ele>101.88</ele>
        <time>2024-09-04T17:23:38.096Z</time>
      </trkpt>
      <trkpt lat="50.35145" lon="2.71443">
        <ele>101.58</ele>
        <time>2024-09-04T17:23:48.030Z</time>
      </trkpt>
      <trkpt lat="50.35144" lon="2.71415">
        <ele>101.32</ele>
        <time>2024-09-04T17:23:57.967Z</time>
      </trkpt>
      <trkpt lat="50.35129" lon="2.71375">
        <ele>101.1</ele>
        <time>2024-09-04T17:24:07.908Z</time>
      </trkpt>
      <trkpt lat="50.35114" lon="2.71339">
        <ele>100.83</ele>
        <time>2024-09-04T17:24:17.854Z</time>
      </trkpt>
      <trkpt lat="50.35099" lon="2.71304">
        <ele>100.6</ele>
        <time>2024-09-04T17:24:27.804Z</time>
      </trkpt>
      <trkpt lat="50.35084" lon="2.71269">
        <ele>100.39</ele>
        <time>2024-09-04T17:24:37.758Z</time>
      </trkpt>
      <trkpt lat="50.35069" lon="2.71234">
        <ele>100.25</ele>
        <time>2024-09-04T17:24:47.717Z</time>
      </trkpt>
      <trkpt lat="50.3505" lon="2.71204">
        <ele>100.12</ele>
        <time>2024-09-04T17:24:57.680Z</time>
      </trkpt>
      <trkpt lat="50.35031" lon="2.71174">
        <ele>99.94</ele>
        <time>2024-09-04T17:25:07.647Z</time>
      </trkpt>
      <trkpt lat="50.35012" lon="2.71144">
        <ele>99.84</ele>
        <time>2024-09-04T17:25:17.619Z</time>
      </trkpt>
      <trkpt lat="50.34993" lon="2.71113">
        <ele>99.77</ele>
        <time>2024-09-04T17:25:27.595Z</time>
      </trkpt>
      <trkpt lat="50.34974" lon="2.71083">
        <ele>99.7</ele>
        <time>2024-09-04T17:25:37.575Z</time>
      </trkpt>
      <trkpt lat="50.34955" lon="2.71053">
        <ele>99.64</ele>
        <time>2024-09-04T17:25:47.560Z</time>
      </trkpt>
      <trkpt lat="50.34942" lon="2.71011">
        <ele>99.58</ele>
        <time>2024-09-04T17:25:57.550Z</time>
      </trkpt>
      <trkpt lat="50.34928" lon="2.70969">
        <ele>99.63</ele>
        <time>2024-09-04T17:26:07.544Z</time>
      </trkpt>
      <trkpt lat="50.34918" lon="2.70929">
        <ele>99.64</ele>
        <time>2024-09-04T17:26:17.543Z</time>
      </trkpt>
      <trkpt lat="50.34907" lon="2.70889">
        <ele>99.57</ele>
        <time>2024-09-04T17:26:27.546Z</time>
      </trkpt>
      <trkpt lat="50.34896" lon="2.70846">
        <ele>99.55</ele>
        <time>2024-09-04T17:26:37.554Z</time>
      </trkpt>
      <trkpt lat="50.34884" lon="2.70803">
        <ele>99.63</ele>
        <time>2024-09-04T17:26:47.567Z</time>
      </trkpt>
      <trkpt lat="50.34873" lon="2.7076">
        <ele>99.67</ele>
        <time>2024-09-04T17:26:57.585Z</time>
      </trkpt>
      <trkpt lat="50.34861" lon="2.70718">
        <ele>99.73</ele>
        <time>2024-09-04T17:27:07.607Z</time>
      </trkpt>
      <trkpt lat="50.3485" lon="2.70675">
        <ele>99.82</ele>
        <time>2024-09-04T17:27:17.634Z</time>
      </trkpt>
      <trkpt lat="50.34837" lon="2.7063">
        <ele>99.91</ele>
        <time>2024-09-04T17:27:27.666Z</time>
      </trkpt>
      <trkpt lat="50.34825" lon="2.70585">
        <ele>99.96</ele>
        <time>2024-09-04T17:27:37.703Z</time>
      </trkpt>
      <trkpt lat="50.34811" lon="2.70541">
        <ele>100.05</ele>
        <time>2024-09-04T17:27:47.745Z</time>
      </trkpt>
      <trkpt lat="50.34797" lon="2.70497">
        <ele>100.16</ele>
        <time>2024-09-04T17:27:57.792Z</time>
      </trkpt>
      <trkpt lat="50.34784" lon="2.70462">
        <ele>100.26</ele>
        <time>2024-09-04T17:28:07.843Z</time>
      </trkpt>
      <trkpt lat="50.34771" lon="2.70426">
        <ele>100.37</ele>
        <time>2024-09-04T17:28:17.898Z</time>
      </trkpt>
      <trkpt lat="50.34758" lon="2.70391">
        <ele>100.47</ele>
        <time>2024-09-04T17:28:27.958Z</time>
      </trkpt>
      <trkpt lat="50.34749" lon="2.7036">
        <ele>100.62</ele>
        <time>2024-09-04T17:28:38.021Z</time>
      </trkpt>
      <trkpt lat="50.3474" lon="2.70329">
        <ele>100.77</ele>
        <time>2024-09-04T17:28:48.088Z</time>
      </trkpt>
      <trkpt lat="50.34731" lon="2.70299">
        <ele>100.91</ele>
        <time>2024-09-04T17:28:58.158Z</time>
      </trkpt>
      <trkpt lat="50.34724" lon="2.7027">
        <ele>101.03</ele>
        <time>2024-09-04T17:29:08.231Z</time>
      </trkpt>
      <trkpt lat="50.34718" lon="2.70242">
        <ele>101.15</ele>
        <time>2024-09-04T17:29:18.307Z</time>
      </trkpt>
      <trkpt lat="50.34712" lon="2.70217">
        <ele>101.31</ele>
        <time>2024-09-04T17:29:28.386Z</time>
      </trkpt>
      <trkpt lat="50.34706" lon="2.70191">
        <ele>101.5</ele>
        <time>2024-09-04T17:29:38.468Z</time>
      </trkpt>
      <trkpt lat="50.34698" lon="2.70166">
        <ele>101.66</ele>
        <time>2024-09-04T17:29:48.553Z</time>
      </trkpt>
      <trkpt lat="50.34691" lon="2.70142">
        <ele>101.79</ele>
        <time>2024-09-04T17:29:58.640Z</time>
      </trkpt>
      <trkpt lat="50.34683" lon="2.70118">
        <ele>101.95</ele>
        <time>2024-09-04T17:30:08.730Z</time>
      </trkpt>
      <trkpt lat="50.34676" lon="2.70095">
        <ele>102.1</ele>
        <time>2024-09-04T17:30:18.823Z</time>
      </trkpt>
      <trkpt lat="50.34663" lon="2.7006">
        <ele>102.21</ele>
        <time>2024-09-04T17:30:28.920Z</time>
      </trkpt>
      <trkpt lat="50.34651" lon="2.70024">
        <ele>102.34</ele>
        <time>2024-09-04T17:30:39.021Z</time>
      </trkpt>
      <trkpt lat="50.34638" lon="2.69989">
        <ele>102.48</ele>
        <time>2024-09-04T17:30:49.126Z</time>
      </trkpt>
      <trkpt lat="50.34626" lon="2.69954">
        <ele>102.63</ele>
        <time>2024-09-04T17:30:59.235Z</time>
      </trkpt>
      <trkpt lat="50.34615" lon="2.69916">
        <ele>102.75</ele>
        <time>2024-09-04T17:31:09.349Z</time>
      </trkpt>
      <trkpt lat="50.34604" lon="2.69877">
        <ele>102.8</ele>
        <time>2024-09-04T17:31:19.467Z</time>
      </trkpt>
      <trkpt lat="50.34592" lon="2.69839">
        <ele>102.85</ele>
        <time>2024-09-04T17:31:29.589Z</time>
      </trkpt>
      <trkpt lat="50.34581" lon="2.69801">
        <ele>102.87</ele>
        <time>2024-09-04T17:31:39.715Z</time>
      </trkpt>
      <trkpt lat="50.34573" lon="2.69756">
        <ele>102.86</ele>
        <time>2024-09-04T17:31:49.846Z</time>
      </trkpt>
      <trkpt lat="50.34565" lon="2.69711">
        <ele>102.79</ele>
        <time>2024-09-04T17:31:59.982Z</time>
      </trkpt>
      <trkpt lat="50.34557" lon="2.69666">
        <ele>102.59</ele>
        <time>2024-09-04T17:32:10.123Z</time>
      </trkpt>
      <trkpt lat="50.34549" lon="2.69621">
        <ele>102.4</ele>
        <time>2024-09-04T17:32:20.269Z</time>
      </trkpt>
      <trkpt lat="50.34541" lon="2.69576">
        <ele>102.28</ele>
        <time>2024-09-04T17:32:30.419Z</time>
      </trkpt>
      <trkpt lat="50.34533" lon="2.69532">
        <ele>102.17</ele>
        <time>2024-09-04T17:32:40.574Z</time>
      </trkpt>
      <trkpt lat="50.34526" lon="2.695">
        <ele>101.96</ele>
        <time>2024-09-04T17:32:50.733Z</time>
      </trkpt>
      <trkpt lat="50.34521" lon="2.69467">
        <ele>101.69</ele>
        <time>2024-09-04T17:33:00.895Z</time>
      </trkpt>
      <trkpt lat="50.34515" lon="2.69434">
        <ele>101.38</ele>
        <time>2024-09-04T17:33:11.061Z</time>
      </trkpt>
      <trkpt lat="50.34514" lon="2.69428">
        <ele>101.06</ele>
        <time>2024-09-04T17:33:21.227Z</time>
      </trkpt>
      <trkpt lat="50.34513" lon="2.69423">
        <ele>100.69</ele>
        <time>2024-09-04T17:33:31.394Z</time>
      </trkpt>
      <trkpt lat="50.34506" lon="2.69385">
        <ele>100.31</ele>
        <time>2024-09-04T17:33:41.565Z</time>
      </trkpt>
      <trkpt lat="50.34497" lon="2.69351">
        <ele>99.88</ele>
        <time>2024-09-04T17:33:51.740Z</time>
      </trkpt>
      <trkpt lat="50.3449" lon="2.69329">
        <ele>99.4</ele>
        <time>2024-09-04T17:34:01.917Z</time>
      </trkpt>
      <trkpt lat="50.34478" lon="2.6931">
        <ele>98.89</ele>
        <time>2024-09-04T17:34:12.097Z</time>
      </trkpt>
      <trkpt lat="50.34467" lon="2.69291">
        <ele>98.33</ele>
        <time>2024-09-04T17:34:22.279Z</time>
      </trkpt>
      <trkpt lat="50.34457" lon="2.69271">
        <ele>97.77</ele>
        <time>2024-09-04T17:34:32.464Z</time>
      </trkpt>
      <trkpt lat="50.34438" lon="2.69233">
        <ele>97.17</ele>
        <time>2024-09-04T17:34:42.654Z</time>
      </trkpt>
      <trkpt lat="50.34433" lon="2.69216">
        <ele>96.41</ele>
        <time>2024-09-04T17:34:52.846Z</time>
      </trkpt>
      <trkpt lat="50.3443" lon="2.69201">
        <ele>95.6</ele>
        <time>2024-09-04T17:35:03.040Z</time>
      </trkpt>
      <trkpt lat="50.3443" lon="2.69185">
        <ele>94.73</ele>
        <time>2024-09-04T17:35:13.235Z</time>
      </trkpt>
      <trkpt lat="50.34433" lon="2.69139">
        <ele>93.75</ele>
        <time>2024-09-04T17:35:23.435Z</time>
      </trkpt>
      <trkpt lat="50.34435" lon="2.69094">
        <ele>92.76</ele>
        <time>2024-09-04T17:35:33.640Z</time>
      </trkpt>
      <trkpt lat="50.34436" lon="2.69081">
        <ele>91.77</ele>
        <time>2024-09-04T17:35:43.846Z</time>
      </trkpt>
      <trkpt lat="50.34435" lon="2.69069">
        <ele>90.76</ele>
        <time>2024-09-04T17:35:54.053Z</time>
      </trkpt>
      <trkpt lat="50.34433" lon="2.69054">
        <ele>89.73</ele>
        <time>2024-09-04T17:36:04.262Z</time>
      </trkpt>
      <trkpt lat="50.34429" lon="2.69027">
        <ele>88.6</ele>
        <time>2024-09-04T17:36:14.474Z</time>
      </trkpt>
      <trkpt lat="50.34425" lon="2.69001">
        <ele>87.46</ele>
        <time>2024-09-04T17:36:24.688Z</time>
      </trkpt>
      <trkpt lat="50.34423" lon="2.68955">
        <ele>86.21</ele>
        <time>2024-09-04T17:36:34.907Z</time>
      </trkpt>
      <trkpt lat="50.34424" lon="2.68945">
        <ele>85.17</ele>
        <time>2024-09-04T17:36:45.127Z</time>
      </trkpt>
      <trkpt lat="50.34426" lon="2.68934">
        <ele>84.18</ele>
        <time>2024-09-04T17:36:55.348Z</time>
      </trkpt>
      <trkpt lat="50.34436" lon="2.6889">
        <ele>83.17</ele>
        <time>2024-09-04T17:37:05.574Z</time>
      </trkpt>
      <trkpt lat="50.34446" lon="2.68847">
        <ele>82.25</ele>
        <time>2024-09-04T17:37:15.805Z</time>
      </trkpt>
      <trkpt lat="50.34454" lon="2.68801">
        <ele>81.36</ele>
        <time>2024-09-04T17:37:26.041Z</time>
      </trkpt>
      <trkpt lat="50.34458" lon="2.68758">
        <ele>80.55</ele>
        <time>2024-09-04T17:37:36.281Z</time>
      </trkpt>
      <trkpt lat="50.34463" lon="2.68716">
        <ele>79.82</ele>
        <time>2024-09-04T17:37:46.525Z</time>
      </trkpt>
      <trkpt lat="50.34468" lon="2.68674">
        <ele>79.21</ele>
        <time>2024-09-04T17:37:56.774Z</time>
      </trkpt>
      <trkpt lat="50.34469" lon="2.68644">
        <ele>78.72</ele>
        <time>2024-09-04T17:38:07.026Z</time>
      </trkpt>
      <trkpt lat="50.34468" lon="2.68629">
        <ele>78.33</ele>
        <time>2024-09-04T17:38:17.279Z</time>
      </trkpt>
      <trkpt lat="50.34473" lon="2.6863">
        <ele>78.03</ele>
        <time>2024-09-04T17:38:27.533Z</time>
      </trkpt>
      <trkpt lat="50.3448" lon="2.68631">
        <ele>77.85</ele>
        <time>2024-09-04T17:38:37.788Z</time>
      </trkpt>
      <trkpt lat="50.34494" lon="2.68644">
        <ele>77.77</ele>
        <time>2024-09-04T17:38:48.046Z</time>
      </trkpt>
      <trkpt lat="50.34509" lon="2.68657">
        <ele>77.81</ele>
        <time>2024-09-04T17:38:58.307Z</time>
      </trkpt>
      <trkpt lat="50.34522" lon="2.68668">
        <ele>77.96</ele>
        <time>2024-09-04T17:39:08.570Z</time>
      </trkpt>
      <trkpt lat="50.3453" lon="2.68676">
        <ele>78.23</ele>
        <time>2024-09-04T17:39:18.834Z</time>
      </trkpt>
      <trkpt lat="50.34545" lon="2.68702">
        <ele>78.64</ele>
        <time>2024-09-04T17:39:29.102Z</time>
      </trkpt>
      <trkpt lat="50.34556" lon="2.6872">
        <ele>79.2</ele>
        <time>2024-09-04T17:39:39.373Z</time>
      </trkpt>
      <trkpt lat="50.34567" lon="2.68738">
        <ele>79.87</ele>
        <time>2024-09-04T17:39:49.646Z</time>
      </trkpt>
      <trkpt lat="50.3458" lon="2.6876">
        <ele>80.67</ele>
        <time>2024-09-04T17:39:59.922Z</time>
      </trkpt>
      <trkpt lat="50.3459" lon="2.6878">
        <ele>81.56</ele>
        <time>2024-09-04T17:40:10.201Z</time>
      </trkpt>
      <trkpt lat="50.34601" lon="2.68799">
        <ele>82.57</ele>
        <time>2024-09-04T17:40:20.482Z</time>
      </trkpt>
      <trkpt lat="50.34616" lon="2.68832">
        <ele>83.74</ele>
        <time>2024-09-04T17:40:30.768Z</time>
      </trkpt>
      <trkpt lat="50.34626" lon="2.68853">
        <ele>84.97</ele>
        <time>2024-09-04T17:40:41.056Z</time>
      </trkpt>
      <trkpt lat="50.34638" lon="2.68882">
        <ele>86.33</ele>
        <time>2024-09-04T17:40:51.348Z</time>
      </trkpt>
      <trkpt lat="50.34644" lon="2.68893">
        <ele>87.7</ele>
        <time>2024-09-04T17:41:01.641Z</time>
      </trkpt>
      <trkpt lat="50.34647" lon="2.68901">
        <ele>89.13</ele>
        <time>2024-09-04T17:41:11.935Z</time>
      </trkpt>
      <trkpt lat="50.34654" lon="2.68932">
        <ele>90.67</ele>
        <time>2024-09-04T17:41:22.233Z</time>
      </trkpt>
      <trkpt lat="50.3466" lon="2.68957">
        <ele>92.24</ele>
        <time>2024-09-04T17:41:32.533Z</time>
      </trkpt>
      <trkpt lat="50.34664" lon="2.68969">
        <ele>93.87</ele>
        <time>2024-09-04T17:41:42.835Z</time>
      </trkpt>
      <trkpt lat="50.34669" lon="2.68977">
        <ele>95.55</ele>
        <time>2024-09-04T17:41:53.138Z</time>
      </trkpt>
      <trkpt lat="50.34683" lon="2.68995">
        <ele>97.31</ele>
        <time>2024-09-04T17:42:03.444Z</time>
      </trkpt>
      <trkpt lat="50.34686" lon="2.68997">
        <ele>99.07</ele>
        <time>2024-09-04T17:42:13.750Z</time>
      </trkpt>
      <trkpt lat="50.34704" lon="2.69006">
        <ele>100.91</ele>
        <time>2024-09-04T17:42:24.059Z</time>
      </trkpt>
      <trkpt lat="50.34721" lon="2.69014">
        <ele>102.8</ele>
        <time>2024-09-04T17:42:34.371Z</time>
      </trkpt>
      <trkpt lat="50.34725" lon="2.69016">
        <ele>104.67</ele>
        <time>2024-09-04T17:42:44.684Z</time>
      </trkpt>
      <trkpt lat="50.34728" lon="2.69002">
        <ele>106.54</ele>
        <time>2024-09-04T17:42:54.998Z</time>
      </trkpt>
      <trkpt lat="50.34731" lon="2.69004">
        <ele>108.43</ele>
        <time>2024-09-04T17:43:05.313Z</time>
      </trkpt>
      <trkpt lat="50.34752" lon="2.69017">
        <ele>110.43</ele>
        <time>2024-09-04T17:43:15.632Z</time>
      </trkpt>
      <trkpt lat="50.3477" lon="2.69026">
        <ele>112.43</ele>
        <time>2024-09-04T17:43:25.953Z</time>
      </trkpt>
      <trkpt lat="50.34787" lon="2.69035">
        <ele>114.39</ele>
        <time>2024-09-04T17:43:36.277Z</time>
      </trkpt>
      <trkpt lat="50.34805" lon="2.69053">
        <ele>116.36</ele>
        <time>2024-09-04T17:43:46.605Z</time>
      </trkpt>
      <trkpt lat="50.34821" lon="2.69079">
        <ele>118.28</ele>
        <time>2024-09-04T17:43:56.937Z</time>
      </trkpt>
      <trkpt lat="50.34838" lon="2.69101">
        <ele>120.18</ele>
        <time>2024-09-04T17:44:07.272Z</time>
      </trkpt>
      <trkpt lat="50.34856" lon="2.69118">
        <ele>122.05</ele>
        <time>2024-09-04T17:44:17.610Z</time>
      </trkpt>
      <trkpt lat="50.34873" lon="2.69134">
        <ele>123.91</ele>
        <time>2024-09-04T17:44:27.952Z</time>
      </trkpt>
      <trkpt lat="50.34893" lon="2.6915">
        <ele>125.71</ele>
        <time>2024-09-04T17:44:38.297Z</time>
      </trkpt>
      <trkpt lat="50.34917" lon="2.69176">
        <ele>127.44</ele>
        <time>2024-09-04T17:44:48.647Z</time>
      </trkpt>
      <trkpt lat="50.34934" lon="2.69193">
        <ele>129.01</ele>
        <time>2024-09-04T17:44:59.000Z</time>
      </trkpt>
      <trkpt lat="50.34938" lon="2.69197">
        <ele>130.47</ele>
        <time>2024-09-04T17:45:09.354Z</time>
      </trkpt>
      <trkpt lat="50.34949" lon="2.69207">
        <ele>131.86</ele>
        <time>2024-09-04T17:45:19.710Z</time>
      </trkpt>
      <trkpt lat="50.34968" lon="2.69224">
        <ele>133.19</ele>
        <time>2024-09-04T17:45:30.069Z</time>
      </trkpt>
      <trkpt lat="50.34987" lon="2.69241">
        <ele>134.42</ele>
        <time>2024-09-04T17:45:40.432Z</time>
      </trkpt>
      <trkpt lat="50.34991" lon="2.69244">
        <ele>135.52</ele>
        <time>2024-09-04T17:45:50.796Z</time>
      </trkpt>
      <trkpt lat="50.34995" lon="2.69246">
        <ele>136.52</ele>
        <time>2024-09-04T17:46:01.160Z</time>
      </trkpt>
      <trkpt lat="50.35005" lon="2.69253">
        <ele>137.43</ele>
        <time>2024-09-04T17:46:11.526Z</time>
      </trkpt>
      <trkpt lat="50.35021" lon="2.69259">
        <ele>138.23</ele>
        <time>2024-09-04T17:46:21.895Z</time>
      </trkpt>
      <trkpt lat="50.35033" lon="2.69266">
        <ele>138.93</ele>
        <time>2024-09-04T17:46:32.266Z</time>
      </trkpt>
      <trkpt lat="50.35051" lon="2.69282">
        <ele>139.55</ele>
        <time>2024-09-04T17:46:42.640Z</time>
      </trkpt>
      <trkpt lat="50.35057" lon="2.6929">
        <ele>140.05</ele>
        <time>2024-09-04T17:46:53.015Z</time>
      </trkpt>
      <trkpt lat="50.35071" lon="2.69311">
        <ele>140.47</ele>
        <time>2024-09-04T17:47:03.393Z</time>
      </trkpt>
      <trkpt lat="50.35076" lon="2.69318">
        <ele>140.77</ele>
        <time>2024-09-04T17:47:13.773Z</time>
      </trkpt>
      <trkpt lat="50.35095" lon="2.69346">
        <ele>141</ele>
        <time>2024-09-04T17:47:24.157Z</time>
      </trkpt>
      <trkpt lat="50.35114" lon="2.69373">
        <ele>141.08</ele>
        <time>2024-09-04T17:47:34.545Z</time>
      </trkpt>
      <trkpt lat="50.3512" lon="2.69369">
        <ele>141.08</ele>
        <time>2024-09-04T17:47:44.934Z</time>
      </trkpt>
      <trkpt lat="50.35131" lon="2.69364">
        <ele>140.99</ele>
        <time>2024-09-04T17:47:55.325Z</time>
      </trkpt>
      <trkpt lat="50.35156" lon="2.69348">
        <ele>140.76</ele>
        <time>2024-09-04T17:48:05.720Z</time>
      </trkpt>
      <trkpt lat="50.35162" lon="2.69346">
        <ele>140.5</ele>
        <time>2024-09-04T17:48:16.116Z</time>
      </trkpt>
      <trkpt lat="50.35168" lon="2.69347">
        <ele>140.17</ele>
        <time>2024-09-04T17:48:26.513Z</time>
      </trkpt>
      <trkpt lat="50.35173" lon="2.69349">
        <ele>139.77</ele>
        <time>2024-09-04T17:48:36.911Z</time>
      </trkpt>
      <trkpt lat="50.3518" lon="2.69355">
        <ele>139.3</ele>
        <time>2024-09-04T17:48:47.310Z</time>
      </trkpt>
      <trkpt lat="50.35197" lon="2.69376">
        <ele>138.75</ele>
        <time>2024-09-04T17:48:57.713Z</time>
      </trkpt>
      <trkpt lat="50.35208" lon="2.69385">
        <ele>138.15</ele>
        <time>2024-09-04T17:49:08.118Z</time>
      </trkpt>
      <trkpt lat="50.3522" lon="2.69387">
        <ele>137.51</ele>
        <time>2024-09-04T17:49:18.524Z</time>
      </trkpt>
      <trkpt lat="50.35244" lon="2.69384">
        <ele>136.8</ele>
        <time>2024-09-04T17:49:28.934Z</time>
      </trkpt>
      <trkpt lat="50.35256" lon="2.6938">
        <ele>136.1</ele>
        <time>2024-09-04T17:49:39.346Z</time>
      </trkpt>
      <trkpt lat="50.3527" lon="2.69378">
        <ele>135.37</ele>
        <time>2024-09-04T17:49:49.761Z</time>
      </trkpt>
      <trkpt lat="50.35284" lon="2.69377">
        <ele>134.61</ele>
        <time>2024-09-04T17:50:00.178Z</time>
      </trkpt>
      <trkpt lat="50.35309" lon="2.69378">
        <ele>133.81</ele>
        <time>2024-09-04T17:50:10.599Z</time>
      </trkpt>
      <trkpt lat="50.35318" lon="2.69384">
        <ele>133.03</ele>
        <time>2024-09-04T17:50:21.021Z</time>
      </trkpt>
      <trkpt lat="50.35337" lon="2.694">
        <ele>132.2</ele>
        <time>2024-09-04T17:50:31.447Z</time>
      </trkpt>
      <trkpt lat="50.35355" lon="2.69416">
        <ele>131.35</ele>
        <time>2024-09-04T17:50:41.876Z</time>
      </trkpt>
      <trkpt lat="50.35361" lon="2.69421">
        <ele>130.53</ele>
        <time>2024-09-04T17:50:52.306Z</time>
      </trkpt>
      <trkpt lat="50.35375" lon="2.69421">
        <ele>129.71</ele>
        <time>2024-09-04T17:51:02.739Z</time>
      </trkpt>
      <trkpt lat="50.35404" lon="2.69416">
        <ele>128.88</ele>
        <time>2024-09-04T17:51:13.176Z</time>
      </trkpt>
      <trkpt lat="50.35417" lon="2.6941">
        <ele>128.09</ele>
        <time>2024-09-04T17:51:23.615Z</time>
      </trkpt>
      <trkpt lat="50.35435" lon="2.69397">
        <ele>127.28</ele>
        <time>2024-09-04T17:51:34.057Z</time>
      </trkpt>
      <trkpt lat="50.35452" lon="2.69385">
        <ele>126.53</ele>
        <time>2024-09-04T17:51:44.502Z</time>
      </trkpt>
      <trkpt lat="50.3546" lon="2.69382">
        <ele>125.8</ele>
        <time>2024-09-04T17:51:54.949Z</time>
      </trkpt>
      <trkpt lat="50.35476" lon="2.69379">
        <ele>125.07</ele>
        <time>2024-09-04T17:52:05.398Z</time>
      </trkpt>
      <trkpt lat="50.35507" lon="2.69382">
        <ele>124.37</ele>
        <time>2024-09-04T17:52:15.852Z</time>
      </trkpt>
      <trkpt lat="50.35538" lon="2.69384">
        <ele>123.7</ele>
        <time>2024-09-04T17:52:26.311Z</time>
      </trkpt>
      <trkpt lat="50.3556" lon="2.69386">
        <ele>123</ele>
        <time>2024-09-04T17:52:36.774Z</time>
      </trkpt>
      <trkpt lat="50.35581" lon="2.69388">
        <ele>122.32</ele>
        <time>2024-09-04T17:52:47.240Z</time>
      </trkpt>
      <trkpt lat="50.35604" lon="2.69392">
        <ele>121.67</ele>
        <time>2024-09-04T17:52:57.710Z</time>
      </trkpt>
      <trkpt lat="50.35622" lon="2.69393">
        <ele>121.08</ele>
        <time>2024-09-04T17:53:08.183Z</time>
      </trkpt>
      <trkpt lat="50.3564" lon="2.69392">
        <ele>120.53</ele>
        <time>2024-09-04T17:53:18.659Z</time>
      </trkpt>
      <trkpt lat="50.35661" lon="2.6939">
        <ele>119.98</ele>
        <time>2024-09-04T17:53:29.138Z</time>
      </trkpt>
      <trkpt lat="50.35672" lon="2.69388">
        <ele>119.47</ele>
        <time>2024-09-04T17:53:39.619Z</time>
      </trkpt>
      <trkpt lat="50.35697" lon="2.69382">
        <ele>118.99</ele>
        <time>2024-09-04T17:53:50.104Z</time>
      </trkpt>
      <trkpt lat="50.35713" lon="2.69381">
        <ele>118.56</ele>
        <time>2024-09-04T17:54:00.592Z</time>
      </trkpt>
      <trkpt lat="50.35722" lon="2.69383">
        <ele>118.16</ele>
        <time>2024-09-04T17:54:11.081Z</time>
      </trkpt>
      <trkpt lat="50.3574" lon="2.69391">
        <ele>117.81</ele>
        <time>2024-09-04T17:54:21.573Z</time>
      </trkpt>
      <trkpt lat="50.35757" lon="2.69407">
        <ele>117.44</ele>
        <time>2024-09-04T17:54:32.068Z</time>
      </trkpt>
      <trkpt lat="50.35779" lon="2.69438">
        <ele>117.08</ele>
        <time>2024-09-04T17:54:42.568Z</time>
      </trkpt>
      <trkpt lat="50.35795" lon="2.69469">
        <ele>116.81</ele>
        <time>2024-09-04T17:54:53.072Z</time>
      </trkpt>
      <trkpt lat="50.35811" lon="2.69499">
        <ele>116.59</ele>
        <time>2024-09-04T17:55:03.580Z</time>
      </trkpt>
      <trkpt lat="50.35826" lon="2.69529">
        <ele>116.42</ele>
        <time>2024-09-04T17:55:14.092Z</time>
      </trkpt>
      <trkpt lat="50.35837" lon="2.69559">
        <ele>116.18</ele>
        <time>2024-09-04T17:55:24.607Z</time>
      </trkpt>
      <trkpt lat="50.35848" lon="2.69589">
        <ele>116</ele>
        <time>2024-09-04T17:55:35.126Z</time>
      </trkpt>
      <trkpt lat="50.35855" lon="2.69614">
        <ele>115.82</ele>
        <time>2024-09-04T17:55:45.648Z</time>
      </trkpt>
      <trkpt lat="50.35863" lon="2.69639">
        <ele>115.7</ele>
        <time>2024-09-04T17:55:56.173Z</time>
      </trkpt>
      <trkpt lat="50.35877" lon="2.69668">
        <ele>115.62</ele>
        <time>2024-09-04T17:56:06.701Z</time>
      </trkpt>
      <trkpt lat="50.35886" lon="2.69686">
        <ele>115.54</ele>
        <time>2024-09-04T17:56:17.232Z</time>
      </trkpt>
      <trkpt lat="50.35903" lon="2.69707">
        <ele>115.46</ele>
        <time>2024-09-04T17:56:27.766Z</time>
      </trkpt>
      <trkpt lat="50.35921" lon="2.69729">
        <ele>115.41</ele>
        <time>2024-09-04T17:56:38.304Z</time>
      </trkpt>
      <trkpt lat="50.35938" lon="2.69751">
        <ele>115.35</ele>
        <time>2024-09-04T17:56:48.845Z</time>
      </trkpt>
      <trkpt lat="50.35952" lon="2.69765">
        <ele>115.35</ele>
        <time>2024-09-04T17:56:59.389Z</time>
      </trkpt>
      <trkpt lat="50.35965" lon="2.69779">
        <ele>115.38</ele>
        <time>2024-09-04T17:57:09.936Z</time>
      </trkpt>
      <trkpt lat="50.35987" lon="2.69797">
        <ele>115.44</ele>
        <time>2024-09-04T17:57:20.487Z</time>
      </trkpt>
      <trkpt lat="50.36013" lon="2.69815">
        <ele>115.49</ele>
        <time>2024-09-04T17:57:31.042Z</time>
      </trkpt>
      <trkpt lat="50.36031" lon="2.69826">
        <ele>115.58</ele>
        <time>2024-09-04T17:57:41.600Z</time>
      </trkpt>
      <trkpt lat="50.36049" lon="2.69836">
        <ele>115.73</ele>
        <time>2024-09-04T17:57:52.161Z</time>
      </trkpt>
      <trkpt lat="50.3606" lon="2.69838">
        <ele>115.88</ele>
        <time>2024-09-04T17:58:02.724Z</time>
      </trkpt>
      <trkpt lat="50.36072" lon="2.69834">
        <ele>116.06</ele>
        <time>2024-09-04T17:58:13.289Z</time>
      </trkpt>
      <trkpt lat="50.36076" lon="2.6983">
        <ele>116.24</ele>
        <time>2024-09-04T17:58:23.855Z</time>
      </trkpt>
      <trkpt lat="50.36083" lon="2.69824">
        <ele>116.43</ele>
        <time>2024-09-04T17:58:34.422Z</time>
      </trkpt>
      <trkpt lat="50.36102" lon="2.6979">
        <ele>116.68</ele>
        <time>2024-09-04T17:58:44.994Z</time>
      </trkpt>
      <trkpt lat="50.36121" lon="2.6976">
        <ele>116.92</ele>
        <time>2024-09-04T17:58:55.570Z</time>
      </trkpt>
      <trkpt lat="50.36139" lon="2.6973">
        <ele>117.14</ele>
        <time>2024-09-04T17:59:06.150Z</time>
      </trkpt>
      <trkpt lat="50.3616" lon="2.69697">
        <ele>117.36</ele>
        <time>2024-09-04T17:59:16.735Z</time>
      </trkpt>
      <trkpt lat="50.3618" lon="2.69664">
        <ele>117.64</ele>
        <time>2024-09-04T17:59:27.325Z</time>
      </trkpt>
      <trkpt lat="50.36201" lon="2.69631">
        <ele>117.99</ele>
        <time>2024-09-04T17:59:37.919Z</time>
      </trkpt>
      <trkpt lat="50.36217" lon="2.6961">
        <ele>118.28</ele>
        <time>2024-09-04T17:59:48.517Z</time>
      </trkpt>
      <trkpt lat="50.36235" lon="2.69595">
        <ele>118.61</ele>
        <time>2024-09-04T17:59:59.118Z</time>
      </trkpt>
      <trkpt lat="50.36265" lon="2.69581">
        <ele>118.88</ele>
        <time>2024-09-04T18:00:09.724Z</time>
      </trkpt>
      <trkpt lat="50.36281" lon="2.69575">
        <ele>119.18</ele>
        <time>2024-09-04T18:00:20.333Z</time>
      </trkpt>
      <trkpt lat="50.36297" lon="2.69569">
        <ele>119.5</ele>
        <time>2024-09-04T18:00:30.944Z</time>
      </trkpt>
      <trkpt lat="50.36326" lon="2.69554">
        <ele>119.83</ele>
        <time>2024-09-04T18:00:41.560Z</time>
      </trkpt>
      <trkpt lat="50.36355" lon="2.69539">
        <ele>120.14</ele>
        <time>2024-09-04T18:00:52.181Z</time>
      </trkpt>
      <trkpt lat="50.36382" lon="2.69522">
        <ele>120.47</ele>
        <time>2024-09-04T18:01:02.807Z</time>
      </trkpt>
      <trkpt lat="50.36409" lon="2.69504">
        <ele>120.82</ele>
        <time>2024-09-04T18:01:13.437Z</time>
      </trkpt>
      <trkpt lat="50.36436" lon="2.69487">
        <ele>121.21</ele>
        <time>2024-09-04T18:01:24.072Z</time>
      </trkpt>
      <trkpt lat="50.36462" lon="2.6947">
        <ele>121.64</ele>
        <time>2024-09-04T18:01:34.712Z</time>
      </trkpt>
      <trkpt lat="50.36477" lon="2.69459">
        <ele>122.02</ele>
        <time>2024-09-04T18:01:45.354Z</time>
      </trkpt>
      <trkpt lat="50.36492" lon="2.69449">
        <ele>122.42</ele>
        <time>2024-09-04T18:01:55.999Z</time>
      </trkpt>
      <trkpt lat="50.3651" lon="2.69433">
        <ele>122.77</ele>
        <time>2024-09-04T18:02:06.647Z</time>
      </trkpt>
      <trkpt lat="50.36527" lon="2.69416">
        <ele>123.15</ele>
        <time>2024-09-04T18:02:17.298Z</time>
      </trkpt>
      <trkpt lat="50.36551" lon="2.6939">
        <ele>123.54</ele>
        <time>2024-09-04T18:02:27.954Z</time>
      </trkpt>
      <trkpt lat="50.36575" lon="2.69364">
        <ele>123.93</ele>
        <time>2024-09-04T18:02:38.615Z</time>
      </trkpt>
      <trkpt lat="50.36591" lon="2.69346">
        <ele>124.32</ele>
        <time>2024-09-04T18:02:49.279Z</time>
      </trkpt>
      <trkpt lat="50.36608" lon="2.69328">
        <ele>124.71</ele>
        <time>2024-09-04T18:02:59.946Z</time>
      </trkpt>
      <trkpt lat="50.36624" lon="2.69311">
        <ele>125.07</ele>
        <time>2024-09-04T18:03:10.616Z</time>
      </trkpt>
      <trkpt lat="50.36641" lon="2.69298">
        <ele>125.41</ele>
        <time>2024-09-04T18:03:21.289Z</time>
      </trkpt>
      <trkpt lat="50.36657" lon="2.69285">
        <ele>125.73</ele>
        <time>2024-09-04T18:03:31.965Z</time>
      </trkpt>
      <trkpt lat="50.36672" lon="2.69276">
        <ele>126.03</ele>
        <time>2024-09-04T18:03:42.644Z</time>
      </trkpt>
      <trkpt lat="50.36687" lon="2.69266">
        <ele>126.33</ele>
        <time>2024-09-04T18:03:53.325Z</time>
      </trkpt>
      <trkpt lat="50.36708" lon="2.69258">
        <ele>126.62</ele>
        <time>2024-09-04T18:04:04.010Z</time>
      </trkpt>
      <trkpt lat="50.3673" lon="2.6925">
        <ele>126.9</ele>
        <time>2024-09-04T18:04:14.698Z</time>
      </trkpt>
      <trkpt lat="50.36759" lon="2.69243">
        <ele>127.13</ele>
        <time>2024-09-04T18:04:25.391Z</time>
      </trkpt>
      <trkpt lat="50.36789" lon="2.69236">
        <ele>127.41</ele>
        <time>2024-09-04T18:04:36.089Z</time>
      </trkpt>
      <trkpt lat="50.36818" lon="2.69226">
        <ele>127.65</ele>
        <time>2024-09-04T18:04:46.792Z</time>
      </trkpt>
      <trkpt lat="50.36832" lon="2.6922">
        <ele>127.89</ele>
        <time>2024-09-04T18:04:57.497Z</time>
      </trkpt>
      <trkpt lat="50.36857" lon="2.69208">
        <ele>128.1</ele>
        <time>2024-09-04T18:05:08.206Z</time>
      </trkpt>
      <trkpt lat="50.36881" lon="2.69196">
        <ele>128.34</ele>
        <time>2024-09-04T18:05:18.919Z</time>
      </trkpt>
      <trkpt lat="50.36906" lon="2.69184">
        <ele>128.62</ele>
        <time>2024-09-04T18:05:29.636Z</time>
      </trkpt>
      <trkpt lat="50.36914" lon="2.69181">
        <ele>128.85</ele>
        <time>2024-09-04T18:05:40.355Z</time>
      </trkpt>
      <trkpt lat="50.36937" lon="2.69176">
        <ele>129.08</ele>
        <time>2024-09-04T18:05:51.077Z</time>
      </trkpt>
      <trkpt lat="50.36961" lon="2.69174">
        <ele>129.3</ele>
        <time>2024-09-04T18:06:01.803Z</time>
      </trkpt>
      <trkpt lat="50.36984" lon="2.69172">
        <ele>129.52</ele>
        <time>2024-09-04T18:06:12.533Z</time>
      </trkpt>
      <trkpt lat="50.37004" lon="2.69171">
        <ele>129.74</ele>
        <time>2024-09-04T18:06:23.266Z</time>
      </trkpt>
      <trkpt lat="50.37025" lon="2.69172">
        <ele>129.95</ele>
        <time>2024-09-04T18:06:34.003Z</time>
      </trkpt>
      <trkpt lat="50.37026" lon="2.69167">
        <ele>130.17</ele>
        <time>2024-09-04T18:06:44.740Z</time>
      </trkpt>
      <trkpt lat="50.37025" lon="2.69172">
        <ele>129.95</ele>
        <time>2024-09-04T18:06:55.478Z</time>
      </trkpt>
      <trkpt lat="50.37038" lon="2.69175">
        <ele>130.58</ele>
        <time>2024-09-04T18:07:06.218Z</time>
      </trkpt>
      <trkpt lat="50.37057" lon="2.69181">
        <ele>130.8</ele>
        <time>2024-09-04T18:07:16.961Z</time>
      </trkpt>
      <trkpt lat="50.37075" lon="2.69188">
        <ele>130.99</ele>
        <time>2024-09-04T18:07:27.707Z</time>
      </trkpt>
      <trkpt lat="50.37095" lon="2.69198">
        <ele>131.17</ele>
        <time>2024-09-04T18:07:38.456Z</time>
      </trkpt>
      <trkpt lat="50.3711" lon="2.69208">
        <ele>131.35</ele>
        <time>2024-09-04T18:07:49.208Z</time>
      </trkpt>
      <trkpt lat="50.37122" lon="2.69216">
        <ele>131.55</ele>
        <time>2024-09-04T18:07:59.962Z</time>
      </trkpt>
      <trkpt lat="50.37133" lon="2.69225">
        <ele>131.73</ele>
        <time>2024-09-04T18:08:10.718Z</time>
      </trkpt>
      <trkpt lat="50.37155" lon="2.69244">
        <ele>131.88</ele>
        <time>2024-09-04T18:08:21.478Z</time>
      </trkpt>
      <trkpt lat="50.37177" lon="2.69264">
        <ele>131.99</ele>
        <time>2024-09-04T18:08:32.242Z</time>
      </trkpt>
      <trkpt lat="50.37198" lon="2.69283">
        <ele>132.09</ele>
        <time>2024-09-04T18:08:43.010Z</time>
      </trkpt>
      <trkpt lat="50.3722" lon="2.69302">
        <ele>132.24</ele>
        <time>2024-09-04T18:08:53.782Z</time>
      </trkpt>
      <trkpt lat="50.37243" lon="2.69323">
        <ele>132.36</ele>
        <time>2024-09-04T18:09:04.558Z</time>
      </trkpt>
      <trkpt lat="50.37265" lon="2.69343">
        <ele>132.42</ele>
        <time>2024-09-04T18:09:15.338Z</time>
      </trkpt>
      <trkpt lat="50.37288" lon="2.69363">
        <ele>132.45</ele>
        <time>2024-09-04T18:09:26.122Z</time>
      </trkpt>
      <trkpt lat="50.37306" lon="2.69383">
        <ele>132.44</ele>
        <time>2024-09-04T18:09:36.910Z</time>
      </trkpt>
      <trkpt lat="50.37328" lon="2.69412">
        <ele>132.45</ele>
        <time>2024-09-04T18:09:47.703Z</time>
      </trkpt>
      <trkpt lat="50.3735" lon="2.69441">
        <ele>132.47</ele>
        <time>2024-09-04T18:09:58.500Z</time>
      </trkpt>
      <trkpt lat="50.37372" lon="2.6947">
        <ele>132.43</ele>
        <time>2024-09-04T18:10:09.302Z</time>
      </trkpt>
      <trkpt lat="50.37396" lon="2.69501">
        <ele>132.32</ele>
        <time>2024-09-04T18:10:20.109Z</time>
      </trkpt>
      <trkpt lat="50.37418" lon="2.69531">
        <ele>132.17</ele>
        <time>2024-09-04T18:10:30.921Z</time>
      </trkpt>
      <trkpt lat="50.37435" lon="2.69555">
        <ele>132.02</ele>
        <time>2024-09-04T18:10:41.736Z</time>
      </trkpt>
      <trkpt lat="50.37444" lon="2.69564">
        <ele>131.84</ele>
        <time>2024-09-04T18:10:52.553Z</time>
      </trkpt>
      <trkpt lat="50.37454" lon="2.6957">
        <ele>131.62</ele>
        <time>2024-09-04T18:11:03.372Z</time>
      </trkpt>
      <trkpt lat="50.37468" lon="2.69574">
        <ele>131.38</ele>
        <time>2024-09-04T18:11:14.193Z</time>
      </trkpt>
      <trkpt lat="50.37477" lon="2.69575">
        <ele>131.12</ele>
        <time>2024-09-04T18:11:25.015Z</time>
      </trkpt>
      <trkpt lat="50.37486" lon="2.69574">
        <ele>130.84</ele>
        <time>2024-09-04T18:11:35.839Z</time>
      </trkpt>
      <trkpt lat="50.37498" lon="2.69571">
        <ele>130.53</ele>
        <time>2024-09-04T18:11:46.665Z</time>
      </trkpt>
      <trkpt lat="50.37504" lon="2.69567">
        <ele>130.2</ele>
        <time>2024-09-04T18:11:57.492Z</time>
      </trkpt>
      <trkpt lat="50.37524" lon="2.69551">
        <ele>129.82</ele>
        <time>2024-09-04T18:12:08.322Z</time>
      </trkpt>
      <trkpt lat="50.37544" lon="2.69535">
        <ele>129.43</ele>
        <time>2024-09-04T18:12:19.156Z</time>
      </trkpt>
      <trkpt lat="50.3756" lon="2.69521">
        <ele>129.05</ele>
        <time>2024-09-04T18:12:29.993Z</time>
      </trkpt>
      <trkpt lat="50.37574" lon="2.69512">
        <ele>128.68</ele>
        <time>2024-09-04T18:12:40.832Z</time>
      </trkpt>
      <trkpt lat="50.37583" lon="2.6951">
        <ele>128.29</ele>
        <time>2024-09-04T18:12:51.673Z</time>
      </trkpt>
      <trkpt lat="50.37594" lon="2.69513">
        <ele>127.88</ele>
        <time>2024-09-04T18:13:02.516Z</time>
      </trkpt>
      <trkpt lat="50.37599" lon="2.69515">
        <ele>127.47</ele>
        <time>2024-09-04T18:13:13.359Z</time>
      </trkpt>
      <trkpt lat="50.37604" lon="2.69518">
        <ele>127.06</ele>
        <time>2024-09-04T18:13:24.203Z</time>
      </trkpt>
      <trkpt lat="50.37612" lon="2.69527">
        <ele>126.62</ele>
        <time>2024-09-04T18:13:35.049Z</time>
      </trkpt>
      <trkpt lat="50.37622" lon="2.69546">
        <ele>126.17</ele>
        <time>2024-09-04T18:13:45.897Z</time>
      </trkpt>
      <trkpt lat="50.37633" lon="2.69569">
        <ele>125.7</ele>
        <time>2024-09-04T18:13:56.748Z</time>
      </trkpt>
      <trkpt lat="50.37643" lon="2.69592">
        <ele>125.28</ele>
        <time>2024-09-04T18:14:07.602Z</time>
      </trkpt>
      <trkpt lat="50.37654" lon="2.69607">
        <ele>124.86</ele>
        <time>2024-09-04T18:14:18.459Z</time>
      </trkpt>
      <trkpt lat="50.37664" lon="2.69621">
        <ele>124.46</ele>
        <time>2024-09-04T18:14:29.318Z</time>
      </trkpt>
      <trkpt lat="50.37675" lon="2.69633">
        <ele>124.1</ele>
        <time>2024-09-04T18:14:40.179Z</time>
      </trkpt>
      <trkpt lat="50.37685" lon="2.69642">
        <ele>123.76</ele>
        <time>2024-09-04T18:14:51.042Z</time>
      </trkpt>
      <trkpt lat="50.37699" lon="2.69651">
        <ele>123.42</ele>
        <time>2024-09-04T18:15:01.907Z</time>
      </trkpt>
      <trkpt lat="50.37722" lon="2.69661">
        <ele>123.08</ele>
        <time>2024-09-04T18:15:12.776Z</time>
      </trkpt>
      <trkpt lat="50.37734" lon="2.69663">
        <ele>122.77</ele>
        <time>2024-09-04T18:15:23.647Z</time>
      </trkpt>
      <trkpt lat="50.37741" lon="2.69663">
        <ele>122.53</ele>
        <time>2024-09-04T18:15:34.519Z</time>
      </trkpt>
      <trkpt lat="50.37741" lon="2.69666">
        <ele>122.36</ele>
        <time>2024-09-04T18:15:45.391Z</time>
      </trkpt>
      <trkpt lat="50.37741" lon="2.69663">
        <ele>122.53</ele>
        <time>2024-09-04T18:15:56.264Z</time>
      </trkpt>
      <trkpt lat="50.37739" lon="2.69639">
        <ele>122.16</ele>
        <time>2024-09-04T18:16:07.139Z</time>
      </trkpt>
      <trkpt lat="50.37735" lon="2.69607">
        <ele>122.12</ele>
        <time>2024-09-04T18:16:18.017Z</time>
      </trkpt>
      <trkpt lat="50.37733" lon="2.69596">
        <ele>122.13</ele>
        <time>2024-09-04T18:16:28.897Z</time>
      </trkpt>
      <trkpt lat="50.37729" lon="2.69572">
        <ele>122.16</ele>
        <time>2024-09-04T18:16:39.779Z</time>
      </trkpt>
      <trkpt lat="50.37721" lon="2.69541">
        <ele>122.25</ele>
        <time>2024-09-04T18:16:50.665Z</time>
      </trkpt>
      <trkpt lat="50.37713" lon="2.69509">
        <ele>122.41</ele>
        <time>2024-09-04T18:17:01.554Z</time>
      </trkpt>
      <trkpt lat="50.37701" lon="2.69467">
        <ele>122.55</ele>
        <time>2024-09-04T18:17:12.448Z</time>
      </trkpt>
      <trkpt lat="50.3769" lon="2.69425">
        <ele>122.78</ele>
        <time>2024-09-04T18:17:23.346Z</time>
      </trkpt>
      <trkpt lat="50.37679" lon="2.69383">
        <ele>123.03</ele>
        <time>2024-09-04T18:17:34.249Z</time>
      </trkpt>
      <trkpt lat="50.37667" lon="2.69341">
        <ele>123.34</ele>
        <time>2024-09-04T18:17:45.157Z</time>
      </trkpt>
      <trkpt lat="50.37662" lon="2.69325">
        <ele>123.6</ele>
        <time>2024-09-04T18:17:56.067Z</time>
      </trkpt>
      <trkpt lat="50.37654" lon="2.69308">
        <ele>123.87</ele>
        <time>2024-09-04T18:18:06.979Z</time>
      </trkpt>
      <trkpt lat="50.37647" lon="2.69293">
        <ele>124.18</ele>
        <time>2024-09-04T18:18:17.893Z</time>
      </trkpt>
      <trkpt lat="50.3763" lon="2.69266">
        <ele>124.52</ele>
        <time>2024-09-04T18:18:28.811Z</time>
      </trkpt>
      <trkpt lat="50.37613" lon="2.69238">
        <ele>124.93</ele>
        <time>2024-09-04T18:18:39.732Z</time>
      </trkpt>
      <trkpt lat="50.37597" lon="2.69211">
        <ele>125.34</ele>
        <time>2024-09-04T18:18:50.657Z</time>
      </trkpt>
      <trkpt lat="50.37586" lon="2.69189">
        <ele>125.73</ele>
        <time>2024-09-04T18:19:01.585Z</time>
      </trkpt>
      <trkpt lat="50.37575" lon="2.69164">
        <ele>126.12</ele>
        <time>2024-09-04T18:19:12.516Z</time>
      </trkpt>
      <trkpt lat="50.37565" lon="2.69131">
        <ele>126.51</ele>
        <time>2024-09-04T18:19:23.451Z</time>
      </trkpt>
      <trkpt lat="50.37559" lon="2.69109">
        <ele>126.89</ele>
        <time>2024-09-04T18:19:34.388Z</time>
      </trkpt>
      <trkpt lat="50.37554" lon="2.69078">
        <ele>127.26</ele>
        <time>2024-09-04T18:19:45.329Z</time>
      </trkpt>
      <trkpt lat="50.37548" lon="2.69039">
        <ele>127.63</ele>
        <time>2024-09-04T18:19:56.274Z</time>
      </trkpt>
      <trkpt lat="50.37542" lon="2.69">
        <ele>127.96</ele>
        <time>2024-09-04T18:20:07.223Z</time>
      </trkpt>
      <trkpt lat="50.37536" lon="2.6896">
        <ele>128.28</ele>
        <time>2024-09-04T18:20:18.176Z</time>
      </trkpt>
      <trkpt lat="50.3753" lon="2.68921">
        <ele>128.58</ele>
        <time>2024-09-04T18:20:29.133Z</time>
      </trkpt>
      <trkpt lat="50.37528" lon="2.68907">
        <ele>128.89</ele>
        <time>2024-09-04T18:20:40.092Z</time>
      </trkpt>
      <trkpt lat="50.37527" lon="2.68891">
        <ele>129.18</ele>
        <time>2024-09-04T18:20:51.052Z</time>
      </trkpt>
      <trkpt lat="50.37526" lon="2.68871">
        <ele>129.44</ele>
        <time>2024-09-04T18:21:02.014Z</time>
      </trkpt>
      <trkpt lat="50.37525" lon="2.68823">
        <ele>129.72</ele>
        <time>2024-09-04T18:21:12.981Z</time>
      </trkpt>
      <trkpt lat="50.37525" lon="2.68775">
        <ele>129.93</ele>
        <time>2024-09-04T18:21:23.953Z</time>
      </trkpt>
      <trkpt lat="50.37524" lon="2.68727">
        <ele>130.07</ele>
        <time>2024-09-04T18:21:34.930Z</time>
      </trkpt>
      <trkpt lat="50.37523" lon="2.68679">
        <ele>130.26</ele>
        <time>2024-09-04T18:21:45.912Z</time>
      </trkpt>
      <trkpt lat="50.37522" lon="2.68632">
        <ele>130.44</ele>
        <time>2024-09-04T18:21:56.899Z</time>
      </trkpt>
      <trkpt lat="50.37522" lon="2.68584">
        <ele>130.61</ele>
        <time>2024-09-04T18:22:07.891Z</time>
      </trkpt>
      <trkpt lat="50.37521" lon="2.68536">
        <ele>130.77</ele>
        <time>2024-09-04T18:22:18.888Z</time>
      </trkpt>
      <trkpt lat="50.3752" lon="2.68489">
        <ele>130.84</ele>
        <time>2024-09-04T18:22:29.890Z</time>
      </trkpt>
      <trkpt lat="50.3752" lon="2.68442">
        <ele>130.9</ele>
        <time>2024-09-04T18:22:40.896Z</time>
      </trkpt>
      <trkpt lat="50.37519" lon="2.68395">
        <ele>131.03</ele>
        <time>2024-09-04T18:22:51.907Z</time>
      </trkpt>
      <trkpt lat="50.37519" lon="2.68364">
        <ele>131.17</ele>
        <time>2024-09-04T18:23:02.921Z</time>
      </trkpt>
      <trkpt lat="50.37518" lon="2.68333">
        <ele>131.3</ele>
        <time>2024-09-04T18:23:13.938Z</time>
      </trkpt>
      <trkpt lat="50.37519" lon="2.68288">
        <ele>131.46</ele>
        <time>2024-09-04T18:23:24.960Z</time>
      </trkpt>
      <trkpt lat="50.37521" lon="2.68268">
        <ele>131.58</ele>
        <time>2024-09-04T18:23:35.984Z</time>
      </trkpt>
      <trkpt lat="50.37525" lon="2.68242">
        <ele>131.73</ele>
        <time>2024-09-04T18:23:47.011Z</time>
      </trkpt>
      <trkpt lat="50.37528" lon="2.68217">
        <ele>131.89</ele>
        <time>2024-09-04T18:23:58.041Z</time>
      </trkpt>
      <trkpt lat="50.37536" lon="2.68181">
        <ele>132.06</ele>
        <time>2024-09-04T18:24:09.074Z</time>
      </trkpt>
      <trkpt lat="50.37549" lon="2.68149">
        <ele>132.2</ele>
        <time>2024-09-04T18:24:20.111Z</time>
      </trkpt>
      <trkpt lat="50.37561" lon="2.68117">
        <ele>132.39</ele>
        <time>2024-09-04T18:24:31.152Z</time>
      </trkpt>
      <trkpt lat="50.37574" lon="2.68085">
        <ele>132.57</ele>
        <time>2024-09-04T18:24:42.197Z</time>
      </trkpt>
      <trkpt lat="50.37583" lon="2.68064">
        <ele>132.73</ele>
        <time>2024-09-04T18:24:53.245Z</time>
      </trkpt>
      <trkpt lat="50.37591" lon="2.68044">
        <ele>132.89</ele>
        <time>2024-09-04T18:25:04.295Z</time>
      </trkpt>
      <trkpt lat="50.37607" lon="2.68016">
        <ele>133.05</ele>
        <time>2024-09-04T18:25:15.349Z</time>
      </trkpt>
      <trkpt lat="50.37629" lon="2.67987">
        <ele>133.22</ele>
        <time>2024-09-04T18:25:26.408Z</time>
      </trkpt>
      <trkpt lat="50.37644" lon="2.67971">
        <ele>133.4</ele>
        <time>2024-09-04T18:25:37.469Z</time>
      </trkpt>
      <trkpt lat="50.37657" lon="2.6796">
        <ele>133.59</ele>
        <time>2024-09-04T18:25:48.533Z</time>
      </trkpt>
      <trkpt lat="50.37674" lon="2.67943">
        <ele>133.77</ele>
        <time>2024-09-04T18:25:59.600Z</time>
      </trkpt>
      <trkpt lat="50.37695" lon="2.67916">
        <ele>133.97</ele>
        <time>2024-09-04T18:26:10.671Z</time>
      </trkpt>
      <trkpt lat="50.37706" lon="2.67886">
        <ele>134.15</ele>
        <time>2024-09-04T18:26:21.746Z</time>
      </trkpt>
      <trkpt lat="50.37712" lon="2.67853">
        <ele>134.34</ele>
        <time>2024-09-04T18:26:32.824Z</time>
      </trkpt>
      <trkpt lat="50.37713" lon="2.67835">
        <ele>134.55</ele>
        <time>2024-09-04T18:26:43.904Z</time>
      </trkpt>
      <trkpt lat="50.37713" lon="2.67812">
        <ele>134.76</ele>
        <time>2024-09-04T18:26:54.987Z</time>
      </trkpt>
      <trkpt lat="50.37711" lon="2.67788">
        <ele>134.99</ele>
        <time>2024-09-04T18:27:06.072Z</time>
      </trkpt>
      <trkpt lat="50.37705" lon="2.67763">
        <ele>135.25</ele>
        <time>2024-09-04T18:27:17.160Z</time>
      </trkpt>
      <trkpt lat="50.37692" lon="2.67733">
        <ele>135.51</ele>
        <time>2024-09-04T18:27:28.252Z</time>
      </trkpt>
      <trkpt lat="50.37689" lon="2.67727">
        <ele>135.75</ele>
        <time>2024-09-04T18:27:39.344Z</time>
      </trkpt>
      <trkpt lat="50.37676" lon="2.67712">
        <ele>136</ele>
        <time>2024-09-04T18:27:50.439Z</time>
      </trkpt>
      <trkpt lat="50.37663" lon="2.67697">
        <ele>136.26</ele>
        <time>2024-09-04T18:28:01.536Z</time>
      </trkpt>
      <trkpt lat="50.37644" lon="2.6768">
        <ele>136.5</ele>
        <time>2024-09-04T18:28:12.637Z</time>
      </trkpt>
      <trkpt lat="50.3762" lon="2.67659">
        <ele>136.72</ele>
        <time>2024-09-04T18:28:23.742Z</time>
      </trkpt>
      <trkpt lat="50.37601" lon="2.67643">
        <ele>136.95</ele>
        <time>2024-09-04T18:28:34.851Z</time>
      </trkpt>
      <trkpt lat="50.37582" lon="2.67626">
        <ele>137.22</ele>
        <time>2024-09-04T18:28:45.963Z</time>
      </trkpt>
      <trkpt lat="50.37563" lon="2.67609">
        <ele>137.49</ele>
        <time>2024-09-04T18:28:57.079Z</time>
      </trkpt>
      <trkpt lat="50.37545" lon="2.67593">
        <ele>137.77</ele>
        <time>2024-09-04T18:29:08.198Z</time>
      </trkpt>
      <trkpt lat="50.3752" lon="2.67568">
        <ele>138.03</ele>
        <time>2024-09-04T18:29:19.322Z</time>
      </trkpt>
      <trkpt lat="50.375" lon="2.67547">
        <ele>138.29</ele>
        <time>2024-09-04T18:29:30.450Z</time>
      </trkpt>
      <trkpt lat="50.37489" lon="2.67534">
        <ele>138.52</ele>
        <time>2024-09-04T18:29:41.580Z</time>
      </trkpt>
      <trkpt lat="50.37487" lon="2.67531">
        <ele>138.73</ele>
        <time>2024-09-04T18:29:52.710Z</time>
      </trkpt>
      <trkpt lat="50.37469" lon="2.67505">
        <ele>138.89</ele>
        <time>2024-09-04T18:30:03.844Z</time>
      </trkpt>
      <trkpt lat="50.3746" lon="2.67491">
        <ele>139.09</ele>
        <time>2024-09-04T18:30:14.980Z</time>
      </trkpt>
      <trkpt lat="50.37444" lon="2.67461">
        <ele>139.3</ele>
        <time>2024-09-04T18:30:26.120Z</time>
      </trkpt>
      <trkpt lat="50.37428" lon="2.67431">
        <ele>139.5</ele>
        <time>2024-09-04T18:30:37.264Z</time>
      </trkpt>
      <trkpt lat="50.37419" lon="2.67415">
        <ele>139.67</ele>
        <time>2024-09-04T18:30:48.411Z</time>
      </trkpt>
      <trkpt lat="50.37423" lon="2.67409">
        <ele>139.81</ele>
        <time>2024-09-04T18:30:59.558Z</time>
      </trkpt>
      <trkpt lat="50.37437" lon="2.67383">
        <ele>139.95</ele>
        <time>2024-09-04T18:31:10.709Z</time>
      </trkpt>
      <trkpt lat="50.3745" lon="2.67357">
        <ele>140.08</ele>
        <time>2024-09-04T18:31:21.863Z</time>
      </trkpt>
      <trkpt lat="50.37464" lon="2.67331">
        <ele>140.19</ele>
        <time>2024-09-04T18:31:33.021Z</time>
      </trkpt>
      <trkpt lat="50.37477" lon="2.67304">
        <ele>140.31</ele>
        <time>2024-09-04T18:31:44.182Z</time>
      </trkpt>
      <trkpt lat="50.37493" lon="2.67274">
        <ele>140.39</ele>
        <time>2024-09-04T18:31:55.347Z</time>
      </trkpt>
      <trkpt lat="50.37508" lon="2.67247">
        <ele>140.47</ele>
        <time>2024-09-04T18:32:06.516Z</time>
      </trkpt>
      <trkpt lat="50.37529" lon="2.67213">
        <ele>140.47</ele>
        <time>2024-09-04T18:32:17.690Z</time>
      </trkpt>
      <trkpt lat="50.37549" lon="2.67179">
        <ele>140.53</ele>
        <time>2024-09-04T18:32:28.868Z</time>
      </trkpt>
      <trkpt lat="50.37569" lon="2.67145">
        <ele>140.55</ele>
        <time>2024-09-04T18:32:40.051Z</time>
      </trkpt>
      <trkpt lat="50.37589" lon="2.67114">
        <ele>140.59</ele>
        <time>2024-09-04T18:32:51.239Z</time>
      </trkpt>
      <trkpt lat="50.37609" lon="2.67082">
        <ele>140.62</ele>
        <time>2024-09-04T18:33:02.431Z</time>
      </trkpt>
      <trkpt lat="50.37628" lon="2.67051">
        <ele>140.69</ele>
        <time>2024-09-04T18:33:13.628Z</time>
      </trkpt>
      <trkpt lat="50.37648" lon="2.67019">
        <ele>140.78</ele>
        <time>2024-09-04T18:33:24.829Z</time>
      </trkpt>
      <trkpt lat="50.37662" lon="2.66998">
        <ele>140.81</ele>
        <time>2024-09-04T18:33:36.033Z</time>
      </trkpt>
      <trkpt lat="50.37676" lon="2.66976">
        <ele>140.86</ele>
        <time>2024-09-04T18:33:47.241Z</time>
      </trkpt>
      <trkpt lat="50.37688" lon="2.66956">
        <ele>140.89</ele>
        <time>2024-09-04T18:33:58.451Z</time>
      </trkpt>
      <trkpt lat="50.37699" lon="2.66935">
        <ele>140.89</ele>
        <time>2024-09-04T18:34:09.664Z</time>
      </trkpt>
      <trkpt lat="50.37716" lon="2.66896">
        <ele>140.86</ele>
        <time>2024-09-04T18:34:20.882Z</time>
      </trkpt>
      <trkpt lat="50.37733" lon="2.66857">
        <ele>140.89</ele>
        <time>2024-09-04T18:34:32.105Z</time>
      </trkpt>
      <trkpt lat="50.37748" lon="2.66828">
        <ele>140.92</ele>
        <time>2024-09-04T18:34:43.332Z</time>
      </trkpt>
      <trkpt lat="50.37763" lon="2.668">
        <ele>140.93</ele>
        <time>2024-09-04T18:34:54.562Z</time>
      </trkpt>
      <trkpt lat="50.37775" lon="2.66776">
        <ele>140.93</ele>
        <time>2024-09-04T18:35:05.795Z</time>
      </trkpt>
      <trkpt lat="50.37788" lon="2.66753">
        <ele>140.85</ele>
        <time>2024-09-04T18:35:17.032Z</time>
      </trkpt>
      <trkpt lat="50.37803" lon="2.6673">
        <ele>140.8</ele>
        <time>2024-09-04T18:35:28.272Z</time>
      </trkpt>
      <trkpt lat="50.37819" lon="2.66706">
        <ele>140.68</ele>
        <time>2024-09-04T18:35:39.515Z</time>
      </trkpt>
      <trkpt lat="50.37837" lon="2.66683">
        <ele>140.56</ele>
        <time>2024-09-04T18:35:50.762Z</time>
      </trkpt>
      <trkpt lat="50.37855" lon="2.66659">
        <ele>140.42</ele>
        <time>2024-09-04T18:36:02.013Z</time>
      </trkpt>
      <trkpt lat="50.37875" lon="2.66629">
        <ele>140.25</ele>
        <time>2024-09-04T18:36:13.268Z</time>
      </trkpt>
      <trkpt lat="50.37895" lon="2.666">
        <ele>140.07</ele>
        <time>2024-09-04T18:36:24.528Z</time>
      </trkpt>
      <trkpt lat="50.37907" lon="2.66581">
        <ele>139.9</ele>
        <time>2024-09-04T18:36:35.791Z</time>
      </trkpt>
      <trkpt lat="50.37919" lon="2.66562">
        <ele>139.75</ele>
        <time>2024-09-04T18:36:47.056Z</time>
      </trkpt>
      <trkpt lat="50.37931" lon="2.66532">
        <ele>139.56</ele>
        <time>2024-09-04T18:36:58.325Z</time>
      </trkpt>
      <trkpt lat="50.37944" lon="2.66502">
        <ele>139.39</ele>
        <time>2024-09-04T18:37:09.598Z</time>
      </trkpt>
      <trkpt lat="50.37957" lon="2.66465">
        <ele>139.15</ele>
        <time>2024-09-04T18:37:20.875Z</time>
      </trkpt>
      <trkpt lat="50.37971" lon="2.66427">
        <ele>138.91</ele>
        <time>2024-09-04T18:37:32.156Z</time>
      </trkpt>
      <trkpt lat="50.37986" lon="2.66401">
        <ele>138.64</ele>
        <time>2024-09-04T18:37:43.441Z</time>
      </trkpt>
      <trkpt lat="50.38" lon="2.66376">
        <ele>138.37</ele>
        <time>2024-09-04T18:37:54.730Z</time>
      </trkpt>
      <trkpt lat="50.38023" lon="2.66354">
        <ele>138.1</ele>
        <time>2024-09-04T18:38:06.023Z</time>
      </trkpt>
      <trkpt lat="50.38046" lon="2.66332">
        <ele>137.83</ele>
        <time>2024-09-04T18:38:17.320Z</time>
      </trkpt>
      <trkpt lat="50.38069" lon="2.6631">
        <ele>137.57</ele>
        <time>2024-09-04T18:38:28.621Z</time>
      </trkpt>
      <trkpt lat="50.38082" lon="2.66291">
        <ele>137.34</ele>
        <time>2024-09-04T18:38:39.925Z</time>
      </trkpt>
      <trkpt lat="50.38096" lon="2.66271">
        <ele>137.09</ele>
        <time>2024-09-04T18:38:51.232Z</time>
      </trkpt>
      <trkpt lat="50.38112" lon="2.66246">
        <ele>136.84</ele>
        <time>2024-09-04T18:39:02.543Z</time>
      </trkpt>
      <trkpt lat="50.38128" lon="2.66221">
        <ele>136.65</ele>
        <time>2024-09-04T18:39:13.858Z</time>
      </trkpt>
      <trkpt lat="50.38149" lon="2.66195">
        <ele>136.44</ele>
        <time>2024-09-04T18:39:25.177Z</time>
      </trkpt>
      <trkpt lat="50.38169" lon="2.66168">
        <ele>136.29</ele>
        <time>2024-09-04T18:39:36.500Z</time>
      </trkpt>
      <trkpt lat="50.38189" lon="2.66142">
        <ele>136.19</ele>
        <time>2024-09-04T18:39:47.827Z</time>
      </trkpt>
      <trkpt lat="50.38213" lon="2.66113">
        <ele>136.12</ele>
        <time>2024-09-04T18:39:59.159Z</time>
      </trkpt>
      <trkpt lat="50.38237" lon="2.66085">
        <ele>136.11</ele>
        <time>2024-09-04T18:40:10.496Z</time>
      </trkpt>
      <trkpt lat="50.38261" lon="2.66056">
        <ele>136.06</ele>
        <time>2024-09-04T18:40:21.838Z</time>
      </trkpt>
      <trkpt lat="50.38281" lon="2.66034">
        <ele>136.01</ele>
        <time>2024-09-04T18:40:33.184Z</time>
      </trkpt>
      <trkpt lat="50.383" lon="2.66013">
        <ele>135.97</ele>
        <time>2024-09-04T18:40:44.533Z</time>
      </trkpt>
      <trkpt lat="50.3832" lon="2.65992">
        <ele>135.94</ele>
        <time>2024-09-04T18:40:55.886Z</time>
      </trkpt>
      <trkpt lat="50.3834" lon="2.65972">
        <ele>135.96</ele>
        <time>2024-09-04T18:41:07.243Z</time>
      </trkpt>
      <trkpt lat="50.38359" lon="2.65952">
        <ele>136.04</ele>
        <time>2024-09-04T18:41:18.604Z</time>
      </trkpt>
      <trkpt lat="50.38383" lon="2.65931">
        <ele>136.16</ele>
        <time>2024-09-04T18:41:29.969Z</time>
      </trkpt>
      <trkpt lat="50.38399" lon="2.65922">
        <ele>136.31</ele>
        <time>2024-09-04T18:41:41.337Z</time>
      </trkpt>
      <trkpt lat="50.38418" lon="2.65914">
        <ele>136.48</ele>
        <time>2024-09-04T18:41:52.708Z</time>
      </trkpt>
      <trkpt lat="50.38437" lon="2.65906">
        <ele>136.69</ele>
        <time>2024-09-04T18:42:04.082Z</time>
      </trkpt>
      <trkpt lat="50.38451" lon="2.65899">
        <ele>136.94</ele>
        <time>2024-09-04T18:42:15.458Z</time>
      </trkpt>
      <trkpt lat="50.38478" lon="2.65883">
        <ele>137.22</ele>
        <time>2024-09-04T18:42:26.839Z</time>
      </trkpt>
      <trkpt lat="50.38497" lon="2.65867">
        <ele>137.59</ele>
        <time>2024-09-04T18:42:38.224Z</time>
      </trkpt>
      <trkpt lat="50.38516" lon="2.65851">
        <ele>137.96</ele>
        <time>2024-09-04T18:42:49.612Z</time>
      </trkpt>
      <trkpt lat="50.38535" lon="2.65835">
        <ele>138.33</ele>
        <time>2024-09-04T18:43:01.003Z</time>
      </trkpt>
      <trkpt lat="50.38555" lon="2.65807">
        <ele>138.72</ele>
        <time>2024-09-04T18:43:12.399Z</time>
      </trkpt>
      <trkpt lat="50.38576" lon="2.65778">
        <ele>139.18</ele>
        <time>2024-09-04T18:43:23.799Z</time>
      </trkpt>
      <trkpt lat="50.38596" lon="2.6575">
        <ele>139.63</ele>
        <time>2024-09-04T18:43:35.204Z</time>
      </trkpt>
      <trkpt lat="50.38617" lon="2.65721">
        <ele>140.13</ele>
        <time>2024-09-04T18:43:46.613Z</time>
      </trkpt>
      <trkpt lat="50.38637" lon="2.65693">
        <ele>140.63</ele>
        <time>2024-09-04T18:43:58.026Z</time>
      </trkpt>
      <trkpt lat="50.38658" lon="2.65667">
        <ele>141.2</ele>
        <time>2024-09-04T18:44:09.444Z</time>
      </trkpt>
      <trkpt lat="50.38678" lon="2.65642">
        <ele>141.8</ele>
        <time>2024-09-04T18:44:20.866Z</time>
      </trkpt>
      <trkpt lat="50.38699" lon="2.65616">
        <ele>142.36</ele>
        <time>2024-09-04T18:44:32.292Z</time>
      </trkpt>
      <trkpt lat="50.38717" lon="2.65591">
        <ele>142.93</ele>
        <time>2024-09-04T18:44:43.722Z</time>
      </trkpt>
      <trkpt lat="50.38736" lon="2.65566">
        <ele>143.52</ele>
        <time>2024-09-04T18:44:55.156Z</time>
      </trkpt>
      <trkpt lat="50.38755" lon="2.65541">
        <ele>144.11</ele>
        <time>2024-09-04T18:45:06.594Z</time>
      </trkpt>
      <trkpt lat="50.38775" lon="2.65514">
        <ele>144.67</ele>
        <time>2024-09-04T18:45:18.036Z</time>
      </trkpt>
      <trkpt lat="50.38796" lon="2.65487">
        <ele>145.22</ele>
        <time>2024-09-04T18:45:29.482Z</time>
      </trkpt>
      <trkpt lat="50.38815" lon="2.65462">
        <ele>145.75</ele>
        <time>2024-09-04T18:45:40.932Z</time>
      </trkpt>
      <trkpt lat="50.38834" lon="2.65437">
        <ele>146.29</ele>
        <time>2024-09-04T18:45:52.386Z</time>
      </trkpt>
      <trkpt lat="50.38853" lon="2.65413">
        <ele>146.79</ele>
        <time>2024-09-04T18:46:03.844Z</time>
      </trkpt>
      <trkpt lat="50.38874" lon="2.65392">
        <ele>147.32</ele>
        <time>2024-09-04T18:46:15.306Z</time>
      </trkpt>
      <trkpt lat="50.38895" lon="2.65372">
        <ele>147.83</ele>
        <time>2024-09-04T18:46:26.772Z</time>
      </trkpt>
      <trkpt lat="50.38917" lon="2.65352">
        <ele>148.29</ele>
        <time>2024-09-04T18:46:38.242Z</time>
      </trkpt>
      <trkpt lat="50.38938" lon="2.65331">
        <ele>148.71</ele>
        <time>2024-09-04T18:46:49.716Z</time>
      </trkpt>
      <trkpt lat="50.38964" lon="2.65308">
        <ele>149.08</ele>
        <time>2024-09-04T18:47:01.195Z</time>
      </trkpt>
      <trkpt lat="50.38989" lon="2.65285">
        <ele>149.43</ele>
        <time>2024-09-04T18:47:12.679Z</time>
      </trkpt>
      <trkpt lat="50.39011" lon="2.65264">
        <ele>149.74</ele>
        <time>2024-09-04T18:47:24.167Z</time>
      </trkpt>
      <trkpt lat="50.39033" lon="2.65244">
        <ele>149.99</ele>
        <time>2024-09-04T18:47:35.659Z</time>
      </trkpt>
      <trkpt lat="50.39055" lon="2.65224">
        <ele>150.2</ele>
        <time>2024-09-04T18:47:47.155Z</time>
      </trkpt>
      <trkpt lat="50.39077" lon="2.65204">
        <ele>150.4</ele>
        <time>2024-09-04T18:47:58.655Z</time>
      </trkpt>
      <trkpt lat="50.39099" lon="2.65184">
        <ele>150.56</ele>
        <time>2024-09-04T18:48:10.159Z</time>
      </trkpt>
      <trkpt lat="50.39106" lon="2.65175">
        <ele>150.71</ele>
        <time>2024-09-04T18:48:21.665Z</time>
      </trkpt>
      <trkpt lat="50.39108" lon="2.65172">
        <ele>150.82</ele>
        <time>2024-09-04T18:48:33.171Z</time>
      </trkpt>
      <trkpt lat="50.39125" lon="2.65142">
        <ele>150.92</ele>
        <time>2024-09-04T18:48:44.681Z</time>
      </trkpt>
      <trkpt lat="50.39139" lon="2.6511">
        <ele>150.98</ele>
        <time>2024-09-04T18:48:56.195Z</time>
      </trkpt>
      <trkpt lat="50.39152" lon="2.65078">
        <ele>151.05</ele>
        <time>2024-09-04T18:49:07.713Z</time>
      </trkpt>
      <trkpt lat="50.39166" lon="2.65047">
        <ele>151.05</ele>
        <time>2024-09-04T18:49:19.235Z</time>
      </trkpt>
      <trkpt lat="50.39179" lon="2.65015">
        <ele>150.97</ele>
        <time>2024-09-04T18:49:30.761Z</time>
      </trkpt>
      <trkpt lat="50.3919" lon="2.64993">
        <ele>150.86</ele>
        <time>2024-09-04T18:49:42.290Z</time>
      </trkpt>
      <trkpt lat="50.39196" lon="2.64982">
        <ele>150.73</ele>
        <time>2024-09-04T18:49:53.820Z</time>
      </trkpt>
      <trkpt lat="50.39204" lon="2.64971">
        <ele>150.61</ele>
        <time>2024-09-04T18:50:05.352Z</time>
      </trkpt>
      <trkpt lat="50.39217" lon="2.64957">
        <ele>150.46</ele>
        <time>2024-09-04T18:50:16.886Z</time>
      </trkpt>
      <trkpt lat="50.3923" lon="2.64943">
        <ele>150.27</ele>
        <time>2024-09-04T18:50:28.423Z</time>
      </trkpt>
      <trkpt lat="50.39249" lon="2.64924">
        <ele>150.06</ele>
        <time>2024-09-04T18:50:39.963Z</time>
      </trkpt>
      <trkpt lat="50.39268" lon="2.64905">
        <ele>149.84</ele>
        <time>2024-09-04T18:50:51.507Z</time>
      </trkpt>
      <trkpt lat="50.39285" lon="2.6489">
        <ele>149.64</ele>
        <time>2024-09-04T18:51:03.054Z</time>
      </trkpt>
      <trkpt lat="50.39299" lon="2.64881">
        <ele>149.41</ele>
        <time>2024-09-04T18:51:14.604Z</time>
      </trkpt>
      <trkpt lat="50.39326" lon="2.64865">
        <ele>149.17</ele>
        <time>2024-09-04T18:51:26.158Z</time>
      </trkpt>
      <trkpt lat="50.39353" lon="2.6485">
        <ele>148.87</ele>
        <time>2024-09-04T18:51:37.717Z</time>
      </trkpt>
      <trkpt lat="50.3937" lon="2.64839">
        <ele>148.66</ele>
        <time>2024-09-04T18:51:49.279Z</time>
      </trkpt>
      <trkpt lat="50.39387" lon="2.64828">
        <ele>148.43</ele>
        <time>2024-09-04T18:52:00.844Z</time>
      </trkpt>
      <trkpt lat="50.39403" lon="2.64816">
        <ele>148.23</ele>
        <time>2024-09-04T18:52:12.412Z</time>
      </trkpt>
      <trkpt lat="50.39419" lon="2.64803">
        <ele>148.04</ele>
        <time>2024-09-04T18:52:23.982Z</time>
      </trkpt>
      <trkpt lat="50.39433" lon="2.64791">
        <ele>147.83</ele>
        <time>2024-09-04T18:52:35.555Z</time>
      </trkpt>
      <trkpt lat="50.39447" lon="2.64779">
        <ele>147.63</ele>
        <time>2024-09-04T18:52:47.131Z</time>
      </trkpt>
      <trkpt lat="50.39463" lon="2.64762">
        <ele>147.46</ele>
        <time>2024-09-04T18:52:58.710Z</time>
      </trkpt>
      <trkpt lat="50.39481" lon="2.64741">
        <ele>147.32</ele>
        <time>2024-09-04T18:53:10.292Z</time>
      </trkpt>
      <trkpt lat="50.39503" lon="2.6471">
        <ele>147.28</ele>
        <time>2024-09-04T18:53:21.879Z</time>
      </trkpt>
      <trkpt lat="50.39526" lon="2.64678">
        <ele>147.2</ele>
        <time>2024-09-04T18:53:33.471Z</time>
      </trkpt>
      <trkpt lat="50.39548" lon="2.64647">
        <ele>147.16</ele>
        <time>2024-09-04T18:53:45.068Z</time>
      </trkpt>
      <trkpt lat="50.3957" lon="2.64616">
        <ele>147.16</ele>
        <time>2024-09-04T18:53:56.669Z</time>
      </trkpt>
      <trkpt lat="50.39595" lon="2.64589">
        <ele>147.2</ele>
        <time>2024-09-04T18:54:08.275Z</time>
      </trkpt>
      <trkpt lat="50.3962" lon="2.64562">
        <ele>147.26</ele>
        <time>2024-09-04T18:54:19.886Z</time>
      </trkpt>
      <trkpt lat="50.39646" lon="2.64535">
        <ele>147.33</ele>
        <time>2024-09-04T18:54:31.502Z</time>
      </trkpt>
      <trkpt lat="50.39671" lon="2.64508">
        <ele>147.36</ele>
        <time>2024-09-04T18:54:43.123Z</time>
      </trkpt>
      <trkpt lat="50.3968" lon="2.64497">
        <ele>147.46</ele>
        <time>2024-09-04T18:54:54.746Z</time>
      </trkpt>
      <trkpt lat="50.39704" lon="2.64473">
        <ele>147.58</ele>
        <time>2024-09-04T18:55:06.373Z</time>
      </trkpt>
      <trkpt lat="50.39728" lon="2.64449">
        <ele>147.75</ele>
        <time>2024-09-04T18:55:18.005Z</time>
      </trkpt>
      <trkpt lat="50.39752" lon="2.64425">
        <ele>147.94</ele>
        <time>2024-09-04T18:55:29.641Z</time>
      </trkpt>
      <trkpt lat="50.39775" lon="2.64401">
        <ele>148.14</ele>
        <time>2024-09-04T18:55:41.282Z</time>
      </trkpt>
      <trkpt lat="50.39799" lon="2.64377">
        <ele>148.4</ele>
        <time>2024-09-04T18:55:52.928Z</time>
      </trkpt>
      <trkpt lat="50.39823" lon="2.64353">
        <ele>148.63</ele>
        <time>2024-09-04T18:56:04.578Z</time>
      </trkpt>
      <trkpt lat="50.39847" lon="2.64329">
        <ele>148.83</ele>
        <time>2024-09-04T18:56:16.233Z</time>
      </trkpt>
      <trkpt lat="50.39868" lon="2.64311">
        <ele>149.04</ele>
        <time>2024-09-04T18:56:27.892Z</time>
      </trkpt>
      <trkpt lat="50.3989" lon="2.64293">
        <ele>149.26</ele>
        <time>2024-09-04T18:56:39.554Z</time>
      </trkpt>
      <trkpt lat="50.39911" lon="2.64275">
        <ele>149.51</ele>
        <time>2024-09-04T18:56:51.220Z</time>
      </trkpt>
      <trkpt lat="50.39934" lon="2.64254">
        <ele>149.8</ele>
        <time>2024-09-04T18:57:02.891Z</time>
      </trkpt>
      <trkpt lat="50.39956" lon="2.64233">
        <ele>150.08</ele>
        <time>2024-09-04T18:57:14.566Z</time>
      </trkpt>
      <trkpt lat="50.39979" lon="2.64212">
        <ele>150.37</ele>
        <time>2024-09-04T18:57:26.245Z</time>
      </trkpt>
      <trkpt lat="50.39995" lon="2.64188">
        <ele>150.7</ele>
        <time>2024-09-04T18:57:37.928Z</time>
      </trkpt>
      <trkpt lat="50.40011" lon="2.64164">
        <ele>151.01</ele>
        <time>2024-09-04T18:57:49.614Z</time>
      </trkpt>
      <trkpt lat="50.40026" lon="2.6414">
        <ele>151.35</ele>
        <time>2024-09-04T18:58:01.304Z</time>
      </trkpt>
      <trkpt lat="50.40043" lon="2.64114">
        <ele>151.65</ele>
        <time>2024-09-04T18:58:12.997Z</time>
      </trkpt>
      <trkpt lat="50.4006" lon="2.64089">
        <ele>151.95</ele>
        <time>2024-09-04T18:58:24.694Z</time>
      </trkpt>
      <trkpt lat="50.4008" lon="2.64058">
        <ele>152.27</ele>
        <time>2024-09-04T18:58:36.396Z</time>
      </trkpt>
      <trkpt lat="50.40092" lon="2.64039">
        <ele>152.59</ele>
        <time>2024-09-04T18:58:48.100Z</time>
      </trkpt>
      <trkpt lat="50.40099" lon="2.64031">
        <ele>152.91</ele>
        <time>2024-09-04T18:58:59.806Z</time>
      </trkpt>
      <trkpt lat="50.40121" lon="2.64012">
        <ele>153.24</ele>
        <time>2024-09-04T18:59:11.516Z</time>
      </trkpt>
      <trkpt lat="50.40143" lon="2.63994">
        <ele>153.6</ele>
        <time>2024-09-04T18:59:23.230Z</time>
      </trkpt>
      <trkpt lat="50.40165" lon="2.63975">
        <ele>153.99</ele>
        <time>2024-09-04T18:59:34.948Z</time>
      </trkpt>
      <trkpt lat="50.40187" lon="2.63957">
        <ele>154.37</ele>
        <time>2024-09-04T18:59:46.670Z</time>
      </trkpt>
      <trkpt lat="50.40207" lon="2.63944">
        <ele>154.75</ele>
        <time>2024-09-04T18:59:58.395Z</time>
      </trkpt>
      <trkpt lat="50.40219" lon="2.6394">
        <ele>155.11</ele>
        <time>2024-09-04T19:00:10.122Z</time>
      </trkpt>
      <trkpt lat="50.40225" lon="2.63948">
        <ele>155.48</ele>
        <time>2024-09-04T19:00:21.850Z</time>
      </trkpt>
      <trkpt lat="50.40242" lon="2.63967">
        <ele>155.87</ele>
        <time>2024-09-04T19:00:33.582Z</time>
      </trkpt>
      <trkpt lat="50.40262" lon="2.63982">
        <ele>156.29</ele>
        <time>2024-09-04T19:00:45.317Z</time>
      </trkpt>
      <trkpt lat="50.40282" lon="2.63999">
        <ele>156.7</ele>
        <time>2024-09-04T19:00:57.056Z</time>
      </trkpt>
      <trkpt lat="50.40305" lon="2.64015">
        <ele>157.09</ele>
        <time>2024-09-04T19:01:08.799Z</time>
      </trkpt>
      <trkpt lat="50.40321" lon="2.64022">
        <ele>157.45</ele>
        <time>2024-09-04T19:01:20.545Z</time>
      </trkpt>
      <trkpt lat="50.40348" lon="2.64031">
        <ele>157.77</ele>
        <time>2024-09-04T19:01:32.295Z</time>
      </trkpt>
      <trkpt lat="50.40364" lon="2.64033">
        <ele>158.11</ele>
        <time>2024-09-04T19:01:44.048Z</time>
      </trkpt>
      <trkpt lat="50.40386" lon="2.64034">
        <ele>158.48</ele>
        <time>2024-09-04T19:01:55.804Z</time>
      </trkpt>
      <trkpt lat="50.40408" lon="2.64036">
        <ele>158.88</ele>
        <time>2024-09-04T19:02:07.564Z</time>
      </trkpt>
      <trkpt lat="50.40425" lon="2.64038">
        <ele>159.24</ele>
        <time>2024-09-04T19:02:19.326Z</time>
      </trkpt>
      <trkpt lat="50.40442" lon="2.6404">
        <ele>159.57</ele>
        <time>2024-09-04T19:02:31.091Z</time>
      </trkpt>
      <trkpt lat="50.40459" lon="2.64049">
        <ele>159.85</ele>
        <time>2024-09-04T19:02:42.859Z</time>
      </trkpt>
      <trkpt lat="50.4047" lon="2.64057">
        <ele>160.13</ele>
        <time>2024-09-04T19:02:54.629Z</time>
      </trkpt>
      <trkpt lat="50.40488" lon="2.64079">
        <ele>160.38</ele>
        <time>2024-09-04T19:03:06.403Z</time>
      </trkpt>
      <trkpt lat="50.40501" lon="2.64099">
        <ele>160.64</ele>
        <time>2024-09-04T19:03:18.180Z</time>
      </trkpt>
      <trkpt lat="50.40514" lon="2.64119">
        <ele>160.91</ele>
        <time>2024-09-04T19:03:29.960Z</time>
      </trkpt>
      <trkpt lat="50.40526" lon="2.6413">
        <ele>161.17</ele>
        <time>2024-09-04T19:03:41.742Z</time>
      </trkpt>
      <trkpt lat="50.40547" lon="2.64143">
        <ele>161.4</ele>
        <time>2024-09-04T19:03:53.527Z</time>
      </trkpt>
      <trkpt lat="50.40572" lon="2.64153">
        <ele>161.63</ele>
        <time>2024-09-04T19:04:05.317Z</time>
      </trkpt>
      <trkpt lat="50.40584" lon="2.64157">
        <ele>161.85</ele>
        <time>2024-09-04T19:04:17.109Z</time>
      </trkpt>
      <trkpt lat="50.40589" lon="2.64159">
        <ele>162.07</ele>
        <time>2024-09-04T19:04:28.901Z</time>
      </trkpt>
      <trkpt lat="50.40619" lon="2.64168">
        <ele>162.29</ele>
        <time>2024-09-04T19:04:40.698Z</time>
      </trkpt>
      <trkpt lat="50.40648" lon="2.64177">
        <ele>162.47</ele>
        <time>2024-09-04T19:04:52.500Z</time>
      </trkpt>
      <trkpt lat="50.40668" lon="2.64181">
        <ele>162.63</ele>
        <time>2024-09-04T19:05:04.305Z</time>
      </trkpt>
      <trkpt lat="50.40689" lon="2.64186">
        <ele>162.78</ele>
        <time>2024-09-04T19:05:16.114Z</time>
      </trkpt>
      <trkpt lat="50.40712" lon="2.64188">
        <ele>162.91</ele>
        <time>2024-09-04T19:05:27.926Z</time>
      </trkpt>
      <trkpt lat="50.40736" lon="2.6419">
        <ele>163.05</ele>
        <time>2024-09-04T19:05:39.742Z</time>
      </trkpt>
      <trkpt lat="50.4076" lon="2.64192">
        <ele>163.17</ele>
        <time>2024-09-04T19:05:51.562Z</time>
      </trkpt>
      <trkpt lat="50.40778" lon="2.64194">
        <ele>163.28</ele>
        <time>2024-09-04T19:06:03.385Z</time>
      </trkpt>
      <trkpt lat="50.40795" lon="2.64196">
        <ele>163.35</ele>
        <time>2024-09-04T19:06:15.211Z</time>
      </trkpt>
      <trkpt lat="50.40817" lon="2.64199">
        <ele>163.38</ele>
        <time>2024-09-04T19:06:27.040Z</time>
      </trkpt>
      <trkpt lat="50.40838" lon="2.64201">
        <ele>163.38</ele>
        <time>2024-09-04T19:06:38.873Z</time>
      </trkpt>
      <trkpt lat="50.4086" lon="2.64204">
        <ele>163.4</ele>
        <time>2024-09-04T19:06:50.709Z</time>
      </trkpt>
      <trkpt lat="50.40882" lon="2.64211">
        <ele>163.42</ele>
        <time>2024-09-04T19:07:02.549Z</time>
      </trkpt>
      <trkpt lat="50.40904" lon="2.64217">
        <ele>163.4</ele>
        <time>2024-09-04T19:07:14.392Z</time>
      </trkpt>
      <trkpt lat="50.40926" lon="2.64224">
        <ele>163.38</ele>
        <time>2024-09-04T19:07:26.239Z</time>
      </trkpt>
      <trkpt lat="50.40946" lon="2.64229">
        <ele>163.33</ele>
        <time>2024-09-04T19:07:38.089Z</time>
      </trkpt>
      <trkpt lat="50.40956" lon="2.64231">
        <ele>163.25</ele>
        <time>2024-09-04T19:07:49.941Z</time>
      </trkpt>
      <trkpt lat="50.40969" lon="2.64234">
        <ele>163.15</ele>
        <time>2024-09-04T19:08:01.795Z</time>
      </trkpt>
      <trkpt lat="50.40971" lon="2.64234">
        <ele>163.03</ele>
        <time>2024-09-04T19:08:13.649Z</time>
      </trkpt>
      <trkpt lat="50.40989" lon="2.64236">
        <ele>162.9</ele>
        <time>2024-09-04T19:08:25.506Z</time>
      </trkpt>
      <trkpt lat="50.40998" lon="2.64234">
        <ele>163.26</ele>
        <time>2024-09-04T19:08:37.364Z</time>
      </trkpt>
      <trkpt lat="50.41005" lon="2.64234">
        <ele>162.59</ele>
        <time>2024-09-04T19:08:49.224Z</time>
      </trkpt>
      <trkpt lat="50.41024" lon="2.64235">
        <ele>162.41</ele>
        <time>2024-09-04T19:09:01.087Z</time>
      </trkpt>
      <trkpt lat="50.4104" lon="2.64237">
        <ele>162.25</ele>
        <time>2024-09-04T19:09:12.952Z</time>
      </trkpt>
      <trkpt lat="50.41056" lon="2.64238">
        <ele>162.08</ele>
        <time>2024-09-04T19:09:24.820Z</time>
      </trkpt>
      <trkpt lat="50.41083" lon="2.64247">
        <ele>161.81</ele>
        <time>2024-09-04T19:09:36.692Z</time>
      </trkpt>
      <trkpt lat="50.41112" lon="2.64263">
        <ele>161.57</ele>
        <time>2024-09-04T19:09:48.569Z</time>
      </trkpt>
      <trkpt lat="50.41131" lon="2.64276">
        <ele>161.36</ele>
        <time>2024-09-04T19:10:00.449Z</time>
      </trkpt>
      <trkpt lat="50.4115" lon="2.64288">
        <ele>161.13</ele>
        <time>2024-09-04T19:10:12.333Z</time>
      </trkpt>
      <trkpt lat="50.41173" lon="2.64302">
        <ele>160.91</ele>
        <time>2024-09-04T19:10:24.221Z</time>
      </trkpt>
      <trkpt lat="50.41195" lon="2.64317">
        <ele>160.68</ele>
        <time>2024-09-04T19:10:36.112Z</time>
      </trkpt>
      <trkpt lat="50.41212" lon="2.64327">
        <ele>160.48</ele>
        <time>2024-09-04T19:10:48.006Z</time>
      </trkpt>
      <trkpt lat="50.41229" lon="2.64338">
        <ele>160.26</ele>
        <time>2024-09-04T19:10:59.903Z</time>
      </trkpt>
      <trkpt lat="50.41257" lon="2.64353">
        <ele>160.02</ele>
        <time>2024-09-04T19:11:11.805Z</time>
      </trkpt>
      <trkpt lat="50.41269" lon="2.64356">
        <ele>159.82</ele>
        <time>2024-09-04T19:11:23.709Z</time>
      </trkpt>
      <trkpt lat="50.4128" lon="2.64356">
        <ele>159.64</ele>
        <time>2024-09-04T19:11:35.615Z</time>
      </trkpt>
      <trkpt lat="50.41292" lon="2.64357">
        <ele>159.48</ele>
        <time>2024-09-04T19:11:47.523Z</time>
      </trkpt>
      <trkpt lat="50.41302" lon="2.64356">
        <ele>159.34</ele>
        <time>2024-09-04T19:11:59.432Z</time>
      </trkpt>
      <trkpt lat="50.4131" lon="2.64351">
        <ele>159.22</ele>
        <time>2024-09-04T19:12:11.343Z</time>
      </trkpt>
      <trkpt lat="50.4132" lon="2.64349">
        <ele>159.12</ele>
        <time>2024-09-04T19:12:23.255Z</time>
      </trkpt>
      <trkpt lat="50.41339" lon="2.64338">
        <ele>159.02</ele>
        <time>2024-09-04T19:12:35.171Z</time>
      </trkpt>
      <trkpt lat="50.41367" lon="2.64322">
        <ele>158.97</ele>
        <time>2024-09-04T19:12:47.091Z</time>
      </trkpt>
      <trkpt lat="50.41394" lon="2.64306">
        <ele>158.97</ele>
        <time>2024-09-04T19:12:59.016Z</time>
      </trkpt>
      <trkpt lat="50.41415" lon="2.64295">
        <ele>159.01</ele>
        <time>2024-09-04T19:13:10.944Z</time>
      </trkpt>
      <trkpt lat="50.41436" lon="2.64284">
        <ele>159.12</ele>
        <time>2024-09-04T19:13:22.876Z</time>
      </trkpt>
      <trkpt lat="50.4146" lon="2.64277">
        <ele>159.25</ele>
        <time>2024-09-04T19:13:34.812Z</time>
      </trkpt>
      <trkpt lat="50.41479" lon="2.64274">
        <ele>159.44</ele>
        <time>2024-09-04T19:13:46.751Z</time>
      </trkpt>
      <trkpt lat="50.41498" lon="2.64274">
        <ele>159.68</ele>
        <time>2024-09-04T19:13:58.693Z</time>
      </trkpt>
      <trkpt lat="50.41514" lon="2.64276">
        <ele>159.96</ele>
        <time>2024-09-04T19:14:10.638Z</time>
      </trkpt>
      <trkpt lat="50.4153" lon="2.64277">
        <ele>160.28</ele>
        <time>2024-09-04T19:14:22.585Z</time>
      </trkpt>
      <trkpt lat="50.4156" lon="2.64286">
        <ele>160.67</ele>
        <time>2024-09-04T19:14:34.537Z</time>
      </trkpt>
      <trkpt lat="50.4158" lon="2.64291">
        <ele>161.09</ele>
        <time>2024-09-04T19:14:46.492Z</time>
      </trkpt>
      <trkpt lat="50.416" lon="2.64295">
        <ele>161.55</ele>
        <time>2024-09-04T19:14:58.450Z</time>
      </trkpt>
      <trkpt lat="50.41621" lon="2.64301">
        <ele>162.04</ele>
        <time>2024-09-04T19:15:10.412Z</time>
      </trkpt>
      <trkpt lat="50.41641" lon="2.64306">
        <ele>162.57</ele>
        <time>2024-09-04T19:15:22.377Z</time>
      </trkpt>
      <trkpt lat="50.41662" lon="2.64311">
        <ele>163.15</ele>
        <time>2024-09-04T19:15:34.346Z</time>
      </trkpt>
      <trkpt lat="50.41687" lon="2.64318">
        <ele>163.75</ele>
        <time>2024-09-04T19:15:46.318Z</time>
      </trkpt>
      <trkpt lat="50.41711" lon="2.64324">
        <ele>164.38</ele>
        <time>2024-09-04T19:15:58.294Z</time>
      </trkpt>
      <trkpt lat="50.41735" lon="2.6433">
        <ele>165.04</ele>
        <time>2024-09-04T19:16:10.274Z</time>
      </trkpt>
      <trkpt lat="50.41762" lon="2.6434">
        <ele>165.73</ele>
        <time>2024-09-04T19:16:22.259Z</time>
      </trkpt>
      <trkpt lat="50.41777" lon="2.64349">
        <ele>166.49</ele>
        <time>2024-09-04T19:16:34.246Z</time>
      </trkpt>
      <trkpt lat="50.41792" lon="2.64362">
        <ele>167.31</ele>
        <time>2024-09-04T19:16:46.236Z</time>
      </trkpt>
      <trkpt lat="50.41806" lon="2.64375">
        <ele>168.14</ele>
        <time>2024-09-04T19:16:58.229Z</time>
      </trkpt>
      <trkpt lat="50.41827" lon="2.64398">
        <ele>169.01</ele>
        <time>2024-09-04T19:17:10.226Z</time>
      </trkpt>
      <trkpt lat="50.41847" lon="2.64427">
        <ele>169.9</ele>
        <time>2024-09-04T19:17:22.227Z</time>
      </trkpt>
      <trkpt lat="50.41861" lon="2.64454">
        <ele>170.81</ele>
        <time>2024-09-04T19:17:34.232Z</time>
      </trkpt>
      <trkpt lat="50.4187" lon="2.64476">
        <ele>171.73</ele>
        <time>2024-09-04T19:17:46.240Z</time>
      </trkpt>
      <trkpt lat="50.41878" lon="2.64497">
        <ele>172.64</ele>
        <time>2024-09-04T19:17:58.250Z</time>
      </trkpt>
      <trkpt lat="50.41887" lon="2.6452">
        <ele>173.59</ele>
        <time>2024-09-04T19:18:10.263Z</time>
      </trkpt>
      <trkpt lat="50.41896" lon="2.64557">
        <ele>174.56</ele>
        <time>2024-09-04T19:18:22.280Z</time>
      </trkpt>
      <trkpt lat="50.41903" lon="2.64596">
        <ele>175.51</ele>
        <time>2024-09-04T19:18:34.301Z</time>
      </trkpt>
      <trkpt lat="50.41911" lon="2.64634">
        <ele>176.47</ele>
        <time>2024-09-04T19:18:46.326Z</time>
      </trkpt>
      <trkpt lat="50.41919" lon="2.64673">
        <ele>177.39</ele>
        <time>2024-09-04T19:18:58.355Z</time>
      </trkpt>
      <trkpt lat="50.41926" lon="2.64711">
        <ele>178.28</ele>
        <time>2024-09-04T19:19:10.388Z</time>
      </trkpt>
      <trkpt lat="50.41935" lon="2.64758">
        <ele>179.19</ele>
        <time>2024-09-04T19:19:22.426Z</time>
      </trkpt>
      <trkpt lat="50.41944" lon="2.64805">
        <ele>180.07</ele>
        <time>2024-09-04T19:19:34.469Z</time>
      </trkpt>
      <trkpt lat="50.41953" lon="2.64851">
        <ele>180.93</ele>
        <time>2024-09-04T19:19:46.517Z</time>
      </trkpt>
      <trkpt lat="50.4196" lon="2.64888">
        <ele>181.78</ele>
        <time>2024-09-04T19:19:58.569Z</time>
      </trkpt>
      <trkpt lat="50.41968" lon="2.64926">
        <ele>182.58</ele>
        <time>2024-09-04T19:20:10.625Z</time>
      </trkpt>
      <trkpt lat="50.41975" lon="2.64963">
        <ele>183.3</ele>
        <time>2024-09-04T19:20:22.685Z</time>
      </trkpt>
      <trkpt lat="50.4198" lon="2.64988">
        <ele>183.92</ele>
        <time>2024-09-04T19:20:34.748Z</time>
      </trkpt>
      <trkpt lat="50.41984" lon="2.65013">
        <ele>184.5</ele>
        <time>2024-09-04T19:20:46.814Z</time>
      </trkpt>
      <trkpt lat="50.41987" lon="2.65029">
        <ele>185</ele>
        <time>2024-09-04T19:20:58.881Z</time>
      </trkpt>
      <trkpt lat="50.41994" lon="2.65056">
        <ele>185.47</ele>
        <time>2024-09-04T19:21:10.951Z</time>
      </trkpt>
      <trkpt lat="50.42003" lon="2.65078">
        <ele>185.88</ele>
        <time>2024-09-04T19:21:23.024Z</time>
      </trkpt>
      <trkpt lat="50.42014" lon="2.65102">
        <ele>186.22</ele>
        <time>2024-09-04T19:21:35.100Z</time>
      </trkpt>
      <trkpt lat="50.42025" lon="2.65126">
        <ele>186.43</ele>
        <time>2024-09-04T19:21:47.179Z</time>
      </trkpt>
      <trkpt lat="50.42039" lon="2.65146">
        <ele>186.48</ele>
        <time>2024-09-04T19:21:59.261Z</time>
      </trkpt>
      <trkpt lat="50.42058" lon="2.65173">
        <ele>186.45</ele>
        <time>2024-09-04T19:22:11.347Z</time>
      </trkpt>
      <trkpt lat="50.42084" lon="2.652">
        <ele>186.32</ele>
        <time>2024-09-04T19:22:23.438Z</time>
      </trkpt>
      <trkpt lat="50.42105" lon="2.65219">
        <ele>186.13</ele>
        <time>2024-09-04T19:22:35.533Z</time>
      </trkpt>
      <trkpt lat="50.42125" lon="2.65238">
        <ele>185.81</ele>
        <time>2024-09-04T19:22:47.632Z</time>
      </trkpt>
      <trkpt lat="50.42138" lon="2.65253">
        <ele>185.41</ele>
        <time>2024-09-04T19:22:59.733Z</time>
      </trkpt>
      <trkpt lat="50.42148" lon="2.65266">
        <ele>184.9</ele>
        <time>2024-09-04T19:23:11.836Z</time>
      </trkpt>
      <trkpt lat="50.4216" lon="2.65289">
        <ele>184.29</ele>
        <time>2024-09-04T19:23:23.942Z</time>
      </trkpt>
      <trkpt lat="50.42164" lon="2.65305">
        <ele>183.62</ele>
        <time>2024-09-04T19:23:36.050Z</time>
      </trkpt>
      <trkpt lat="50.42166" lon="2.6531">
        <ele>182.89</ele>
        <time>2024-09-04T19:23:48.159Z</time>
      </trkpt>
      <trkpt lat="50.42169" lon="2.65347">
        <ele>182.05</ele>
        <time>2024-09-04T19:24:00.272Z</time>
      </trkpt>
      <trkpt lat="50.42168" lon="2.65381">
        <ele>181.19</ele>
        <time>2024-09-04T19:24:12.388Z</time>
      </trkpt>
      <trkpt lat="50.42166" lon="2.65414">
        <ele>180.27</ele>
        <time>2024-09-04T19:24:24.507Z</time>
      </trkpt>
      <trkpt lat="50.42164" lon="2.65444">
        <ele>179.24</ele>
        <time>2024-09-04T19:24:36.629Z</time>
      </trkpt>
      <trkpt lat="50.42162" lon="2.65473">
        <ele>178.16</ele>
        <time>2024-09-04T19:24:48.755Z</time>
      </trkpt>
      <trkpt lat="50.4216" lon="2.65519">
        <ele>176.91</ele>
        <time>2024-09-04T19:25:00.885Z</time>
      </trkpt>
      <trkpt lat="50.42158" lon="2.65564">
        <ele>175.63</ele>
        <time>2024-09-04T19:25:13.020Z</time>
      </trkpt>
      <trkpt lat="50.42155" lon="2.65606">
        <ele>174.36</ele>
        <time>2024-09-04T19:25:25.159Z</time>
      </trkpt>
      <trkpt lat="50.42152" lon="2.65648">
        <ele>173.06</ele>
        <time>2024-09-04T19:25:37.302Z</time>
      </trkpt>
      <trkpt lat="50.42149" lon="2.65691">
        <ele>171.65</ele>
        <time>2024-09-04T19:25:49.450Z</time>
      </trkpt>
      <trkpt lat="50.42146" lon="2.65734">
        <ele>170.12</ele>
        <time>2024-09-04T19:26:01.602Z</time>
      </trkpt>
      <trkpt lat="50.42142" lon="2.65774">
        <ele>168.57</ele>
        <time>2024-09-04T19:26:13.758Z</time>
      </trkpt>
      <trkpt lat="50.42137" lon="2.65813">
        <ele>167.08</ele>
        <time>2024-09-04T19:26:25.919Z</time>
      </trkpt>
      <trkpt lat="50.42133" lon="2.65842">
        <ele>165.55</ele>
        <time>2024-09-04T19:26:38.083Z</time>
      </trkpt>
      <trkpt lat="50.42129" lon="2.6587">
        <ele>164.08</ele>
        <time>2024-09-04T19:26:50.250Z</time>
      </trkpt>
      <trkpt lat="50.42125" lon="2.65914">
        <ele>162.55</ele>
        <time>2024-09-04T19:27:02.421Z</time>
      </trkpt>
      <trkpt lat="50.42124" lon="2.65929">
        <ele>161.1</ele>
        <time>2024-09-04T19:27:14.594Z</time>
      </trkpt>
      <trkpt lat="50.42128" lon="2.65972">
        <ele>159.64</ele>
        <time>2024-09-04T19:27:26.771Z</time>
      </trkpt>
      <trkpt lat="50.42134" lon="2.66">
        <ele>158.29</ele>
        <time>2024-09-04T19:27:38.951Z</time>
      </trkpt>
      <trkpt lat="50.42142" lon="2.66028">
        <ele>157</ele>
        <time>2024-09-04T19:27:51.134Z</time>
      </trkpt>
      <trkpt lat="50.42159" lon="2.66049">
        <ele>155.69</ele>
        <time>2024-09-04T19:28:03.321Z</time>
      </trkpt>
      <trkpt lat="50.42176" lon="2.6607">
        <ele>154.4</ele>
        <time>2024-09-04T19:28:15.511Z</time>
      </trkpt>
      <trkpt lat="50.42193" lon="2.6609">
        <ele>153.13</ele>
        <time>2024-09-04T19:28:27.705Z</time>
      </trkpt>
      <trkpt lat="50.42214" lon="2.66116">
        <ele>151.85</ele>
        <time>2024-09-04T19:28:39.903Z</time>
      </trkpt>
      <trkpt lat="50.42234" lon="2.66142">
        <ele>150.6</ele>
        <time>2024-09-04T19:28:52.105Z</time>
      </trkpt>
      <trkpt lat="50.42255" lon="2.66168">
        <ele>149.39</ele>
        <time>2024-09-04T19:29:04.311Z</time>
      </trkpt>
      <trkpt lat="50.42271" lon="2.66189">
        <ele>148.18</ele>
        <time>2024-09-04T19:29:16.521Z</time>
      </trkpt>
      <trkpt lat="50.42287" lon="2.6621">
        <ele>147.02</ele>
        <time>2024-09-04T19:29:28.734Z</time>
      </trkpt>
      <trkpt lat="50.42303" lon="2.66231">
        <ele>145.93</ele>
        <time>2024-09-04T19:29:40.950Z</time>
      </trkpt>
      <trkpt lat="50.42317" lon="2.66249">
        <ele>144.89</ele>
        <time>2024-09-04T19:29:53.169Z</time>
      </trkpt>
      <trkpt lat="50.42329" lon="2.66266">
        <ele>143.88</ele>
        <time>2024-09-04T19:30:05.391Z</time>
      </trkpt>
      <trkpt lat="50.42339" lon="2.66282">
        <ele>142.93</ele>
        <time>2024-09-04T19:30:17.615Z</time>
      </trkpt>
      <trkpt lat="50.42347" lon="2.66293">
        <ele>142</ele>
        <time>2024-09-04T19:30:29.841Z</time>
      </trkpt>
      <trkpt lat="50.42361" lon="2.66314">
        <ele>141.1</ele>
        <time>2024-09-04T19:30:42.070Z</time>
      </trkpt>
      <trkpt lat="50.42376" lon="2.66335">
        <ele>140.27</ele>
        <time>2024-09-04T19:30:54.302Z</time>
      </trkpt>
      <trkpt lat="50.42398" lon="2.6637">
        <ele>139.43</ele>
        <time>2024-09-04T19:31:06.539Z</time>
      </trkpt>
      <trkpt lat="50.42415" lon="2.66394">
        <ele>138.61</ele>
        <time>2024-09-04T19:31:18.780Z</time>
      </trkpt>
      <trkpt lat="50.42429" lon="2.66416">
        <ele>137.85</ele>
        <time>2024-09-04T19:31:31.024Z</time>
      </trkpt>
      <trkpt lat="50.42443" lon="2.66437">
        <ele>137.12</ele>
        <time>2024-09-04T19:31:43.271Z</time>
      </trkpt>
      <trkpt lat="50.42458" lon="2.66461">
        <ele>136.41</ele>
        <time>2024-09-04T19:31:55.522Z</time>
      </trkpt>
      <trkpt lat="50.42474" lon="2.66485">
        <ele>135.71</ele>
        <time>2024-09-04T19:32:07.776Z</time>
      </trkpt>
      <trkpt lat="50.42489" lon="2.66508">
        <ele>135.03</ele>
        <time>2024-09-04T19:32:20.033Z</time>
      </trkpt>
      <trkpt lat="50.42493" lon="2.66517">
        <ele>134.36</ele>
        <time>2024-09-04T19:32:32.292Z</time>
      </trkpt>
      <trkpt lat="50.42497" lon="2.66524">
        <ele>133.69</ele>
        <time>2024-09-04T19:32:44.551Z</time>
      </trkpt>
      <trkpt lat="50.42507" lon="2.66544">
        <ele>133.01</ele>
        <time>2024-09-04T19:32:56.813Z</time>
      </trkpt>
      <trkpt lat="50.42519" lon="2.66562">
        <ele>132.31</ele>
        <time>2024-09-04T19:33:09.078Z</time>
      </trkpt>
      <trkpt lat="50.42525" lon="2.6657">
        <ele>131.61</ele>
        <time>2024-09-04T19:33:21.344Z</time>
      </trkpt>
      <trkpt lat="50.42549" lon="2.66591">
        <ele>130.84</ele>
        <time>2024-09-04T19:33:33.614Z</time>
      </trkpt>
      <trkpt lat="50.42574" lon="2.66611">
        <ele>130.06</ele>
        <time>2024-09-04T19:33:45.889Z</time>
      </trkpt>
      <trkpt lat="50.42598" lon="2.66631">
        <ele>129.29</ele>
        <time>2024-09-04T19:33:58.168Z</time>
      </trkpt>
      <trkpt lat="50.42618" lon="2.6666">
        <ele>128.53</ele>
        <time>2024-09-04T19:34:10.452Z</time>
      </trkpt>
      <trkpt lat="50.4263" lon="2.66679">
        <ele>127.76</ele>
        <time>2024-09-04T19:34:22.738Z</time>
      </trkpt>
      <trkpt lat="50.42642" lon="2.66697">
        <ele>126.94</ele>
        <time>2024-09-04T19:34:35.027Z</time>
      </trkpt>
      <trkpt lat="50.42656" lon="2.66725">
        <ele>126.11</ele>
        <time>2024-09-04T19:34:47.320Z</time>
      </trkpt>
      <trkpt lat="50.4267" lon="2.66753">
        <ele>125.28</ele>
        <time>2024-09-04T19:34:59.616Z</time>
      </trkpt>
      <trkpt lat="50.42689" lon="2.66775">
        <ele>124.43</ele>
        <time>2024-09-04T19:35:11.916Z</time>
      </trkpt>
      <trkpt lat="50.42704" lon="2.66791">
        <ele>123.54</ele>
        <time>2024-09-04T19:35:24.219Z</time>
      </trkpt>
      <trkpt lat="50.42726" lon="2.66808">
        <ele>122.62</ele>
        <time>2024-09-04T19:35:36.526Z</time>
      </trkpt>
      <trkpt lat="50.42748" lon="2.66826">
        <ele>121.7</ele>
        <time>2024-09-04T19:35:48.837Z</time>
      </trkpt>
      <trkpt lat="50.42766" lon="2.66835">
        <ele>120.82</ele>
        <time>2024-09-04T19:36:01.151Z</time>
      </trkpt>
      <trkpt lat="50.42783" lon="2.66844">
        <ele>119.92</ele>
        <time>2024-09-04T19:36:13.468Z</time>
      </trkpt>
      <trkpt lat="50.42804" lon="2.66855">
        <ele>118.96</ele>
        <time>2024-09-04T19:36:25.788Z</time>
      </trkpt>
      <trkpt lat="50.42826" lon="2.66866">
        <ele>117.97</ele>
        <time>2024-09-04T19:36:38.112Z</time>
      </trkpt>
      <trkpt lat="50.42847" lon="2.66879">
        <ele>117</ele>
        <time>2024-09-04T19:36:50.440Z</time>
      </trkpt>
      <trkpt lat="50.42868" lon="2.66893">
        <ele>116.04</ele>
        <time>2024-09-04T19:37:02.771Z</time>
      </trkpt>
      <trkpt lat="50.42886" lon="2.66908">
        <ele>115.08</ele>
        <time>2024-09-04T19:37:15.106Z</time>
      </trkpt>
      <trkpt lat="50.42905" lon="2.66922">
        <ele>114.17</ele>
        <time>2024-09-04T19:37:27.444Z</time>
      </trkpt>
      <trkpt lat="50.42922" lon="2.66952">
        <ele>113.27</ele>
        <time>2024-09-04T19:37:39.786Z</time>
      </trkpt>
      <trkpt lat="50.42938" lon="2.66981">
        <ele>112.33</ele>
        <time>2024-09-04T19:37:52.132Z</time>
      </trkpt>
      <trkpt lat="50.42955" lon="2.6701">
        <ele>111.39</ele>
        <time>2024-09-04T19:38:04.482Z</time>
      </trkpt>
      <trkpt lat="50.42972" lon="2.67034">
        <ele>110.43</ele>
        <time>2024-09-04T19:38:16.836Z</time>
      </trkpt>
      <trkpt lat="50.42991" lon="2.67058">
        <ele>109.47</ele>
        <time>2024-09-04T19:38:29.194Z</time>
      </trkpt>
      <trkpt lat="50.4301" lon="2.67082">
        <ele>108.49</ele>
        <time>2024-09-04T19:38:41.556Z</time>
      </trkpt>
      <trkpt lat="50.43029" lon="2.67107">
        <ele>107.52</ele>
        <time>2024-09-04T19:38:53.921Z</time>
      </trkpt>
      <trkpt lat="50.43048" lon="2.67131">
        <ele>106.59</ele>
        <time>2024-09-04T19:39:06.290Z</time>
      </trkpt>
      <trkpt lat="50.43067" lon="2.67157">
        <ele>105.7</ele>
        <time>2024-09-04T19:39:18.663Z</time>
      </trkpt>
      <trkpt lat="50.43085" lon="2.67184">
        <ele>104.87</ele>
        <time>2024-09-04T19:39:31.040Z</time>
      </trkpt>
      <trkpt lat="50.43104" lon="2.6721">
        <ele>104.06</ele>
        <time>2024-09-04T19:39:43.421Z</time>
      </trkpt>
      <trkpt lat="50.43122" lon="2.67237">
        <ele>103.22</ele>
        <time>2024-09-04T19:39:55.806Z</time>
      </trkpt>
      <trkpt lat="50.4314" lon="2.67257">
        <ele>102.38</ele>
        <time>2024-09-04T19:40:08.195Z</time>
      </trkpt>
      <trkpt lat="50.43159" lon="2.67277">
        <ele>101.53</ele>
        <time>2024-09-04T19:40:20.588Z</time>
      </trkpt>
      <trkpt lat="50.4317" lon="2.67297">
        <ele>100.73</ele>
        <time>2024-09-04T19:40:32.983Z</time>
      </trkpt>
      <trkpt lat="50.43182" lon="2.67317">
        <ele>99.95</ele>
        <time>2024-09-04T19:40:45.381Z</time>
      </trkpt>
      <trkpt lat="50.43198" lon="2.67341">
        <ele>99.16</ele>
        <time>2024-09-04T19:40:57.783Z</time>
      </trkpt>
      <trkpt lat="50.43214" lon="2.67365">
        <ele>98.39</ele>
        <time>2024-09-04T19:41:10.188Z</time>
      </trkpt>
      <trkpt lat="50.43226" lon="2.67382">
        <ele>97.64</ele>
        <time>2024-09-04T19:41:22.596Z</time>
      </trkpt>
      <trkpt lat="50.43232" lon="2.6739">
        <ele>96.91</ele>
        <time>2024-09-04T19:41:35.005Z</time>
      </trkpt>
      <trkpt lat="50.43255" lon="2.67422">
        <ele>96.18</ele>
        <time>2024-09-04T19:41:47.419Z</time>
      </trkpt>
      <trkpt lat="50.43279" lon="2.67455">
        <ele>95.39</ele>
        <time>2024-09-04T19:41:59.838Z</time>
      </trkpt>
      <trkpt lat="50.43292" lon="2.67469">
        <ele>94.72</ele>
        <time>2024-09-04T19:42:12.260Z</time>
      </trkpt>
      <trkpt lat="50.43304" lon="2.67484">
        <ele>94.05</ele>
        <time>2024-09-04T19:42:24.684Z</time>
      </trkpt>
      <trkpt lat="50.43318" lon="2.67492">
        <ele>93.38</ele>
        <time>2024-09-04T19:42:37.110Z</time>
      </trkpt>
      <trkpt lat="50.43334" lon="2.67479">
        <ele>92.72</ele>
        <time>2024-09-04T19:42:49.539Z</time>
      </trkpt>
      <trkpt lat="50.43355" lon="2.67444">
        <ele>92.07</ele>
        <time>2024-09-04T19:43:01.973Z</time>
      </trkpt>
      <trkpt lat="50.43376" lon="2.67409">
        <ele>91.43</ele>
        <time>2024-09-04T19:43:14.412Z</time>
      </trkpt>
      <trkpt lat="50.43397" lon="2.67375">
        <ele>90.83</ele>
        <time>2024-09-04T19:43:26.856Z</time>
      </trkpt>
      <trkpt lat="50.43409" lon="2.67355">
        <ele>90.22</ele>
        <time>2024-09-04T19:43:39.303Z</time>
      </trkpt>
      <trkpt lat="50.43414" lon="2.67347">
        <ele>89.63</ele>
        <time>2024-09-04T19:43:51.751Z</time>
      </trkpt>
      <trkpt lat="50.43424" lon="2.67327">
        <ele>89.04</ele>
        <time>2024-09-04T19:44:04.202Z</time>
      </trkpt>
      <trkpt lat="50.43434" lon="2.67307">
        <ele>88.45</ele>
        <time>2024-09-04T19:44:16.655Z</time>
      </trkpt>
      <trkpt lat="50.4344" lon="2.673">
        <ele>87.87</ele>
        <time>2024-09-04T19:44:29.109Z</time>
      </trkpt>
      <trkpt lat="50.43452" lon="2.67275">
        <ele>87.29</ele>
        <time>2024-09-04T19:44:41.567Z</time>
      </trkpt>
      <trkpt lat="50.43473" lon="2.67239">
        <ele>86.68</ele>
        <time>2024-09-04T19:44:54.030Z</time>
      </trkpt>
      <trkpt lat="50.43486" lon="2.67223">
        <ele>86.07</ele>
        <time>2024-09-04T19:45:06.495Z</time>
      </trkpt>
      <trkpt lat="50.435" lon="2.67214">
        <ele>85.46</ele>
        <time>2024-09-04T19:45:18.963Z</time>
      </trkpt>
      <trkpt lat="50.43513" lon="2.67211">
        <ele>84.88</ele>
        <time>2024-09-04T19:45:31.433Z</time>
      </trkpt>
      <trkpt lat="50.43532" lon="2.6721">
        <ele>84.33</ele>
        <time>2024-09-04T19:45:43.906Z</time>
      </trkpt>
      <trkpt lat="50.43551" lon="2.6721">
        <ele>83.81</ele>
        <time>2024-09-04T19:45:56.382Z</time>
      </trkpt>
      <trkpt lat="50.4357" lon="2.67212">
        <ele>83.32</ele>
        <time>2024-09-04T19:46:08.861Z</time>
      </trkpt>
      <trkpt lat="50.43601" lon="2.67213">
        <ele>82.85</ele>
        <time>2024-09-04T19:46:21.345Z</time>
      </trkpt>
      <trkpt lat="50.43612" lon="2.67217">
        <ele>82.39</ele>
        <time>2024-09-04T19:46:33.831Z</time>
      </trkpt>
      <trkpt lat="50.4362" lon="2.67222">
        <ele>81.93</ele>
        <time>2024-09-04T19:46:46.318Z</time>
      </trkpt>
      <trkpt lat="50.43627" lon="2.67229">
        <ele>81.49</ele>
        <time>2024-09-04T19:46:58.806Z</time>
      </trkpt>
      <trkpt lat="50.4363" lon="2.67234">
        <ele>81.07</ele>
        <time>2024-09-04T19:47:11.295Z</time>
      </trkpt>
      <trkpt lat="50.43635" lon="2.6724">
        <ele>80.66</ele>
        <time>2024-09-04T19:47:23.785Z</time>
      </trkpt>
      <trkpt lat="50.43642" lon="2.67243">
        <ele>80.25</ele>
        <time>2024-09-04T19:47:36.276Z</time>
      </trkpt>
      <trkpt lat="50.43649" lon="2.67242">
        <ele>79.85</ele>
        <time>2024-09-04T19:47:48.768Z</time>
      </trkpt>
      <trkpt lat="50.43653" lon="2.67239">
        <ele>79.48</ele>
        <time>2024-09-04T19:48:01.261Z</time>
      </trkpt>
      <trkpt lat="50.43657" lon="2.67234">
        <ele>79.12</ele>
        <time>2024-09-04T19:48:13.755Z</time>
      </trkpt>
      <trkpt lat="50.4366" lon="2.67228">
        <ele>78.79</ele>
        <time>2024-09-04T19:48:26.250Z</time>
      </trkpt>
      <trkpt lat="50.43664" lon="2.67223">
        <ele>78.45</ele>
        <time>2024-09-04T19:48:38.745Z</time>
      </trkpt>
      <trkpt lat="50.4369" lon="2.67215">
        <ele>78.05</ele>
        <time>2024-09-04T19:48:51.245Z</time>
      </trkpt>
      <trkpt lat="50.43716" lon="2.67214">
        <ele>77.65</ele>
        <time>2024-09-04T19:49:03.749Z</time>
      </trkpt>
      <trkpt lat="50.43746" lon="2.67215">
        <ele>77.27</ele>
        <time>2024-09-04T19:49:16.258Z</time>
      </trkpt>
      <trkpt lat="50.43775" lon="2.67216">
        <ele>76.94</ele>
        <time>2024-09-04T19:49:28.771Z</time>
      </trkpt>
      <trkpt lat="50.43805" lon="2.67217">
        <ele>76.74</ele>
        <time>2024-09-04T19:49:41.289Z</time>
      </trkpt>
      <trkpt lat="50.43835" lon="2.67219">
        <ele>76.55</ele>
        <time>2024-09-04T19:49:53.812Z</time>
      </trkpt>
      <trkpt lat="50.43864" lon="2.67221">
        <ele>76.34</ele>
        <time>2024-09-04T19:50:06.340Z</time>
      </trkpt>
      <trkpt lat="50.43894" lon="2.67223">
        <ele>76.1</ele>
        <time>2024-09-04T19:50:18.872Z</time>
      </trkpt>
      <trkpt lat="50.43923" lon="2.67225">
        <ele>75.87</ele>
        <time>2024-09-04T19:50:31.409Z</time>
      </trkpt>
      <trkpt lat="50.43937" lon="2.67224">
        <ele>75.65</ele>
        <time>2024-09-04T19:50:43.948Z</time>
      </trkpt>
      <trkpt lat="50.43949" lon="2.67222">
        <ele>75.45</ele>
        <time>2024-09-04T19:50:56.489Z</time>
      </trkpt>
      <trkpt lat="50.43965" lon="2.67218">
        <ele>75.27</ele>
        <time>2024-09-04T19:51:09.033Z</time>
      </trkpt>
      <trkpt lat="50.43991" lon="2.67205">
        <ele>75.08</ele>
        <time>2024-09-04T19:51:21.581Z</time>
      </trkpt>
      <trkpt lat="50.44016" lon="2.67192">
        <ele>74.87</ele>
        <time>2024-09-04T19:51:34.133Z</time>
      </trkpt>
      <trkpt lat="50.4404" lon="2.67182">
        <ele>74.67</ele>
        <time>2024-09-04T19:51:46.689Z</time>
      </trkpt>
      <trkpt lat="50.44062" lon="2.67178">
        <ele>74.49</ele>
        <time>2024-09-04T19:51:59.249Z</time>
      </trkpt>
      <trkpt lat="50.44092" lon="2.6718">
        <ele>74.27</ele>
        <time>2024-09-04T19:52:11.814Z</time>
      </trkpt>
      <trkpt lat="50.44109" lon="2.67182">
        <ele>74.08</ele>
        <time>2024-09-04T19:52:24.381Z</time>
      </trkpt>
      <trkpt lat="50.44126" lon="2.67184">
        <ele>73.85</ele>
        <time>2024-09-04T19:52:36.951Z</time>
      </trkpt>
      <trkpt lat="50.44149" lon="2.67187">
        <ele>73.61</ele>
        <time>2024-09-04T19:52:49.525Z</time>
      </trkpt>
      <trkpt lat="50.44172" lon="2.6719">
        <ele>73.39</ele>
        <time>2024-09-04T19:53:02.103Z</time>
      </trkpt>
      <trkpt lat="50.44195" lon="2.67192">
        <ele>73.18</ele>
        <time>2024-09-04T19:53:14.684Z</time>
      </trkpt>
      <trkpt lat="50.44211" lon="2.67195">
        <ele>72.99</ele>
        <time>2024-09-04T19:53:29.102Z</time>
      </trkpt>
      <trkpt lat="50.44211" lon="2.67195">
        <ele>72.5</ele>
        <time>2024-09-04T19:53:29.102Z</time>
      </trkpt>
      <trkpt lat="50.4423" lon="2.67201">
        <ele>72.25</ele>
        <time>2024-09-04T19:53:45.802Z</time>
      </trkpt>
      <trkpt lat="50.44238" lon="2.67205">
        <ele>72</ele>
        <time>2024-09-04T19:53:53.522Z</time>
      </trkpt>
      <trkpt lat="50.44252" lon="2.67213">
        <ele>71.75</ele>
        <time>2024-09-04T19:54:06.320Z</time>
      </trkpt>
      <trkpt lat="50.44257" lon="2.67217">
        <ele>71.75</ele>
        <time>2024-09-04T19:54:10.840Z</time>
      </trkpt>
      <trkpt lat="50.44262" lon="2.67221">
        <ele>71.75</ele>
        <time>2024-09-04T19:54:15.908Z</time>
      </trkpt>
      <trkpt lat="50.44273" lon="2.67231">
        <ele>71.75</ele>
        <time>2024-09-04T19:54:27.389Z</time>
      </trkpt>
      <trkpt lat="50.44277" lon="2.67232">
        <ele>71.75</ele>
        <time>2024-09-04T19:54:30.492Z</time>
      </trkpt>
      <trkpt lat="50.44281" lon="2.67239">
        <ele>71.5</ele>
        <time>2024-09-04T19:54:36.283Z</time>
      </trkpt>
      <trkpt lat="50.44285" lon="2.67243">
        <ele>71.5</ele>
        <time>2024-09-04T19:54:40.290Z</time>
      </trkpt>
      <trkpt lat="50.44289" lon="2.67243">
        <ele>71.5</ele>
        <time>2024-09-04T19:54:43.544Z</time>
      </trkpt>
      <trkpt lat="50.44292" lon="2.67247">
        <ele>71.25</ele>
        <time>2024-09-04T19:54:47.117Z</time>
      </trkpt>
      <trkpt lat="50.44301" lon="2.6726">
        <ele>71.25</ele>
        <time>2024-09-04T19:54:57.705Z</time>
      </trkpt>
      <trkpt lat="50.44314" lon="2.67274">
        <ele>70.75</ele>
        <time>2024-09-04T19:55:11.633Z</time>
      </trkpt>
      <trkpt lat="50.44321" lon="2.67289">
        <ele>70.25</ele>
        <time>2024-09-04T19:55:22.468Z</time>
      </trkpt>
      <trkpt lat="50.44326" lon="2.67305">
        <ele>69.75</ele>
        <time>2024-09-04T19:55:32.172Z</time>
      </trkpt>
      <trkpt lat="50.44341" lon="2.67346">
        <ele>69</ele>
        <time>2024-09-04T19:55:58.846Z</time>
      </trkpt>
      <trkpt lat="50.44355" lon="2.67387">
        <ele>69</ele>
        <time>2024-09-04T19:56:24.994Z</time>
      </trkpt>
      <trkpt lat="50.44399" lon="2.67513">
        <ele>68.25</ele>
        <time>2024-09-04T19:57:44.893Z</time>
      </trkpt>
      <trkpt lat="50.44417" lon="2.67559">
        <ele>69.25</ele>
        <time>2024-09-04T19:58:15.743Z</time>
      </trkpt>
      <trkpt lat="50.44417" lon="2.67559">
        <ele>69.73</ele>
        <time>2024-09-04T19:58:15.743Z</time>
      </trkpt>
      <trkpt lat="50.44434" lon="2.67588">
        <ele>69.65</ele>
        <time>2024-09-04T19:58:29.839Z</time>
      </trkpt>
      <trkpt lat="50.4445" lon="2.67617">
        <ele>69.57</ele>
        <time>2024-09-04T19:58:42.484Z</time>
      </trkpt>
      <trkpt lat="50.44466" lon="2.67645">
        <ele>69.46</ele>
        <time>2024-09-04T19:58:55.133Z</time>
      </trkpt>
      <trkpt lat="50.44479" lon="2.67669">
        <ele>69.32</ele>
        <time>2024-09-04T19:59:07.786Z</time>
      </trkpt>
      <trkpt lat="50.44492" lon="2.67691">
        <ele>69.227960973137</ele>
        <time>2024-09-04T19:59:19.434Z</time>
      </trkpt>
      <trkpt lat="50.44493" lon="2.67692">
        <ele>69.22</ele>
        <time>2024-09-04T19:59:20.442Z</time>
      </trkpt>
      <trkpt lat="50.44501" lon="2.67707">
        <ele>69.09</ele>
        <time>2024-09-04T19:59:33.100Z</time>
      </trkpt>
      <trkpt lat="50.44519" lon="2.67733">
        <ele>68.93</ele>
        <time>2024-09-04T19:59:45.762Z</time>
      </trkpt>
      <trkpt lat="50.44549" lon="2.67749">
        <ele>68.71</ele>
        <time>2024-09-04T19:59:58.429Z</time>
      </trkpt>
      <trkpt lat="50.44578" lon="2.67764">
        <ele>68.52</ele>
        <time>2024-09-04T20:00:11.101Z</time>
      </trkpt>
      <trkpt lat="50.44608" lon="2.6778">
        <ele>68.3</ele>
        <time>2024-09-04T20:00:23.778Z</time>
      </trkpt>
      <trkpt lat="50.44617" lon="2.67795">
        <ele>68.14</ele>
        <time>2024-09-04T20:00:36.457Z</time>
      </trkpt>
      <trkpt lat="50.44633" lon="2.6782">
        <ele>67.97</ele>
        <time>2024-09-04T20:00:49.139Z</time>
      </trkpt>
      <trkpt lat="50.44648" lon="2.67846">
        <ele>67.78</ele>
        <time>2024-09-04T20:01:01.825Z</time>
      </trkpt>
      <trkpt lat="50.44664" lon="2.67871">
        <ele>67.58</ele>
        <time>2024-09-04T20:01:14.515Z</time>
      </trkpt>
      <trkpt lat="50.44675" lon="2.67893">
        <ele>67.36</ele>
        <time>2024-09-04T20:01:27.207Z</time>
      </trkpt>
      <trkpt lat="50.44685" lon="2.67915">
        <ele>67.14</ele>
        <time>2024-09-04T20:01:39.902Z</time>
      </trkpt>
      <trkpt lat="50.4469" lon="2.67925">
        <ele>66.93</ele>
        <time>2024-09-04T20:01:52.599Z</time>
      </trkpt>
      <trkpt lat="50.44698" lon="2.67941">
        <ele>66.73</ele>
        <time>2024-09-04T20:02:05.298Z</time>
      </trkpt>
      <trkpt lat="50.44709" lon="2.67964">
        <ele>66.52</ele>
        <time>2024-09-04T20:02:18.000Z</time>
      </trkpt>
      <trkpt lat="50.4472" lon="2.67987">
        <ele>66.28</ele>
        <time>2024-09-04T20:02:30.705Z</time>
      </trkpt>
      <trkpt lat="50.44724" lon="2.67994">
        <ele>66.04</ele>
        <time>2024-09-04T20:02:43.410Z</time>
      </trkpt>
      <trkpt lat="50.4474" lon="2.68034">
        <ele>65.76</ele>
        <time>2024-09-04T20:02:56.120Z</time>
      </trkpt>
      <trkpt lat="50.44756" lon="2.68073">
        <ele>65.46</ele>
        <time>2024-09-04T20:03:08.835Z</time>
      </trkpt>
      <trkpt lat="50.44773" lon="2.68109">
        <ele>65.19</ele>
        <time>2024-09-04T20:03:21.555Z</time>
      </trkpt>
      <trkpt lat="50.4479" lon="2.68145">
        <ele>64.95</ele>
        <time>2024-09-04T20:03:34.279Z</time>
      </trkpt>
      <trkpt lat="50.44807" lon="2.68181">
        <ele>64.69</ele>
        <time>2024-09-04T20:03:47.008Z</time>
      </trkpt>
      <trkpt lat="50.44823" lon="2.68208">
        <ele>64.37</ele>
        <time>2024-09-04T20:03:59.741Z</time>
      </trkpt>
      <trkpt lat="50.4484" lon="2.68234">
        <ele>64.05</ele>
        <time>2024-09-04T20:04:12.477Z</time>
      </trkpt>
      <trkpt lat="50.44856" lon="2.6826">
        <ele>63.73</ele>
        <time>2024-09-04T20:04:25.217Z</time>
      </trkpt>
      <trkpt lat="50.44869" lon="2.68282">
        <ele>63.46</ele>
        <time>2024-09-04T20:04:37.960Z</time>
      </trkpt>
      <trkpt lat="50.44873" lon="2.68288">
        <ele>63.19</ele>
        <time>2024-09-04T20:04:50.704Z</time>
      </trkpt>
      <trkpt lat="50.44887" lon="2.68309">
        <ele>62.94</ele>
        <time>2024-09-04T20:05:03.451Z</time>
      </trkpt>
      <trkpt lat="50.44909" lon="2.68344">
        <ele>62.63</ele>
        <time>2024-09-04T20:05:16.203Z</time>
      </trkpt>
      <trkpt lat="50.44931" lon="2.68379">
        <ele>62.33</ele>
        <time>2024-09-04T20:05:28.960Z</time>
      </trkpt>
      <trkpt lat="50.44953" lon="2.68413">
        <ele>62.01</ele>
        <time>2024-09-04T20:05:41.722Z</time>
      </trkpt>
      <trkpt lat="50.44965" lon="2.68433">
        <ele>61.73</ele>
        <time>2024-09-04T20:05:54.487Z</time>
      </trkpt>
      <trkpt lat="50.44976" lon="2.68452">
        <ele>61.47</ele>
        <time>2024-09-04T20:06:07.255Z</time>
      </trkpt>
      <trkpt lat="50.44998" lon="2.68487">
        <ele>61.21</ele>
        <time>2024-09-04T20:06:20.028Z</time>
      </trkpt>
      <trkpt lat="50.45018" lon="2.68518">
        <ele>60.96</ele>
        <time>2024-09-04T20:06:32.805Z</time>
      </trkpt>
      <trkpt lat="50.45037" lon="2.68549">
        <ele>60.67</ele>
        <time>2024-09-04T20:06:45.587Z</time>
      </trkpt>
      <trkpt lat="50.45057" lon="2.68581">
        <ele>60.38</ele>
        <time>2024-09-04T20:06:58.373Z</time>
      </trkpt>
      <trkpt lat="50.45077" lon="2.68612">
        <ele>60.13</ele>
        <time>2024-09-04T20:07:11.164Z</time>
      </trkpt>
      <trkpt lat="50.45097" lon="2.68643">
        <ele>59.91</ele>
        <time>2024-09-04T20:07:23.959Z</time>
      </trkpt>
      <trkpt lat="50.45116" lon="2.68674">
        <ele>59.72</ele>
        <time>2024-09-04T20:07:36.758Z</time>
      </trkpt>
      <trkpt lat="50.45121" lon="2.68683">
        <ele>59.48</ele>
        <time>2024-09-04T20:07:49.559Z</time>
      </trkpt>
      <trkpt lat="50.45122" lon="2.68693">
        <ele>59.24</ele>
        <time>2024-09-04T20:08:02.361Z</time>
      </trkpt>
      <trkpt lat="50.45124" lon="2.68701">
        <ele>59</ele>
        <time>2024-09-04T20:08:15.164Z</time>
      </trkpt>
      <trkpt lat="50.45124" lon="2.68704">
        <ele>58.76</ele>
        <time>2024-09-04T20:08:27.967Z</time>
      </trkpt>
      <trkpt lat="50.45124" lon="2.68711">
        <ele>58.52</ele>
        <time>2024-09-04T20:08:40.771Z</time>
      </trkpt>
      <trkpt lat="50.45127" lon="2.68717">
        <ele>58.28</ele>
        <time>2024-09-04T20:08:53.575Z</time>
      </trkpt>
      <trkpt lat="50.4513" lon="2.68718">
        <ele>58.03</ele>
        <time>2024-09-04T20:09:06.380Z</time>
      </trkpt>
      <trkpt lat="50.45138" lon="2.68723">
        <ele>57.77</ele>
        <time>2024-09-04T20:09:19.186Z</time>
      </trkpt>
      <trkpt lat="50.45145" lon="2.68725">
        <ele>57.51</ele>
        <time>2024-09-04T20:09:31.993Z</time>
      </trkpt>
      <trkpt lat="50.45156" lon="2.68737">
        <ele>57.25</ele>
        <time>2024-09-04T20:09:44.802Z</time>
      </trkpt>
      <trkpt lat="50.45162" lon="2.68749">
        <ele>56.98</ele>
        <time>2024-09-04T20:09:57.613Z</time>
      </trkpt>
      <trkpt lat="50.45177" lon="2.68775">
        <ele>56.7</ele>
        <time>2024-09-04T20:10:10.428Z</time>
      </trkpt>
      <trkpt lat="50.45197" lon="2.68806">
        <ele>56.42</ele>
        <time>2024-09-04T20:10:23.247Z</time>
      </trkpt>
      <trkpt lat="50.45217" lon="2.68836">
        <ele>56.16</ele>
        <time>2024-09-04T20:10:36.071Z</time>
      </trkpt>
      <trkpt lat="50.45236" lon="2.68867">
        <ele>55.87</ele>
        <time>2024-09-04T20:10:48.899Z</time>
      </trkpt>
      <trkpt lat="50.45256" lon="2.68897">
        <ele>55.57</ele>
        <time>2024-09-04T20:11:01.731Z</time>
      </trkpt>
      <trkpt lat="50.45275" lon="2.68928">
        <ele>55.28</ele>
        <time>2024-09-04T20:11:14.568Z</time>
      </trkpt>
      <trkpt lat="50.45295" lon="2.68958">
        <ele>54.98</ele>
        <time>2024-09-04T20:11:27.409Z</time>
      </trkpt>
      <trkpt lat="50.45314" lon="2.68988">
        <ele>54.69</ele>
        <time>2024-09-04T20:11:40.255Z</time>
      </trkpt>
      <trkpt lat="50.45336" lon="2.69022">
        <ele>54.41</ele>
        <time>2024-09-04T20:11:53.105Z</time>
      </trkpt>
      <trkpt lat="50.45358" lon="2.69055">
        <ele>54.14</ele>
        <time>2024-09-04T20:12:05.960Z</time>
      </trkpt>
      <trkpt lat="50.45379" lon="2.69088">
        <ele>53.87</ele>
        <time>2024-09-04T20:12:18.820Z</time>
      </trkpt>
      <trkpt lat="50.45401" lon="2.69122">
        <ele>53.58</ele>
        <time>2024-09-04T20:12:31.685Z</time>
      </trkpt>
      <trkpt lat="50.45422" lon="2.69155">
        <ele>53.29</ele>
        <time>2024-09-04T20:12:44.555Z</time>
      </trkpt>
      <trkpt lat="50.45444" lon="2.69188">
        <ele>53.04</ele>
        <time>2024-09-04T20:12:57.430Z</time>
      </trkpt>
      <trkpt lat="50.45466" lon="2.69222">
        <ele>52.75</ele>
        <time>2024-09-04T20:13:10.310Z</time>
      </trkpt>
      <trkpt lat="50.45487" lon="2.69255">
        <ele>52.47</ele>
        <time>2024-09-04T20:13:23.194Z</time>
      </trkpt>
      <trkpt lat="50.45508" lon="2.69288">
        <ele>52.18</ele>
        <time>2024-09-04T20:13:36.083Z</time>
      </trkpt>
      <trkpt lat="50.45522" lon="2.69304">
        <ele>51.93</ele>
        <time>2024-09-04T20:13:48.975Z</time>
      </trkpt>
      <trkpt lat="50.45534" lon="2.69313">
        <ele>51.66</ele>
        <time>2024-09-04T20:14:01.869Z</time>
      </trkpt>
      <trkpt lat="50.45555" lon="2.69319">
        <ele>51.37</ele>
        <time>2024-09-04T20:14:14.767Z</time>
      </trkpt>
      <trkpt lat="50.45567" lon="2.69321">
        <ele>51.08</ele>
        <time>2024-09-04T20:14:27.667Z</time>
      </trkpt>
      <trkpt lat="50.45584" lon="2.69319">
        <ele>50.82</ele>
        <time>2024-09-04T20:14:40.569Z</time>
      </trkpt>
      <trkpt lat="50.45608" lon="2.69322">
        <ele>50.54</ele>
        <time>2024-09-04T20:14:53.475Z</time>
      </trkpt>
      <trkpt lat="50.45632" lon="2.69324">
        <ele>50.25</ele>
        <time>2024-09-04T20:15:06.385Z</time>
      </trkpt>
      <trkpt lat="50.45656" lon="2.69327">
        <ele>49.96</ele>
        <time>2024-09-04T20:15:19.299Z</time>
      </trkpt>
      <trkpt lat="50.45684" lon="2.6934">
        <ele>49.68</ele>
        <time>2024-09-04T20:15:32.217Z</time>
      </trkpt>
      <trkpt lat="50.45704" lon="2.69355">
        <ele>49.44</ele>
        <time>2024-09-04T20:15:45.139Z</time>
      </trkpt>
      <trkpt lat="50.45715" lon="2.69364">
        <ele>49.22</ele>
        <time>2024-09-04T20:15:58.063Z</time>
      </trkpt>
      <trkpt lat="50.45737" lon="2.69391">
        <ele>49</ele>
        <time>2024-09-04T20:16:10.992Z</time>
      </trkpt>
      <trkpt lat="50.45759" lon="2.69419">
        <ele>48.76</ele>
        <time>2024-09-04T20:16:23.925Z</time>
      </trkpt>
      <trkpt lat="50.45772" lon="2.69451">
        <ele>48.57</ele>
        <time>2024-09-04T20:16:36.862Z</time>
      </trkpt>
      <trkpt lat="50.45785" lon="2.69482">
        <ele>48.33</ele>
        <time>2024-09-04T20:16:49.803Z</time>
      </trkpt>
      <trkpt lat="50.45791" lon="2.69508">
        <ele>48.14</ele>
        <time>2024-09-04T20:17:02.747Z</time>
      </trkpt>
      <trkpt lat="50.45797" lon="2.69534">
        <ele>47.95</ele>
        <time>2024-09-04T20:17:15.693Z</time>
      </trkpt>
      <trkpt lat="50.45803" lon="2.69566">
        <ele>47.74</ele>
        <time>2024-09-04T20:17:28.643Z</time>
      </trkpt>
      <trkpt lat="50.45809" lon="2.69599">
        <ele>47.53</ele>
        <time>2024-09-04T20:17:41.596Z</time>
      </trkpt>
      <trkpt lat="50.45816" lon="2.69637">
        <ele>47.29</ele>
        <time>2024-09-04T20:17:54.553Z</time>
      </trkpt>
      <trkpt lat="50.45823" lon="2.69675">
        <ele>47.09</ele>
        <time>2024-09-04T20:18:07.514Z</time>
      </trkpt>
      <trkpt lat="50.45828" lon="2.69701">
        <ele>46.94</ele>
        <time>2024-09-04T20:18:20.478Z</time>
      </trkpt>
      <trkpt lat="50.45833" lon="2.69726">
        <ele>46.78</ele>
        <time>2024-09-04T20:18:33.445Z</time>
      </trkpt>
      <trkpt lat="50.45842" lon="2.69765">
        <ele>46.62</ele>
        <time>2024-09-04T20:18:46.416Z</time>
      </trkpt>
      <trkpt lat="50.45852" lon="2.69797">
        <ele>46.46</ele>
        <time>2024-09-04T20:18:59.391Z</time>
      </trkpt>
      <trkpt lat="50.45863" lon="2.69829">
        <ele>46.28</ele>
        <time>2024-09-04T20:19:12.369Z</time>
      </trkpt>
      <trkpt lat="50.45879" lon="2.69869">
        <ele>46.07</ele>
        <time>2024-09-04T20:19:25.352Z</time>
      </trkpt>
      <trkpt lat="50.45895" lon="2.69901">
        <ele>45.91</ele>
        <time>2024-09-04T20:19:38.339Z</time>
      </trkpt>
      <trkpt lat="50.45917" lon="2.69935">
        <ele>45.82</ele>
        <time>2024-09-04T20:19:51.331Z</time>
      </trkpt>
      <trkpt lat="50.45929" lon="2.69954">
        <ele>45.72</ele>
        <time>2024-09-04T20:20:04.326Z</time>
      </trkpt>
      <trkpt lat="50.4594" lon="2.69973">
        <ele>45.62</ele>
        <time>2024-09-04T20:20:17.324Z</time>
      </trkpt>
      <trkpt lat="50.45959" lon="2.70004">
        <ele>45.46</ele>
        <time>2024-09-04T20:20:30.326Z</time>
      </trkpt>
      <trkpt lat="50.45978" lon="2.70034">
        <ele>45.29</ele>
        <time>2024-09-04T20:20:43.332Z</time>
      </trkpt>
      <trkpt lat="50.45997" lon="2.70065">
        <ele>45.16</ele>
        <time>2024-09-04T20:20:56.343Z</time>
      </trkpt>
      <trkpt lat="50.46015" lon="2.70096">
        <ele>45.05</ele>
        <time>2024-09-04T20:21:09.358Z</time>
      </trkpt>
      <trkpt lat="50.46033" lon="2.70126">
        <ele>44.95</ele>
        <time>2024-09-04T20:21:22.377Z</time>
      </trkpt>
      <trkpt lat="50.4605" lon="2.70154">
        <ele>44.85</ele>
        <time>2024-09-04T20:21:35.400Z</time>
      </trkpt>
      <trkpt lat="50.46052" lon="2.70157">
        <ele>44.76</ele>
        <time>2024-09-04T20:21:48.424Z</time>
      </trkpt>
      <trkpt lat="50.46066" lon="2.70177">
        <ele>44.67</ele>
        <time>2024-09-04T20:22:01.451Z</time>
      </trkpt>
      <trkpt lat="50.46072" lon="2.70184">
        <ele>44.58</ele>
        <time>2024-09-04T20:22:14.479Z</time>
      </trkpt>
      <trkpt lat="50.46095" lon="2.70216">
        <ele>44.48</ele>
        <time>2024-09-04T20:22:27.512Z</time>
      </trkpt>
      <trkpt lat="50.46118" lon="2.70247">
        <ele>44.42</ele>
        <time>2024-09-04T20:22:40.550Z</time>
      </trkpt>
      <trkpt lat="50.46142" lon="2.70279">
        <ele>44.36</ele>
        <time>2024-09-04T20:22:53.593Z</time>
      </trkpt>
      <trkpt lat="50.46165" lon="2.7031">
        <ele>44.31</ele>
        <time>2024-09-04T20:23:06.641Z</time>
      </trkpt>
      <trkpt lat="50.46189" lon="2.70341">
        <ele>44.26</ele>
        <time>2024-09-04T20:23:19.694Z</time>
      </trkpt>
      <trkpt lat="50.46212" lon="2.70372">
        <ele>44.22</ele>
        <time>2024-09-04T20:23:32.751Z</time>
      </trkpt>
      <trkpt lat="50.46237" lon="2.704">
        <ele>44.15</ele>
        <time>2024-09-04T20:23:45.813Z</time>
      </trkpt>
      <trkpt lat="50.46261" lon="2.70428">
        <ele>44.08</ele>
        <time>2024-09-04T20:23:58.880Z</time>
      </trkpt>
      <trkpt lat="50.46281" lon="2.70451">
        <ele>44.02</ele>
        <time>2024-09-04T20:24:11.951Z</time>
      </trkpt>
      <trkpt lat="50.46302" lon="2.70474">
        <ele>44.02</ele>
        <time>2024-09-04T20:24:25.026Z</time>
      </trkpt>
      <trkpt lat="50.46322" lon="2.70497">
        <ele>44.01</ele>
        <time>2024-09-04T20:24:38.105Z</time>
      </trkpt>
      <trkpt lat="50.46342" lon="2.70519">
        <ele>43.98</ele>
        <time>2024-09-04T20:24:51.188Z</time>
      </trkpt>
      <trkpt lat="50.46367" lon="2.70547">
        <ele>43.92</ele>
        <time>2024-09-04T20:25:04.276Z</time>
      </trkpt>
      <trkpt lat="50.46391" lon="2.70575">
        <ele>43.86</ele>
        <time>2024-09-04T20:25:17.369Z</time>
      </trkpt>
      <trkpt lat="50.46416" lon="2.70603">
        <ele>43.82</ele>
        <time>2024-09-04T20:25:30.467Z</time>
      </trkpt>
      <trkpt lat="50.46441" lon="2.70631">
        <ele>43.86</ele>
        <time>2024-09-04T20:25:43.570Z</time>
      </trkpt>
      <trkpt lat="50.46464" lon="2.70659">
        <ele>43.8</ele>
        <time>2024-09-04T20:25:56.677Z</time>
      </trkpt>
      <trkpt lat="50.46477" lon="2.70675">
        <ele>43.73</ele>
        <time>2024-09-04T20:26:09.787Z</time>
      </trkpt>
      <trkpt lat="50.4649" lon="2.70692">
        <ele>43.65</ele>
        <time>2024-09-04T20:26:22.900Z</time>
      </trkpt>
      <trkpt lat="50.46504" lon="2.70712">
        <ele>43.58</ele>
        <time>2024-09-04T20:26:36.016Z</time>
      </trkpt>
      <trkpt lat="50.46519" lon="2.70733">
        <ele>43.53</ele>
        <time>2024-09-04T20:26:49.135Z</time>
      </trkpt>
      <trkpt lat="50.46537" lon="2.70761">
        <ele>43.49</ele>
        <time>2024-09-04T20:27:02.258Z</time>
      </trkpt>
      <trkpt lat="50.46555" lon="2.70788">
        <ele>43.41</ele>
        <time>2024-09-04T20:27:15.385Z</time>
      </trkpt>
      <trkpt lat="50.46573" lon="2.70816">
        <ele>43.26</ele>
        <time>2024-09-04T20:27:28.516Z</time>
      </trkpt>
      <trkpt lat="50.46594" lon="2.70844">
        <ele>43.13</ele>
        <time>2024-09-04T20:27:41.652Z</time>
      </trkpt>
      <trkpt lat="50.46613" lon="2.70873">
        <ele>42.98</ele>
        <time>2024-09-04T20:27:54.792Z</time>
      </trkpt>
      <trkpt lat="50.46625" lon="2.7089">
        <ele>42.79</ele>
        <time>2024-09-04T20:28:07.934Z</time>
      </trkpt>
      <trkpt lat="50.46633" lon="2.709">
        <ele>42.61</ele>
        <time>2024-09-04T20:28:21.078Z</time>
      </trkpt>
      <trkpt lat="50.46654" lon="2.70927">
        <ele>42.43</ele>
        <time>2024-09-04T20:28:34.226Z</time>
      </trkpt>
      <trkpt lat="50.46675" lon="2.70954">
        <ele>42.25</ele>
        <time>2024-09-04T20:28:47.379Z</time>
      </trkpt>
      <trkpt lat="50.46688" lon="2.70971">
        <ele>42.06</ele>
        <time>2024-09-04T20:29:00.534Z</time>
      </trkpt>
      <trkpt lat="50.467" lon="2.70987">
        <ele>41.85</ele>
        <time>2024-09-04T20:29:13.692Z</time>
      </trkpt>
      <trkpt lat="50.4672" lon="2.71012">
        <ele>41.64</ele>
        <time>2024-09-04T20:29:26.854Z</time>
      </trkpt>
      <trkpt lat="50.46737" lon="2.71032">
        <ele>41.42</ele>
        <time>2024-09-04T20:29:40.019Z</time>
      </trkpt>
      <trkpt lat="50.46758" lon="2.71055">
        <ele>41.15</ele>
        <time>2024-09-04T20:29:53.189Z</time>
      </trkpt>
      <trkpt lat="50.46779" lon="2.71077">
        <ele>40.88</ele>
        <time>2024-09-04T20:30:06.363Z</time>
      </trkpt>
      <trkpt lat="50.46802" lon="2.71101">
        <ele>40.61</ele>
        <time>2024-09-04T20:30:19.541Z</time>
      </trkpt>
      <trkpt lat="50.46824" lon="2.71125">
        <ele>40.39</ele>
        <time>2024-09-04T20:30:32.723Z</time>
      </trkpt>
      <trkpt lat="50.46847" lon="2.7115">
        <ele>40.19</ele>
        <time>2024-09-04T20:30:45.910Z</time>
      </trkpt>
      <trkpt lat="50.4687" lon="2.71174">
        <ele>39.94</ele>
        <time>2024-09-04T20:30:59.101Z</time>
      </trkpt>
      <trkpt lat="50.46885" lon="2.7119">
        <ele>39.67</ele>
        <time>2024-09-04T20:31:12.295Z</time>
      </trkpt>
      <trkpt lat="50.46901" lon="2.71207">
        <ele>39.41</ele>
        <time>2024-09-04T20:31:25.492Z</time>
      </trkpt>
      <trkpt lat="50.46914" lon="2.71222">
        <ele>39.16</ele>
        <time>2024-09-04T20:31:38.692Z</time>
      </trkpt>
      <trkpt lat="50.46928" lon="2.71237">
        <ele>38.92</ele>
        <time>2024-09-04T20:31:51.895Z</time>
      </trkpt>
      <trkpt lat="50.46946" lon="2.71259">
        <ele>38.67</ele>
        <time>2024-09-04T20:32:05.101Z</time>
      </trkpt>
      <trkpt lat="50.46967" lon="2.71281">
        <ele>38.43</ele>
        <time>2024-09-04T20:32:18.311Z</time>
      </trkpt>
      <trkpt lat="50.46986" lon="2.71302">
        <ele>38.25</ele>
        <time>2024-09-04T20:32:31.525Z</time>
      </trkpt>
      <trkpt lat="50.47006" lon="2.71323">
        <ele>38.08</ele>
        <time>2024-09-04T20:32:44.743Z</time>
      </trkpt>
      <trkpt lat="50.4702" lon="2.71338">
        <ele>37.91</ele>
        <time>2024-09-04T20:32:57.963Z</time>
      </trkpt>
      <trkpt lat="50.47033" lon="2.71352">
        <ele>37.74</ele>
        <time>2024-09-04T20:33:11.186Z</time>
      </trkpt>
      <trkpt lat="50.47044" lon="2.71362">
        <ele>37.57</ele>
        <time>2024-09-04T20:33:24.411Z</time>
      </trkpt>
      <trkpt lat="50.47057" lon="2.71374">
        <ele>37.43</ele>
        <time>2024-09-04T20:33:37.638Z</time>
      </trkpt>
      <trkpt lat="50.47076" lon="2.71392">
        <ele>37.31</ele>
        <time>2024-09-04T20:33:50.869Z</time>
      </trkpt>
      <trkpt lat="50.47104" lon="2.71414">
        <ele>37.2</ele>
        <time>2024-09-04T20:34:04.105Z</time>
      </trkpt>
      <trkpt lat="50.47131" lon="2.71436">
        <ele>37.11</ele>
        <time>2024-09-04T20:34:17.346Z</time>
      </trkpt>
      <trkpt lat="50.4714" lon="2.7144">
        <ele>37.04</ele>
        <time>2024-09-04T20:34:30.588Z</time>
      </trkpt>
      <trkpt lat="50.4715" lon="2.71446">
        <ele>36.98</ele>
        <time>2024-09-04T20:34:43.832Z</time>
      </trkpt>
      <trkpt lat="50.47149" lon="2.71448">
        <ele>36.94</ele>
        <time>2024-09-04T20:34:57.076Z</time>
      </trkpt>
      <trkpt lat="50.47149" lon="2.71452">
        <ele>36.92</ele>
        <time>2024-09-04T20:35:10.321Z</time>
      </trkpt>
      <trkpt lat="50.47151" lon="2.71455">
        <ele>36.91</ele>
        <time>2024-09-04T20:35:23.566Z</time>
      </trkpt>
      <trkpt lat="50.47154" lon="2.71455">
        <ele>36.91</ele>
        <time>2024-09-04T20:35:36.812Z</time>
      </trkpt>
      <trkpt lat="50.47156" lon="2.71453">
        <ele>36.93</ele>
        <time>2024-09-04T20:35:50.058Z</time>
      </trkpt>
      <trkpt lat="50.47157" lon="2.71451">
        <ele>36.97</ele>
        <time>2024-09-04T20:36:03.304Z</time>
      </trkpt>
      <trkpt lat="50.47157" lon="2.71447">
        <ele>37.01</ele>
        <time>2024-09-04T20:36:16.551Z</time>
      </trkpt>
      <trkpt lat="50.47155" lon="2.71444">
        <ele>37.08</ele>
        <time>2024-09-04T20:36:29.798Z</time>
      </trkpt>
      <trkpt lat="50.47152" lon="2.71443">
        <ele>37.15</ele>
        <time>2024-09-04T20:36:43.045Z</time>
      </trkpt>
      <trkpt lat="50.4715" lon="2.71446">
        <ele>36.98</ele>
        <time>2024-09-04T20:36:56.293Z</time>
      </trkpt>
      <trkpt lat="50.47149" lon="2.71448">
        <ele>36.94</ele>
        <time>2024-09-04T20:37:09.541Z</time>
      </trkpt>
      <trkpt lat="50.47149" lon="2.71452">
        <ele>36.92</ele>
        <time>2024-09-04T20:37:22.790Z</time>
      </trkpt>
      <trkpt lat="50.47151" lon="2.71455">
        <ele>36.91</ele>
        <time>2024-09-04T20:37:36.039Z</time>
      </trkpt>
      <trkpt lat="50.47147" lon="2.71469">
        <ele>37.68</ele>
        <time>2024-09-04T20:37:49.290Z</time>
      </trkpt>
      <trkpt lat="50.47138" lon="2.71489">
        <ele>37.81</ele>
        <time>2024-09-04T20:38:02.543Z</time>
      </trkpt>
      <trkpt lat="50.47124" lon="2.71522">
        <ele>37.92</ele>
        <time>2024-09-04T20:38:15.800Z</time>
      </trkpt>
      <trkpt lat="50.4711" lon="2.71555">
        <ele>38.05</ele>
        <time>2024-09-04T20:38:29.061Z</time>
      </trkpt>
      <trkpt lat="50.47099" lon="2.71578">
        <ele>38.22</ele>
        <time>2024-09-04T20:38:42.325Z</time>
      </trkpt>
      <trkpt lat="50.47088" lon="2.71602">
        <ele>38.37</ele>
        <time>2024-09-04T20:38:55.592Z</time>
      </trkpt>
      <trkpt lat="50.47084" lon="2.71613">
        <ele>38.52</ele>
        <time>2024-09-04T20:39:08.861Z</time>
      </trkpt>
      <trkpt lat="50.47079" lon="2.71626">
        <ele>38.66</ele>
        <time>2024-09-04T20:39:22.131Z</time>
      </trkpt>
      <trkpt lat="50.47074" lon="2.71636">
        <ele>38.78</ele>
        <time>2024-09-04T20:39:35.402Z</time>
      </trkpt>
      <trkpt lat="50.47071" lon="2.71645">
        <ele>38.9</ele>
        <time>2024-09-04T20:39:48.674Z</time>
      </trkpt>
      <trkpt lat="50.4707" lon="2.71646">
        <ele>39.01</ele>
        <time>2024-09-04T20:40:01.947Z</time>
      </trkpt>
      <trkpt lat="50.47068" lon="2.71651">
        <ele>39.11</ele>
        <time>2024-09-04T20:40:15.220Z</time>
      </trkpt>
      <trkpt lat="50.47068" lon="2.71658">
        <ele>39.2</ele>
        <time>2024-09-04T20:40:28.494Z</time>
      </trkpt>
      <trkpt lat="50.47071" lon="2.71663">
        <ele>39.28</ele>
        <time>2024-09-04T20:40:41.769Z</time>
      </trkpt>
      <trkpt lat="50.47073" lon="2.71664">
        <ele>39.34</ele>
        <time>2024-09-04T20:40:55.044Z</time>
      </trkpt>
      <trkpt lat="50.47075" lon="2.71664">
        <ele>39.4</ele>
        <time>2024-09-04T20:41:08.319Z</time>
      </trkpt>
      <trkpt lat="50.47078" lon="2.71663">
        <ele>39.43</ele>
        <time>2024-09-04T20:41:21.595Z</time>
      </trkpt>
      <trkpt lat="50.4708" lon="2.7166">
        <ele>39.45</ele>
        <time>2024-09-04T20:41:34.871Z</time>
      </trkpt>
      <trkpt lat="50.47091" lon="2.71651">
        <ele>39.46</ele>
        <time>2024-09-04T20:41:48.149Z</time>
      </trkpt>
      <trkpt lat="50.47102" lon="2.71646">
        <ele>39.45</ele>
        <time>2024-09-04T20:42:01.429Z</time>
      </trkpt>
      <trkpt lat="50.47115" lon="2.71643">
        <ele>39.41</ele>
        <time>2024-09-04T20:42:14.711Z</time>
      </trkpt>
      <trkpt lat="50.47135" lon="2.71643">
        <ele>39.37</ele>
        <time>2024-09-04T20:42:27.996Z</time>
      </trkpt>
      <trkpt lat="50.47151" lon="2.7165">
        <ele>39.32</ele>
        <time>2024-09-04T20:42:41.284Z</time>
      </trkpt>
      <trkpt lat="50.47166" lon="2.71661">
        <ele>39.26</ele>
        <time>2024-09-04T20:42:54.575Z</time>
      </trkpt>
      <trkpt lat="50.47179" lon="2.71673">
        <ele>39.13</ele>
        <time>2024-09-04T20:43:07.868Z</time>
      </trkpt>
      <trkpt lat="50.47185" lon="2.7168">
        <ele>39</ele>
        <time>2024-09-04T20:43:21.162Z</time>
      </trkpt>
      <trkpt lat="50.47189" lon="2.71688">
        <ele>38.85</ele>
        <time>2024-09-04T20:43:34.457Z</time>
      </trkpt>
      <trkpt lat="50.47188" lon="2.71691">
        <ele>38.68</ele>
        <time>2024-09-04T20:43:47.753Z</time>
      </trkpt>
      <trkpt lat="50.47188" lon="2.71694">
        <ele>38.5</ele>
        <time>2024-09-04T20:44:01.049Z</time>
      </trkpt>
      <trkpt lat="50.47189" lon="2.71698">
        <ele>38.29</ele>
        <time>2024-09-04T20:44:14.345Z</time>
      </trkpt>
      <trkpt lat="50.47192" lon="2.717">
        <ele>38.07</ele>
        <time>2024-09-04T20:44:27.642Z</time>
      </trkpt>
      <trkpt lat="50.47195" lon="2.71698">
        <ele>37.83</ele>
        <time>2024-09-04T20:44:40.939Z</time>
      </trkpt>
      <trkpt lat="50.47204" lon="2.71713">
        <ele>37.55</ele>
        <time>2024-09-04T20:44:54.238Z</time>
      </trkpt>
      <trkpt lat="50.47209" lon="2.71732">
        <ele>37.26</ele>
        <time>2024-09-04T20:45:07.540Z</time>
      </trkpt>
      <trkpt lat="50.4722" lon="2.71771">
        <ele>36.91</ele>
        <time>2024-09-04T20:45:20.846Z</time>
      </trkpt>
      <trkpt lat="50.47227" lon="2.71785">
        <ele>36.61</ele>
        <time>2024-09-04T20:45:34.154Z</time>
      </trkpt>
      <trkpt lat="50.47248" lon="2.7182">
        <ele>36.32</ele>
        <time>2024-09-04T20:45:47.467Z</time>
      </trkpt>
      <trkpt lat="50.47269" lon="2.71855">
        <ele>35.99</ele>
        <time>2024-09-04T20:46:00.785Z</time>
      </trkpt>
      <trkpt lat="50.4729" lon="2.7189">
        <ele>35.67</ele>
        <time>2024-09-04T20:46:14.107Z</time>
      </trkpt>
      <trkpt lat="50.47298" lon="2.71903">
        <ele>35.36</ele>
        <time>2024-09-04T20:46:27.431Z</time>
      </trkpt>
      <trkpt lat="50.47315" lon="2.71923">
        <ele>35.04</ele>
        <time>2024-09-04T20:46:40.759Z</time>
      </trkpt>
      <trkpt lat="50.47331" lon="2.71943">
        <ele>34.7</ele>
        <time>2024-09-04T20:46:54.090Z</time>
      </trkpt>
      <trkpt lat="50.47355" lon="2.71973">
        <ele>34.34</ele>
        <time>2024-09-04T20:47:07.426Z</time>
      </trkpt>
      <trkpt lat="50.47379" lon="2.72002">
        <ele>33.98</ele>
        <time>2024-09-04T20:47:20.767Z</time>
      </trkpt>
      <trkpt lat="50.47395" lon="2.72025">
        <ele>33.64</ele>
        <time>2024-09-04T20:47:34.111Z</time>
      </trkpt>
      <trkpt lat="50.47411" lon="2.72047">
        <ele>33.29</ele>
        <time>2024-09-04T20:47:47.459Z</time>
      </trkpt>
      <trkpt lat="50.47427" lon="2.72069">
        <ele>32.95</ele>
        <time>2024-09-04T20:48:00.810Z</time>
      </trkpt>
      <trkpt lat="50.47441" lon="2.72089">
        <ele>32.66</ele>
        <time>2024-09-04T20:48:14.164Z</time>
      </trkpt>
      <trkpt lat="50.47461" lon="2.72117">
        <ele>32.41</ele>
        <time>2024-09-04T20:48:27.522Z</time>
      </trkpt>
      <trkpt lat="50.47481" lon="2.72144">
        <ele>32.16</ele>
        <time>2024-09-04T20:48:40.885Z</time>
      </trkpt>
      <trkpt lat="50.47501" lon="2.72172">
        <ele>31.87</ele>
        <time>2024-09-04T20:48:54.252Z</time>
      </trkpt>
      <trkpt lat="50.47521" lon="2.72199">
        <ele>31.63</ele>
        <time>2024-09-04T20:49:07.623Z</time>
      </trkpt>
      <trkpt lat="50.4754" lon="2.72227">
        <ele>31.35</ele>
        <time>2024-09-04T20:49:20.998Z</time>
      </trkpt>
      <trkpt lat="50.47552" lon="2.72239">
        <ele>31.11</ele>
        <time>2024-09-04T20:49:34.376Z</time>
      </trkpt>
      <trkpt lat="50.47576" lon="2.72263">
        <ele>30.87</ele>
        <time>2024-09-04T20:49:47.758Z</time>
      </trkpt>
      <trkpt lat="50.476" lon="2.72286">
        <ele>30.68</ele>
        <time>2024-09-04T20:50:01.145Z</time>
      </trkpt>
      <trkpt lat="50.47609" lon="2.72295">
        <ele>30.52</ele>
        <time>2024-09-04T20:50:14.533Z</time>
      </trkpt>
      <trkpt lat="50.47615" lon="2.72305">
        <ele>30.38</ele>
        <time>2024-09-04T20:50:27.923Z</time>
      </trkpt>
      <trkpt lat="50.47627" lon="2.7233">
        <ele>30.26</ele>
        <time>2024-09-04T20:50:41.316Z</time>
      </trkpt>
      <trkpt lat="50.47633" lon="2.72345">
        <ele>30.13</ele>
        <time>2024-09-04T20:50:54.711Z</time>
      </trkpt>
      <trkpt lat="50.47637" lon="2.72359">
        <ele>30.01</ele>
        <time>2024-09-04T20:51:08.107Z</time>
      </trkpt>
      <trkpt lat="50.47639" lon="2.72374">
        <ele>29.9</ele>
        <time>2024-09-04T20:51:21.505Z</time>
      </trkpt>
      <trkpt lat="50.4764" lon="2.72396">
        <ele>29.81</ele>
        <time>2024-09-04T20:51:34.905Z</time>
      </trkpt>
      <trkpt lat="50.47637" lon="2.72409">
        <ele>29.73</ele>
        <time>2024-09-04T20:51:48.307Z</time>
      </trkpt>
      <trkpt lat="50.4763" lon="2.72431">
        <ele>29.66</ele>
        <time>2024-09-04T20:52:01.711Z</time>
      </trkpt>
      <trkpt lat="50.47619" lon="2.7247">
        <ele>29.62</ele>
        <time>2024-09-04T20:52:15.119Z</time>
      </trkpt>
      <trkpt lat="50.47607" lon="2.7251">
        <ele>29.65</ele>
        <time>2024-09-04T20:52:28.532Z</time>
      </trkpt>
      <trkpt lat="50.47595" lon="2.72549">
        <ele>29.66</ele>
        <time>2024-09-04T20:52:41.949Z</time>
      </trkpt>
      <trkpt lat="50.47584" lon="2.72588">
        <ele>29.65</ele>
        <time>2024-09-04T20:52:55.371Z</time>
      </trkpt>
      <trkpt lat="50.47577" lon="2.7261">
        <ele>29.68</ele>
        <time>2024-09-04T20:53:08.795Z</time>
      </trkpt>
      <trkpt lat="50.47567" lon="2.72642">
        <ele>29.72</ele>
        <time>2024-09-04T20:53:22.223Z</time>
      </trkpt>
      <trkpt lat="50.4756" lon="2.72665">
        <ele>29.81</ele>
        <time>2024-09-04T20:53:35.654Z</time>
      </trkpt>
      <trkpt lat="50.47552" lon="2.72689">
        <ele>29.91</ele>
        <time>2024-09-04T20:53:49.087Z</time>
      </trkpt>
      <trkpt lat="50.4754" lon="2.72717">
        <ele>30</ele>
        <time>2024-09-04T20:54:02.524Z</time>
      </trkpt>
      <trkpt lat="50.47529" lon="2.72746">
        <ele>30.06</ele>
        <time>2024-09-04T20:54:15.964Z</time>
      </trkpt>
      <trkpt lat="50.47513" lon="2.72784">
        <ele>30.08</ele>
        <time>2024-09-04T20:54:29.409Z</time>
      </trkpt>
      <trkpt lat="50.47497" lon="2.72823">
        <ele>30.19</ele>
        <time>2024-09-04T20:54:42.858Z</time>
      </trkpt>
      <trkpt lat="50.47501" lon="2.72836">
        <ele>30.29</ele>
        <time>2024-09-04T20:54:56.309Z</time>
      </trkpt>
      <trkpt lat="50.4751" lon="2.72849">
        <ele>30.4</ele>
        <time>2024-09-04T20:55:09.762Z</time>
      </trkpt>
      <trkpt lat="50.47525" lon="2.72874">
        <ele>30.52</ele>
        <time>2024-09-04T20:55:23.218Z</time>
      </trkpt>
      <trkpt lat="50.4754" lon="2.72899">
        <ele>30.67</ele>
        <time>2024-09-04T20:55:36.678Z</time>
      </trkpt>
      <trkpt lat="50.47555" lon="2.72924">
        <ele>30.84</ele>
        <time>2024-09-04T20:55:50.141Z</time>
      </trkpt>
      <trkpt lat="50.47567" lon="2.72945">
        <ele>31.04</ele>
        <time>2024-09-04T20:56:03.607Z</time>
      </trkpt>
      <trkpt lat="50.47579" lon="2.72965">
        <ele>31.24</ele>
        <time>2024-09-04T20:56:17.076Z</time>
      </trkpt>
      <trkpt lat="50.47593" lon="2.7299">
        <ele>31.46</ele>
        <time>2024-09-04T20:56:30.549Z</time>
      </trkpt>
      <trkpt lat="50.47605" lon="2.7301">
        <ele>31.68</ele>
        <time>2024-09-04T20:56:44.024Z</time>
      </trkpt>
      <trkpt lat="50.47618" lon="2.7303">
        <ele>31.89</ele>
        <time>2024-09-04T20:56:57.502Z</time>
      </trkpt>
      <trkpt lat="50.47637" lon="2.73062">
        <ele>32.06</ele>
        <time>2024-09-04T20:57:10.985Z</time>
      </trkpt>
      <trkpt lat="50.47656" lon="2.73093">
        <ele>32.37</ele>
        <time>2024-09-04T20:57:24.472Z</time>
      </trkpt>
      <trkpt lat="50.47675" lon="2.73125">
        <ele>32.68</ele>
        <time>2024-09-04T20:57:37.964Z</time>
      </trkpt>
      <trkpt lat="50.47694" lon="2.73156">
        <ele>32.96</ele>
        <time>2024-09-04T20:57:51.460Z</time>
      </trkpt>
      <trkpt lat="50.47701" lon="2.73168">
        <ele>33.2</ele>
        <time>2024-09-04T20:58:04.958Z</time>
      </trkpt>
      <trkpt lat="50.47704" lon="2.73173">
        <ele>33.45</ele>
        <time>2024-09-04T20:58:18.456Z</time>
      </trkpt>
      <trkpt lat="50.47724" lon="2.73206">
        <ele>33.7</ele>
        <time>2024-09-04T20:58:31.959Z</time>
      </trkpt>
      <trkpt lat="50.47743" lon="2.73239">
        <ele>33.98</ele>
        <time>2024-09-04T20:58:45.467Z</time>
      </trkpt>
      <trkpt lat="50.47763" lon="2.73272">
        <ele>34.31</ele>
        <time>2024-09-04T20:58:58.979Z</time>
      </trkpt>
      <trkpt lat="50.47782" lon="2.73305">
        <ele>34.63</ele>
        <time>2024-09-04T20:59:12.496Z</time>
      </trkpt>
      <trkpt lat="50.47795" lon="2.73326">
        <ele>34.89</ele>
        <time>2024-09-04T20:59:26.016Z</time>
      </trkpt>
      <trkpt lat="50.47807" lon="2.73346">
        <ele>35.13</ele>
        <time>2024-09-04T20:59:39.539Z</time>
      </trkpt>
      <trkpt lat="50.4783" lon="2.73377">
        <ele>35.33</ele>
        <time>2024-09-04T20:59:53.066Z</time>
      </trkpt>
      <trkpt lat="50.47847" lon="2.73397">
        <ele>35.55</ele>
        <time>2024-09-04T21:00:06.597Z</time>
      </trkpt>
      <trkpt lat="50.47864" lon="2.73417">
        <ele>35.79</ele>
        <time>2024-09-04T21:00:20.131Z</time>
      </trkpt>
      <trkpt lat="50.47877" lon="2.73434">
        <ele>36</ele>
        <time>2024-09-04T21:00:33.668Z</time>
      </trkpt>
      <trkpt lat="50.47889" lon="2.73451">
        <ele>36.18</ele>
        <time>2024-09-04T21:00:47.208Z</time>
      </trkpt>
      <trkpt lat="50.47895" lon="2.73465">
        <ele>36.34</ele>
        <time>2024-09-04T21:01:00.749Z</time>
      </trkpt>
      <trkpt lat="50.479" lon="2.73474">
        <ele>36.49</ele>
        <time>2024-09-04T21:01:14.291Z</time>
      </trkpt>
      <trkpt lat="50.47905" lon="2.73489">
        <ele>36.64</ele>
        <time>2024-09-04T21:01:27.835Z</time>
      </trkpt>
      <trkpt lat="50.47905" lon="2.73497">
        <ele>36.76</ele>
        <time>2024-09-04T21:01:41.380Z</time>
      </trkpt>
      <trkpt lat="50.47907" lon="2.73504">
        <ele>36.86</ele>
        <time>2024-09-04T21:01:44.765Z</time>
      </trkpt>
      <trkpt lat="50.47907" lon="2.73504">
        <ele>35</ele>
        <time>2024-09-04T21:01:44.765Z</time>
      </trkpt>
      <trkpt lat="50.47912" lon="2.73508">
        <ele>35</ele>
        <time>2024-09-04T21:01:48.104Z</time>
      </trkpt>
      <trkpt lat="50.47914" lon="2.73509">
        <ele>35</ele>
        <time>2024-09-04T21:01:49.541Z</time>
      </trkpt>
      <trkpt lat="50.47918" lon="2.73508">
        <ele>35</ele>
        <time>2024-09-04T21:01:52.318Z</time>
      </trkpt>
      <trkpt lat="50.47925" lon="2.73508">
        <ele>35</ele>
        <time>2024-09-04T21:01:56.868Z</time>
      </trkpt>
      <trkpt lat="50.4793" lon="2.7351">
        <ele>35</ele>
        <time>2024-09-04T21:02:00.214Z</time>
      </trkpt>
      <trkpt lat="50.4794" lon="2.73511">
        <ele>35</ele>
        <time>2024-09-04T21:02:06.585Z</time>
      </trkpt>
      <trkpt lat="50.47949" lon="2.73518">
        <ele>35</ele>
        <time>2024-09-04T21:02:13.222Z</time>
      </trkpt>
      <trkpt lat="50.47961" lon="2.73529">
        <ele>35</ele>
        <time>2024-09-04T21:02:21.999Z</time>
      </trkpt>
      <trkpt lat="50.47979" lon="2.73549">
        <ele>35</ele>
        <time>2024-09-04T21:02:35.776Z</time>
      </trkpt>
      <trkpt lat="50.47985" lon="2.73556">
        <ele>35</ele>
        <time>2024-09-04T21:02:40.512Z</time>
      </trkpt>
      <trkpt lat="50.48067" lon="2.73644">
        <ele>33</ele>
        <time>2024-09-04T21:03:44.259Z</time>
      </trkpt>
      <trkpt lat="50.48142" lon="2.73713">
        <ele>33</ele>
        <time>2024-09-04T21:04:39.740Z</time>
      </trkpt>
      <trkpt lat="50.4821" lon="2.73778">
        <ele>32.25</ele>
        <time>2024-09-04T21:05:30.708Z</time>
      </trkpt>
      <trkpt lat="50.48228" lon="2.73795">
        <ele>32.25</ele>
        <time>2024-09-04T21:05:44.069Z</time>
      </trkpt>
      <trkpt lat="50.48266" lon="2.73832">
        <ele>32.75</ele>
        <time>2024-09-04T21:06:12.830Z</time>
      </trkpt>
      <trkpt lat="50.48271" lon="2.73836">
        <ele>32.75</ele>
        <time>2024-09-04T21:06:16.464Z</time>
      </trkpt>
      <trkpt lat="50.48304" lon="2.73867">
        <ele>32.25</ele>
        <time>2024-09-04T21:06:41.347Z</time>
      </trkpt>
      <trkpt lat="50.48329" lon="2.73888">
        <ele>32</ele>
        <time>2024-09-04T21:06:59.194Z</time>
      </trkpt>
      <trkpt lat="50.48346" lon="2.73902">
        <ele>31.75</ele>
        <time>2024-09-04T21:07:11.728Z</time>
      </trkpt>
      <trkpt lat="50.48382" lon="2.7393">
        <ele>31.5</ele>
        <time>2024-09-04T21:07:37.319Z</time>
      </trkpt>
      <trkpt lat="50.48429" lon="2.73965">
        <ele>31.25</ele>
        <time>2024-09-04T21:08:10.323Z</time>
      </trkpt>
      <trkpt lat="50.48432" lon="2.73968">
        <ele>31</ele>
        <time>2024-09-04T21:08:12.668Z</time>
      </trkpt>
      <trkpt lat="50.48451" lon="2.73982">
        <ele>30.75</ele>
        <time>2024-09-04T21:08:25.964Z</time>
      </trkpt>
      <trkpt lat="50.48536" lon="2.74044">
        <ele>29.5</ele>
        <time>2024-09-04T21:09:26.290Z</time>
      </trkpt>
      <trkpt lat="50.48552" lon="2.74054">
        <ele>29.25</ele>
        <time>2024-09-04T21:09:37.187Z</time>
      </trkpt>
      <trkpt lat="50.48598" lon="2.74089">
        <ele>28.5</ele>
        <time>2024-09-04T21:10:09.871Z</time>
      </trkpt>
      <trkpt lat="50.48664" lon="2.74144">
        <ele>27</ele>
        <time>2024-09-04T21:10:57.470Z</time>
      </trkpt>
      <trkpt lat="50.48679" lon="2.74157">
        <ele>26.75</ele>
        <time>2024-09-04T21:11:08.966Z</time>
      </trkpt>
      <trkpt lat="50.48703" lon="2.74178">
        <ele>26.5</ele>
        <time>2024-09-04T21:11:26.153Z</time>
      </trkpt>
      <trkpt lat="50.48712" lon="2.74187">
        <ele>26.5</ele>
        <time>2024-09-04T21:11:33.178Z</time>
      </trkpt>
      <trkpt lat="50.48721" lon="2.74196">
        <ele>26.5</ele>
        <time>2024-09-04T21:11:39.997Z</time>
      </trkpt>
      <trkpt lat="50.48733" lon="2.74209">
        <ele>26.5</ele>
        <time>2024-09-04T21:11:49.624Z</time>
      </trkpt>
      <trkpt lat="50.48744" lon="2.7422">
        <ele>26.5</ele>
        <time>2024-09-04T21:11:57.596Z</time>
      </trkpt>
      <trkpt lat="50.48802" lon="2.74282">
        <ele>27</ele>
        <time>2024-09-04T21:12:42.678Z</time>
      </trkpt>
      <trkpt lat="50.48851" lon="2.74334">
        <ele>28</ele>
        <time>2024-09-04T21:13:20.515Z</time>
      </trkpt>
      <trkpt lat="50.4886" lon="2.74343">
        <ele>28.25</ele>
        <time>2024-09-04T21:13:27.582Z</time>
      </trkpt>
      <trkpt lat="50.4886" lon="2.74345">
        <ele>28.25</ele>
        <time>2024-09-04T21:13:28.545Z</time>
      </trkpt>
      <trkpt lat="50.48859" lon="2.7435">
        <ele>28.5</ele>
        <time>2024-09-04T21:13:30.446Z</time>
      </trkpt>
      <trkpt lat="50.4886" lon="2.74354">
        <ele>28.5</ele>
        <time>2024-09-04T21:13:32.348Z</time>
      </trkpt>
      <trkpt lat="50.48862" lon="2.74356">
        <ele>28.5</ele>
        <time>2024-09-04T21:13:33.307Z</time>
      </trkpt>
      <trkpt lat="50.48864" lon="2.74357">
        <ele>28.5</ele>
        <time>2024-09-04T21:13:34.677Z</time>
      </trkpt>
      <trkpt lat="50.48866" lon="2.74357">
        <ele>28.5</ele>
        <time>2024-09-04T21:13:36.086Z</time>
      </trkpt>
      <trkpt lat="50.48868" lon="2.74355">
        <ele>28.5</ele>
        <time>2024-09-04T21:13:37.447Z</time>
      </trkpt>
      <trkpt lat="50.48877" lon="2.74354">
        <ele>28.75</ele>
        <time>2024-09-04T21:13:43.223Z</time>
      </trkpt>
      <trkpt lat="50.48889" lon="2.74361">
        <ele>28.75</ele>
        <time>2024-09-04T21:13:51.457Z</time>
      </trkpt>
      <trkpt lat="50.48895" lon="2.74365">
        <ele>29</ele>
        <time>2024-09-04T21:13:55.453Z</time>
      </trkpt>
      <trkpt lat="50.48911" lon="2.74371">
        <ele>29.25</ele>
        <time>2024-09-04T21:14:06.386Z</time>
      </trkpt>
      <trkpt lat="50.48946" lon="2.74391">
        <ele>29.5</ele>
        <time>2024-09-04T21:14:30.006Z</time>
      </trkpt>
      <trkpt lat="50.48958" lon="2.74397">
        <ele>29.75</ele>
        <time>2024-09-04T21:14:38.119Z</time>
      </trkpt>
      <trkpt lat="50.49026" lon="2.74433">
        <ele>29.75</ele>
        <time>2024-09-04T21:15:23.988Z</time>
      </trkpt>
      <trkpt lat="50.49058" lon="2.74452">
        <ele>30</ele>
        <time>2024-09-04T21:15:46.164Z</time>
      </trkpt>
      <trkpt lat="50.49076" lon="2.74464">
        <ele>30</ele>
        <time>2024-09-04T21:15:58.371Z</time>
      </trkpt>
      <trkpt lat="50.49088" lon="2.74472">
        <ele>30.25</ele>
        <time>2024-09-04T21:16:06.647Z</time>
      </trkpt>
      <trkpt lat="50.491" lon="2.74484">
        <ele>30.5</ele>
        <time>2024-09-04T21:16:16.106Z</time>
      </trkpt>
      <trkpt lat="50.49123" lon="2.74512">
        <ele>31</ele>
        <time>2024-09-04T21:16:34.806Z</time>
      </trkpt>
      <trkpt lat="50.49131" lon="2.74523">
        <ele>31</ele>
        <time>2024-09-04T21:16:41.434Z</time>
      </trkpt>
      <trkpt lat="50.49188" lon="2.74595">
        <ele>31</ele>
        <time>2024-09-04T21:17:28.451Z</time>
      </trkpt>
      <trkpt lat="50.49221" lon="2.74638">
        <ele>31.5</ele>
        <time>2024-09-04T21:17:55.448Z</time>
      </trkpt>
      <trkpt lat="50.49296" lon="2.7474">
        <ele>32</ele>
        <time>2024-09-04T21:18:59.388Z</time>
      </trkpt>
      <trkpt lat="50.49309" lon="2.74758">
        <ele>32</ele>
        <time>2024-09-04T21:19:10.254Z</time>
      </trkpt>
      <trkpt lat="50.49318" lon="2.7477">
        <ele>32</ele>
        <time>2024-09-04T21:19:17.907Z</time>
      </trkpt>
      <trkpt lat="50.49372" lon="2.74843">
        <ele>32.5</ele>
        <time>2024-09-04T21:20:03.404Z</time>
      </trkpt>
      <trkpt lat="50.49383" lon="2.74857">
        <ele>32.25</ele>
        <time>2024-09-04T21:20:12.615Z</time>
      </trkpt>
      <trkpt lat="50.49424" lon="2.74895">
        <ele>31.5</ele>
        <time>2024-09-04T21:20:43.136Z</time>
      </trkpt>
      <trkpt lat="50.49497" lon="2.74949">
        <ele>29.75</ele>
        <time>2024-09-04T21:21:34.453Z</time>
      </trkpt>
      <trkpt lat="50.4951" lon="2.74959">
        <ele>29.5</ele>
        <time>2024-09-04T21:21:43.816Z</time>
      </trkpt>
      <trkpt lat="50.49578" lon="2.7501">
        <ele>28</ele>
        <time>2024-09-04T21:22:31.739Z</time>
      </trkpt>
      <trkpt lat="50.49597" lon="2.75025">
        <ele>28</ele>
        <time>2024-09-04T21:22:45.728Z</time>
      </trkpt>
      <trkpt lat="50.49623" lon="2.75044">
        <ele>28</ele>
        <time>2024-09-04T21:23:04.078Z</time>
      </trkpt>
      <trkpt lat="50.49679" lon="2.7509">
        <ele>28</ele>
        <time>2024-09-04T21:23:44.549Z</time>
      </trkpt>
      <trkpt lat="50.49733" lon="2.75133">
        <ele>28.5</ele>
        <time>2024-09-04T21:24:23.228Z</time>
      </trkpt>
      <trkpt lat="50.49796" lon="2.75182">
        <ele>29</ele>
        <time>2024-09-04T21:25:08.391Z</time>
      </trkpt>
      <trkpt lat="50.49861" lon="2.75221">
        <ele>29.5</ele>
        <time>2024-09-04T21:25:52.916Z</time>
      </trkpt>
      <trkpt lat="50.49953" lon="2.7526">
        <ele>30</ele>
        <time>2024-09-04T21:26:53.569Z</time>
      </trkpt>
      <trkpt lat="50.50022" lon="2.75287">
        <ele>30.25</ele>
        <time>2024-09-04T21:27:39.010Z</time>
      </trkpt>
      <trkpt lat="50.5004" lon="2.75297">
        <ele>30.5</ele>
        <time>2024-09-04T21:27:51.246Z</time>
      </trkpt>
      <trkpt lat="50.50087" lon="2.75323">
        <ele>30.75</ele>
        <time>2024-09-04T21:28:23.501Z</time>
      </trkpt>
      <trkpt lat="50.50136" lon="2.7536">
        <ele>31.5</ele>
        <time>2024-09-04T21:28:58.371Z</time>
      </trkpt>
      <trkpt lat="50.50138" lon="2.75361">
        <ele>31.5</ele>
        <time>2024-09-04T21:28:59.580Z</time>
      </trkpt>
      <trkpt lat="50.50143" lon="2.75365">
        <ele>31.5</ele>
        <time>2024-09-04T21:29:03.326Z</time>
      </trkpt>
      <trkpt lat="50.50271" lon="2.75459">
        <ele>31.75</ele>
        <time>2024-09-04T21:30:33.484Z</time>
      </trkpt>
      <trkpt lat="50.50366" lon="2.75534">
        <ele>32.5</ele>
        <time>2024-09-04T21:31:41.732Z</time>
      </trkpt>
      <trkpt lat="50.50391" lon="2.75557">
        <ele>32.25</ele>
        <time>2024-09-04T21:32:00.051Z</time>
      </trkpt>
      <trkpt lat="50.50406" lon="2.75577">
        <ele>32</ele>
        <time>2024-09-04T21:32:12.810Z</time>
      </trkpt>
      <trkpt lat="50.50431" lon="2.75608">
        <ele>31.5</ele>
        <time>2024-09-04T21:32:32.895Z</time>
      </trkpt>
      <trkpt lat="50.50504" lon="2.75716">
        <ele>30</ele>
        <time>2024-09-04T21:33:37.442Z</time>
      </trkpt>
      <trkpt lat="50.50632" lon="2.75911">
        <ele>30.75</ele>
        <time>2024-09-04T21:35:31.279Z</time>
      </trkpt>
      <trkpt lat="50.50718" lon="2.76057">
        <ele>29.5</ele>
        <time>2024-09-04T21:36:52.277Z</time>
      </trkpt>
      <trkpt lat="50.50781" lon="2.76168">
        <ele>27.75</ele>
        <time>2024-09-04T21:37:53.066Z</time>
      </trkpt>
      <trkpt lat="50.50805" lon="2.76209">
        <ele>27.75</ele>
        <time>2024-09-04T21:38:15.814Z</time>
      </trkpt>
      <trkpt lat="50.50829" lon="2.76242">
        <ele>27.75</ele>
        <time>2024-09-04T21:38:36.242Z</time>
      </trkpt>
      <trkpt lat="50.50857" lon="2.76277">
        <ele>28.25</ele>
        <time>2024-09-04T21:38:58.790Z</time>
      </trkpt>
      <trkpt lat="50.50973" lon="2.76416">
        <ele>27.25</ele>
        <time>2024-09-04T21:40:32.642Z</time>
      </trkpt>
      <trkpt lat="50.5113" lon="2.76599">
        <ele>26.75</ele>
        <time>2024-09-04T21:42:37.806Z</time>
      </trkpt>
      <trkpt lat="50.51178" lon="2.76663">
        <ele>26</ele>
        <time>2024-09-04T21:43:17.946Z</time>
      </trkpt>
      <trkpt lat="50.51201" lon="2.76705">
        <ele>26</ele>
        <time>2024-09-04T21:43:40.397Z</time>
      </trkpt>
      <trkpt lat="50.5125" lon="2.768">
        <ele>25.25</ele>
        <time>2024-09-04T21:44:30.381Z</time>
      </trkpt>
      <trkpt lat="50.51271" lon="2.76831">
        <ele>25.25</ele>
        <time>2024-09-04T21:44:48.635Z</time>
      </trkpt>
      <trkpt lat="50.513" lon="2.76872">
        <ele>25.5</ele>
        <time>2024-09-04T21:45:13.343Z</time>
      </trkpt>
      <trkpt lat="50.51335" lon="2.76908">
        <ele>26</ele>
        <time>2024-09-04T21:45:40.538Z</time>
      </trkpt>
      <trkpt lat="50.51382" lon="2.76961">
        <ele>26</ele>
        <time>2024-09-04T21:46:17.433Z</time>
      </trkpt>
      <trkpt lat="50.51409" lon="2.76996">
        <ele>26</ele>
        <time>2024-09-04T21:46:39.811Z</time>
      </trkpt>
      <trkpt lat="50.51431" lon="2.77029">
        <ele>26</ele>
        <time>2024-09-04T21:46:59.276Z</time>
      </trkpt>
      <trkpt lat="50.51456" lon="2.77069">
        <ele>26</ele>
        <time>2024-09-04T21:47:22.269Z</time>
      </trkpt>
      <trkpt lat="50.51478" lon="2.77107">
        <ele>25.5</ele>
        <time>2024-09-04T21:47:43.006Z</time>
      </trkpt>
      <trkpt lat="50.51518" lon="2.77191">
        <ele>25</ele>
        <time>2024-09-04T21:48:26.005Z</time>
      </trkpt>
      <trkpt lat="50.51541" lon="2.77228">
        <ele>25.25</ele>
        <time>2024-09-04T21:48:47.011Z</time>
      </trkpt>
      <trkpt lat="50.51563" lon="2.77246">
        <ele>25.75</ele>
        <time>2024-09-04T21:49:02.491Z</time>
      </trkpt>
      <trkpt lat="50.5158" lon="2.77254">
        <ele>25.75</ele>
        <time>2024-09-04T21:49:14.108Z</time>
      </trkpt>
      <trkpt lat="50.51599" lon="2.77255">
        <ele>26</ele>
        <time>2024-09-04T21:49:25.957Z</time>
      </trkpt>
      <trkpt lat="50.51611" lon="2.77252">
        <ele>26.25</ele>
        <time>2024-09-04T21:49:33.736Z</time>
      </trkpt>
      <trkpt lat="50.51622" lon="2.77247">
        <ele>26.25</ele>
        <time>2024-09-04T21:49:41.157Z</time>
      </trkpt>
      <trkpt lat="50.51657" lon="2.77249">
        <ele>26.75</ele>
        <time>2024-09-04T21:50:03.323Z</time>
      </trkpt>
      <trkpt lat="50.5168" lon="2.77396">
        <ele>26</ele>
        <time>2024-09-04T21:51:05.146Z</time>
      </trkpt>
      <trkpt lat="50.51687" lon="2.77439">
        <ele>26</ele>
        <time>2024-09-04T21:51:22.797Z</time>
      </trkpt>
      <trkpt lat="50.51692" lon="2.77474">
        <ele>25.75</ele>
        <time>2024-09-04T21:51:37.631Z</time>
      </trkpt>
      <trkpt lat="50.51718" lon="2.77434">
        <ele>26.25</ele>
        <time>2024-09-04T21:52:00.970Z</time>
      </trkpt>
      <trkpt lat="50.51737" lon="2.77415">
        <ele>26.75</ele>
        <time>2024-09-04T21:52:15.175Z</time>
      </trkpt>
      <trkpt lat="50.51823" lon="2.77322">
        <ele>26.25</ele>
        <time>2024-09-04T21:53:22.219Z</time>
      </trkpt>
      <trkpt lat="50.52006" lon="2.77152">
        <ele>25.75</ele>
        <time>2024-09-04T21:55:38.133Z</time>
      </trkpt>
      <trkpt lat="50.52024" lon="2.77139">
        <ele>26</ele>
        <time>2024-09-04T21:55:50.730Z</time>
      </trkpt>
      <trkpt lat="50.52053" lon="2.77135">
        <ele>26.75</ele>
        <time>2024-09-04T21:56:09.323Z</time>
      </trkpt>
      <trkpt lat="50.52096" lon="2.77138">
        <ele>27.5</ele>
        <time>2024-09-04T21:56:36.620Z</time>
      </trkpt>
      <trkpt lat="50.52113" lon="2.77139">
        <ele>27</ele>
        <time>2024-09-04T21:56:48.103Z</time>
      </trkpt>
      <trkpt lat="50.52122" lon="2.77141">
        <ele>27</ele>
        <time>2024-09-04T21:56:53.765Z</time>
      </trkpt>
      <trkpt lat="50.52159" lon="2.77146">
        <ele>26.25</ele>
        <time>2024-09-04T21:57:17.413Z</time>
      </trkpt>
      <trkpt lat="50.52169" lon="2.77146">
        <ele>26</ele>
        <time>2024-09-04T21:57:23.689Z</time>
      </trkpt>
      <trkpt lat="50.52176" lon="2.77151">
        <ele>26</ele>
        <time>2024-09-04T21:57:28.649Z</time>
      </trkpt>
      <trkpt lat="50.52183" lon="2.77158">
        <ele>25.75</ele>
        <time>2024-09-04T21:57:33.798Z</time>
      </trkpt>
      <trkpt lat="50.52198" lon="2.7718">
        <ele>25.5</ele>
        <time>2024-09-04T21:57:46.826Z</time>
      </trkpt>
      <trkpt lat="50.522" lon="2.77183">
        <ele>25.5</ele>
        <time>2024-09-04T21:57:49.017Z</time>
      </trkpt>
      <trkpt lat="50.52226" lon="2.77216">
        <ele>25.25</ele>
        <time>2024-09-04T21:58:10.132Z</time>
      </trkpt>
      <trkpt lat="50.52444" lon="2.77447">
        <ele>25.25</ele>
        <time>2024-09-04T22:00:58.828Z</time>
      </trkpt>
      <trkpt lat="50.52554" lon="2.77601">
        <ele>26.5</ele>
        <time>2024-09-04T22:02:32.939Z</time>
      </trkpt>
      <trkpt lat="50.52733" lon="2.77632">
        <ele>26.5</ele>
        <time>2024-09-04T22:04:27.786Z</time>
      </trkpt>
      <trkpt lat="50.5274" lon="2.77634">
        <ele>26.5</ele>
        <time>2024-09-04T22:04:32.524Z</time>
      </trkpt>
      <trkpt lat="50.52767" lon="2.77639">
        <ele>26.5</ele>
        <time>2024-09-04T22:04:49.966Z</time>
      </trkpt>
      <trkpt lat="50.52789" lon="2.77645">
        <ele>26.5</ele>
        <time>2024-09-04T22:05:04.100Z</time>
      </trkpt>
      <trkpt lat="50.5282" lon="2.7767">
        <ele>27</ele>
        <time>2024-09-04T22:05:26.839Z</time>
      </trkpt>
      <trkpt lat="50.52882" lon="2.77726">
        <ele>26.25</ele>
        <time>2024-09-04T22:06:12.153Z</time>
      </trkpt>
      <trkpt lat="50.5291" lon="2.77737">
        <ele>26</ele>
        <time>2024-09-04T22:06:30.794Z</time>
      </trkpt>
      <trkpt lat="50.5302" lon="2.77769">
        <ele>26.25</ele>
        <time>2024-09-04T22:07:42.254Z</time>
      </trkpt>
      <trkpt lat="50.53025" lon="2.77768">
        <ele>26.5</ele>
        <time>2024-09-04T22:07:45.717Z</time>
      </trkpt>
      <trkpt lat="50.53051" lon="2.77632">
        <ele>26</ele>
        <time>2024-09-04T22:08:43.618Z</time>
      </trkpt>
      <trkpt lat="50.53054" lon="2.77619">
        <ele>26</ele>
        <time>2024-09-04T22:08:49.376Z</time>
      </trkpt>
      <trkpt lat="50.53082" lon="2.7755">
        <ele>25.5</ele>
        <time>2024-09-04T22:09:22.622Z</time>
      </trkpt>
      <trkpt lat="50.53094" lon="2.77527">
        <ele>25</ele>
        <time>2024-09-04T22:09:34.596Z</time>
      </trkpt>
      <trkpt lat="50.53213" lon="2.77349">
        <ele>27.25</ele>
        <time>2024-09-04T22:11:19.920Z</time>
      </trkpt>
      <trkpt lat="50.53227" lon="2.77326">
        <ele>27.5</ele>
        <time>2024-09-04T22:11:32.850Z</time>
      </trkpt>
      <trkpt lat="50.53293" lon="2.77206">
        <ele>27.25</ele>
        <time>2024-09-04T22:12:37.500Z</time>
      </trkpt>
      <trkpt lat="50.53311" lon="2.77182">
        <ele>27.25</ele>
        <time>2024-09-04T22:12:52.252Z</time>
      </trkpt>
      <trkpt lat="50.53313" lon="2.7718">
        <ele>27</ele>
        <time>2024-09-04T22:12:54.237Z</time>
      </trkpt>
      <trkpt lat="50.53323" lon="2.77176">
        <ele>27</ele>
        <time>2024-09-04T22:13:00.608Z</time>
      </trkpt>
      <trkpt lat="50.53352" lon="2.77171">
        <ele>27</ele>
        <time>2024-09-04T22:13:19.128Z</time>
      </trkpt>
      <trkpt lat="50.53361" lon="2.77167">
        <ele>27.25</ele>
        <time>2024-09-04T22:13:25.558Z</time>
      </trkpt>
      <trkpt lat="50.53366" lon="2.77163">
        <ele>27.25</ele>
        <time>2024-09-04T22:13:28.771Z</time>
      </trkpt>
      <trkpt lat="50.5337" lon="2.77157">
        <ele>27.25</ele>
        <time>2024-09-04T22:13:32.221Z</time>
      </trkpt>
      <trkpt lat="50.53398" lon="2.77104">
        <ele>27.25</ele>
        <time>2024-09-04T22:14:00.648Z</time>
      </trkpt>
      <trkpt lat="50.53461" lon="2.7698">
        <ele>27.25</ele>
        <time>2024-09-04T22:15:04.777Z</time>
      </trkpt>
      <trkpt lat="50.53472" lon="2.76953">
        <ele>27.25</ele>
        <time>2024-09-04T22:15:17.828Z</time>
      </trkpt>
      <trkpt lat="50.53478" lon="2.76937">
        <ele>27</ele>
        <time>2024-09-04T22:15:25.613Z</time>
      </trkpt>
      <trkpt lat="50.53479" lon="2.76931">
        <ele>27</ele>
        <time>2024-09-04T22:15:28.138Z</time>
      </trkpt>
      <trkpt lat="50.53485" lon="2.76939">
        <ele>27</ele>
        <time>2024-09-04T22:15:33.598Z</time>
      </trkpt>
      <trkpt lat="50.53514" lon="2.7698">
        <ele>27.5</ele>
        <time>2024-09-04T22:15:58.539Z</time>
      </trkpt>
      <trkpt lat="50.53548" lon="2.77016">
        <ele>27.25</ele>
        <time>2024-09-04T22:16:24.726Z</time>
      </trkpt>
      <trkpt lat="50.53593" lon="2.77061">
        <ele>26.75</ele>
        <time>2024-09-04T22:16:58.841Z</time>
      </trkpt>
      <trkpt lat="50.53656" lon="2.77127">
        <ele>26.5</ele>
        <time>2024-09-04T22:17:47.199Z</time>
      </trkpt>
      <trkpt lat="50.53683" lon="2.77164">
        <ele>26.25</ele>
        <time>2024-09-04T22:18:10.328Z</time>
      </trkpt>
      <trkpt lat="50.5375" lon="2.77251">
        <ele>25</ele>
        <time>2024-09-04T22:19:06.025Z</time>
      </trkpt>
      <trkpt lat="50.53839" lon="2.77373">
        <ele>23.75</ele>
        <time>2024-09-04T22:20:21.431Z</time>
      </trkpt>
      <trkpt lat="50.53871" lon="2.77413">
        <ele>23.75</ele>
        <time>2024-09-04T22:20:47.522Z</time>
      </trkpt>
      <trkpt lat="50.53906" lon="2.77455">
        <ele>24.75</ele>
        <time>2024-09-04T22:21:16.060Z</time>
      </trkpt>
      <trkpt lat="50.53931" lon="2.77488">
        <ele>24</ele>
        <time>2024-09-04T22:21:36.474Z</time>
      </trkpt>
      <trkpt lat="50.53967" lon="2.77536">
        <ele>24</ele>
        <time>2024-09-04T22:22:06.707Z</time>
      </trkpt>
      <trkpt lat="50.53989" lon="2.77572">
        <ele>23.25</ele>
        <time>2024-09-04T22:22:27.206Z</time>
      </trkpt>
      <trkpt lat="50.54009" lon="2.77609">
        <ele>23</ele>
        <time>2024-09-04T22:22:46.876Z</time>
      </trkpt>
      <trkpt lat="50.54134" lon="2.77844">
        <ele>23.75</ele>
        <time>2024-09-04T22:24:51.822Z</time>
      </trkpt>
      <trkpt lat="50.5417" lon="2.77912">
        <ele>22.75</ele>
        <time>2024-09-04T22:25:27.510Z</time>
      </trkpt>
      <trkpt lat="50.54242" lon="2.78053">
        <ele>22</ele>
        <time>2024-09-04T22:26:41.318Z</time>
      </trkpt>
      <trkpt lat="50.5426" lon="2.78079">
        <ele>21.5</ele>
        <time>2024-09-04T22:26:56.967Z</time>
      </trkpt>
      <trkpt lat="50.54292" lon="2.78112">
        <ele>21.25</ele>
        <time>2024-09-04T22:27:21.149Z</time>
      </trkpt>
      <trkpt lat="50.54324" lon="2.78147">
        <ele>20.75</ele>
        <time>2024-09-04T22:27:46.491Z</time>
      </trkpt>
      <trkpt lat="50.5434" lon="2.78168">
        <ele>20.75</ele>
        <time>2024-09-04T22:27:59.987Z</time>
      </trkpt>
      <trkpt lat="50.54358" lon="2.78196">
        <ele>20.75</ele>
        <time>2024-09-04T22:28:16.003Z</time>
      </trkpt>
      <trkpt lat="50.54369" lon="2.78211">
        <ele>20.5</ele>
        <time>2024-09-04T22:28:25.109Z</time>
      </trkpt>
      <trkpt lat="50.54396" lon="2.78262">
        <ele>20.5</ele>
        <time>2024-09-04T22:28:52.197Z</time>
      </trkpt>
      <trkpt lat="50.54399" lon="2.78276">
        <ele>20.75</ele>
        <time>2024-09-04T22:28:58.075Z</time>
      </trkpt>
      <trkpt lat="50.54403" lon="2.78285">
        <ele>20.75</ele>
        <time>2024-09-04T22:29:02.300Z</time>
      </trkpt>
      <trkpt lat="50.54408" lon="2.78293">
        <ele>20.75</ele>
        <time>2024-09-04T22:29:07.264Z</time>
      </trkpt>
      <trkpt lat="50.54413" lon="2.783">
        <ele>20.5</ele>
        <time>2024-09-04T22:29:11.603Z</time>
      </trkpt>
      <trkpt lat="50.54433" lon="2.7834">
        <ele>20.75</ele>
        <time>2024-09-04T22:29:32.004Z</time>
      </trkpt>
      <trkpt lat="50.54463" lon="2.78403">
        <ele>21.25</ele>
        <time>2024-09-04T22:30:04.187Z</time>
      </trkpt>
      <trkpt lat="50.54543" lon="2.78546">
        <ele>21.25</ele>
        <time>2024-09-04T22:31:21.833Z</time>
      </trkpt>
      <trkpt lat="50.54576" lon="2.78607">
        <ele>21.75</ele>
        <time>2024-09-04T22:31:54.260Z</time>
      </trkpt>
      <trkpt lat="50.54582" lon="2.78618">
        <ele>21.75</ele>
        <time>2024-09-04T22:32:00.241Z</time>
      </trkpt>
      <trkpt lat="50.54584" lon="2.78624">
        <ele>21.75</ele>
        <time>2024-09-04T22:32:02.664Z</time>
      </trkpt>
      <trkpt lat="50.54614" lon="2.78605">
        <ele>20.75</ele>
        <time>2024-09-04T22:32:23.382Z</time>
      </trkpt>
      <trkpt lat="50.54615" lon="2.7861">
        <ele>21</ele>
        <time>2024-09-04T22:32:25.633Z</time>
      </trkpt>
      <trkpt lat="50.5462" lon="2.78621">
        <ele>21</ele>
        <time>2024-09-04T22:32:31.255Z</time>
      </trkpt>
      <trkpt lat="50.54709" lon="2.78767">
        <ele>20.5</ele>
        <time>2024-09-04T22:33:53.343Z</time>
      </trkpt>
      <trkpt lat="50.54777" lon="2.78856">
        <ele>20.75</ele>
        <time>2024-09-04T22:34:49.816Z</time>
      </trkpt>
      <trkpt lat="50.54782" lon="2.78863">
        <ele>20.75</ele>
        <time>2024-09-04T22:34:54.144Z</time>
      </trkpt>
      <trkpt lat="50.54782" lon="2.78863">
        <ele>20.75</ele>
        <time>2024-09-04T22:34:54.221Z</time>
      </trkpt>
      <trkpt lat="50.54799" lon="2.78885">
        <ele>20.75</ele>
        <time>2024-09-04T22:35:08.213Z</time>
      </trkpt>
      <trkpt lat="50.549" lon="2.79006">
        <ele>20.25</ele>
        <time>2024-09-04T22:36:44.537Z</time>
      </trkpt>
      <trkpt lat="50.5499" lon="2.79115">
        <ele>19.75</ele>
        <time>2024-09-04T22:38:09.944Z</time>
      </trkpt>
      <trkpt lat="50.55073" lon="2.79208">
        <ele>20</ele>
        <time>2024-09-04T22:39:26.540Z</time>
      </trkpt>
      <trkpt lat="50.55089" lon="2.7923">
        <ele>19.75</ele>
        <time>2024-09-04T22:39:42.833Z</time>
      </trkpt>
      <trkpt lat="50.55108" lon="2.79259">
        <ele>19.75</ele>
        <time>2024-09-04T22:40:02.974Z</time>
      </trkpt>
      <trkpt lat="50.55122" lon="2.79279">
        <ele>20</ele>
        <time>2024-09-04T22:40:17.092Z</time>
      </trkpt>
      <trkpt lat="50.55126" lon="2.79291">
        <ele>20</ele>
        <time>2024-09-04T22:40:23.454Z</time>
      </trkpt>
      <trkpt lat="50.55127" lon="2.79295">
        <ele>20.25</ele>
        <time>2024-09-04T22:40:25.829Z</time>
      </trkpt>
      <trkpt lat="50.55146" lon="2.79282">
        <ele>19.75</ele>
        <time>2024-09-04T22:40:41.362Z</time>
      </trkpt>
      <trkpt lat="50.55148" lon="2.79287">
        <ele>20</ele>
        <time>2024-09-04T22:40:44.235Z</time>
      </trkpt>
      <trkpt lat="50.55171" lon="2.79363">
        <ele>20.75</ele>
        <time>2024-09-04T22:41:24.651Z</time>
      </trkpt>
      <trkpt lat="50.55191" lon="2.79459">
        <ele>20.75</ele>
        <time>2024-09-04T22:42:13.398Z</time>
      </trkpt>
      <trkpt lat="50.55202" lon="2.79546">
        <ele>21</ele>
        <time>2024-09-04T22:42:55.618Z</time>
      </trkpt>
      <trkpt lat="50.55211" lon="2.79609">
        <ele>20.75</ele>
        <time>2024-09-04T22:43:26.561Z</time>
      </trkpt>
      <trkpt lat="50.55228" lon="2.79691">
        <ele>20.25</ele>
        <time>2024-09-04T22:44:08.109Z</time>
      </trkpt>
      <trkpt lat="50.55243" lon="2.79759">
        <ele>21</ele>
        <time>2024-09-04T22:44:42.430Z</time>
      </trkpt>
      <trkpt lat="50.55258" lon="2.79802">
        <ele>21.25</ele>
        <time>2024-09-04T22:45:06.111Z</time>
      </trkpt>
      <trkpt lat="50.55282" lon="2.79854">
        <ele>21</ele>
        <time>2024-09-04T22:45:36.679Z</time>
      </trkpt>
      <trkpt lat="50.55336" lon="2.79956">
        <ele>20.25</ele>
        <time>2024-09-04T22:46:40.077Z</time>
      </trkpt>
      <trkpt lat="50.55393" lon="2.80057">
        <ele>20</ele>
        <time>2024-09-04T22:47:45.236Z</time>
      </trkpt>
      <trkpt lat="50.55486" lon="2.80184">
        <ele>20.5</ele>
        <time>2024-09-04T22:49:18.053Z</time>
      </trkpt>
      <trkpt lat="50.55556" lon="2.80294">
        <ele>22.25</ele>
        <time>2024-09-04T22:50:32.762Z</time>
      </trkpt>
      <trkpt lat="50.55556" lon="2.80294">
        <ele>22.25</ele>
        <time>2024-09-04T22:50:32.762Z</time>
      </trkpt>
      <trkpt lat="50.55584" lon="2.80334">
        <ele>22.75</ele>
        <time>2024-09-04T23:01:28.540Z</time>
      </trkpt>
      <trkpt lat="50.55617" lon="2.80377">
        <ele>22</ele>
        <time>2024-09-04T23:01:54.291Z</time>
      </trkpt>
      <trkpt lat="50.55629" lon="2.80391">
        <ele>21.5</ele>
        <time>2024-09-04T23:02:03.638Z</time>
      </trkpt>
      <trkpt lat="50.5565" lon="2.80415">
        <ele>21.25</ele>
        <time>2024-09-04T23:02:19.122Z</time>
      </trkpt>
      <trkpt lat="50.5569" lon="2.80464">
        <ele>21.25</ele>
        <time>2024-09-04T23:02:50.068Z</time>
      </trkpt>
      <trkpt lat="50.55738" lon="2.80543">
        <ele>20.75</ele>
        <time>2024-09-04T23:03:31.758Z</time>
      </trkpt>
      <trkpt lat="50.55767" lon="2.80591">
        <ele>20.75</ele>
        <time>2024-09-04T23:03:57.271Z</time>
      </trkpt>
      <trkpt lat="50.55786" lon="2.80631">
        <ele>21.25</ele>
        <time>2024-09-04T23:04:16.556Z</time>
      </trkpt>
      <trkpt lat="50.55797" lon="2.80662">
        <ele>21.75</ele>
        <time>2024-09-04T23:04:30.124Z</time>
      </trkpt>
      <trkpt lat="50.55806" lon="2.80704">
        <ele>21.5</ele>
        <time>2024-09-04T23:04:47.386Z</time>
      </trkpt>
      <trkpt lat="50.55816" lon="2.80741">
        <ele>21.25</ele>
        <time>2024-09-04T23:05:02.461Z</time>
      </trkpt>
      <trkpt lat="50.55826" lon="2.80765">
        <ele>21.25</ele>
        <time>2024-09-04T23:05:13.492Z</time>
      </trkpt>
      <trkpt lat="50.55853" lon="2.80816">
        <ele>21.5</ele>
        <time>2024-09-04T23:05:39.121Z</time>
      </trkpt>
      <trkpt lat="50.55863" lon="2.8084">
        <ele>21.5</ele>
        <time>2024-09-04T23:05:50.217Z</time>
      </trkpt>
      <trkpt lat="50.55889" lon="2.80915">
        <ele>21.75</ele>
        <time>2024-09-04T23:06:23.260Z</time>
      </trkpt>
      <trkpt lat="50.55908" lon="2.80962">
        <ele>22.5</ele>
        <time>2024-09-04T23:06:44.474Z</time>
      </trkpt>
      <trkpt lat="50.55919" lon="2.80985">
        <ele>22.5</ele>
        <time>2024-09-04T23:06:55.489Z</time>
      </trkpt>
      <trkpt lat="50.56014" lon="2.81087">
        <ele>20</ele>
        <time>2024-09-04T23:08:05.188Z</time>
      </trkpt>
      <trkpt lat="50.56075" lon="2.81172">
        <ele>21</ele>
        <time>2024-09-04T23:08:54.229Z</time>
      </trkpt>
      <trkpt lat="50.5611" lon="2.8123">
        <ele>20.25</ele>
        <time>2024-09-04T23:09:24.901Z</time>
      </trkpt>
      <trkpt lat="50.56122" lon="2.81252">
        <ele>20</ele>
        <time>2024-09-04T23:09:36.278Z</time>
      </trkpt>
      <trkpt lat="50.5619" lon="2.81373">
        <ele>19.5</ele>
        <time>2024-09-04T23:10:38.256Z</time>
      </trkpt>
      <trkpt lat="50.56235" lon="2.81461">
        <ele>19</ele>
        <time>2024-09-04T23:11:21.493Z</time>
      </trkpt>
      <trkpt lat="50.56241" lon="2.81472">
        <ele>19</ele>
        <time>2024-09-04T23:11:27.446Z</time>
      </trkpt>
      <trkpt lat="50.56249" lon="2.81481">
        <ele>19</ele>
        <time>2024-09-04T23:11:33.245Z</time>
      </trkpt>
      <trkpt lat="50.56261" lon="2.81494">
        <ele>19</ele>
        <time>2024-09-04T23:11:41.899Z</time>
      </trkpt>
      <trkpt lat="50.56355" lon="2.81585">
        <ele>20.75</ele>
        <time>2024-09-04T23:12:49.011Z</time>
      </trkpt>
      <trkpt lat="50.56361" lon="2.81588">
        <ele>20.5</ele>
        <time>2024-09-04T23:12:52.544Z</time>
      </trkpt>
      <trkpt lat="50.56367" lon="2.81587">
        <ele>20.5</ele>
        <time>2024-09-04T23:12:56.073Z</time>
      </trkpt>
      <trkpt lat="50.56367" lon="2.81594">
        <ele>20.75</ele>
        <time>2024-09-04T23:12:58.568Z</time>
      </trkpt>
      <trkpt lat="50.56367" lon="2.81594">
        <ele>20.89</ele>
        <time>2024-09-04T23:12:58.641Z</time>
      </trkpt>
      <trkpt lat="50.56367" lon="2.81587">
        <ele>20.78</ele>
        <time>2024-09-04T23:15:51.351Z</time>
      </trkpt>
      <trkpt lat="50.56373" lon="2.81582">
        <ele>21.1</ele>
        <time>2024-09-04T23:16:06.615Z</time>
      </trkpt>
      <trkpt lat="50.56383" lon="2.8157">
        <ele>21.22</ele>
        <time>2024-09-04T23:16:21.881Z</time>
      </trkpt>
      <trkpt lat="50.56409" lon="2.81545">
        <ele>21.32</ele>
        <time>2024-09-04T23:16:37.152Z</time>
      </trkpt>
      <trkpt lat="50.56435" lon="2.81519">
        <ele>21.46</ele>
        <time>2024-09-04T23:16:52.428Z</time>
      </trkpt>
      <trkpt lat="50.56461" lon="2.81494">
        <ele>21.66</ele>
        <time>2024-09-04T23:17:07.709Z</time>
      </trkpt>
      <trkpt lat="50.56487" lon="2.81468">
        <ele>21.84</ele>
        <time>2024-09-04T23:17:22.995Z</time>
      </trkpt>
      <trkpt lat="50.56513" lon="2.81442">
        <ele>21.97</ele>
        <time>2024-09-04T23:17:38.286Z</time>
      </trkpt>
      <trkpt lat="50.56539" lon="2.81417">
        <ele>22.07</ele>
        <time>2024-09-04T23:17:53.581Z</time>
      </trkpt>
      <trkpt lat="50.56565" lon="2.81391">
        <ele>22.25</ele>
        <time>2024-09-04T23:18:08.881Z</time>
      </trkpt>
      <trkpt lat="50.56591" lon="2.81366">
        <ele>22.39</ele>
        <time>2024-09-04T23:18:24.186Z</time>
      </trkpt>
      <trkpt lat="50.56617" lon="2.8134">
        <ele>22.47</ele>
        <time>2024-09-04T23:18:39.496Z</time>
      </trkpt>
      <trkpt lat="50.56643" lon="2.81314">
        <ele>22.57</ele>
        <time>2024-09-04T23:18:54.811Z</time>
      </trkpt>
      <trkpt lat="50.56669" lon="2.81289">
        <ele>22.71</ele>
        <time>2024-09-04T23:19:10.131Z</time>
      </trkpt>
      <trkpt lat="50.56695" lon="2.81263">
        <ele>22.87</ele>
        <time>2024-09-04T23:19:25.456Z</time>
      </trkpt>
      <trkpt lat="50.5672" lon="2.81238">
        <ele>22.99</ele>
        <time>2024-09-04T23:19:40.786Z</time>
      </trkpt>
      <trkpt lat="50.56743" lon="2.81217">
        <ele>23.1</ele>
        <time>2024-09-04T23:19:56.120Z</time>
      </trkpt>
      <trkpt lat="50.56765" lon="2.81196">
        <ele>23.25</ele>
        <time>2024-09-04T23:20:11.458Z</time>
      </trkpt>
      <trkpt lat="50.56787" lon="2.81175">
        <ele>23.4</ele>
        <time>2024-09-04T23:20:26.800Z</time>
      </trkpt>
      <trkpt lat="50.5681" lon="2.81154">
        <ele>23.52</ele>
        <time>2024-09-04T23:20:42.146Z</time>
      </trkpt>
      <trkpt lat="50.56832" lon="2.81134">
        <ele>23.61</ele>
        <time>2024-09-04T23:20:57.497Z</time>
      </trkpt>
      <trkpt lat="50.56846" lon="2.81121">
        <ele>23.68</ele>
        <time>2024-09-04T23:21:12.850Z</time>
      </trkpt>
      <trkpt lat="50.56859" lon="2.81109">
        <ele>23.7</ele>
        <time>2024-09-04T23:21:28.206Z</time>
      </trkpt>
      <trkpt lat="50.56876" lon="2.81105">
        <ele>23.72</ele>
        <time>2024-09-04T23:21:43.564Z</time>
      </trkpt>
      <trkpt lat="50.56892" lon="2.811">
        <ele>23.71</ele>
        <time>2024-09-04T23:21:58.925Z</time>
      </trkpt>
      <trkpt lat="50.56907" lon="2.81093">
        <ele>23.72</ele>
        <time>2024-09-04T23:22:14.288Z</time>
      </trkpt>
      <trkpt lat="50.56929" lon="2.81077">
        <ele>23.72</ele>
        <time>2024-09-04T23:22:29.655Z</time>
      </trkpt>
      <trkpt lat="50.56946" lon="2.81066">
        <ele>23.7</ele>
        <time>2024-09-04T23:22:45.025Z</time>
      </trkpt>
      <trkpt lat="50.56963" lon="2.81055">
        <ele>23.71</ele>
        <time>2024-09-04T23:23:00.398Z</time>
      </trkpt>
      <trkpt lat="50.56981" lon="2.81048">
        <ele>23.68</ele>
        <time>2024-09-04T23:23:15.774Z</time>
      </trkpt>
      <trkpt lat="50.56999" lon="2.81041">
        <ele>23.6</ele>
        <time>2024-09-04T23:23:31.153Z</time>
      </trkpt>
      <trkpt lat="50.57023" lon="2.8103">
        <ele>23.48</ele>
        <time>2024-09-04T23:23:46.536Z</time>
      </trkpt>
      <trkpt lat="50.57034" lon="2.8103">
        <ele>23.38</ele>
        <time>2024-09-04T23:24:01.921Z</time>
      </trkpt>
      <trkpt lat="50.57047" lon="2.80989">
        <ele>23.3</ele>
        <time>2024-09-04T23:24:17.311Z</time>
      </trkpt>
      <trkpt lat="50.57055" lon="2.80958">
        <ele>23.2</ele>
        <time>2024-09-04T23:24:32.704Z</time>
      </trkpt>
      <trkpt lat="50.57063" lon="2.80927">
        <ele>23.07</ele>
        <time>2024-09-04T23:24:48.100Z</time>
      </trkpt>
      <trkpt lat="50.57073" lon="2.80884">
        <ele>22.94</ele>
        <time>2024-09-04T23:25:03.501Z</time>
      </trkpt>
      <trkpt lat="50.57074" lon="2.80876">
        <ele>22.82</ele>
        <time>2024-09-04T23:25:18.903Z</time>
      </trkpt>
      <trkpt lat="50.5708" lon="2.80876">
        <ele>22.71</ele>
        <time>2024-09-04T23:25:34.306Z</time>
      </trkpt>
      <trkpt lat="50.57107" lon="2.80869">
        <ele>22.63</ele>
        <time>2024-09-04T23:25:49.713Z</time>
      </trkpt>
      <trkpt lat="50.57136" lon="2.80861">
        <ele>22.55</ele>
        <time>2024-09-04T23:26:05.125Z</time>
      </trkpt>
      <trkpt lat="50.57164" lon="2.80852">
        <ele>22.44</ele>
        <time>2024-09-04T23:26:20.542Z</time>
      </trkpt>
      <trkpt lat="50.57193" lon="2.80843">
        <ele>22.29</ele>
        <time>2024-09-04T23:26:35.963Z</time>
      </trkpt>
      <trkpt lat="50.57221" lon="2.80835">
        <ele>22.17</ele>
        <time>2024-09-04T23:26:51.389Z</time>
      </trkpt>
      <trkpt lat="50.57245" lon="2.80831">
        <ele>22.1</ele>
        <time>2024-09-04T23:27:06.819Z</time>
      </trkpt>
      <trkpt lat="50.57263" lon="2.80832">
        <ele>21.99</ele>
        <time>2024-09-04T23:27:22.252Z</time>
      </trkpt>
      <trkpt lat="50.5728" lon="2.80833">
        <ele>21.86</ele>
        <time>2024-09-04T23:27:37.687Z</time>
      </trkpt>
      <trkpt lat="50.57308" lon="2.80833">
        <ele>21.7</ele>
        <time>2024-09-04T23:27:53.127Z</time>
      </trkpt>
      <trkpt lat="50.5733" lon="2.80832">
        <ele>21.57</ele>
        <time>2024-09-04T23:28:08.570Z</time>
      </trkpt>
      <trkpt lat="50.57351" lon="2.8083">
        <ele>21.44</ele>
        <time>2024-09-04T23:28:24.017Z</time>
      </trkpt>
      <trkpt lat="50.57372" lon="2.80829">
        <ele>21.34</ele>
        <time>2024-09-04T23:28:39.467Z</time>
      </trkpt>
      <trkpt lat="50.57399" lon="2.8083">
        <ele>21.26</ele>
        <time>2024-09-04T23:28:54.922Z</time>
      </trkpt>
      <trkpt lat="50.57427" lon="2.80831">
        <ele>21.24</ele>
        <time>2024-09-04T23:29:10.381Z</time>
      </trkpt>
      <trkpt lat="50.57454" lon="2.80831">
        <ele>21.21</ele>
        <time>2024-09-04T23:29:25.844Z</time>
      </trkpt>
      <trkpt lat="50.57482" lon="2.80832">
        <ele>21.16</ele>
        <time>2024-09-04T23:29:41.312Z</time>
      </trkpt>
      <trkpt lat="50.5751" lon="2.80833">
        <ele>21.12</ele>
        <time>2024-09-04T23:29:56.784Z</time>
      </trkpt>
      <trkpt lat="50.57538" lon="2.80835">
        <ele>21.09</ele>
        <time>2024-09-04T23:30:12.261Z</time>
      </trkpt>
      <trkpt lat="50.57566" lon="2.80836">
        <ele>21.06</ele>
        <time>2024-09-04T23:30:27.742Z</time>
      </trkpt>
      <trkpt lat="50.57594" lon="2.80838">
        <ele>21.03</ele>
        <time>2024-09-04T23:30:43.228Z</time>
      </trkpt>
      <trkpt lat="50.57623" lon="2.80839">
        <ele>21.05</ele>
        <time>2024-09-04T23:30:58.718Z</time>
      </trkpt>
      <trkpt lat="50.57652" lon="2.80838">
        <ele>21.09</ele>
        <time>2024-09-04T23:31:14.213Z</time>
      </trkpt>
      <trkpt lat="50.57681" lon="2.80838">
        <ele>21.08</ele>
        <time>2024-09-04T23:31:29.713Z</time>
      </trkpt>
      <trkpt lat="50.57707" lon="2.80836">
        <ele>21.09</ele>
        <time>2024-09-04T23:31:45.217Z</time>
      </trkpt>
      <trkpt lat="50.57734" lon="2.80834">
        <ele>21.17</ele>
        <time>2024-09-04T23:32:00.725Z</time>
      </trkpt>
      <trkpt lat="50.5776" lon="2.80832">
        <ele>21.25</ele>
        <time>2024-09-04T23:32:16.237Z</time>
      </trkpt>
      <trkpt lat="50.57786" lon="2.8083">
        <ele>21.34</ele>
        <time>2024-09-04T23:32:31.753Z</time>
      </trkpt>
      <trkpt lat="50.5781" lon="2.80823">
        <ele>21.43</ele>
        <time>2024-09-04T23:32:47.273Z</time>
      </trkpt>
      <trkpt lat="50.57835" lon="2.80815">
        <ele>21.52</ele>
        <time>2024-09-04T23:33:02.797Z</time>
      </trkpt>
      <trkpt lat="50.57859" lon="2.80808">
        <ele>21.62</ele>
        <time>2024-09-04T23:33:18.325Z</time>
      </trkpt>
      <trkpt lat="50.57872" lon="2.80804">
        <ele>21.75</ele>
        <time>2024-09-04T23:33:33.856Z</time>
      </trkpt>
      <trkpt lat="50.57896" lon="2.80799">
        <ele>21.88</ele>
        <time>2024-09-04T23:33:49.390Z</time>
      </trkpt>
      <trkpt lat="50.5792" lon="2.80793">
        <ele>21.99</ele>
        <time>2024-09-04T23:34:04.928Z</time>
      </trkpt>
      <trkpt lat="50.57934" lon="2.80788">
        <ele>22.13</ele>
        <time>2024-09-04T23:34:20.469Z</time>
      </trkpt>
      <trkpt lat="50.57962" lon="2.80775">
        <ele>22.24</ele>
        <time>2024-09-04T23:34:36.014Z</time>
      </trkpt>
      <trkpt lat="50.57987" lon="2.80764">
        <ele>22.4</ele>
        <time>2024-09-04T23:34:51.563Z</time>
      </trkpt>
      <trkpt lat="50.58012" lon="2.80756">
        <ele>22.64</ele>
        <time>2024-09-04T23:35:07.117Z</time>
      </trkpt>
      <trkpt lat="50.58037" lon="2.80748">
        <ele>22.91</ele>
        <time>2024-09-04T23:35:22.675Z</time>
      </trkpt>
      <trkpt lat="50.58062" lon="2.8074">
        <ele>23.12</ele>
        <time>2024-09-04T23:35:38.237Z</time>
      </trkpt>
      <trkpt lat="50.58085" lon="2.80733">
        <ele>23.24</ele>
        <time>2024-09-04T23:35:53.802Z</time>
      </trkpt>
      <trkpt lat="50.58108" lon="2.80726">
        <ele>23.31</ele>
        <time>2024-09-04T23:36:09.371Z</time>
      </trkpt>
      <trkpt lat="50.58131" lon="2.80718">
        <ele>23.48</ele>
        <time>2024-09-04T23:36:24.944Z</time>
      </trkpt>
      <trkpt lat="50.58158" lon="2.80711">
        <ele>23.64</ele>
        <time>2024-09-04T23:36:40.521Z</time>
      </trkpt>
      <trkpt lat="50.58171" lon="2.80709">
        <ele>23.76</ele>
        <time>2024-09-04T23:36:56.101Z</time>
      </trkpt>
      <trkpt lat="50.58186" lon="2.80708">
        <ele>23.82</ele>
        <time>2024-09-04T23:37:11.683Z</time>
      </trkpt>
      <trkpt lat="50.58199" lon="2.8071">
        <ele>23.86</ele>
        <time>2024-09-04T23:37:27.267Z</time>
      </trkpt>
      <trkpt lat="50.58211" lon="2.80712">
        <ele>23.86</ele>
        <time>2024-09-04T23:37:42.853Z</time>
      </trkpt>
      <trkpt lat="50.58231" lon="2.8072">
        <ele>23.84</ele>
        <time>2024-09-04T23:37:58.442Z</time>
      </trkpt>
      <trkpt lat="50.58254" lon="2.80732">
        <ele>23.81</ele>
        <time>2024-09-04T23:38:14.035Z</time>
      </trkpt>
      <trkpt lat="50.58277" lon="2.80744">
        <ele>23.77</ele>
        <time>2024-09-04T23:38:29.632Z</time>
      </trkpt>
      <trkpt lat="50.583" lon="2.80756">
        <ele>23.76</ele>
        <time>2024-09-04T23:38:45.233Z</time>
      </trkpt>
      <trkpt lat="50.58318" lon="2.80766">
        <ele>23.78</ele>
        <time>2024-09-04T23:39:00.837Z</time>
      </trkpt>
      <trkpt lat="50.58336" lon="2.80776">
        <ele>23.79</ele>
        <time>2024-09-04T23:39:16.444Z</time>
      </trkpt>
      <trkpt lat="50.5836" lon="2.80791">
        <ele>23.76</ele>
        <time>2024-09-04T23:39:32.055Z</time>
      </trkpt>
      <trkpt lat="50.58365" lon="2.80795">
        <ele>23.73</ele>
        <time>2024-09-04T23:39:47.667Z</time>
      </trkpt>
      <trkpt lat="50.58375" lon="2.80806">
        <ele>23.7</ele>
        <time>2024-09-04T23:40:03.281Z</time>
      </trkpt>
      <trkpt lat="50.58397" lon="2.80834">
        <ele>23.67</ele>
        <time>2024-09-04T23:40:18.899Z</time>
      </trkpt>
      <trkpt lat="50.58404" lon="2.80846">
        <ele>23.63</ele>
        <time>2024-09-04T23:40:34.519Z</time>
      </trkpt>
      <trkpt lat="50.5842" lon="2.80878">
        <ele>23.58</ele>
        <time>2024-09-04T23:40:50.143Z</time>
      </trkpt>
      <trkpt lat="50.58428" lon="2.80889">
        <ele>23.53</ele>
        <time>2024-09-04T23:41:05.769Z</time>
      </trkpt>
      <trkpt lat="50.58431" lon="2.80894">
        <ele>23.46</ele>
        <time>2024-09-04T23:41:21.396Z</time>
      </trkpt>
      <trkpt lat="50.58434" lon="2.80896">
        <ele>23.37</ele>
        <time>2024-09-04T23:41:37.023Z</time>
      </trkpt>
      <trkpt lat="50.58439" lon="2.80897">
        <ele>23.26</ele>
        <time>2024-09-04T23:41:52.651Z</time>
      </trkpt>
      <trkpt lat="50.58442" lon="2.80896">
        <ele>23.14</ele>
        <time>2024-09-04T23:42:08.280Z</time>
      </trkpt>
      <trkpt lat="50.58461" lon="2.80883">
        <ele>23</ele>
        <time>2024-09-04T23:42:23.912Z</time>
      </trkpt>
      <trkpt lat="50.58479" lon="2.80871">
        <ele>22.91</ele>
        <time>2024-09-04T23:42:39.547Z</time>
      </trkpt>
      <trkpt lat="50.5849" lon="2.80889">
        <ele>22.82</ele>
        <time>2024-09-04T23:42:55.184Z</time>
      </trkpt>
      <trkpt lat="50.58511" lon="2.80919">
        <ele>22.71</ele>
        <time>2024-09-04T23:43:10.826Z</time>
      </trkpt>
      <trkpt lat="50.58533" lon="2.80949">
        <ele>22.61</ele>
        <time>2024-09-04T23:43:26.473Z</time>
      </trkpt>
      <trkpt lat="50.58552" lon="2.80976">
        <ele>22.54</ele>
        <time>2024-09-04T23:43:42.124Z</time>
      </trkpt>
      <trkpt lat="50.5857" lon="2.81002">
        <ele>22.45</ele>
        <time>2024-09-04T23:43:57.779Z</time>
      </trkpt>
      <trkpt lat="50.58589" lon="2.81029">
        <ele>22.4</ele>
        <time>2024-09-04T23:44:13.438Z</time>
      </trkpt>
      <trkpt lat="50.58608" lon="2.81055">
        <ele>22.39</ele>
        <time>2024-09-04T23:44:29.101Z</time>
      </trkpt>
      <trkpt lat="50.58626" lon="2.81082">
        <ele>22.36</ele>
        <time>2024-09-04T23:44:44.768Z</time>
      </trkpt>
      <trkpt lat="50.58648" lon="2.81112">
        <ele>22.29</ele>
        <time>2024-09-04T23:45:00.440Z</time>
      </trkpt>
      <trkpt lat="50.5867" lon="2.81143">
        <ele>22.14</ele>
        <time>2024-09-04T23:45:16.116Z</time>
      </trkpt>
      <trkpt lat="50.58692" lon="2.81174">
        <ele>22</ele>
        <time>2024-09-04T23:45:31.797Z</time>
      </trkpt>
      <trkpt lat="50.58714" lon="2.81203">
        <ele>21.95</ele>
        <time>2024-09-04T23:45:47.483Z</time>
      </trkpt>
      <trkpt lat="50.58732" lon="2.81224">
        <ele>21.96</ele>
        <time>2024-09-04T23:46:03.172Z</time>
      </trkpt>
      <trkpt lat="50.5875" lon="2.81244">
        <ele>21.98</ele>
        <time>2024-09-04T23:46:18.865Z</time>
      </trkpt>
      <trkpt lat="50.58757" lon="2.81253">
        <ele>21.95</ele>
        <time>2024-09-04T23:46:34.559Z</time>
      </trkpt>
      <trkpt lat="50.58776" lon="2.81292">
        <ele>21.92</ele>
        <time>2024-09-04T23:46:50.258Z</time>
      </trkpt>
      <trkpt lat="50.58787" lon="2.81313">
        <ele>21.84</ele>
        <time>2024-09-04T23:47:05.960Z</time>
      </trkpt>
      <trkpt lat="50.58794" lon="2.81326">
        <ele>21.8</ele>
        <time>2024-09-04T23:47:21.664Z</time>
      </trkpt>
      <trkpt lat="50.58802" lon="2.81336">
        <ele>21.76</ele>
        <time>2024-09-04T23:47:37.369Z</time>
      </trkpt>
      <trkpt lat="50.58806" lon="2.81339">
        <ele>21.73</ele>
        <time>2024-09-04T23:47:53.075Z</time>
      </trkpt>
      <trkpt lat="50.58809" lon="2.81342">
        <ele>21.7</ele>
        <time>2024-09-04T23:48:08.782Z</time>
      </trkpt>
      <trkpt lat="50.58818" lon="2.81345">
        <ele>21.66</ele>
        <time>2024-09-04T23:48:24.490Z</time>
      </trkpt>
      <trkpt lat="50.58844" lon="2.81346">
        <ele>21.6</ele>
        <time>2024-09-04T23:48:40.202Z</time>
      </trkpt>
      <trkpt lat="50.58853" lon="2.81348">
        <ele>21.61</ele>
        <time>2024-09-04T23:48:55.916Z</time>
      </trkpt>
      <trkpt lat="50.58875" lon="2.81361">
        <ele>21.63</ele>
        <time>2024-09-04T23:49:11.633Z</time>
      </trkpt>
      <trkpt lat="50.58897" lon="2.81373">
        <ele>21.67</ele>
        <time>2024-09-04T23:49:27.354Z</time>
      </trkpt>
      <trkpt lat="50.58919" lon="2.81387">
        <ele>21.71</ele>
        <time>2024-09-04T23:49:43.079Z</time>
      </trkpt>
      <trkpt lat="50.58942" lon="2.81401">
        <ele>21.8</ele>
        <time>2024-09-04T23:49:58.808Z</time>
      </trkpt>
      <trkpt lat="50.58964" lon="2.81415">
        <ele>21.85</ele>
        <time>2024-09-04T23:50:14.541Z</time>
      </trkpt>
      <trkpt lat="50.58983" lon="2.8143">
        <ele>21.9</ele>
        <time>2024-09-04T23:50:30.277Z</time>
      </trkpt>
      <trkpt lat="50.58991" lon="2.81439">
        <ele>21.97</ele>
        <time>2024-09-04T23:50:46.015Z</time>
      </trkpt>
      <trkpt lat="50.59002" lon="2.81455">
        <ele>22.05</ele>
        <time>2024-09-04T23:51:01.755Z</time>
      </trkpt>
      <trkpt lat="50.59018" lon="2.81482">
        <ele>22.15</ele>
        <time>2024-09-04T23:51:17.499Z</time>
      </trkpt>
      <trkpt lat="50.59024" lon="2.81496">
        <ele>22.24</ele>
        <time>2024-09-04T23:51:33.245Z</time>
      </trkpt>
      <trkpt lat="50.59031" lon="2.81517">
        <ele>22.35</ele>
        <time>2024-09-04T23:51:48.993Z</time>
      </trkpt>
      <trkpt lat="50.59038" lon="2.81543">
        <ele>22.46</ele>
        <time>2024-09-04T23:52:04.744Z</time>
      </trkpt>
      <trkpt lat="50.59042" lon="2.81562">
        <ele>22.56</ele>
        <time>2024-09-04T23:52:20.497Z</time>
      </trkpt>
      <trkpt lat="50.59044" lon="2.8157">
        <ele>22.65</ele>
        <time>2024-09-04T23:52:36.251Z</time>
      </trkpt>
      <trkpt lat="50.59045" lon="2.81586">
        <ele>22.77</ele>
        <time>2024-09-04T23:52:52.006Z</time>
      </trkpt>
      <trkpt lat="50.59045" lon="2.81604">
        <ele>22.86</ele>
        <time>2024-09-04T23:53:07.763Z</time>
      </trkpt>
      <trkpt lat="50.59045" lon="2.81614">
        <ele>22.96</ele>
        <time>2024-09-04T23:53:23.521Z</time>
      </trkpt>
      <trkpt lat="50.59057" lon="2.81625">
        <ele>23.02</ele>
        <time>2024-09-04T23:53:39.282Z</time>
      </trkpt>
      <trkpt lat="50.59077" lon="2.81647">
        <ele>23.14</ele>
        <time>2024-09-04T23:53:55.046Z</time>
      </trkpt>
      <trkpt lat="50.59101" lon="2.81674">
        <ele>23.3</ele>
        <time>2024-09-04T23:54:10.815Z</time>
      </trkpt>
      <trkpt lat="50.59125" lon="2.81701">
        <ele>23.43</ele>
        <time>2024-09-04T23:54:26.589Z</time>
      </trkpt>
      <trkpt lat="50.5913" lon="2.81706">
        <ele>23.56</ele>
        <time>2024-09-04T23:54:42.364Z</time>
      </trkpt>
      <trkpt lat="50.5914" lon="2.81713">
        <ele>23.71</ele>
        <time>2024-09-04T23:54:58.141Z</time>
      </trkpt>
      <trkpt lat="50.59159" lon="2.81725">
        <ele>23.85</ele>
        <time>2024-09-04T23:55:13.921Z</time>
      </trkpt>
      <trkpt lat="50.59179" lon="2.81736">
        <ele>24</ele>
        <time>2024-09-04T23:55:29.704Z</time>
      </trkpt>
      <trkpt lat="50.59186" lon="2.81742">
        <ele>24.17</ele>
        <time>2024-09-04T23:55:45.489Z</time>
      </trkpt>
      <trkpt lat="50.59201" lon="2.81758">
        <ele>24.37</ele>
        <time>2024-09-04T23:56:01.277Z</time>
      </trkpt>
      <trkpt lat="50.59219" lon="2.81781">
        <ele>24.61</ele>
        <time>2024-09-04T23:56:17.068Z</time>
      </trkpt>
      <trkpt lat="50.59238" lon="2.81803">
        <ele>24.87</ele>
        <time>2024-09-04T23:56:32.863Z</time>
      </trkpt>
      <trkpt lat="50.59256" lon="2.81826">
        <ele>25.13</ele>
        <time>2024-09-04T23:56:48.662Z</time>
      </trkpt>
      <trkpt lat="50.59276" lon="2.81849">
        <ele>25.4</ele>
        <time>2024-09-04T23:57:04.465Z</time>
      </trkpt>
      <trkpt lat="50.59296" lon="2.81872">
        <ele>25.74</ele>
        <time>2024-09-04T23:57:20.272Z</time>
      </trkpt>
      <trkpt lat="50.59321" lon="2.81902">
        <ele>26.14</ele>
        <time>2024-09-04T23:57:36.084Z</time>
      </trkpt>
      <trkpt lat="50.59346" lon="2.81932">
        <ele>26.51</ele>
        <time>2024-09-04T23:57:51.901Z</time>
      </trkpt>
      <trkpt lat="50.59371" lon="2.81962">
        <ele>26.89</ele>
        <time>2024-09-04T23:58:07.723Z</time>
      </trkpt>
      <trkpt lat="50.59375" lon="2.81969">
        <ele>27.22</ele>
        <time>2024-09-04T23:58:23.546Z</time>
      </trkpt>
      <trkpt lat="50.59378" lon="2.81975">
        <ele>27.55</ele>
        <time>2024-09-04T23:58:39.369Z</time>
      </trkpt>
      <trkpt lat="50.5938" lon="2.81987">
        <ele>27.89</ele>
        <time>2024-09-04T23:58:55.194Z</time>
      </trkpt>
      <trkpt lat="50.59381" lon="2.81999">
        <ele>28.22</ele>
        <time>2024-09-04T23:59:11.020Z</time>
      </trkpt>
      <trkpt lat="50.5938" lon="2.82023">
        <ele>28.58</ele>
        <time>2024-09-04T23:59:26.848Z</time>
      </trkpt>
      <trkpt lat="50.59381" lon="2.82032">
        <ele>28.91</ele>
        <time>2024-09-04T23:59:42.677Z</time>
      </trkpt>
      <trkpt lat="50.59383" lon="2.82041">
        <ele>29.23</ele>
        <time>2024-09-04T23:59:58.507Z</time>
      </trkpt>
      <trkpt lat="50.59389" lon="2.82056">
        <ele>29.57</ele>
        <time>2024-09-05T00:00:14.339Z</time>
      </trkpt>
      <trkpt lat="50.59403" lon="2.82078">
        <ele>29.89</ele>
        <time>2024-09-05T00:00:30.174Z</time>
      </trkpt>
      <trkpt lat="50.59409" lon="2.8209">
        <ele>30.21</ele>
        <time>2024-09-05T00:00:46.011Z</time>
      </trkpt>
      <trkpt lat="50.59417" lon="2.82106">
        <ele>28.82</ele>
        <time>2024-09-05T00:01:01.850Z</time>
      </trkpt>
      <trkpt lat="50.59427" lon="2.82131">
        <ele>30.86</ele>
        <time>2024-09-05T00:01:17.692Z</time>
      </trkpt>
      <trkpt lat="50.59437" lon="2.82155">
        <ele>29.84</ele>
        <time>2024-09-05T00:01:33.537Z</time>
      </trkpt>
      <trkpt lat="50.59441" lon="2.82163">
        <ele>30.3</ele>
        <time>2024-09-05T00:01:49.383Z</time>
      </trkpt>
      <trkpt lat="50.59454" lon="2.82195">
        <ele>31.77</ele>
        <time>2024-09-05T00:02:05.233Z</time>
      </trkpt>
      <trkpt lat="50.59467" lon="2.82227">
        <ele>31.15</ele>
        <time>2024-09-05T00:02:21.087Z</time>
      </trkpt>
      <trkpt lat="50.5947" lon="2.82236">
        <ele>31.53</ele>
        <time>2024-09-05T00:02:36.942Z</time>
      </trkpt>
      <trkpt lat="50.59474" lon="2.82252">
        <ele>31.91</ele>
        <time>2024-09-05T00:02:52.798Z</time>
      </trkpt>
      <trkpt lat="50.5948" lon="2.82281">
        <ele>32.69</ele>
        <time>2024-09-05T00:03:08.658Z</time>
      </trkpt>
      <trkpt lat="50.59487" lon="2.8231">
        <ele>32.53</ele>
        <time>2024-09-05T00:03:24.521Z</time>
      </trkpt>
      <trkpt lat="50.59488" lon="2.82316">
        <ele>32.78</ele>
        <time>2024-09-05T00:03:40.384Z</time>
      </trkpt>
      <trkpt lat="50.59495" lon="2.82349">
        <ele>33.1</ele>
        <time>2024-09-05T00:03:56.251Z</time>
      </trkpt>
      <trkpt lat="50.59502" lon="2.82381">
        <ele>33.22</ele>
        <time>2024-09-05T00:04:12.121Z</time>
      </trkpt>
      <trkpt lat="50.59502" lon="2.82388">
        <ele>33.43</ele>
        <time>2024-09-05T00:04:27.992Z</time>
      </trkpt>
      <trkpt lat="50.59502" lon="2.82393">
        <ele>33.6</ele>
        <time>2024-09-05T00:04:43.864Z</time>
      </trkpt>
      <trkpt lat="50.59506" lon="2.82406">
        <ele>33.74</ele>
        <time>2024-09-05T00:04:59.737Z</time>
      </trkpt>
      <trkpt lat="50.59508" lon="2.8241">
        <ele>33.83</ele>
        <time>2024-09-05T00:05:15.611Z</time>
      </trkpt>
      <trkpt lat="50.59513" lon="2.82415">
        <ele>33.88</ele>
        <time>2024-09-05T00:05:31.485Z</time>
      </trkpt>
      <trkpt lat="50.59513" lon="2.82416">
        <ele>33.91</ele>
        <time>2024-09-05T00:05:47.360Z</time>
      </trkpt>
      <trkpt lat="50.59515" lon="2.82421">
        <ele>33.91</ele>
        <time>2024-09-05T00:06:03.235Z</time>
      </trkpt>
      <trkpt lat="50.59522" lon="2.82439">
        <ele>33.89</ele>
        <time>2024-09-05T00:06:19.112Z</time>
      </trkpt>
      <trkpt lat="50.59532" lon="2.82458">
        <ele>33.82</ele>
        <time>2024-09-05T00:06:34.992Z</time>
      </trkpt>
      <trkpt lat="50.59535" lon="2.82463">
        <ele>33.71</ele>
        <time>2024-09-05T00:06:50.873Z</time>
      </trkpt>
      <trkpt lat="50.59544" lon="2.8248">
        <ele>33.55</ele>
        <time>2024-09-05T00:07:06.756Z</time>
      </trkpt>
      <trkpt lat="50.59549" lon="2.82491">
        <ele>33.43</ele>
        <time>2024-09-05T00:07:22.640Z</time>
      </trkpt>
      <trkpt lat="50.59553" lon="2.82505">
        <ele>33.32</ele>
        <time>2024-09-05T00:07:38.526Z</time>
      </trkpt>
      <trkpt lat="50.59558" lon="2.82534">
        <ele>33.22</ele>
        <time>2024-09-05T00:07:54.415Z</time>
      </trkpt>
      <trkpt lat="50.5956" lon="2.82544">
        <ele>33.15</ele>
        <time>2024-09-05T00:08:10.305Z</time>
      </trkpt>
      <trkpt lat="50.59562" lon="2.82553">
        <ele>33.07</ele>
        <time>2024-09-05T00:08:26.196Z</time>
      </trkpt>
      <trkpt lat="50.59574" lon="2.82576">
        <ele>32.99</ele>
        <time>2024-09-05T00:08:42.090Z</time>
      </trkpt>
      <trkpt lat="50.59576" lon="2.82579">
        <ele>32.93</ele>
        <time>2024-09-05T00:08:57.984Z</time>
      </trkpt>
      <trkpt lat="50.5958" lon="2.82583">
        <ele>32.88</ele>
        <time>2024-09-05T00:09:13.879Z</time>
      </trkpt>
      <trkpt lat="50.5957" lon="2.82596">
        <ele>32.86</ele>
        <time>2024-09-05T00:09:29.776Z</time>
      </trkpt>
      <trkpt lat="50.59549" lon="2.82621">
        <ele>32.4</ele>
        <time>2024-09-05T00:09:45.677Z</time>
      </trkpt>
      <trkpt lat="50.59527" lon="2.82646">
        <ele>32.73</ele>
        <time>2024-09-05T00:10:01.583Z</time>
      </trkpt>
      <trkpt lat="50.59511" lon="2.82669">
        <ele>32.66</ele>
        <time>2024-09-05T00:10:17.492Z</time>
      </trkpt>
      <trkpt lat="50.59498" lon="2.8269">
        <ele>32.58</ele>
        <time>2024-09-05T00:10:33.404Z</time>
      </trkpt>
      <trkpt lat="50.59487" lon="2.82712">
        <ele>32.12</ele>
        <time>2024-09-05T00:10:49.319Z</time>
      </trkpt>
      <trkpt lat="50.59475" lon="2.82734">
        <ele>32.43</ele>
        <time>2024-09-05T00:11:05.237Z</time>
      </trkpt>
      <trkpt lat="50.59458" lon="2.82768">
        <ele>32.03</ele>
        <time>2024-09-05T00:11:21.159Z</time>
      </trkpt>
      <trkpt lat="50.59442" lon="2.82803">
        <ele>32.25</ele>
        <time>2024-09-05T00:11:37.086Z</time>
      </trkpt>
      <trkpt lat="50.59433" lon="2.82822">
        <ele>32.03</ele>
        <time>2024-09-05T00:11:53.015Z</time>
      </trkpt>
      <trkpt lat="50.59437" lon="2.82827">
        <ele>31.79</ele>
        <time>2024-09-05T00:12:08.945Z</time>
      </trkpt>
      <trkpt lat="50.59454" lon="2.8285">
        <ele>31.3</ele>
        <time>2024-09-05T00:12:24.879Z</time>
      </trkpt>
      <trkpt lat="50.5947" lon="2.82873">
        <ele>31.3</ele>
        <time>2024-09-05T00:12:40.816Z</time>
      </trkpt>
      <trkpt lat="50.59477" lon="2.82881">
        <ele>31.11</ele>
        <time>2024-09-05T00:12:56.755Z</time>
      </trkpt>
      <trkpt lat="50.59485" lon="2.82895">
        <ele>30.93</ele>
        <time>2024-09-05T00:13:12.695Z</time>
      </trkpt>
      <trkpt lat="50.59502" lon="2.82925">
        <ele>30.76</ele>
        <time>2024-09-05T00:13:28.640Z</time>
      </trkpt>
      <trkpt lat="50.59505" lon="2.8293">
        <ele>30.65</ele>
        <time>2024-09-05T00:13:44.585Z</time>
      </trkpt>
      <trkpt lat="50.59516" lon="2.82944">
        <ele>30.45</ele>
        <time>2024-09-05T00:14:00.533Z</time>
      </trkpt>
      <trkpt lat="50.59513" lon="2.8295">
        <ele>30.36</ele>
        <time>2024-09-05T00:14:16.481Z</time>
      </trkpt>
    </trkseg>
  </trk>
</gpx>